<?xml version="1.0" encoding="UTF-8" standalone="no" ?>
<gpx xmlns="http://www.topografix.com/GPX/1/1" xmlns:xsi="http://www.w3.org/2001/XMLSchema-instance" xsi:schemaLocation="http://www.topografix.com/GPX/1/1 http://www.topografix.com/GPX/1/1/gpx.xsd" version="1.1" creator="VisuGPX - https://www.visugpx.com">
  <metadata>
    <name>Petit Roumagoua</name>
    <desc><![CDATA[Découverte des vallons,Gendame et Poulinière.
Départ de la carrière  du Roumagoua.
Facile.  ]]></desc>
  </metadata>
  <trk>
    <name><![CDATA[17 javier]]></name>
    <trkseg>
      <trkpt lat="43.21351" lon="5.60585">
        <ele>212</ele>
        <time>2018-01-17T08:15:50Z</time>
      </trkpt>
      <trkpt lat="43.21353" lon="5.60591">
        <ele>205</ele>
        <time>2018-01-17T08:16:02Z</time>
      </trkpt>
      <trkpt lat="43.21349" lon="5.60588">
        <ele>210</ele>
        <time>2018-01-17T08:17:04Z</time>
      </trkpt>
      <trkpt lat="43.21353" lon="5.60582">
        <ele>208</ele>
        <time>2018-01-17T08:17:10Z</time>
      </trkpt>
      <trkpt lat="43.21354" lon="5.60574">
        <ele>208</ele>
        <time>2018-01-17T08:17:16Z</time>
      </trkpt>
      <trkpt lat="43.21354" lon="5.60567">
        <ele>207</ele>
        <time>2018-01-17T08:17:22Z</time>
      </trkpt>
      <trkpt lat="43.21351" lon="5.6056">
        <ele>208</ele>
        <time>2018-01-17T08:17:28Z</time>
      </trkpt>
      <trkpt lat="43.21348" lon="5.60552">
        <ele>206</ele>
        <time>2018-01-17T08:17:38Z</time>
      </trkpt>
      <trkpt lat="43.21348" lon="5.60545">
        <ele>207</ele>
        <time>2018-01-17T08:17:44Z</time>
      </trkpt>
      <trkpt lat="43.21346" lon="5.60536">
        <ele>206</ele>
        <time>2018-01-17T08:17:52Z</time>
      </trkpt>
      <trkpt lat="43.21344" lon="5.6053">
        <ele>204</ele>
        <time>2018-01-17T08:17:56Z</time>
      </trkpt>
      <trkpt lat="43.21342" lon="5.60524">
        <ele>203</ele>
        <time>2018-01-17T08:18:00Z</time>
      </trkpt>
      <trkpt lat="43.21339" lon="5.60518">
        <ele>203</ele>
        <time>2018-01-17T08:18:04Z</time>
      </trkpt>
      <trkpt lat="43.21336" lon="5.6051">
        <ele>202</ele>
        <time>2018-01-17T08:18:10Z</time>
      </trkpt>
      <trkpt lat="43.21334" lon="5.60504">
        <ele>201</ele>
        <time>2018-01-17T08:18:16Z</time>
      </trkpt>
      <trkpt lat="43.2133" lon="5.605">
        <ele>200</ele>
        <time>2018-01-17T08:18:20Z</time>
      </trkpt>
      <trkpt lat="43.21326" lon="5.60495">
        <ele>199</ele>
        <time>2018-01-17T08:18:24Z</time>
      </trkpt>
      <trkpt lat="43.21322" lon="5.60491">
        <ele>200</ele>
        <time>2018-01-17T08:18:30Z</time>
      </trkpt>
      <trkpt lat="43.21317" lon="5.60485">
        <ele>200</ele>
        <time>2018-01-17T08:18:38Z</time>
      </trkpt>
      <trkpt lat="43.21312" lon="5.60479">
        <ele>203</ele>
        <time>2018-01-17T08:18:42Z</time>
      </trkpt>
      <trkpt lat="43.21308" lon="5.60472">
        <ele>203</ele>
        <time>2018-01-17T08:18:46Z</time>
      </trkpt>
      <trkpt lat="43.21305" lon="5.60467">
        <ele>201</ele>
        <time>2018-01-17T08:18:50Z</time>
      </trkpt>
      <trkpt lat="43.21302" lon="5.60462">
        <ele>200</ele>
        <time>2018-01-17T08:18:54Z</time>
      </trkpt>
      <trkpt lat="43.213" lon="5.60455">
        <ele>201</ele>
        <time>2018-01-17T08:18:58Z</time>
      </trkpt>
      <trkpt lat="43.21296" lon="5.60448">
        <ele>201</ele>
        <time>2018-01-17T08:19:04Z</time>
      </trkpt>
      <trkpt lat="43.21292" lon="5.6044">
        <ele>197</ele>
        <time>2018-01-17T08:19:10Z</time>
      </trkpt>
      <trkpt lat="43.21289" lon="5.60434">
        <ele>197</ele>
        <time>2018-01-17T08:19:14Z</time>
      </trkpt>
      <trkpt lat="43.21287" lon="5.60429">
        <ele>197</ele>
        <time>2018-01-17T08:19:18Z</time>
      </trkpt>
      <trkpt lat="43.21281" lon="5.60422">
        <ele>195</ele>
        <time>2018-01-17T08:19:24Z</time>
      </trkpt>
      <trkpt lat="43.21277" lon="5.60416">
        <ele>195</ele>
        <time>2018-01-17T08:19:28Z</time>
      </trkpt>
      <trkpt lat="43.21274" lon="5.6041">
        <ele>192</ele>
        <time>2018-01-17T08:19:34Z</time>
      </trkpt>
      <trkpt lat="43.2127" lon="5.60407">
        <ele>191</ele>
        <time>2018-01-17T08:19:38Z</time>
      </trkpt>
      <trkpt lat="43.21267" lon="5.60402">
        <ele>190</ele>
        <time>2018-01-17T08:19:42Z</time>
      </trkpt>
      <trkpt lat="43.21259" lon="5.60396">
        <ele>196</ele>
        <time>2018-01-17T08:19:46Z</time>
      </trkpt>
      <trkpt lat="43.21256" lon="5.60392">
        <ele>195</ele>
        <time>2018-01-17T08:19:50Z</time>
      </trkpt>
      <trkpt lat="43.21251" lon="5.60387">
        <ele>190</ele>
        <time>2018-01-17T08:19:56Z</time>
      </trkpt>
      <trkpt lat="43.21247" lon="5.60384">
        <ele>191</ele>
        <time>2018-01-17T08:20:00Z</time>
      </trkpt>
      <trkpt lat="43.21243" lon="5.60377">
        <ele>191</ele>
        <time>2018-01-17T08:20:06Z</time>
      </trkpt>
      <trkpt lat="43.21245" lon="5.6037">
        <ele>189</ele>
        <time>2018-01-17T08:20:10Z</time>
      </trkpt>
      <trkpt lat="43.2125" lon="5.6037">
        <ele>184</ele>
        <time>2018-01-17T08:20:14Z</time>
      </trkpt>
      <trkpt lat="43.21257" lon="5.60371">
        <ele>182</ele>
        <time>2018-01-17T08:20:20Z</time>
      </trkpt>
      <trkpt lat="43.21262" lon="5.60375">
        <ele>181</ele>
        <time>2018-01-17T08:20:28Z</time>
      </trkpt>
      <trkpt lat="43.21268" lon="5.60379">
        <ele>180</ele>
        <time>2018-01-17T08:20:34Z</time>
      </trkpt>
      <trkpt lat="43.21274" lon="5.60382">
        <ele>181</ele>
        <time>2018-01-17T08:20:40Z</time>
      </trkpt>
      <trkpt lat="43.21279" lon="5.60384">
        <ele>184</ele>
        <time>2018-01-17T08:20:44Z</time>
      </trkpt>
      <trkpt lat="43.21286" lon="5.60391">
        <ele>181</ele>
        <time>2018-01-17T08:20:50Z</time>
      </trkpt>
      <trkpt lat="43.2129" lon="5.60394">
        <ele>179</ele>
        <time>2018-01-17T08:20:54Z</time>
      </trkpt>
      <trkpt lat="43.21295" lon="5.60398">
        <ele>177</ele>
        <time>2018-01-17T08:20:58Z</time>
      </trkpt>
      <trkpt lat="43.213" lon="5.60402">
        <ele>176</ele>
        <time>2018-01-17T08:21:02Z</time>
      </trkpt>
      <trkpt lat="43.21307" lon="5.60404">
        <ele>180</ele>
        <time>2018-01-17T08:21:08Z</time>
      </trkpt>
      <trkpt lat="43.21311" lon="5.60408">
        <ele>181</ele>
        <time>2018-01-17T08:21:14Z</time>
      </trkpt>
      <trkpt lat="43.21317" lon="5.60412">
        <ele>181</ele>
        <time>2018-01-17T08:21:20Z</time>
      </trkpt>
      <trkpt lat="43.21323" lon="5.60415">
        <ele>180</ele>
        <time>2018-01-17T08:21:26Z</time>
      </trkpt>
      <trkpt lat="43.21328" lon="5.60419">
        <ele>178</ele>
        <time>2018-01-17T08:21:32Z</time>
      </trkpt>
      <trkpt lat="43.21332" lon="5.60423">
        <ele>177</ele>
        <time>2018-01-17T08:21:36Z</time>
      </trkpt>
      <trkpt lat="43.21337" lon="5.60425">
        <ele>175</ele>
        <time>2018-01-17T08:21:42Z</time>
      </trkpt>
      <trkpt lat="43.21341" lon="5.60429">
        <ele>175</ele>
        <time>2018-01-17T08:21:50Z</time>
      </trkpt>
      <trkpt lat="43.21347" lon="5.6043">
        <ele>178</ele>
        <time>2018-01-17T08:21:54Z</time>
      </trkpt>
      <trkpt lat="43.21352" lon="5.60434">
        <ele>176</ele>
        <time>2018-01-17T08:22:00Z</time>
      </trkpt>
      <trkpt lat="43.21357" lon="5.60436">
        <ele>177</ele>
        <time>2018-01-17T08:22:04Z</time>
      </trkpt>
      <trkpt lat="43.21361" lon="5.6044">
        <ele>177</ele>
        <time>2018-01-17T08:22:08Z</time>
      </trkpt>
      <trkpt lat="43.21365" lon="5.60443">
        <ele>176</ele>
        <time>2018-01-17T08:22:12Z</time>
      </trkpt>
      <trkpt lat="43.2137" lon="5.60446">
        <ele>175</ele>
        <time>2018-01-17T08:22:16Z</time>
      </trkpt>
      <trkpt lat="43.21375" lon="5.60448">
        <ele>177</ele>
        <time>2018-01-17T08:22:26Z</time>
      </trkpt>
      <trkpt lat="43.21378" lon="5.60453">
        <ele>178</ele>
        <time>2018-01-17T08:22:30Z</time>
      </trkpt>
      <trkpt lat="43.21382" lon="5.60458">
        <ele>179</ele>
        <time>2018-01-17T08:22:34Z</time>
      </trkpt>
      <trkpt lat="43.21387" lon="5.60462">
        <ele>180</ele>
        <time>2018-01-17T08:22:40Z</time>
      </trkpt>
      <trkpt lat="43.21392" lon="5.60464">
        <ele>179</ele>
        <time>2018-01-17T08:22:46Z</time>
      </trkpt>
      <trkpt lat="43.21399" lon="5.60463">
        <ele>180</ele>
        <time>2018-01-17T08:22:52Z</time>
      </trkpt>
      <trkpt lat="43.21405" lon="5.60462">
        <ele>181</ele>
        <time>2018-01-17T08:22:56Z</time>
      </trkpt>
      <trkpt lat="43.21411" lon="5.60461">
        <ele>179</ele>
        <time>2018-01-17T08:23:00Z</time>
      </trkpt>
      <trkpt lat="43.21417" lon="5.60459">
        <ele>180</ele>
        <time>2018-01-17T08:23:06Z</time>
      </trkpt>
      <trkpt lat="43.21423" lon="5.60459">
        <ele>178</ele>
        <time>2018-01-17T08:23:12Z</time>
      </trkpt>
      <trkpt lat="43.21428" lon="5.60457">
        <ele>177</ele>
        <time>2018-01-17T08:23:26Z</time>
      </trkpt>
      <trkpt lat="43.21432" lon="5.60454">
        <ele>179</ele>
        <time>2018-01-17T08:23:34Z</time>
      </trkpt>
      <trkpt lat="43.21437" lon="5.60453">
        <ele>178</ele>
        <time>2018-01-17T08:23:42Z</time>
      </trkpt>
      <trkpt lat="43.21443" lon="5.60452">
        <ele>176</ele>
        <time>2018-01-17T08:23:48Z</time>
      </trkpt>
      <trkpt lat="43.21448" lon="5.60453">
        <ele>176</ele>
        <time>2018-01-17T08:23:54Z</time>
      </trkpt>
      <trkpt lat="43.21454" lon="5.60454">
        <ele>171</ele>
        <time>2018-01-17T08:23:58Z</time>
      </trkpt>
      <trkpt lat="43.21459" lon="5.60454">
        <ele>168</ele>
        <time>2018-01-17T08:24:02Z</time>
      </trkpt>
      <trkpt lat="43.21464" lon="5.60456">
        <ele>169</ele>
        <time>2018-01-17T08:24:08Z</time>
      </trkpt>
      <trkpt lat="43.21469" lon="5.60454">
        <ele>170</ele>
        <time>2018-01-17T08:24:12Z</time>
      </trkpt>
      <trkpt lat="43.21474" lon="5.60454">
        <ele>170</ele>
        <time>2018-01-17T08:24:16Z</time>
      </trkpt>
      <trkpt lat="43.21478" lon="5.60454">
        <ele>169</ele>
        <time>2018-01-17T08:24:20Z</time>
      </trkpt>
      <trkpt lat="43.21483" lon="5.60454">
        <ele>169</ele>
        <time>2018-01-17T08:24:24Z</time>
      </trkpt>
      <trkpt lat="43.21489" lon="5.60455">
        <ele>168</ele>
        <time>2018-01-17T08:24:28Z</time>
      </trkpt>
      <trkpt lat="43.21496" lon="5.60454">
        <ele>170</ele>
        <time>2018-01-17T08:24:32Z</time>
      </trkpt>
      <trkpt lat="43.21501" lon="5.60455">
        <ele>170</ele>
        <time>2018-01-17T08:24:36Z</time>
      </trkpt>
      <trkpt lat="43.21506" lon="5.60455">
        <ele>169</ele>
        <time>2018-01-17T08:24:40Z</time>
      </trkpt>
      <trkpt lat="43.21513" lon="5.60456">
        <ele>170</ele>
        <time>2018-01-17T08:24:44Z</time>
      </trkpt>
      <trkpt lat="43.21518" lon="5.60459">
        <ele>168</ele>
        <time>2018-01-17T08:24:48Z</time>
      </trkpt>
      <trkpt lat="43.21524" lon="5.60461">
        <ele>168</ele>
        <time>2018-01-17T08:24:52Z</time>
      </trkpt>
      <trkpt lat="43.21529" lon="5.60462">
        <ele>168</ele>
        <time>2018-01-17T08:24:56Z</time>
      </trkpt>
      <trkpt lat="43.21534" lon="5.60465">
        <ele>169</ele>
        <time>2018-01-17T08:25:02Z</time>
      </trkpt>
      <trkpt lat="43.21538" lon="5.60467">
        <ele>166</ele>
        <time>2018-01-17T08:25:06Z</time>
      </trkpt>
      <trkpt lat="43.21542" lon="5.60469">
        <ele>166</ele>
        <time>2018-01-17T08:25:10Z</time>
      </trkpt>
      <trkpt lat="43.21547" lon="5.60469">
        <ele>166</ele>
        <time>2018-01-17T08:25:16Z</time>
      </trkpt>
      <trkpt lat="43.21553" lon="5.60467">
        <ele>169</ele>
        <time>2018-01-17T08:25:22Z</time>
      </trkpt>
      <trkpt lat="43.21558" lon="5.60462">
        <ele>172</ele>
        <time>2018-01-17T08:25:26Z</time>
      </trkpt>
      <trkpt lat="43.21563" lon="5.60459">
        <ele>171</ele>
        <time>2018-01-17T08:25:30Z</time>
      </trkpt>
      <trkpt lat="43.21567" lon="5.60457">
        <ele>172</ele>
        <time>2018-01-17T08:25:34Z</time>
      </trkpt>
      <trkpt lat="43.21573" lon="5.60455">
        <ele>172</ele>
        <time>2018-01-17T08:25:38Z</time>
      </trkpt>
      <trkpt lat="43.2158" lon="5.60451">
        <ele>169</ele>
        <time>2018-01-17T08:25:44Z</time>
      </trkpt>
      <trkpt lat="43.21585" lon="5.60448">
        <ele>164</ele>
        <time>2018-01-17T08:25:48Z</time>
      </trkpt>
      <trkpt lat="43.2159" lon="5.60445">
        <ele>165</ele>
        <time>2018-01-17T08:25:54Z</time>
      </trkpt>
      <trkpt lat="43.21597" lon="5.60444">
        <ele>163</ele>
        <time>2018-01-17T08:25:58Z</time>
      </trkpt>
      <trkpt lat="43.21602" lon="5.60441">
        <ele>161</ele>
        <time>2018-01-17T08:26:04Z</time>
      </trkpt>
      <trkpt lat="43.21604" lon="5.60433">
        <ele>161</ele>
        <time>2018-01-17T08:26:08Z</time>
      </trkpt>
      <trkpt lat="43.21609" lon="5.60429">
        <ele>162</ele>
        <time>2018-01-17T08:26:12Z</time>
      </trkpt>
      <trkpt lat="43.21614" lon="5.60422">
        <ele>164</ele>
        <time>2018-01-17T08:26:16Z</time>
      </trkpt>
      <trkpt lat="43.2162" lon="5.6042">
        <ele>162</ele>
        <time>2018-01-17T08:26:22Z</time>
      </trkpt>
      <trkpt lat="43.21625" lon="5.60418">
        <ele>159</ele>
        <time>2018-01-17T08:26:26Z</time>
      </trkpt>
      <trkpt lat="43.2163" lon="5.60412">
        <ele>162</ele>
        <time>2018-01-17T08:26:30Z</time>
      </trkpt>
      <trkpt lat="43.21633" lon="5.60407">
        <ele>164</ele>
        <time>2018-01-17T08:26:34Z</time>
      </trkpt>
      <trkpt lat="43.21637" lon="5.60402">
        <ele>163</ele>
        <time>2018-01-17T08:26:38Z</time>
      </trkpt>
      <trkpt lat="43.21642" lon="5.60397">
        <ele>164</ele>
        <time>2018-01-17T08:26:42Z</time>
      </trkpt>
      <trkpt lat="43.21647" lon="5.6039">
        <ele>164</ele>
        <time>2018-01-17T08:26:48Z</time>
      </trkpt>
      <trkpt lat="43.2165" lon="5.60386">
        <ele>164</ele>
        <time>2018-01-17T08:26:52Z</time>
      </trkpt>
      <trkpt lat="43.21654" lon="5.60382">
        <ele>165</ele>
        <time>2018-01-17T08:26:56Z</time>
      </trkpt>
      <trkpt lat="43.21657" lon="5.60377">
        <ele>166</ele>
        <time>2018-01-17T08:27:00Z</time>
      </trkpt>
      <trkpt lat="43.21659" lon="5.60368">
        <ele>167</ele>
        <time>2018-01-17T08:27:04Z</time>
      </trkpt>
      <trkpt lat="43.21661" lon="5.60361">
        <ele>169</ele>
        <time>2018-01-17T08:27:08Z</time>
      </trkpt>
      <trkpt lat="43.21664" lon="5.60355">
        <ele>169</ele>
        <time>2018-01-17T08:27:12Z</time>
      </trkpt>
      <trkpt lat="43.21666" lon="5.60348">
        <ele>170</ele>
        <time>2018-01-17T08:27:16Z</time>
      </trkpt>
      <trkpt lat="43.21665" lon="5.6034">
        <ele>173</ele>
        <time>2018-01-17T08:27:20Z</time>
      </trkpt>
      <trkpt lat="43.21667" lon="5.60332">
        <ele>174</ele>
        <time>2018-01-17T08:27:24Z</time>
      </trkpt>
      <trkpt lat="43.21668" lon="5.60325">
        <ele>175</ele>
        <time>2018-01-17T08:27:28Z</time>
      </trkpt>
      <trkpt lat="43.2167" lon="5.60316">
        <ele>174</ele>
        <time>2018-01-17T08:27:34Z</time>
      </trkpt>
      <trkpt lat="43.2167" lon="5.60308">
        <ele>177</ele>
        <time>2018-01-17T08:27:38Z</time>
      </trkpt>
      <trkpt lat="43.21671" lon="5.60302">
        <ele>180</ele>
        <time>2018-01-17T08:27:42Z</time>
      </trkpt>
      <trkpt lat="43.21675" lon="5.60294">
        <ele>180</ele>
        <time>2018-01-17T08:27:48Z</time>
      </trkpt>
      <trkpt lat="43.21678" lon="5.60286">
        <ele>180</ele>
        <time>2018-01-17T08:27:54Z</time>
      </trkpt>
      <trkpt lat="43.21682" lon="5.6028">
        <ele>178</ele>
        <time>2018-01-17T08:28:00Z</time>
      </trkpt>
      <trkpt lat="43.21687" lon="5.60275">
        <ele>177</ele>
        <time>2018-01-17T08:28:06Z</time>
      </trkpt>
      <trkpt lat="43.21691" lon="5.60271">
        <ele>178</ele>
        <time>2018-01-17T08:28:10Z</time>
      </trkpt>
      <trkpt lat="43.21696" lon="5.60266">
        <ele>178</ele>
        <time>2018-01-17T08:28:14Z</time>
      </trkpt>
      <trkpt lat="43.21701" lon="5.60265">
        <ele>173</ele>
        <time>2018-01-17T08:28:18Z</time>
      </trkpt>
      <trkpt lat="43.21706" lon="5.60263">
        <ele>177</ele>
        <time>2018-01-17T08:28:26Z</time>
      </trkpt>
      <trkpt lat="43.21712" lon="5.60262">
        <ele>175</ele>
        <time>2018-01-17T08:28:30Z</time>
      </trkpt>
      <trkpt lat="43.21719" lon="5.60259">
        <ele>175</ele>
        <time>2018-01-17T08:28:34Z</time>
      </trkpt>
      <trkpt lat="43.21725" lon="5.60257">
        <ele>175</ele>
        <time>2018-01-17T08:28:38Z</time>
      </trkpt>
      <trkpt lat="43.21731" lon="5.60256">
        <ele>174</ele>
        <time>2018-01-17T08:28:42Z</time>
      </trkpt>
      <trkpt lat="43.21736" lon="5.60254">
        <ele>176</ele>
        <time>2018-01-17T08:28:50Z</time>
      </trkpt>
      <trkpt lat="43.21741" lon="5.60253">
        <ele>174</ele>
        <time>2018-01-17T08:28:54Z</time>
      </trkpt>
      <trkpt lat="43.21746" lon="5.60251">
        <ele>173</ele>
        <time>2018-01-17T08:29:04Z</time>
      </trkpt>
      <trkpt lat="43.21753" lon="5.6025">
        <ele>173</ele>
        <time>2018-01-17T08:29:10Z</time>
      </trkpt>
      <trkpt lat="43.21758" lon="5.60251">
        <ele>171</ele>
        <time>2018-01-17T08:29:14Z</time>
      </trkpt>
      <trkpt lat="43.21763" lon="5.60252">
        <ele>172</ele>
        <time>2018-01-17T08:29:20Z</time>
      </trkpt>
      <trkpt lat="43.21768" lon="5.60256">
        <ele>171</ele>
        <time>2018-01-17T08:29:24Z</time>
      </trkpt>
      <trkpt lat="43.21772" lon="5.60261">
        <ele>170</ele>
        <time>2018-01-17T08:29:28Z</time>
      </trkpt>
      <trkpt lat="43.21779" lon="5.60267">
        <ele>172</ele>
        <time>2018-01-17T08:29:34Z</time>
      </trkpt>
      <trkpt lat="43.21784" lon="5.6027">
        <ele>173</ele>
        <time>2018-01-17T08:29:38Z</time>
      </trkpt>
      <trkpt lat="43.21788" lon="5.60272">
        <ele>175</ele>
        <time>2018-01-17T08:29:42Z</time>
      </trkpt>
      <trkpt lat="43.21793" lon="5.60274">
        <ele>176</ele>
        <time>2018-01-17T08:29:48Z</time>
      </trkpt>
      <trkpt lat="43.21799" lon="5.60278">
        <ele>174</ele>
        <time>2018-01-17T08:29:54Z</time>
      </trkpt>
      <trkpt lat="43.21804" lon="5.6028">
        <ele>176</ele>
        <time>2018-01-17T08:30:00Z</time>
      </trkpt>
      <trkpt lat="43.21809" lon="5.60282">
        <ele>178</ele>
        <time>2018-01-17T08:30:06Z</time>
      </trkpt>
      <trkpt lat="43.21815" lon="5.60285">
        <ele>181</ele>
        <time>2018-01-17T08:30:16Z</time>
      </trkpt>
      <trkpt lat="43.2182" lon="5.60286">
        <ele>183</ele>
        <time>2018-01-17T08:30:28Z</time>
      </trkpt>
      <trkpt lat="43.21825" lon="5.60287">
        <ele>187</ele>
        <time>2018-01-17T08:30:40Z</time>
      </trkpt>
      <trkpt lat="43.21831" lon="5.60289">
        <ele>186</ele>
        <time>2018-01-17T08:30:44Z</time>
      </trkpt>
      <trkpt lat="43.21837" lon="5.60285">
        <ele>191</ele>
        <time>2018-01-17T08:30:50Z</time>
      </trkpt>
      <trkpt lat="43.21842" lon="5.60283">
        <ele>189</ele>
        <time>2018-01-17T08:30:56Z</time>
      </trkpt>
      <trkpt lat="43.21847" lon="5.60284">
        <ele>187</ele>
        <time>2018-01-17T08:31:00Z</time>
      </trkpt>
      <trkpt lat="43.21852" lon="5.60289">
        <ele>184</ele>
        <time>2018-01-17T08:31:06Z</time>
      </trkpt>
      <trkpt lat="43.21857" lon="5.60291">
        <ele>182</ele>
        <time>2018-01-17T08:31:10Z</time>
      </trkpt>
      <trkpt lat="43.2186" lon="5.60296">
        <ele>182</ele>
        <time>2018-01-17T08:31:14Z</time>
      </trkpt>
      <trkpt lat="43.21868" lon="5.60296">
        <ele>184</ele>
        <time>2018-01-17T08:31:18Z</time>
      </trkpt>
      <trkpt lat="43.21872" lon="5.603">
        <ele>184</ele>
        <time>2018-01-17T08:31:24Z</time>
      </trkpt>
      <trkpt lat="43.21877" lon="5.60302">
        <ele>187</ele>
        <time>2018-01-17T08:31:28Z</time>
      </trkpt>
      <trkpt lat="43.21884" lon="5.60301">
        <ele>189</ele>
        <time>2018-01-17T08:31:36Z</time>
      </trkpt>
      <trkpt lat="43.21892" lon="5.60302">
        <ele>191</ele>
        <time>2018-01-17T08:31:42Z</time>
      </trkpt>
      <trkpt lat="43.21898" lon="5.60302">
        <ele>193</ele>
        <time>2018-01-17T08:31:46Z</time>
      </trkpt>
      <trkpt lat="43.21904" lon="5.60303">
        <ele>193</ele>
        <time>2018-01-17T08:31:54Z</time>
      </trkpt>
      <trkpt lat="43.21909" lon="5.60303">
        <ele>193</ele>
        <time>2018-01-17T08:31:58Z</time>
      </trkpt>
      <trkpt lat="43.21915" lon="5.60303">
        <ele>192</ele>
        <time>2018-01-17T08:32:02Z</time>
      </trkpt>
      <trkpt lat="43.2192" lon="5.60299">
        <ele>195</ele>
        <time>2018-01-17T08:32:08Z</time>
      </trkpt>
      <trkpt lat="43.21926" lon="5.603">
        <ele>195</ele>
        <time>2018-01-17T08:32:16Z</time>
      </trkpt>
      <trkpt lat="43.21932" lon="5.603">
        <ele>197</ele>
        <time>2018-01-17T08:32:20Z</time>
      </trkpt>
      <trkpt lat="43.21934" lon="5.60294">
        <ele>196</ele>
        <time>2018-01-17T08:32:24Z</time>
      </trkpt>
      <trkpt lat="43.21941" lon="5.6029">
        <ele>196</ele>
        <time>2018-01-17T08:32:28Z</time>
      </trkpt>
      <trkpt lat="43.21947" lon="5.6029">
        <ele>197</ele>
        <time>2018-01-17T08:32:34Z</time>
      </trkpt>
      <trkpt lat="43.21953" lon="5.60291">
        <ele>194</ele>
        <time>2018-01-17T08:32:46Z</time>
      </trkpt>
      <trkpt lat="43.21958" lon="5.60295">
        <ele>195</ele>
        <time>2018-01-17T08:32:52Z</time>
      </trkpt>
      <trkpt lat="43.21963" lon="5.60289">
        <ele>196</ele>
        <time>2018-01-17T08:32:58Z</time>
      </trkpt>
      <trkpt lat="43.21967" lon="5.60287">
        <ele>196</ele>
        <time>2018-01-17T08:33:02Z</time>
      </trkpt>
      <trkpt lat="43.21971" lon="5.6028">
        <ele>199</ele>
        <time>2018-01-17T08:33:08Z</time>
      </trkpt>
      <trkpt lat="43.2198" lon="5.60278">
        <ele>204</ele>
        <time>2018-01-17T08:33:52Z</time>
      </trkpt>
      <trkpt lat="43.21985" lon="5.60276">
        <ele>205</ele>
        <time>2018-01-17T08:33:56Z</time>
      </trkpt>
      <trkpt lat="43.21993" lon="5.60273">
        <ele>201</ele>
        <time>2018-01-17T08:34:00Z</time>
      </trkpt>
      <trkpt lat="43.21998" lon="5.6027">
        <ele>200</ele>
        <time>2018-01-17T08:34:04Z</time>
      </trkpt>
      <trkpt lat="43.22003" lon="5.60269">
        <ele>200</ele>
        <time>2018-01-17T08:34:12Z</time>
      </trkpt>
      <trkpt lat="43.22011" lon="5.60266">
        <ele>204</ele>
        <time>2018-01-17T08:34:24Z</time>
      </trkpt>
      <trkpt lat="43.2202" lon="5.60267">
        <ele>204</ele>
        <time>2018-01-17T08:34:28Z</time>
      </trkpt>
      <trkpt lat="43.22026" lon="5.60269">
        <ele>207</ele>
        <time>2018-01-17T08:34:32Z</time>
      </trkpt>
      <trkpt lat="43.22031" lon="5.60269">
        <ele>211</ele>
        <time>2018-01-17T08:34:36Z</time>
      </trkpt>
      <trkpt lat="43.22037" lon="5.60269">
        <ele>212</ele>
        <time>2018-01-17T08:34:42Z</time>
      </trkpt>
      <trkpt lat="43.22042" lon="5.60271">
        <ele>211</ele>
        <time>2018-01-17T08:34:48Z</time>
      </trkpt>
      <trkpt lat="43.22047" lon="5.60276">
        <ele>210</ele>
        <time>2018-01-17T08:34:56Z</time>
      </trkpt>
      <trkpt lat="43.22053" lon="5.60279">
        <ele>212</ele>
        <time>2018-01-17T08:35:02Z</time>
      </trkpt>
      <trkpt lat="43.22059" lon="5.60283">
        <ele>212</ele>
        <time>2018-01-17T08:35:10Z</time>
      </trkpt>
      <trkpt lat="43.22063" lon="5.60279">
        <ele>212</ele>
        <time>2018-01-17T08:35:12Z</time>
      </trkpt>
      <trkpt lat="43.22067" lon="5.6028">
        <ele>209</ele>
        <time>2018-01-17T08:35:26Z</time>
      </trkpt>
      <trkpt lat="43.22074" lon="5.60282">
        <ele>208</ele>
        <time>2018-01-17T08:35:32Z</time>
      </trkpt>
      <trkpt lat="43.2208" lon="5.60282">
        <ele>210</ele>
        <time>2018-01-17T08:35:38Z</time>
      </trkpt>
      <trkpt lat="43.22084" lon="5.60284">
        <ele>206</ele>
        <time>2018-01-17T08:35:44Z</time>
      </trkpt>
      <trkpt lat="43.22089" lon="5.60282">
        <ele>205</ele>
        <time>2018-01-17T08:35:46Z</time>
      </trkpt>
      <trkpt lat="43.22093" lon="5.60282">
        <ele>205</ele>
        <time>2018-01-17T08:35:52Z</time>
      </trkpt>
      <trkpt lat="43.22099" lon="5.6028">
        <ele>204</ele>
        <time>2018-01-17T08:36:00Z</time>
      </trkpt>
      <trkpt lat="43.22103" lon="5.60283">
        <ele>204</ele>
        <time>2018-01-17T08:36:06Z</time>
      </trkpt>
      <trkpt lat="43.22109" lon="5.60283">
        <ele>204</ele>
        <time>2018-01-17T08:36:12Z</time>
      </trkpt>
      <trkpt lat="43.22113" lon="5.60285">
        <ele>206</ele>
        <time>2018-01-17T08:36:16Z</time>
      </trkpt>
      <trkpt lat="43.22117" lon="5.60282">
        <ele>204</ele>
        <time>2018-01-17T08:36:22Z</time>
      </trkpt>
      <trkpt lat="43.22125" lon="5.60283">
        <ele>204</ele>
        <time>2018-01-17T08:36:40Z</time>
      </trkpt>
      <trkpt lat="43.22131" lon="5.60284">
        <ele>203</ele>
        <time>2018-01-17T08:36:44Z</time>
      </trkpt>
      <trkpt lat="43.22135" lon="5.60288">
        <ele>203</ele>
        <time>2018-01-17T08:36:52Z</time>
      </trkpt>
      <trkpt lat="43.2214" lon="5.60287">
        <ele>205</ele>
        <time>2018-01-17T08:37:10Z</time>
      </trkpt>
      <trkpt lat="43.22147" lon="5.6029">
        <ele>205</ele>
        <time>2018-01-17T08:39:16Z</time>
      </trkpt>
      <trkpt lat="43.22153" lon="5.60293">
        <ele>206</ele>
        <time>2018-01-17T08:39:24Z</time>
      </trkpt>
      <trkpt lat="43.22159" lon="5.60294">
        <ele>206</ele>
        <time>2018-01-17T08:39:28Z</time>
      </trkpt>
      <trkpt lat="43.22165" lon="5.60297">
        <ele>206</ele>
        <time>2018-01-17T08:39:32Z</time>
      </trkpt>
      <trkpt lat="43.22171" lon="5.60294">
        <ele>212</ele>
        <time>2018-01-17T08:39:40Z</time>
      </trkpt>
      <trkpt lat="43.22178" lon="5.60293">
        <ele>212</ele>
        <time>2018-01-17T08:39:50Z</time>
      </trkpt>
      <trkpt lat="43.22183" lon="5.60292">
        <ele>212</ele>
        <time>2018-01-17T08:39:54Z</time>
      </trkpt>
      <trkpt lat="43.22187" lon="5.60287">
        <ele>216</ele>
        <time>2018-01-17T08:39:58Z</time>
      </trkpt>
      <trkpt lat="43.22194" lon="5.60284">
        <ele>216</ele>
        <time>2018-01-17T08:40:02Z</time>
      </trkpt>
      <trkpt lat="43.22197" lon="5.60277">
        <ele>218</ele>
        <time>2018-01-17T08:40:08Z</time>
      </trkpt>
      <trkpt lat="43.22201" lon="5.60273">
        <ele>221</ele>
        <time>2018-01-17T08:40:14Z</time>
      </trkpt>
      <trkpt lat="43.22206" lon="5.6027">
        <ele>216</ele>
        <time>2018-01-17T08:40:20Z</time>
      </trkpt>
      <trkpt lat="43.22211" lon="5.60264">
        <ele>216</ele>
        <time>2018-01-17T08:40:26Z</time>
      </trkpt>
      <trkpt lat="43.22215" lon="5.6026">
        <ele>211</ele>
        <time>2018-01-17T08:40:30Z</time>
      </trkpt>
      <trkpt lat="43.2222" lon="5.60256">
        <ele>213</ele>
        <time>2018-01-17T08:40:54Z</time>
      </trkpt>
      <trkpt lat="43.22228" lon="5.60254">
        <ele>215</ele>
        <time>2018-01-17T08:41:00Z</time>
      </trkpt>
      <trkpt lat="43.22234" lon="5.60254">
        <ele>214</ele>
        <time>2018-01-17T08:41:06Z</time>
      </trkpt>
      <trkpt lat="43.22241" lon="5.60256">
        <ele>210</ele>
        <time>2018-01-17T08:41:10Z</time>
      </trkpt>
      <trkpt lat="43.22247" lon="5.60257">
        <ele>209</ele>
        <time>2018-01-17T08:41:14Z</time>
      </trkpt>
      <trkpt lat="43.22251" lon="5.60259">
        <ele>212</ele>
        <time>2018-01-17T08:41:20Z</time>
      </trkpt>
      <trkpt lat="43.22251" lon="5.60267">
        <ele>215</ele>
        <time>2018-01-17T08:41:26Z</time>
      </trkpt>
      <trkpt lat="43.22254" lon="5.60272">
        <ele>218</ele>
        <time>2018-01-17T08:41:30Z</time>
      </trkpt>
      <trkpt lat="43.2226" lon="5.60275">
        <ele>221</ele>
        <time>2018-01-17T08:41:36Z</time>
      </trkpt>
      <trkpt lat="43.22264" lon="5.60278">
        <ele>222</ele>
        <time>2018-01-17T08:41:44Z</time>
      </trkpt>
      <trkpt lat="43.22269" lon="5.60275">
        <ele>222</ele>
        <time>2018-01-17T08:41:50Z</time>
      </trkpt>
      <trkpt lat="43.22273" lon="5.6027">
        <ele>219</ele>
        <time>2018-01-17T08:41:54Z</time>
      </trkpt>
      <trkpt lat="43.22279" lon="5.60266">
        <ele>221</ele>
        <time>2018-01-17T08:41:58Z</time>
      </trkpt>
      <trkpt lat="43.22283" lon="5.60261">
        <ele>223</ele>
        <time>2018-01-17T08:42:04Z</time>
      </trkpt>
      <trkpt lat="43.22286" lon="5.60255">
        <ele>226</ele>
        <time>2018-01-17T08:42:08Z</time>
      </trkpt>
      <trkpt lat="43.22291" lon="5.60251">
        <ele>226</ele>
        <time>2018-01-17T08:42:12Z</time>
      </trkpt>
      <trkpt lat="43.22296" lon="5.60246">
        <ele>225</ele>
        <time>2018-01-17T08:42:20Z</time>
      </trkpt>
      <trkpt lat="43.22301" lon="5.60241">
        <ele>218</ele>
        <time>2018-01-17T08:42:32Z</time>
      </trkpt>
      <trkpt lat="43.22305" lon="5.60229">
        <ele>219</ele>
        <time>2018-01-17T08:42:36Z</time>
      </trkpt>
      <trkpt lat="43.22312" lon="5.60227">
        <ele>221</ele>
        <time>2018-01-17T08:42:40Z</time>
      </trkpt>
      <trkpt lat="43.22318" lon="5.60222">
        <ele>224</ele>
        <time>2018-01-17T08:42:46Z</time>
      </trkpt>
      <trkpt lat="43.22323" lon="5.60222">
        <ele>223</ele>
        <time>2018-01-17T08:42:52Z</time>
      </trkpt>
      <trkpt lat="43.22328" lon="5.60224">
        <ele>223</ele>
        <time>2018-01-17T08:43:00Z</time>
      </trkpt>
      <trkpt lat="43.22334" lon="5.60227">
        <ele>224</ele>
        <time>2018-01-17T08:43:06Z</time>
      </trkpt>
      <trkpt lat="43.22339" lon="5.60229">
        <ele>220</ele>
        <time>2018-01-17T08:43:12Z</time>
      </trkpt>
      <trkpt lat="43.22345" lon="5.6023">
        <ele>220</ele>
        <time>2018-01-17T08:43:18Z</time>
      </trkpt>
      <trkpt lat="43.22349" lon="5.60234">
        <ele>219</ele>
        <time>2018-01-17T08:43:24Z</time>
      </trkpt>
      <trkpt lat="43.22354" lon="5.60236">
        <ele>218</ele>
        <time>2018-01-17T08:43:30Z</time>
      </trkpt>
      <trkpt lat="43.22359" lon="5.60238">
        <ele>219</ele>
        <time>2018-01-17T08:43:36Z</time>
      </trkpt>
      <trkpt lat="43.22363" lon="5.6024">
        <ele>221</ele>
        <time>2018-01-17T08:43:46Z</time>
      </trkpt>
      <trkpt lat="43.22366" lon="5.60245">
        <ele>229</ele>
        <time>2018-01-17T08:45:48Z</time>
      </trkpt>
      <trkpt lat="43.22369" lon="5.6025">
        <ele>226</ele>
        <time>2018-01-17T08:50:02Z</time>
      </trkpt>
      <trkpt lat="43.2237" lon="5.6026">
        <ele>226</ele>
        <time>2018-01-17T08:50:16Z</time>
      </trkpt>
      <trkpt lat="43.22372" lon="5.60265">
        <ele>226</ele>
        <time>2018-01-17T08:50:22Z</time>
      </trkpt>
      <trkpt lat="43.22375" lon="5.6027">
        <ele>224</ele>
        <time>2018-01-17T08:50:26Z</time>
      </trkpt>
      <trkpt lat="43.22376" lon="5.60277">
        <ele>229</ele>
        <time>2018-01-17T08:50:30Z</time>
      </trkpt>
      <trkpt lat="43.22381" lon="5.6028">
        <ele>228</ele>
        <time>2018-01-17T08:50:34Z</time>
      </trkpt>
      <trkpt lat="43.22383" lon="5.60288">
        <ele>228</ele>
        <time>2018-01-17T08:50:40Z</time>
      </trkpt>
      <trkpt lat="43.22385" lon="5.60294">
        <ele>227</ele>
        <time>2018-01-17T08:50:44Z</time>
      </trkpt>
      <trkpt lat="43.22384" lon="5.60302">
        <ele>227</ele>
        <time>2018-01-17T08:50:52Z</time>
      </trkpt>
      <trkpt lat="43.22386" lon="5.60307">
        <ele>228</ele>
        <time>2018-01-17T08:51:04Z</time>
      </trkpt>
      <trkpt lat="43.22394" lon="5.60313">
        <ele>228</ele>
        <time>2018-01-17T08:51:14Z</time>
      </trkpt>
      <trkpt lat="43.22396" lon="5.6032">
        <ele>231</ele>
        <time>2018-01-17T08:51:18Z</time>
      </trkpt>
      <trkpt lat="43.22397" lon="5.60326">
        <ele>230</ele>
        <time>2018-01-17T08:51:26Z</time>
      </trkpt>
      <trkpt lat="43.22401" lon="5.60332">
        <ele>231</ele>
        <time>2018-01-17T08:51:32Z</time>
      </trkpt>
      <trkpt lat="43.22405" lon="5.6034">
        <ele>232</ele>
        <time>2018-01-17T08:51:46Z</time>
      </trkpt>
      <trkpt lat="43.22405" lon="5.60349">
        <ele>229</ele>
        <time>2018-01-17T08:51:50Z</time>
      </trkpt>
      <trkpt lat="43.2241" lon="5.60352">
        <ele>232</ele>
        <time>2018-01-17T08:51:56Z</time>
      </trkpt>
      <trkpt lat="43.22414" lon="5.60357">
        <ele>235</ele>
        <time>2018-01-17T08:52:02Z</time>
      </trkpt>
      <trkpt lat="43.2242" lon="5.60358">
        <ele>233</ele>
        <time>2018-01-17T08:52:06Z</time>
      </trkpt>
      <trkpt lat="43.22422" lon="5.60363">
        <ele>233</ele>
        <time>2018-01-17T08:52:12Z</time>
      </trkpt>
      <trkpt lat="43.2242" lon="5.60371">
        <ele>230</ele>
        <time>2018-01-17T08:52:20Z</time>
      </trkpt>
      <trkpt lat="43.22419" lon="5.60377">
        <ele>233</ele>
        <time>2018-01-17T08:52:38Z</time>
      </trkpt>
      <trkpt lat="43.22425" lon="5.6038">
        <ele>231</ele>
        <time>2018-01-17T08:52:40Z</time>
      </trkpt>
      <trkpt lat="43.2242" lon="5.60385">
        <ele>233</ele>
        <time>2018-01-17T08:52:46Z</time>
      </trkpt>
      <trkpt lat="43.22419" lon="5.60391">
        <ele>234</ele>
        <time>2018-01-17T08:52:52Z</time>
      </trkpt>
      <trkpt lat="43.22415" lon="5.60395">
        <ele>235</ele>
        <time>2018-01-17T08:52:56Z</time>
      </trkpt>
      <trkpt lat="43.22412" lon="5.60401">
        <ele>238</ele>
        <time>2018-01-17T08:53:00Z</time>
      </trkpt>
      <trkpt lat="43.22407" lon="5.604">
        <ele>242</ele>
        <time>2018-01-17T08:53:06Z</time>
      </trkpt>
      <trkpt lat="43.22401" lon="5.60402">
        <ele>243</ele>
        <time>2018-01-17T08:53:14Z</time>
      </trkpt>
      <trkpt lat="43.22397" lon="5.6041">
        <ele>245</ele>
        <time>2018-01-17T08:53:20Z</time>
      </trkpt>
      <trkpt lat="43.22393" lon="5.60414">
        <ele>248</ele>
        <time>2018-01-17T08:53:24Z</time>
      </trkpt>
      <trkpt lat="43.22394" lon="5.60421">
        <ele>252</ele>
        <time>2018-01-17T08:54:16Z</time>
      </trkpt>
      <trkpt lat="43.22393" lon="5.60427">
        <ele>253</ele>
        <time>2018-01-17T08:54:26Z</time>
      </trkpt>
      <trkpt lat="43.22394" lon="5.60435">
        <ele>255</ele>
        <time>2018-01-17T08:54:42Z</time>
      </trkpt>
      <trkpt lat="43.22397" lon="5.60443">
        <ele>261</ele>
        <time>2018-01-17T08:54:50Z</time>
      </trkpt>
      <trkpt lat="43.22396" lon="5.60449">
        <ele>264</ele>
        <time>2018-01-17T08:54:56Z</time>
      </trkpt>
      <trkpt lat="43.22398" lon="5.60455">
        <ele>261</ele>
        <time>2018-01-17T08:55:04Z</time>
      </trkpt>
      <trkpt lat="43.22401" lon="5.60461">
        <ele>261</ele>
        <time>2018-01-17T08:55:12Z</time>
      </trkpt>
      <trkpt lat="43.22403" lon="5.60467">
        <ele>264</ele>
        <time>2018-01-17T08:55:18Z</time>
      </trkpt>
      <trkpt lat="43.22405" lon="5.60474">
        <ele>264</ele>
        <time>2018-01-17T08:55:26Z</time>
      </trkpt>
      <trkpt lat="43.22409" lon="5.60478">
        <ele>263</ele>
        <time>2018-01-17T08:55:42Z</time>
      </trkpt>
      <trkpt lat="43.22413" lon="5.60483">
        <ele>262</ele>
        <time>2018-01-17T08:55:56Z</time>
      </trkpt>
      <trkpt lat="43.22416" lon="5.60489">
        <ele>260</ele>
        <time>2018-01-17T08:56:02Z</time>
      </trkpt>
      <trkpt lat="43.22418" lon="5.60495">
        <ele>261</ele>
        <time>2018-01-17T08:56:08Z</time>
      </trkpt>
      <trkpt lat="43.22423" lon="5.60502">
        <ele>259</ele>
        <time>2018-01-17T08:56:16Z</time>
      </trkpt>
      <trkpt lat="43.22428" lon="5.60503">
        <ele>263</ele>
        <time>2018-01-17T08:56:24Z</time>
      </trkpt>
      <trkpt lat="43.22432" lon="5.60506">
        <ele>265</ele>
        <time>2018-01-17T08:56:38Z</time>
      </trkpt>
      <trkpt lat="43.22437" lon="5.60509">
        <ele>264</ele>
        <time>2018-01-17T08:56:44Z</time>
      </trkpt>
      <trkpt lat="43.22441" lon="5.60514">
        <ele>265</ele>
        <time>2018-01-17T08:56:48Z</time>
      </trkpt>
      <trkpt lat="43.22446" lon="5.60517">
        <ele>267</ele>
        <time>2018-01-17T08:56:52Z</time>
      </trkpt>
      <trkpt lat="43.22451" lon="5.6052">
        <ele>268</ele>
        <time>2018-01-17T08:56:58Z</time>
      </trkpt>
      <trkpt lat="43.22458" lon="5.60522">
        <ele>268</ele>
        <time>2018-01-17T08:57:06Z</time>
      </trkpt>
      <trkpt lat="43.22467" lon="5.60521">
        <ele>269</ele>
        <time>2018-01-17T08:57:10Z</time>
      </trkpt>
      <trkpt lat="43.22466" lon="5.60528">
        <ele>263</ele>
        <time>2018-01-17T08:57:14Z</time>
      </trkpt>
      <trkpt lat="43.22471" lon="5.60529">
        <ele>263</ele>
        <time>2018-01-17T08:57:18Z</time>
      </trkpt>
      <trkpt lat="43.22475" lon="5.60535">
        <ele>263</ele>
        <time>2018-01-17T08:57:22Z</time>
      </trkpt>
      <trkpt lat="43.2248" lon="5.60538">
        <ele>263</ele>
        <time>2018-01-17T08:57:28Z</time>
      </trkpt>
      <trkpt lat="43.22484" lon="5.60542">
        <ele>263</ele>
        <time>2018-01-17T08:57:36Z</time>
      </trkpt>
      <trkpt lat="43.22489" lon="5.60545">
        <ele>261</ele>
        <time>2018-01-17T08:57:40Z</time>
      </trkpt>
      <trkpt lat="43.22492" lon="5.60549">
        <ele>264</ele>
        <time>2018-01-17T08:57:44Z</time>
      </trkpt>
      <trkpt lat="43.22497" lon="5.60554">
        <ele>265</ele>
        <time>2018-01-17T08:57:50Z</time>
      </trkpt>
      <trkpt lat="43.22502" lon="5.60559">
        <ele>268</ele>
        <time>2018-01-17T08:57:58Z</time>
      </trkpt>
      <trkpt lat="43.22506" lon="5.60566">
        <ele>270</ele>
        <time>2018-01-17T08:58:02Z</time>
      </trkpt>
      <trkpt lat="43.2251" lon="5.60567">
        <ele>271</ele>
        <time>2018-01-17T08:58:08Z</time>
      </trkpt>
      <trkpt lat="43.22512" lon="5.60574">
        <ele>270</ele>
        <time>2018-01-17T08:58:14Z</time>
      </trkpt>
      <trkpt lat="43.22515" lon="5.6058">
        <ele>272</ele>
        <time>2018-01-17T08:58:20Z</time>
      </trkpt>
      <trkpt lat="43.22521" lon="5.60583">
        <ele>275</ele>
        <time>2018-01-17T08:58:24Z</time>
      </trkpt>
      <trkpt lat="43.22526" lon="5.60585">
        <ele>274</ele>
        <time>2018-01-17T08:58:28Z</time>
      </trkpt>
      <trkpt lat="43.22532" lon="5.60587">
        <ele>267</ele>
        <time>2018-01-17T08:58:36Z</time>
      </trkpt>
      <trkpt lat="43.22538" lon="5.60583">
        <ele>272</ele>
        <time>2018-01-17T08:58:44Z</time>
      </trkpt>
      <trkpt lat="43.22543" lon="5.60586">
        <ele>269</ele>
        <time>2018-01-17T08:58:50Z</time>
      </trkpt>
      <trkpt lat="43.22545" lon="5.60591">
        <ele>271</ele>
        <time>2018-01-17T08:58:56Z</time>
      </trkpt>
      <trkpt lat="43.22549" lon="5.60596">
        <ele>270</ele>
        <time>2018-01-17T08:59:00Z</time>
      </trkpt>
      <trkpt lat="43.22553" lon="5.606">
        <ele>272</ele>
        <time>2018-01-17T08:59:04Z</time>
      </trkpt>
      <trkpt lat="43.22557" lon="5.60602">
        <ele>273</ele>
        <time>2018-01-17T08:59:08Z</time>
      </trkpt>
      <trkpt lat="43.22562" lon="5.60603">
        <ele>275</ele>
        <time>2018-01-17T08:59:24Z</time>
      </trkpt>
      <trkpt lat="43.22568" lon="5.60608">
        <ele>275</ele>
        <time>2018-01-17T08:59:36Z</time>
      </trkpt>
      <trkpt lat="43.22576" lon="5.60609">
        <ele>273</ele>
        <time>2018-01-17T08:59:40Z</time>
      </trkpt>
      <trkpt lat="43.22581" lon="5.60614">
        <ele>274</ele>
        <time>2018-01-17T08:59:44Z</time>
      </trkpt>
      <trkpt lat="43.22584" lon="5.60619">
        <ele>273</ele>
        <time>2018-01-17T08:59:48Z</time>
      </trkpt>
      <trkpt lat="43.22588" lon="5.60626">
        <ele>254</ele>
        <time>2018-01-17T08:59:56Z</time>
      </trkpt>
      <trkpt lat="43.22591" lon="5.60632">
        <ele>259</ele>
        <time>2018-01-17T09:00:00Z</time>
      </trkpt>
      <trkpt lat="43.22594" lon="5.60638">
        <ele>265</ele>
        <time>2018-01-17T09:00:04Z</time>
      </trkpt>
      <trkpt lat="43.22599" lon="5.6064">
        <ele>266</ele>
        <time>2018-01-17T09:00:06Z</time>
      </trkpt>
      <trkpt lat="43.22596" lon="5.60651">
        <ele>271</ele>
        <time>2018-01-17T09:00:10Z</time>
      </trkpt>
      <trkpt lat="43.22601" lon="5.60655">
        <ele>274</ele>
        <time>2018-01-17T09:00:16Z</time>
      </trkpt>
      <trkpt lat="43.22604" lon="5.60662">
        <ele>279</ele>
        <time>2018-01-17T09:00:24Z</time>
      </trkpt>
      <trkpt lat="43.22606" lon="5.60667">
        <ele>280</ele>
        <time>2018-01-17T09:00:28Z</time>
      </trkpt>
      <trkpt lat="43.22608" lon="5.60674">
        <ele>280</ele>
        <time>2018-01-17T09:00:32Z</time>
      </trkpt>
      <trkpt lat="43.22615" lon="5.60675">
        <ele>279</ele>
        <time>2018-01-17T09:00:38Z</time>
      </trkpt>
      <trkpt lat="43.2262" lon="5.60672">
        <ele>278</ele>
        <time>2018-01-17T09:00:44Z</time>
      </trkpt>
      <trkpt lat="43.22625" lon="5.60677">
        <ele>278</ele>
        <time>2018-01-17T09:00:52Z</time>
      </trkpt>
      <trkpt lat="43.22631" lon="5.60676">
        <ele>277</ele>
        <time>2018-01-17T09:01:00Z</time>
      </trkpt>
      <trkpt lat="43.22636" lon="5.60676">
        <ele>279</ele>
        <time>2018-01-17T09:01:10Z</time>
      </trkpt>
      <trkpt lat="43.22642" lon="5.6068">
        <ele>281</ele>
        <time>2018-01-17T09:01:16Z</time>
      </trkpt>
      <trkpt lat="43.22647" lon="5.60681">
        <ele>286</ele>
        <time>2018-01-17T09:01:22Z</time>
      </trkpt>
      <trkpt lat="43.22652" lon="5.60686">
        <ele>289</ele>
        <time>2018-01-17T09:01:26Z</time>
      </trkpt>
      <trkpt lat="43.22657" lon="5.6069">
        <ele>290</ele>
        <time>2018-01-17T09:01:32Z</time>
      </trkpt>
      <trkpt lat="43.22659" lon="5.60696">
        <ele>286</ele>
        <time>2018-01-17T09:01:38Z</time>
      </trkpt>
      <trkpt lat="43.22664" lon="5.60703">
        <ele>282</ele>
        <time>2018-01-17T09:01:44Z</time>
      </trkpt>
      <trkpt lat="43.22662" lon="5.60711">
        <ele>283</ele>
        <time>2018-01-17T09:01:50Z</time>
      </trkpt>
      <trkpt lat="43.22663" lon="5.60719">
        <ele>281</ele>
        <time>2018-01-17T09:01:56Z</time>
      </trkpt>
      <trkpt lat="43.22662" lon="5.60727">
        <ele>284</ele>
        <time>2018-01-17T09:02:00Z</time>
      </trkpt>
      <trkpt lat="43.22665" lon="5.60736">
        <ele>282</ele>
        <time>2018-01-17T09:02:08Z</time>
      </trkpt>
      <trkpt lat="43.22667" lon="5.60743">
        <ele>282</ele>
        <time>2018-01-17T09:02:12Z</time>
      </trkpt>
      <trkpt lat="43.22669" lon="5.60751">
        <ele>283</ele>
        <time>2018-01-17T09:02:18Z</time>
      </trkpt>
      <trkpt lat="43.22668" lon="5.60762">
        <ele>282</ele>
        <time>2018-01-17T09:02:22Z</time>
      </trkpt>
      <trkpt lat="43.22666" lon="5.60768">
        <ele>283</ele>
        <time>2018-01-17T09:02:24Z</time>
      </trkpt>
      <trkpt lat="43.22667" lon="5.60776">
        <ele>283</ele>
        <time>2018-01-17T09:02:32Z</time>
      </trkpt>
      <trkpt lat="43.22665" lon="5.60786">
        <ele>284</ele>
        <time>2018-01-17T09:02:36Z</time>
      </trkpt>
      <trkpt lat="43.22662" lon="5.60794">
        <ele>285</ele>
        <time>2018-01-17T09:02:42Z</time>
      </trkpt>
      <trkpt lat="43.22663" lon="5.60801">
        <ele>282</ele>
        <time>2018-01-17T09:02:52Z</time>
      </trkpt>
      <trkpt lat="43.22665" lon="5.60808">
        <ele>281</ele>
        <time>2018-01-17T09:02:58Z</time>
      </trkpt>
      <trkpt lat="43.22663" lon="5.60814">
        <ele>280</ele>
        <time>2018-01-17T09:03:02Z</time>
      </trkpt>
      <trkpt lat="43.2266" lon="5.6082">
        <ele>281</ele>
        <time>2018-01-17T09:03:06Z</time>
      </trkpt>
      <trkpt lat="43.22659" lon="5.60827">
        <ele>284</ele>
        <time>2018-01-17T09:03:12Z</time>
      </trkpt>
      <trkpt lat="43.22661" lon="5.60836">
        <ele>287</ele>
        <time>2018-01-17T09:03:20Z</time>
      </trkpt>
      <trkpt lat="43.22664" lon="5.60841">
        <ele>288</ele>
        <time>2018-01-17T09:03:24Z</time>
      </trkpt>
      <trkpt lat="43.22669" lon="5.60843">
        <ele>290</ele>
        <time>2018-01-17T09:03:30Z</time>
      </trkpt>
      <trkpt lat="43.22673" lon="5.60846">
        <ele>293</ele>
        <time>2018-01-17T09:03:34Z</time>
      </trkpt>
      <trkpt lat="43.22677" lon="5.60851">
        <ele>293</ele>
        <time>2018-01-17T09:03:40Z</time>
      </trkpt>
      <trkpt lat="43.2268" lon="5.60856">
        <ele>295</ele>
        <time>2018-01-17T09:03:46Z</time>
      </trkpt>
      <trkpt lat="43.22684" lon="5.6086">
        <ele>295</ele>
        <time>2018-01-17T09:03:50Z</time>
      </trkpt>
      <trkpt lat="43.22688" lon="5.60861">
        <ele>295</ele>
        <time>2018-01-17T09:03:54Z</time>
      </trkpt>
      <trkpt lat="43.22693" lon="5.60865">
        <ele>292</ele>
        <time>2018-01-17T09:04:00Z</time>
      </trkpt>
      <trkpt lat="43.22693" lon="5.60871">
        <ele>288</ele>
        <time>2018-01-17T09:04:08Z</time>
      </trkpt>
      <trkpt lat="43.22691" lon="5.60882">
        <ele>287</ele>
        <time>2018-01-17T09:04:14Z</time>
      </trkpt>
      <trkpt lat="43.22692" lon="5.60889">
        <ele>286</ele>
        <time>2018-01-17T09:04:20Z</time>
      </trkpt>
      <trkpt lat="43.22695" lon="5.60893">
        <ele>286</ele>
        <time>2018-01-17T09:04:26Z</time>
      </trkpt>
      <trkpt lat="43.227" lon="5.60899">
        <ele>289</ele>
        <time>2018-01-17T09:04:40Z</time>
      </trkpt>
      <trkpt lat="43.22705" lon="5.60899">
        <ele>292</ele>
        <time>2018-01-17T09:04:44Z</time>
      </trkpt>
      <trkpt lat="43.2271" lon="5.60894">
        <ele>293</ele>
        <time>2018-01-17T09:04:50Z</time>
      </trkpt>
      <trkpt lat="43.22714" lon="5.60893">
        <ele>291</ele>
        <time>2018-01-17T09:04:58Z</time>
      </trkpt>
      <trkpt lat="43.2272" lon="5.60891">
        <ele>293</ele>
        <time>2018-01-17T09:05:04Z</time>
      </trkpt>
      <trkpt lat="43.22727" lon="5.60891">
        <ele>291</ele>
        <time>2018-01-17T09:05:10Z</time>
      </trkpt>
      <trkpt lat="43.22732" lon="5.60889">
        <ele>295</ele>
        <time>2018-01-17T09:05:16Z</time>
      </trkpt>
      <trkpt lat="43.22736" lon="5.60885">
        <ele>295</ele>
        <time>2018-01-17T09:05:20Z</time>
      </trkpt>
      <trkpt lat="43.22741" lon="5.60888">
        <ele>295</ele>
        <time>2018-01-17T09:05:26Z</time>
      </trkpt>
      <trkpt lat="43.22746" lon="5.60885">
        <ele>294</ele>
        <time>2018-01-17T09:05:28Z</time>
      </trkpt>
      <trkpt lat="43.22751" lon="5.60885">
        <ele>291</ele>
        <time>2018-01-17T09:05:34Z</time>
      </trkpt>
      <trkpt lat="43.22757" lon="5.60884">
        <ele>293</ele>
        <time>2018-01-17T09:05:42Z</time>
      </trkpt>
      <trkpt lat="43.22762" lon="5.60887">
        <ele>293</ele>
        <time>2018-01-17T09:05:48Z</time>
      </trkpt>
      <trkpt lat="43.2277" lon="5.60888">
        <ele>294</ele>
        <time>2018-01-17T09:05:56Z</time>
      </trkpt>
      <trkpt lat="43.22777" lon="5.60887">
        <ele>297</ele>
        <time>2018-01-17T09:06:00Z</time>
      </trkpt>
      <trkpt lat="43.22781" lon="5.6089">
        <ele>299</ele>
        <time>2018-01-17T09:06:18Z</time>
      </trkpt>
      <trkpt lat="43.22787" lon="5.60892">
        <ele>300</ele>
        <time>2018-01-17T09:06:28Z</time>
      </trkpt>
      <trkpt lat="43.22798" lon="5.60892">
        <ele>298</ele>
        <time>2018-01-17T09:06:36Z</time>
      </trkpt>
      <trkpt lat="43.22803" lon="5.60894">
        <ele>296</ele>
        <time>2018-01-17T09:06:38Z</time>
      </trkpt>
      <trkpt lat="43.2281" lon="5.60897">
        <ele>298</ele>
        <time>2018-01-17T09:06:42Z</time>
      </trkpt>
      <trkpt lat="43.22815" lon="5.60898">
        <ele>300</ele>
        <time>2018-01-17T09:06:46Z</time>
      </trkpt>
      <trkpt lat="43.2282" lon="5.60896">
        <ele>304</ele>
        <time>2018-01-17T09:06:52Z</time>
      </trkpt>
      <trkpt lat="43.22825" lon="5.60894">
        <ele>304</ele>
        <time>2018-01-17T09:06:58Z</time>
      </trkpt>
      <trkpt lat="43.22831" lon="5.60891">
        <ele>304</ele>
        <time>2018-01-17T09:07:06Z</time>
      </trkpt>
      <trkpt lat="43.22836" lon="5.60889">
        <ele>302</ele>
        <time>2018-01-17T09:07:10Z</time>
      </trkpt>
      <trkpt lat="43.22841" lon="5.60888">
        <ele>303</ele>
        <time>2018-01-17T09:07:14Z</time>
      </trkpt>
      <trkpt lat="43.22845" lon="5.60881">
        <ele>302</ele>
        <time>2018-01-17T09:07:18Z</time>
      </trkpt>
      <trkpt lat="43.2285" lon="5.60879">
        <ele>303</ele>
        <time>2018-01-17T09:07:22Z</time>
      </trkpt>
      <trkpt lat="43.22854" lon="5.60875">
        <ele>306</ele>
        <time>2018-01-17T09:07:26Z</time>
      </trkpt>
      <trkpt lat="43.22859" lon="5.60873">
        <ele>306</ele>
        <time>2018-01-17T09:07:30Z</time>
      </trkpt>
      <trkpt lat="43.22863" lon="5.60868">
        <ele>306</ele>
        <time>2018-01-17T09:07:38Z</time>
      </trkpt>
      <trkpt lat="43.22871" lon="5.60865">
        <ele>307</ele>
        <time>2018-01-17T09:07:54Z</time>
      </trkpt>
      <trkpt lat="43.22878" lon="5.60861">
        <ele>310</ele>
        <time>2018-01-17T09:07:56Z</time>
      </trkpt>
      <trkpt lat="43.22884" lon="5.60861">
        <ele>311</ele>
        <time>2018-01-17T09:08:00Z</time>
      </trkpt>
      <trkpt lat="43.22891" lon="5.60863">
        <ele>308</ele>
        <time>2018-01-17T09:08:06Z</time>
      </trkpt>
      <trkpt lat="43.22897" lon="5.60861">
        <ele>311</ele>
        <time>2018-01-17T09:08:10Z</time>
      </trkpt>
      <trkpt lat="43.22902" lon="5.60861">
        <ele>308</ele>
        <time>2018-01-17T09:08:14Z</time>
      </trkpt>
      <trkpt lat="43.22908" lon="5.6086">
        <ele>306</ele>
        <time>2018-01-17T09:08:22Z</time>
      </trkpt>
      <trkpt lat="43.22914" lon="5.60856">
        <ele>306</ele>
        <time>2018-01-17T09:08:28Z</time>
      </trkpt>
      <trkpt lat="43.2292" lon="5.60856">
        <ele>305</ele>
        <time>2018-01-17T09:08:38Z</time>
      </trkpt>
      <trkpt lat="43.22928" lon="5.60854">
        <ele>305</ele>
        <time>2018-01-17T09:08:42Z</time>
      </trkpt>
      <trkpt lat="43.22932" lon="5.60852">
        <ele>304</ele>
        <time>2018-01-17T09:08:50Z</time>
      </trkpt>
      <trkpt lat="43.22936" lon="5.60847">
        <ele>306</ele>
        <time>2018-01-17T09:09:08Z</time>
      </trkpt>
      <trkpt lat="43.22942" lon="5.60838">
        <ele>306</ele>
        <time>2018-01-17T09:09:12Z</time>
      </trkpt>
      <trkpt lat="43.22951" lon="5.60834">
        <ele>305</ele>
        <time>2018-01-17T09:09:16Z</time>
      </trkpt>
      <trkpt lat="43.22956" lon="5.60835">
        <ele>302</ele>
        <time>2018-01-17T09:09:20Z</time>
      </trkpt>
      <trkpt lat="43.2296" lon="5.6083">
        <ele>304</ele>
        <time>2018-01-17T09:09:24Z</time>
      </trkpt>
      <trkpt lat="43.22969" lon="5.60829">
        <ele>311</ele>
        <time>2018-01-17T09:09:32Z</time>
      </trkpt>
      <trkpt lat="43.22974" lon="5.60828">
        <ele>313</ele>
        <time>2018-01-17T09:09:36Z</time>
      </trkpt>
      <trkpt lat="43.2298" lon="5.60827">
        <ele>312</ele>
        <time>2018-01-17T09:09:40Z</time>
      </trkpt>
      <trkpt lat="43.22985" lon="5.60826">
        <ele>314</ele>
        <time>2018-01-17T09:09:46Z</time>
      </trkpt>
      <trkpt lat="43.2299" lon="5.60825">
        <ele>314</ele>
        <time>2018-01-17T09:09:52Z</time>
      </trkpt>
      <trkpt lat="43.22995" lon="5.60824">
        <ele>315</ele>
        <time>2018-01-17T09:09:58Z</time>
      </trkpt>
      <trkpt lat="43.23004" lon="5.60821">
        <ele>312</ele>
        <time>2018-01-17T09:10:02Z</time>
      </trkpt>
      <trkpt lat="43.23009" lon="5.60823">
        <ele>313</ele>
        <time>2018-01-17T09:10:08Z</time>
      </trkpt>
      <trkpt lat="43.23015" lon="5.60824">
        <ele>311</ele>
        <time>2018-01-17T09:10:20Z</time>
      </trkpt>
      <trkpt lat="43.23019" lon="5.60828">
        <ele>309</ele>
        <time>2018-01-17T09:10:26Z</time>
      </trkpt>
      <trkpt lat="43.23026" lon="5.60827">
        <ele>309</ele>
        <time>2018-01-17T09:10:32Z</time>
      </trkpt>
      <trkpt lat="43.23033" lon="5.60825">
        <ele>311</ele>
        <time>2018-01-17T09:10:38Z</time>
      </trkpt>
      <trkpt lat="43.23038" lon="5.60827">
        <ele>310</ele>
        <time>2018-01-17T09:10:42Z</time>
      </trkpt>
      <trkpt lat="43.23043" lon="5.60827">
        <ele>308</ele>
        <time>2018-01-17T09:10:50Z</time>
      </trkpt>
      <trkpt lat="43.2305" lon="5.60826">
        <ele>308</ele>
        <time>2018-01-17T09:10:54Z</time>
      </trkpt>
      <trkpt lat="43.23057" lon="5.60827">
        <ele>312</ele>
        <time>2018-01-17T09:11:10Z</time>
      </trkpt>
      <trkpt lat="43.23061" lon="5.60824">
        <ele>314</ele>
        <time>2018-01-17T09:11:18Z</time>
      </trkpt>
      <trkpt lat="43.23067" lon="5.60827">
        <ele>312</ele>
        <time>2018-01-17T09:11:30Z</time>
      </trkpt>
      <trkpt lat="43.23074" lon="5.60826">
        <ele>315</ele>
        <time>2018-01-17T09:11:34Z</time>
      </trkpt>
      <trkpt lat="43.2308" lon="5.60826">
        <ele>314</ele>
        <time>2018-01-17T09:11:38Z</time>
      </trkpt>
      <trkpt lat="43.23085" lon="5.60825">
        <ele>312</ele>
        <time>2018-01-17T09:11:42Z</time>
      </trkpt>
      <trkpt lat="43.23091" lon="5.60826">
        <ele>313</ele>
        <time>2018-01-17T09:11:46Z</time>
      </trkpt>
      <trkpt lat="43.23097" lon="5.60825">
        <ele>314</ele>
        <time>2018-01-17T09:11:50Z</time>
      </trkpt>
      <trkpt lat="43.23104" lon="5.60822">
        <ele>316</ele>
        <time>2018-01-17T09:11:56Z</time>
      </trkpt>
      <trkpt lat="43.23108" lon="5.6083">
        <ele>315</ele>
        <time>2018-01-17T09:12:06Z</time>
      </trkpt>
      <trkpt lat="43.23114" lon="5.60824">
        <ele>314</ele>
        <time>2018-01-17T09:12:10Z</time>
      </trkpt>
      <trkpt lat="43.2312" lon="5.60828">
        <ele>317</ele>
        <time>2018-01-17T09:12:14Z</time>
      </trkpt>
      <trkpt lat="43.23125" lon="5.60829">
        <ele>318</ele>
        <time>2018-01-17T09:12:20Z</time>
      </trkpt>
      <trkpt lat="43.2313" lon="5.60828">
        <ele>318</ele>
        <time>2018-01-17T09:12:26Z</time>
      </trkpt>
      <trkpt lat="43.23135" lon="5.60824">
        <ele>319</ele>
        <time>2018-01-17T09:12:34Z</time>
      </trkpt>
      <trkpt lat="43.23139" lon="5.60817">
        <ele>318</ele>
        <time>2018-01-17T09:12:46Z</time>
      </trkpt>
      <trkpt lat="43.23143" lon="5.60814">
        <ele>318</ele>
        <time>2018-01-17T09:12:52Z</time>
      </trkpt>
      <trkpt lat="43.23147" lon="5.60811">
        <ele>318</ele>
        <time>2018-01-17T09:12:56Z</time>
      </trkpt>
      <trkpt lat="43.23151" lon="5.60807">
        <ele>320</ele>
        <time>2018-01-17T09:13:00Z</time>
      </trkpt>
      <trkpt lat="43.23155" lon="5.60802">
        <ele>325</ele>
        <time>2018-01-17T09:13:04Z</time>
      </trkpt>
      <trkpt lat="43.23159" lon="5.60795">
        <ele>324</ele>
        <time>2018-01-17T09:13:12Z</time>
      </trkpt>
      <trkpt lat="43.23165" lon="5.6079">
        <ele>323</ele>
        <time>2018-01-17T09:13:18Z</time>
      </trkpt>
      <trkpt lat="43.23173" lon="5.60794">
        <ele>317</ele>
        <time>2018-01-17T09:13:24Z</time>
      </trkpt>
      <trkpt lat="43.23179" lon="5.60789">
        <ele>319</ele>
        <time>2018-01-17T09:13:32Z</time>
      </trkpt>
      <trkpt lat="43.23185" lon="5.60785">
        <ele>322</ele>
        <time>2018-01-17T09:13:38Z</time>
      </trkpt>
      <trkpt lat="43.23191" lon="5.60782">
        <ele>321</ele>
        <time>2018-01-17T09:13:46Z</time>
      </trkpt>
      <trkpt lat="43.23196" lon="5.6078">
        <ele>319</ele>
        <time>2018-01-17T09:13:52Z</time>
      </trkpt>
      <trkpt lat="43.23202" lon="5.60775">
        <ele>323</ele>
        <time>2018-01-17T09:13:58Z</time>
      </trkpt>
      <trkpt lat="43.23206" lon="5.60775">
        <ele>326</ele>
        <time>2018-01-17T09:14:04Z</time>
      </trkpt>
      <trkpt lat="43.23212" lon="5.60773">
        <ele>322</ele>
        <time>2018-01-17T09:14:10Z</time>
      </trkpt>
      <trkpt lat="43.23216" lon="5.60772">
        <ele>325</ele>
        <time>2018-01-17T09:14:18Z</time>
      </trkpt>
      <trkpt lat="43.23225" lon="5.60772">
        <ele>326</ele>
        <time>2018-01-17T09:14:24Z</time>
      </trkpt>
      <trkpt lat="43.23232" lon="5.60771">
        <ele>324</ele>
        <time>2018-01-17T09:14:30Z</time>
      </trkpt>
      <trkpt lat="43.23237" lon="5.60771">
        <ele>323</ele>
        <time>2018-01-17T09:14:38Z</time>
      </trkpt>
      <trkpt lat="43.23242" lon="5.60769">
        <ele>325</ele>
        <time>2018-01-17T09:14:44Z</time>
      </trkpt>
      <trkpt lat="43.23247" lon="5.60769">
        <ele>327</ele>
        <time>2018-01-17T09:14:52Z</time>
      </trkpt>
      <trkpt lat="43.23253" lon="5.60772">
        <ele>331</ele>
        <time>2018-01-17T09:14:58Z</time>
      </trkpt>
      <trkpt lat="43.2326" lon="5.60771">
        <ele>333</ele>
        <time>2018-01-17T09:15:04Z</time>
      </trkpt>
      <trkpt lat="43.23265" lon="5.60771">
        <ele>334</ele>
        <time>2018-01-17T09:15:08Z</time>
      </trkpt>
      <trkpt lat="43.2327" lon="5.60771">
        <ele>333</ele>
        <time>2018-01-17T09:15:14Z</time>
      </trkpt>
      <trkpt lat="43.23275" lon="5.60771">
        <ele>332</ele>
        <time>2018-01-17T09:15:18Z</time>
      </trkpt>
      <trkpt lat="43.23279" lon="5.60773">
        <ele>335</ele>
        <time>2018-01-17T09:15:22Z</time>
      </trkpt>
      <trkpt lat="43.23285" lon="5.60774">
        <ele>337</ele>
        <time>2018-01-17T09:15:26Z</time>
      </trkpt>
      <trkpt lat="43.23291" lon="5.60776">
        <ele>334</ele>
        <time>2018-01-17T09:15:32Z</time>
      </trkpt>
      <trkpt lat="43.23297" lon="5.60775">
        <ele>333</ele>
        <time>2018-01-17T09:15:50Z</time>
      </trkpt>
      <trkpt lat="43.23304" lon="5.60775">
        <ele>334</ele>
        <time>2018-01-17T09:15:54Z</time>
      </trkpt>
      <trkpt lat="43.23309" lon="5.60775">
        <ele>335</ele>
        <time>2018-01-17T09:15:58Z</time>
      </trkpt>
      <trkpt lat="43.23314" lon="5.60776">
        <ele>335</ele>
        <time>2018-01-17T09:16:06Z</time>
      </trkpt>
      <trkpt lat="43.23322" lon="5.60776">
        <ele>335</ele>
        <time>2018-01-17T09:16:24Z</time>
      </trkpt>
      <trkpt lat="43.23329" lon="5.60778">
        <ele>336</ele>
        <time>2018-01-17T09:16:28Z</time>
      </trkpt>
      <trkpt lat="43.23335" lon="5.6078">
        <ele>338</ele>
        <time>2018-01-17T09:16:32Z</time>
      </trkpt>
      <trkpt lat="43.23343" lon="5.60779">
        <ele>337</ele>
        <time>2018-01-17T09:16:36Z</time>
      </trkpt>
      <trkpt lat="43.23351" lon="5.60778">
        <ele>337</ele>
        <time>2018-01-17T09:16:42Z</time>
      </trkpt>
      <trkpt lat="43.23356" lon="5.60778">
        <ele>335</ele>
        <time>2018-01-17T09:16:48Z</time>
      </trkpt>
      <trkpt lat="43.23361" lon="5.6078">
        <ele>335</ele>
        <time>2018-01-17T09:16:52Z</time>
      </trkpt>
      <trkpt lat="43.23367" lon="5.60783">
        <ele>332</ele>
        <time>2018-01-17T09:16:58Z</time>
      </trkpt>
      <trkpt lat="43.23372" lon="5.60786">
        <ele>334</ele>
        <time>2018-01-17T09:17:04Z</time>
      </trkpt>
      <trkpt lat="43.2338" lon="5.6078">
        <ele>336</ele>
        <time>2018-01-17T09:17:10Z</time>
      </trkpt>
      <trkpt lat="43.23385" lon="5.60788">
        <ele>334</ele>
        <time>2018-01-17T09:17:16Z</time>
      </trkpt>
      <trkpt lat="43.23394" lon="5.60788">
        <ele>335</ele>
        <time>2018-01-17T09:17:22Z</time>
      </trkpt>
      <trkpt lat="43.234" lon="5.60789">
        <ele>339</ele>
        <time>2018-01-17T09:17:30Z</time>
      </trkpt>
      <trkpt lat="43.23406" lon="5.60789">
        <ele>341</ele>
        <time>2018-01-17T09:17:38Z</time>
      </trkpt>
      <trkpt lat="43.23411" lon="5.60789">
        <ele>344</ele>
        <time>2018-01-17T09:17:44Z</time>
      </trkpt>
      <trkpt lat="43.23416" lon="5.60789">
        <ele>345</ele>
        <time>2018-01-17T09:17:50Z</time>
      </trkpt>
      <trkpt lat="43.23422" lon="5.60789">
        <ele>345</ele>
        <time>2018-01-17T09:18:00Z</time>
      </trkpt>
      <trkpt lat="43.23426" lon="5.60787">
        <ele>343</ele>
        <time>2018-01-17T09:18:04Z</time>
      </trkpt>
      <trkpt lat="43.23431" lon="5.60785">
        <ele>345</ele>
        <time>2018-01-17T09:18:08Z</time>
      </trkpt>
      <trkpt lat="43.23435" lon="5.6078">
        <ele>348</ele>
        <time>2018-01-17T09:18:12Z</time>
      </trkpt>
      <trkpt lat="43.23441" lon="5.60781">
        <ele>343</ele>
        <time>2018-01-17T09:18:20Z</time>
      </trkpt>
      <trkpt lat="43.23447" lon="5.6078">
        <ele>341</ele>
        <time>2018-01-17T09:18:26Z</time>
      </trkpt>
      <trkpt lat="43.23452" lon="5.60781">
        <ele>339</ele>
        <time>2018-01-17T09:18:30Z</time>
      </trkpt>
      <trkpt lat="43.23458" lon="5.60781">
        <ele>344</ele>
        <time>2018-01-17T09:18:38Z</time>
      </trkpt>
      <trkpt lat="43.23463" lon="5.60787">
        <ele>347</ele>
        <time>2018-01-17T09:18:44Z</time>
      </trkpt>
      <trkpt lat="43.23467" lon="5.60791">
        <ele>348</ele>
        <time>2018-01-17T09:18:52Z</time>
      </trkpt>
      <trkpt lat="43.23472" lon="5.60794">
        <ele>348</ele>
        <time>2018-01-17T09:18:58Z</time>
      </trkpt>
      <trkpt lat="43.23477" lon="5.60798">
        <ele>351</ele>
        <time>2018-01-17T09:19:04Z</time>
      </trkpt>
      <trkpt lat="43.2348" lon="5.60802">
        <ele>352</ele>
        <time>2018-01-17T09:19:16Z</time>
      </trkpt>
      <trkpt lat="43.23485" lon="5.60805">
        <ele>350</ele>
        <time>2018-01-17T09:19:20Z</time>
      </trkpt>
      <trkpt lat="43.2349" lon="5.60807">
        <ele>348</ele>
        <time>2018-01-17T09:19:24Z</time>
      </trkpt>
      <trkpt lat="43.23494" lon="5.60806">
        <ele>353</ele>
        <time>2018-01-17T09:19:28Z</time>
      </trkpt>
      <trkpt lat="43.23499" lon="5.60812">
        <ele>356</ele>
        <time>2018-01-17T09:19:36Z</time>
      </trkpt>
      <trkpt lat="43.23503" lon="5.60814">
        <ele>357</ele>
        <time>2018-01-17T09:19:42Z</time>
      </trkpt>
      <trkpt lat="43.23508" lon="5.60816">
        <ele>358</ele>
        <time>2018-01-17T09:19:50Z</time>
      </trkpt>
      <trkpt lat="43.23507" lon="5.60824">
        <ele>358</ele>
        <time>2018-01-17T09:19:58Z</time>
      </trkpt>
      <trkpt lat="43.23512" lon="5.60828">
        <ele>359</ele>
        <time>2018-01-17T09:20:10Z</time>
      </trkpt>
      <trkpt lat="43.23514" lon="5.60837">
        <ele>360</ele>
        <time>2018-01-17T09:20:16Z</time>
      </trkpt>
      <trkpt lat="43.23517" lon="5.60844">
        <ele>358</ele>
        <time>2018-01-17T09:20:22Z</time>
      </trkpt>
      <trkpt lat="43.23522" lon="5.60847">
        <ele>357</ele>
        <time>2018-01-17T09:20:26Z</time>
      </trkpt>
      <trkpt lat="43.23526" lon="5.60853">
        <ele>357</ele>
        <time>2018-01-17T09:20:32Z</time>
      </trkpt>
      <trkpt lat="43.23529" lon="5.6086">
        <ele>359</ele>
        <time>2018-01-17T09:20:38Z</time>
      </trkpt>
      <trkpt lat="43.2353" lon="5.60866">
        <ele>360</ele>
        <time>2018-01-17T09:20:46Z</time>
      </trkpt>
      <trkpt lat="43.23534" lon="5.60872">
        <ele>362</ele>
        <time>2018-01-17T09:21:00Z</time>
      </trkpt>
      <trkpt lat="43.23538" lon="5.60877">
        <ele>365</ele>
        <time>2018-01-17T09:21:04Z</time>
      </trkpt>
      <trkpt lat="43.23543" lon="5.6088">
        <ele>368</ele>
        <time>2018-01-17T09:21:10Z</time>
      </trkpt>
      <trkpt lat="43.23546" lon="5.60885">
        <ele>371</ele>
        <time>2018-01-17T09:21:14Z</time>
      </trkpt>
      <trkpt lat="43.23551" lon="5.60889">
        <ele>370</ele>
        <time>2018-01-17T09:21:20Z</time>
      </trkpt>
      <trkpt lat="43.23555" lon="5.60894">
        <ele>369</ele>
        <time>2018-01-17T09:21:26Z</time>
      </trkpt>
      <trkpt lat="43.23559" lon="5.60897">
        <ele>370</ele>
        <time>2018-01-17T09:21:32Z</time>
      </trkpt>
      <trkpt lat="43.23566" lon="5.609">
        <ele>370</ele>
        <time>2018-01-17T09:21:46Z</time>
      </trkpt>
      <trkpt lat="43.2357" lon="5.60904">
        <ele>369</ele>
        <time>2018-01-17T09:21:52Z</time>
      </trkpt>
      <trkpt lat="43.23575" lon="5.60905">
        <ele>372</ele>
        <time>2018-01-17T09:22:00Z</time>
      </trkpt>
      <trkpt lat="43.23582" lon="5.60904">
        <ele>375</ele>
        <time>2018-01-17T09:22:04Z</time>
      </trkpt>
      <trkpt lat="43.23587" lon="5.60908">
        <ele>375</ele>
        <time>2018-01-17T09:22:10Z</time>
      </trkpt>
      <trkpt lat="43.23592" lon="5.60909">
        <ele>376</ele>
        <time>2018-01-17T09:22:18Z</time>
      </trkpt>
      <trkpt lat="43.23598" lon="5.60913">
        <ele>375</ele>
        <time>2018-01-17T09:22:34Z</time>
      </trkpt>
      <trkpt lat="43.23604" lon="5.60914">
        <ele>377</ele>
        <time>2018-01-17T09:22:42Z</time>
      </trkpt>
      <trkpt lat="43.2361" lon="5.60913">
        <ele>378</ele>
        <time>2018-01-17T09:22:46Z</time>
      </trkpt>
      <trkpt lat="43.23616" lon="5.60915">
        <ele>381</ele>
        <time>2018-01-17T09:22:52Z</time>
      </trkpt>
      <trkpt lat="43.23624" lon="5.60913">
        <ele>381</ele>
        <time>2018-01-17T09:23:18Z</time>
      </trkpt>
      <trkpt lat="43.23632" lon="5.60911">
        <ele>379</ele>
        <time>2018-01-17T09:23:34Z</time>
      </trkpt>
      <trkpt lat="43.23639" lon="5.60909">
        <ele>382</ele>
        <time>2018-01-17T09:23:38Z</time>
      </trkpt>
      <trkpt lat="43.23643" lon="5.60913">
        <ele>379</ele>
        <time>2018-01-17T09:23:42Z</time>
      </trkpt>
      <trkpt lat="43.23651" lon="5.60913">
        <ele>378</ele>
        <time>2018-01-17T09:23:46Z</time>
      </trkpt>
      <trkpt lat="43.23657" lon="5.60911">
        <ele>377</ele>
        <time>2018-01-17T09:23:48Z</time>
      </trkpt>
      <trkpt lat="43.23662" lon="5.60911">
        <ele>379</ele>
        <time>2018-01-17T09:23:58Z</time>
      </trkpt>
      <trkpt lat="43.23667" lon="5.60909">
        <ele>386</ele>
        <time>2018-01-17T09:24:32Z</time>
      </trkpt>
      <trkpt lat="43.23673" lon="5.60906">
        <ele>387</ele>
        <time>2018-01-17T09:26:26Z</time>
      </trkpt>
      <trkpt lat="43.23679" lon="5.60906">
        <ele>381</ele>
        <time>2018-01-17T09:26:34Z</time>
      </trkpt>
      <trkpt lat="43.23685" lon="5.60904">
        <ele>384</ele>
        <time>2018-01-17T09:26:40Z</time>
      </trkpt>
      <trkpt lat="43.23689" lon="5.60907">
        <ele>385</ele>
        <time>2018-01-17T09:26:44Z</time>
      </trkpt>
      <trkpt lat="43.23695" lon="5.60904">
        <ele>383</ele>
        <time>2018-01-17T09:26:54Z</time>
      </trkpt>
      <trkpt lat="43.237" lon="5.60902">
        <ele>386</ele>
        <time>2018-01-17T09:27:02Z</time>
      </trkpt>
      <trkpt lat="43.23706" lon="5.60902">
        <ele>386</ele>
        <time>2018-01-17T09:27:08Z</time>
      </trkpt>
      <trkpt lat="43.23711" lon="5.60902">
        <ele>389</ele>
        <time>2018-01-17T09:27:14Z</time>
      </trkpt>
      <trkpt lat="43.23716" lon="5.60905">
        <ele>392</ele>
        <time>2018-01-17T09:27:22Z</time>
      </trkpt>
      <trkpt lat="43.23722" lon="5.60908">
        <ele>392</ele>
        <time>2018-01-17T09:27:40Z</time>
      </trkpt>
      <trkpt lat="43.23728" lon="5.60908">
        <ele>390</ele>
        <time>2018-01-17T09:27:44Z</time>
      </trkpt>
      <trkpt lat="43.23735" lon="5.60908">
        <ele>392</ele>
        <time>2018-01-17T09:27:48Z</time>
      </trkpt>
      <trkpt lat="43.2374" lon="5.60911">
        <ele>393</ele>
        <time>2018-01-17T09:27:52Z</time>
      </trkpt>
      <trkpt lat="43.23746" lon="5.60914">
        <ele>393</ele>
        <time>2018-01-17T09:28:04Z</time>
      </trkpt>
      <trkpt lat="43.23749" lon="5.60919">
        <ele>397</ele>
        <time>2018-01-17T09:28:18Z</time>
      </trkpt>
      <trkpt lat="43.23754" lon="5.60919">
        <ele>402</ele>
        <time>2018-01-17T09:28:34Z</time>
      </trkpt>
      <trkpt lat="43.23761" lon="5.60921">
        <ele>400</ele>
        <time>2018-01-17T09:28:40Z</time>
      </trkpt>
      <trkpt lat="43.23766" lon="5.60921">
        <ele>400</ele>
        <time>2018-01-17T09:28:48Z</time>
      </trkpt>
      <trkpt lat="43.23771" lon="5.60921">
        <ele>402</ele>
        <time>2018-01-17T09:29:04Z</time>
      </trkpt>
      <trkpt lat="43.23779" lon="5.6092">
        <ele>405</ele>
        <time>2018-01-17T09:29:08Z</time>
      </trkpt>
      <trkpt lat="43.23785" lon="5.6092">
        <ele>407</ele>
        <time>2018-01-17T09:29:14Z</time>
      </trkpt>
      <trkpt lat="43.2379" lon="5.6092">
        <ele>409</ele>
        <time>2018-01-17T09:29:20Z</time>
      </trkpt>
      <trkpt lat="43.23797" lon="5.60921">
        <ele>412</ele>
        <time>2018-01-17T09:29:24Z</time>
      </trkpt>
      <trkpt lat="43.23801" lon="5.6092">
        <ele>414</ele>
        <time>2018-01-17T09:29:28Z</time>
      </trkpt>
      <trkpt lat="43.23807" lon="5.60919">
        <ele>411</ele>
        <time>2018-01-17T09:29:56Z</time>
      </trkpt>
      <trkpt lat="43.23812" lon="5.60919">
        <ele>411</ele>
        <time>2018-01-17T09:30:04Z</time>
      </trkpt>
      <trkpt lat="43.23816" lon="5.60917">
        <ele>411</ele>
        <time>2018-01-17T09:30:20Z</time>
      </trkpt>
      <trkpt lat="43.2382" lon="5.60914">
        <ele>414</ele>
        <time>2018-01-17T09:30:24Z</time>
      </trkpt>
      <trkpt lat="43.23824" lon="5.60916">
        <ele>413</ele>
        <time>2018-01-17T09:30:28Z</time>
      </trkpt>
      <trkpt lat="43.23829" lon="5.60913">
        <ele>415</ele>
        <time>2018-01-17T09:30:40Z</time>
      </trkpt>
      <trkpt lat="43.23834" lon="5.6091">
        <ele>418</ele>
        <time>2018-01-17T09:30:44Z</time>
      </trkpt>
      <trkpt lat="43.23839" lon="5.60908">
        <ele>421</ele>
        <time>2018-01-17T09:30:58Z</time>
      </trkpt>
      <trkpt lat="43.23844" lon="5.60912">
        <ele>423</ele>
        <time>2018-01-17T09:31:08Z</time>
      </trkpt>
      <trkpt lat="43.23847" lon="5.60918">
        <ele>422</ele>
        <time>2018-01-17T09:31:18Z</time>
      </trkpt>
      <trkpt lat="43.23844" lon="5.60923">
        <ele>420</ele>
        <time>2018-01-17T09:31:28Z</time>
      </trkpt>
      <trkpt lat="43.23844" lon="5.6093">
        <ele>418</ele>
        <time>2018-01-17T09:31:38Z</time>
      </trkpt>
      <trkpt lat="43.23841" lon="5.60936">
        <ele>419</ele>
        <time>2018-01-17T09:31:44Z</time>
      </trkpt>
      <trkpt lat="43.23837" lon="5.60942">
        <ele>421</ele>
        <time>2018-01-17T09:31:50Z</time>
      </trkpt>
      <trkpt lat="43.23836" lon="5.60948">
        <ele>421</ele>
        <time>2018-01-17T09:31:54Z</time>
      </trkpt>
      <trkpt lat="43.23833" lon="5.60954">
        <ele>421</ele>
        <time>2018-01-17T09:32:00Z</time>
      </trkpt>
      <trkpt lat="43.2383" lon="5.60959">
        <ele>422</ele>
        <time>2018-01-17T09:32:04Z</time>
      </trkpt>
      <trkpt lat="43.23826" lon="5.60964">
        <ele>423</ele>
        <time>2018-01-17T09:32:10Z</time>
      </trkpt>
      <trkpt lat="43.23825" lon="5.60971">
        <ele>423</ele>
        <time>2018-01-17T09:32:14Z</time>
      </trkpt>
      <trkpt lat="43.23824" lon="5.60978">
        <ele>423</ele>
        <time>2018-01-17T09:32:22Z</time>
      </trkpt>
      <trkpt lat="43.23825" lon="5.60985">
        <ele>424</ele>
        <time>2018-01-17T09:32:28Z</time>
      </trkpt>
      <trkpt lat="43.23826" lon="5.60991">
        <ele>421</ele>
        <time>2018-01-17T09:32:36Z</time>
      </trkpt>
      <trkpt lat="43.23824" lon="5.60999">
        <ele>424</ele>
        <time>2018-01-17T09:32:42Z</time>
      </trkpt>
      <trkpt lat="43.23825" lon="5.61005">
        <ele>425</ele>
        <time>2018-01-17T09:32:50Z</time>
      </trkpt>
      <trkpt lat="43.23825" lon="5.61014">
        <ele>428</ele>
        <time>2018-01-17T09:33:04Z</time>
      </trkpt>
      <trkpt lat="43.23822" lon="5.61019">
        <ele>428</ele>
        <time>2018-01-17T09:33:14Z</time>
      </trkpt>
      <trkpt lat="43.23816" lon="5.61021">
        <ele>428</ele>
        <time>2018-01-17T09:33:22Z</time>
      </trkpt>
      <trkpt lat="43.23811" lon="5.61022">
        <ele>426</ele>
        <time>2018-01-17T09:33:28Z</time>
      </trkpt>
      <trkpt lat="43.23806" lon="5.61025">
        <ele>427</ele>
        <time>2018-01-17T09:33:34Z</time>
      </trkpt>
      <trkpt lat="43.23799" lon="5.61027">
        <ele>429</ele>
        <time>2018-01-17T09:33:40Z</time>
      </trkpt>
      <trkpt lat="43.23793" lon="5.61029">
        <ele>428</ele>
        <time>2018-01-17T09:33:46Z</time>
      </trkpt>
      <trkpt lat="43.23788" lon="5.61031">
        <ele>427</ele>
        <time>2018-01-17T09:33:52Z</time>
      </trkpt>
      <trkpt lat="43.23783" lon="5.61033">
        <ele>428</ele>
        <time>2018-01-17T09:33:56Z</time>
      </trkpt>
      <trkpt lat="43.23778" lon="5.61035">
        <ele>429</ele>
        <time>2018-01-17T09:34:00Z</time>
      </trkpt>
      <trkpt lat="43.23774" lon="5.6104">
        <ele>429</ele>
        <time>2018-01-17T09:34:06Z</time>
      </trkpt>
      <trkpt lat="43.23768" lon="5.61044">
        <ele>431</ele>
        <time>2018-01-17T09:34:12Z</time>
      </trkpt>
      <trkpt lat="43.23763" lon="5.6105">
        <ele>431</ele>
        <time>2018-01-17T09:34:18Z</time>
      </trkpt>
      <trkpt lat="43.23761" lon="5.61056">
        <ele>430</ele>
        <time>2018-01-17T09:34:22Z</time>
      </trkpt>
      <trkpt lat="43.23758" lon="5.61061">
        <ele>430</ele>
        <time>2018-01-17T09:34:26Z</time>
      </trkpt>
      <trkpt lat="43.23759" lon="5.61069">
        <ele>429</ele>
        <time>2018-01-17T09:34:34Z</time>
      </trkpt>
      <trkpt lat="43.23765" lon="5.61072">
        <ele>430</ele>
        <time>2018-01-17T09:34:40Z</time>
      </trkpt>
      <trkpt lat="43.2377" lon="5.61074">
        <ele>431</ele>
        <time>2018-01-17T09:34:46Z</time>
      </trkpt>
      <trkpt lat="43.23776" lon="5.61075">
        <ele>431</ele>
        <time>2018-01-17T09:34:50Z</time>
      </trkpt>
      <trkpt lat="43.23782" lon="5.61077">
        <ele>430</ele>
        <time>2018-01-17T09:34:56Z</time>
      </trkpt>
      <trkpt lat="43.23786" lon="5.6108">
        <ele>428</ele>
        <time>2018-01-17T09:35:00Z</time>
      </trkpt>
      <trkpt lat="43.23791" lon="5.61082">
        <ele>427</ele>
        <time>2018-01-17T09:35:06Z</time>
      </trkpt>
      <trkpt lat="43.23798" lon="5.61083">
        <ele>426</ele>
        <time>2018-01-17T09:35:12Z</time>
      </trkpt>
      <trkpt lat="43.23802" lon="5.61087">
        <ele>428</ele>
        <time>2018-01-17T09:35:18Z</time>
      </trkpt>
      <trkpt lat="43.23807" lon="5.61089">
        <ele>429</ele>
        <time>2018-01-17T09:35:22Z</time>
      </trkpt>
      <trkpt lat="43.23812" lon="5.61094">
        <ele>428</ele>
        <time>2018-01-17T09:35:28Z</time>
      </trkpt>
      <trkpt lat="43.23818" lon="5.61097">
        <ele>428</ele>
        <time>2018-01-17T09:35:34Z</time>
      </trkpt>
      <trkpt lat="43.23822" lon="5.61099">
        <ele>427</ele>
        <time>2018-01-17T09:35:38Z</time>
      </trkpt>
      <trkpt lat="43.23827" lon="5.61103">
        <ele>428</ele>
        <time>2018-01-17T09:35:44Z</time>
      </trkpt>
      <trkpt lat="43.23836" lon="5.61106">
        <ele>374</ele>
        <time>2018-01-17T09:35:50Z</time>
      </trkpt>
      <trkpt lat="43.2384" lon="5.6111">
        <ele>406</ele>
        <time>2018-01-17T09:35:56Z</time>
      </trkpt>
      <trkpt lat="43.23846" lon="5.61112">
        <ele>410</ele>
        <time>2018-01-17T09:36:00Z</time>
      </trkpt>
      <trkpt lat="43.23851" lon="5.61114">
        <ele>411</ele>
        <time>2018-01-17T09:36:06Z</time>
      </trkpt>
      <trkpt lat="43.23857" lon="5.61114">
        <ele>413</ele>
        <time>2018-01-17T09:36:16Z</time>
      </trkpt>
      <trkpt lat="43.23861" lon="5.61118">
        <ele>418</ele>
        <time>2018-01-17T09:36:26Z</time>
      </trkpt>
      <trkpt lat="43.23857" lon="5.61123">
        <ele>420</ele>
        <time>2018-01-17T09:36:42Z</time>
      </trkpt>
      <trkpt lat="43.23856" lon="5.61129">
        <ele>416</ele>
        <time>2018-01-17T09:36:48Z</time>
      </trkpt>
      <trkpt lat="43.23852" lon="5.61135">
        <ele>416</ele>
        <time>2018-01-17T09:36:54Z</time>
      </trkpt>
      <trkpt lat="43.23847" lon="5.61137">
        <ele>416</ele>
        <time>2018-01-17T09:36:58Z</time>
      </trkpt>
      <trkpt lat="43.23842" lon="5.61136">
        <ele>416</ele>
        <time>2018-01-17T09:37:06Z</time>
      </trkpt>
      <trkpt lat="43.23837" lon="5.61137">
        <ele>414</ele>
        <time>2018-01-17T09:37:12Z</time>
      </trkpt>
      <trkpt lat="43.23833" lon="5.61137">
        <ele>413</ele>
        <time>2018-01-17T09:37:20Z</time>
      </trkpt>
      <trkpt lat="43.23828" lon="5.61137">
        <ele>412</ele>
        <time>2018-01-17T09:37:26Z</time>
      </trkpt>
      <trkpt lat="43.23823" lon="5.61139">
        <ele>412</ele>
        <time>2018-01-17T09:37:32Z</time>
      </trkpt>
      <trkpt lat="43.23817" lon="5.61141">
        <ele>412</ele>
        <time>2018-01-17T09:37:38Z</time>
      </trkpt>
      <trkpt lat="43.23812" lon="5.61141">
        <ele>408</ele>
        <time>2018-01-17T09:37:44Z</time>
      </trkpt>
      <trkpt lat="43.23805" lon="5.61142">
        <ele>407</ele>
        <time>2018-01-17T09:37:52Z</time>
      </trkpt>
      <trkpt lat="43.23801" lon="5.61145">
        <ele>409</ele>
        <time>2018-01-17T09:37:56Z</time>
      </trkpt>
      <trkpt lat="43.23795" lon="5.61148">
        <ele>405</ele>
        <time>2018-01-17T09:38:04Z</time>
      </trkpt>
      <trkpt lat="43.23791" lon="5.61153">
        <ele>409</ele>
        <time>2018-01-17T09:38:08Z</time>
      </trkpt>
      <trkpt lat="43.23787" lon="5.61157">
        <ele>408</ele>
        <time>2018-01-17T09:38:12Z</time>
      </trkpt>
      <trkpt lat="43.23781" lon="5.61159">
        <ele>405</ele>
        <time>2018-01-17T09:38:22Z</time>
      </trkpt>
      <trkpt lat="43.23775" lon="5.61163">
        <ele>404</ele>
        <time>2018-01-17T09:38:28Z</time>
      </trkpt>
      <trkpt lat="43.2377" lon="5.61164">
        <ele>403</ele>
        <time>2018-01-17T09:38:34Z</time>
      </trkpt>
      <trkpt lat="43.23765" lon="5.61168">
        <ele>404</ele>
        <time>2018-01-17T09:38:40Z</time>
      </trkpt>
      <trkpt lat="43.2376" lon="5.6117">
        <ele>404</ele>
        <time>2018-01-17T09:38:46Z</time>
      </trkpt>
      <trkpt lat="43.23756" lon="5.61173">
        <ele>403</ele>
        <time>2018-01-17T09:38:52Z</time>
      </trkpt>
      <trkpt lat="43.23751" lon="5.61177">
        <ele>402</ele>
        <time>2018-01-17T09:38:58Z</time>
      </trkpt>
      <trkpt lat="43.23749" lon="5.61183">
        <ele>401</ele>
        <time>2018-01-17T09:39:02Z</time>
      </trkpt>
      <trkpt lat="43.23745" lon="5.61188">
        <ele>400</ele>
        <time>2018-01-17T09:39:06Z</time>
      </trkpt>
      <trkpt lat="43.2374" lon="5.61193">
        <ele>400</ele>
        <time>2018-01-17T09:39:12Z</time>
      </trkpt>
      <trkpt lat="43.23738" lon="5.61198">
        <ele>396</ele>
        <time>2018-01-17T09:39:20Z</time>
      </trkpt>
      <trkpt lat="43.23735" lon="5.61204">
        <ele>394</ele>
        <time>2018-01-17T09:39:28Z</time>
      </trkpt>
      <trkpt lat="43.23732" lon="5.61209">
        <ele>394</ele>
        <time>2018-01-17T09:39:34Z</time>
      </trkpt>
      <trkpt lat="43.23731" lon="5.61215">
        <ele>392</ele>
        <time>2018-01-17T09:39:40Z</time>
      </trkpt>
      <trkpt lat="43.23729" lon="5.61222">
        <ele>388</ele>
        <time>2018-01-17T09:39:48Z</time>
      </trkpt>
      <trkpt lat="43.23728" lon="5.6123">
        <ele>389</ele>
        <time>2018-01-17T09:39:54Z</time>
      </trkpt>
      <trkpt lat="43.23731" lon="5.61238">
        <ele>287</ele>
        <time>2018-01-17T09:40:00Z</time>
      </trkpt>
      <trkpt lat="43.23731" lon="5.61246">
        <ele>348</ele>
        <time>2018-01-17T09:40:06Z</time>
      </trkpt>
      <trkpt lat="43.23731" lon="5.61253">
        <ele>364</ele>
        <time>2018-01-17T09:40:12Z</time>
      </trkpt>
      <trkpt lat="43.23729" lon="5.61262">
        <ele>375</ele>
        <time>2018-01-17T09:40:18Z</time>
      </trkpt>
      <trkpt lat="43.23727" lon="5.61268">
        <ele>379</ele>
        <time>2018-01-17T09:40:24Z</time>
      </trkpt>
      <trkpt lat="43.23725" lon="5.61274">
        <ele>379</ele>
        <time>2018-01-17T09:40:30Z</time>
      </trkpt>
      <trkpt lat="43.23721" lon="5.61279">
        <ele>377</ele>
        <time>2018-01-17T09:40:34Z</time>
      </trkpt>
      <trkpt lat="43.23721" lon="5.61287">
        <ele>380</ele>
        <time>2018-01-17T09:40:42Z</time>
      </trkpt>
      <trkpt lat="43.23722" lon="5.61295">
        <ele>381</ele>
        <time>2018-01-17T09:40:48Z</time>
      </trkpt>
      <trkpt lat="43.23719" lon="5.61303">
        <ele>381</ele>
        <time>2018-01-17T09:40:54Z</time>
      </trkpt>
      <trkpt lat="43.23716" lon="5.61311">
        <ele>384</ele>
        <time>2018-01-17T09:41:00Z</time>
      </trkpt>
      <trkpt lat="43.23718" lon="5.61319">
        <ele>384</ele>
        <time>2018-01-17T09:41:06Z</time>
      </trkpt>
      <trkpt lat="43.23717" lon="5.61327">
        <ele>378</ele>
        <time>2018-01-17T09:41:16Z</time>
      </trkpt>
      <trkpt lat="43.23717" lon="5.61335">
        <ele>379</ele>
        <time>2018-01-17T09:41:22Z</time>
      </trkpt>
      <trkpt lat="43.23715" lon="5.61342">
        <ele>374</ele>
        <time>2018-01-17T09:41:28Z</time>
      </trkpt>
      <trkpt lat="43.23714" lon="5.61349">
        <ele>374</ele>
        <time>2018-01-17T09:41:32Z</time>
      </trkpt>
      <trkpt lat="43.23715" lon="5.61361">
        <ele>376</ele>
        <time>2018-01-17T09:41:38Z</time>
      </trkpt>
      <trkpt lat="43.23712" lon="5.61368">
        <ele>376</ele>
        <time>2018-01-17T09:41:44Z</time>
      </trkpt>
      <trkpt lat="43.23711" lon="5.61375">
        <ele>376</ele>
        <time>2018-01-17T09:41:48Z</time>
      </trkpt>
      <trkpt lat="43.2371" lon="5.61381">
        <ele>376</ele>
        <time>2018-01-17T09:41:56Z</time>
      </trkpt>
      <trkpt lat="43.23708" lon="5.61387">
        <ele>376</ele>
        <time>2018-01-17T09:42:02Z</time>
      </trkpt>
      <trkpt lat="43.23706" lon="5.61396">
        <ele>378</ele>
        <time>2018-01-17T09:42:06Z</time>
      </trkpt>
      <trkpt lat="43.23703" lon="5.61404">
        <ele>372</ele>
        <time>2018-01-17T09:42:14Z</time>
      </trkpt>
      <trkpt lat="43.23699" lon="5.61411">
        <ele>372</ele>
        <time>2018-01-17T09:42:22Z</time>
      </trkpt>
      <trkpt lat="43.23696" lon="5.61417">
        <ele>375</ele>
        <time>2018-01-17T09:42:24Z</time>
      </trkpt>
      <trkpt lat="43.23693" lon="5.61422">
        <ele>374</ele>
        <time>2018-01-17T09:42:30Z</time>
      </trkpt>
      <trkpt lat="43.23688" lon="5.61425">
        <ele>374</ele>
        <time>2018-01-17T09:42:36Z</time>
      </trkpt>
      <trkpt lat="43.23684" lon="5.61428">
        <ele>375</ele>
        <time>2018-01-17T09:42:42Z</time>
      </trkpt>
      <trkpt lat="43.23679" lon="5.61432">
        <ele>372</ele>
        <time>2018-01-17T09:42:48Z</time>
      </trkpt>
      <trkpt lat="43.23675" lon="5.61437">
        <ele>371</ele>
        <time>2018-01-17T09:42:54Z</time>
      </trkpt>
      <trkpt lat="43.23671" lon="5.61441">
        <ele>371</ele>
        <time>2018-01-17T09:43:00Z</time>
      </trkpt>
      <trkpt lat="43.23665" lon="5.61445">
        <ele>372</ele>
        <time>2018-01-17T09:43:06Z</time>
      </trkpt>
      <trkpt lat="43.23662" lon="5.6145">
        <ele>372</ele>
        <time>2018-01-17T09:43:10Z</time>
      </trkpt>
      <trkpt lat="43.23657" lon="5.61456">
        <ele>374</ele>
        <time>2018-01-17T09:43:16Z</time>
      </trkpt>
      <trkpt lat="43.23651" lon="5.61461">
        <ele>373</ele>
        <time>2018-01-17T09:43:22Z</time>
      </trkpt>
      <trkpt lat="43.23647" lon="5.61464">
        <ele>372</ele>
        <time>2018-01-17T09:43:26Z</time>
      </trkpt>
      <trkpt lat="43.23642" lon="5.61469">
        <ele>372</ele>
        <time>2018-01-17T09:43:32Z</time>
      </trkpt>
      <trkpt lat="43.23636" lon="5.61476">
        <ele>372</ele>
        <time>2018-01-17T09:43:38Z</time>
      </trkpt>
      <trkpt lat="43.23632" lon="5.61479">
        <ele>368</ele>
        <time>2018-01-17T09:43:46Z</time>
      </trkpt>
      <trkpt lat="43.23627" lon="5.61481">
        <ele>368</ele>
        <time>2018-01-17T09:43:50Z</time>
      </trkpt>
      <trkpt lat="43.23621" lon="5.61483">
        <ele>367</ele>
        <time>2018-01-17T09:43:56Z</time>
      </trkpt>
      <trkpt lat="43.23616" lon="5.61489">
        <ele>363</ele>
        <time>2018-01-17T09:44:04Z</time>
      </trkpt>
      <trkpt lat="43.23611" lon="5.61492">
        <ele>363</ele>
        <time>2018-01-17T09:44:08Z</time>
      </trkpt>
      <trkpt lat="43.23607" lon="5.61497">
        <ele>361</ele>
        <time>2018-01-17T09:44:14Z</time>
      </trkpt>
      <trkpt lat="43.23602" lon="5.61499">
        <ele>361</ele>
        <time>2018-01-17T09:44:18Z</time>
      </trkpt>
      <trkpt lat="43.23597" lon="5.61503">
        <ele>358</ele>
        <time>2018-01-17T09:44:24Z</time>
      </trkpt>
      <trkpt lat="43.23592" lon="5.61506">
        <ele>358</ele>
        <time>2018-01-17T09:44:30Z</time>
      </trkpt>
      <trkpt lat="43.23586" lon="5.61509">
        <ele>360</ele>
        <time>2018-01-17T09:44:34Z</time>
      </trkpt>
      <trkpt lat="43.23584" lon="5.61514">
        <ele>354</ele>
        <time>2018-01-17T09:44:42Z</time>
      </trkpt>
      <trkpt lat="43.2358" lon="5.61513">
        <ele>353</ele>
        <time>2018-01-17T09:44:46Z</time>
      </trkpt>
      <trkpt lat="43.23575" lon="5.61511">
        <ele>352</ele>
        <time>2018-01-17T09:44:52Z</time>
      </trkpt>
      <trkpt lat="43.23569" lon="5.61513">
        <ele>351</ele>
        <time>2018-01-17T09:44:56Z</time>
      </trkpt>
      <trkpt lat="43.23563" lon="5.61518">
        <ele>353</ele>
        <time>2018-01-17T09:45:00Z</time>
      </trkpt>
      <trkpt lat="43.23559" lon="5.6152">
        <ele>354</ele>
        <time>2018-01-17T09:45:04Z</time>
      </trkpt>
      <trkpt lat="43.23553" lon="5.61522">
        <ele>352</ele>
        <time>2018-01-17T09:45:10Z</time>
      </trkpt>
      <trkpt lat="43.23549" lon="5.61524">
        <ele>351</ele>
        <time>2018-01-17T09:45:14Z</time>
      </trkpt>
      <trkpt lat="43.23543" lon="5.61524">
        <ele>349</ele>
        <time>2018-01-17T09:45:22Z</time>
      </trkpt>
      <trkpt lat="43.23537" lon="5.61523">
        <ele>351</ele>
        <time>2018-01-17T09:45:26Z</time>
      </trkpt>
      <trkpt lat="43.2353" lon="5.61521">
        <ele>349</ele>
        <time>2018-01-17T09:45:32Z</time>
      </trkpt>
      <trkpt lat="43.23523" lon="5.6152">
        <ele>351</ele>
        <time>2018-01-17T09:45:38Z</time>
      </trkpt>
      <trkpt lat="43.23519" lon="5.6152">
        <ele>352</ele>
        <time>2018-01-17T09:45:42Z</time>
      </trkpt>
      <trkpt lat="43.23512" lon="5.61519">
        <ele>352</ele>
        <time>2018-01-17T09:45:48Z</time>
      </trkpt>
      <trkpt lat="43.23506" lon="5.61519">
        <ele>353</ele>
        <time>2018-01-17T09:45:52Z</time>
      </trkpt>
      <trkpt lat="43.23499" lon="5.61519">
        <ele>352</ele>
        <time>2018-01-17T09:45:58Z</time>
      </trkpt>
      <trkpt lat="43.23496" lon="5.61513">
        <ele>348</ele>
        <time>2018-01-17T09:46:04Z</time>
      </trkpt>
      <trkpt lat="43.23491" lon="5.61515">
        <ele>349</ele>
        <time>2018-01-17T09:46:08Z</time>
      </trkpt>
      <trkpt lat="43.23486" lon="5.61512">
        <ele>349</ele>
        <time>2018-01-17T09:46:16Z</time>
      </trkpt>
      <trkpt lat="43.23481" lon="5.61509">
        <ele>347</ele>
        <time>2018-01-17T09:46:22Z</time>
      </trkpt>
      <trkpt lat="43.23476" lon="5.61522">
        <ele>346</ele>
        <time>2018-01-17T09:46:28Z</time>
      </trkpt>
      <trkpt lat="43.23471" lon="5.61518">
        <ele>347</ele>
        <time>2018-01-17T09:46:32Z</time>
      </trkpt>
      <trkpt lat="43.23464" lon="5.61514">
        <ele>346</ele>
        <time>2018-01-17T09:46:38Z</time>
      </trkpt>
      <trkpt lat="43.23459" lon="5.61508">
        <ele>347</ele>
        <time>2018-01-17T09:46:46Z</time>
      </trkpt>
      <trkpt lat="43.23454" lon="5.61504">
        <ele>348</ele>
        <time>2018-01-17T09:46:54Z</time>
      </trkpt>
      <trkpt lat="43.23449" lon="5.61502">
        <ele>348</ele>
        <time>2018-01-17T09:46:58Z</time>
      </trkpt>
      <trkpt lat="43.23444" lon="5.61499">
        <ele>349</ele>
        <time>2018-01-17T09:47:02Z</time>
      </trkpt>
      <trkpt lat="43.23439" lon="5.61497">
        <ele>347</ele>
        <time>2018-01-17T09:47:08Z</time>
      </trkpt>
      <trkpt lat="43.23434" lon="5.61498">
        <ele>345</ele>
        <time>2018-01-17T09:47:14Z</time>
      </trkpt>
      <trkpt lat="43.23429" lon="5.615">
        <ele>347</ele>
        <time>2018-01-17T09:47:18Z</time>
      </trkpt>
      <trkpt lat="43.23423" lon="5.61501">
        <ele>346</ele>
        <time>2018-01-17T09:47:24Z</time>
      </trkpt>
      <trkpt lat="43.23417" lon="5.61502">
        <ele>345</ele>
        <time>2018-01-17T09:47:32Z</time>
      </trkpt>
      <trkpt lat="43.23412" lon="5.61505">
        <ele>342</ele>
        <time>2018-01-17T09:47:40Z</time>
      </trkpt>
      <trkpt lat="43.23407" lon="5.61508">
        <ele>340</ele>
        <time>2018-01-17T09:47:46Z</time>
      </trkpt>
      <trkpt lat="43.23401" lon="5.61511">
        <ele>338</ele>
        <time>2018-01-17T09:47:52Z</time>
      </trkpt>
      <trkpt lat="43.23394" lon="5.61514">
        <ele>337</ele>
        <time>2018-01-17T09:47:58Z</time>
      </trkpt>
      <trkpt lat="43.2339" lon="5.61517">
        <ele>337</ele>
        <time>2018-01-17T09:48:02Z</time>
      </trkpt>
      <trkpt lat="43.23385" lon="5.61521">
        <ele>336</ele>
        <time>2018-01-17T09:48:08Z</time>
      </trkpt>
      <trkpt lat="43.23378" lon="5.61517">
        <ele>338</ele>
        <time>2018-01-17T09:48:14Z</time>
      </trkpt>
      <trkpt lat="43.23373" lon="5.61514">
        <ele>337</ele>
        <time>2018-01-17T09:48:18Z</time>
      </trkpt>
      <trkpt lat="43.23367" lon="5.6152">
        <ele>341</ele>
        <time>2018-01-17T09:48:24Z</time>
      </trkpt>
      <trkpt lat="43.23363" lon="5.61529">
        <ele>343</ele>
        <time>2018-01-17T09:48:28Z</time>
      </trkpt>
      <trkpt lat="43.23357" lon="5.61522">
        <ele>343</ele>
        <time>2018-01-17T09:48:32Z</time>
      </trkpt>
      <trkpt lat="43.23349" lon="5.6152">
        <ele>343</ele>
        <time>2018-01-17T09:48:40Z</time>
      </trkpt>
      <trkpt lat="43.23345" lon="5.61523">
        <ele>338</ele>
        <time>2018-01-17T09:48:48Z</time>
      </trkpt>
      <trkpt lat="43.23339" lon="5.61522">
        <ele>339</ele>
        <time>2018-01-17T09:48:54Z</time>
      </trkpt>
      <trkpt lat="43.23334" lon="5.61518">
        <ele>335</ele>
        <time>2018-01-17T09:49:02Z</time>
      </trkpt>
      <trkpt lat="43.23327" lon="5.61519">
        <ele>336</ele>
        <time>2018-01-17T09:49:08Z</time>
      </trkpt>
      <trkpt lat="43.23322" lon="5.61514">
        <ele>332</ele>
        <time>2018-01-17T09:50:12Z</time>
      </trkpt>
      <trkpt lat="43.23317" lon="5.61515">
        <ele>330</ele>
        <time>2018-01-17T09:50:18Z</time>
      </trkpt>
      <trkpt lat="43.2331" lon="5.61515">
        <ele>328</ele>
        <time>2018-01-17T09:50:22Z</time>
      </trkpt>
      <trkpt lat="43.23306" lon="5.61511">
        <ele>324</ele>
        <time>2018-01-17T09:50:26Z</time>
      </trkpt>
      <trkpt lat="43.23301" lon="5.61511">
        <ele>323</ele>
        <time>2018-01-17T09:50:30Z</time>
      </trkpt>
      <trkpt lat="43.23296" lon="5.61514">
        <ele>323</ele>
        <time>2018-01-17T09:50:34Z</time>
      </trkpt>
      <trkpt lat="43.23291" lon="5.61513">
        <ele>320</ele>
        <time>2018-01-17T09:50:38Z</time>
      </trkpt>
      <trkpt lat="43.23285" lon="5.61512">
        <ele>321</ele>
        <time>2018-01-17T09:50:42Z</time>
      </trkpt>
      <trkpt lat="43.23278" lon="5.61515">
        <ele>323</ele>
        <time>2018-01-17T09:50:46Z</time>
      </trkpt>
      <trkpt lat="43.23272" lon="5.61518">
        <ele>324</ele>
        <time>2018-01-17T09:50:50Z</time>
      </trkpt>
      <trkpt lat="43.23266" lon="5.61521">
        <ele>324</ele>
        <time>2018-01-17T09:50:54Z</time>
      </trkpt>
      <trkpt lat="43.2326" lon="5.61525">
        <ele>326</ele>
        <time>2018-01-17T09:50:58Z</time>
      </trkpt>
      <trkpt lat="43.23256" lon="5.61531">
        <ele>328</ele>
        <time>2018-01-17T09:51:02Z</time>
      </trkpt>
      <trkpt lat="43.2325" lon="5.61524">
        <ele>327</ele>
        <time>2018-01-17T09:51:04Z</time>
      </trkpt>
      <trkpt lat="43.23245" lon="5.61516">
        <ele>330</ele>
        <time>2018-01-17T09:51:08Z</time>
      </trkpt>
      <trkpt lat="43.2324" lon="5.61516">
        <ele>333</ele>
        <time>2018-01-17T09:51:14Z</time>
      </trkpt>
      <trkpt lat="43.23233" lon="5.61514">
        <ele>330</ele>
        <time>2018-01-17T09:51:26Z</time>
      </trkpt>
      <trkpt lat="43.23228" lon="5.61514">
        <ele>318</ele>
        <time>2018-01-17T09:51:36Z</time>
      </trkpt>
      <trkpt lat="43.23223" lon="5.61517">
        <ele>318</ele>
        <time>2018-01-17T09:51:40Z</time>
      </trkpt>
      <trkpt lat="43.2322" lon="5.61522">
        <ele>315</ele>
        <time>2018-01-17T09:51:46Z</time>
      </trkpt>
      <trkpt lat="43.23215" lon="5.61529">
        <ele>317</ele>
        <time>2018-01-17T09:51:50Z</time>
      </trkpt>
      <trkpt lat="43.23211" lon="5.61534">
        <ele>316</ele>
        <time>2018-01-17T09:51:54Z</time>
      </trkpt>
      <trkpt lat="43.23207" lon="5.61537">
        <ele>318</ele>
        <time>2018-01-17T09:51:58Z</time>
      </trkpt>
      <trkpt lat="43.23202" lon="5.61538">
        <ele>312</ele>
        <time>2018-01-17T09:52:06Z</time>
      </trkpt>
      <trkpt lat="43.23196" lon="5.61538">
        <ele>305</ele>
        <time>2018-01-17T09:52:14Z</time>
      </trkpt>
      <trkpt lat="43.2319" lon="5.61539">
        <ele>305</ele>
        <time>2018-01-17T09:52:20Z</time>
      </trkpt>
      <trkpt lat="43.23185" lon="5.61536">
        <ele>301</ele>
        <time>2018-01-17T09:52:26Z</time>
      </trkpt>
      <trkpt lat="43.23179" lon="5.61537">
        <ele>303</ele>
        <time>2018-01-17T09:52:30Z</time>
      </trkpt>
      <trkpt lat="43.23173" lon="5.61538">
        <ele>299</ele>
        <time>2018-01-17T09:52:36Z</time>
      </trkpt>
      <trkpt lat="43.23169" lon="5.61539">
        <ele>297</ele>
        <time>2018-01-17T09:52:42Z</time>
      </trkpt>
      <trkpt lat="43.23162" lon="5.61546">
        <ele>300</ele>
        <time>2018-01-17T09:52:48Z</time>
      </trkpt>
      <trkpt lat="43.23157" lon="5.6155">
        <ele>301</ele>
        <time>2018-01-17T09:52:54Z</time>
      </trkpt>
      <trkpt lat="43.23151" lon="5.61552">
        <ele>302</ele>
        <time>2018-01-17T09:52:56Z</time>
      </trkpt>
      <trkpt lat="43.23146" lon="5.61554">
        <ele>303</ele>
        <time>2018-01-17T09:52:58Z</time>
      </trkpt>
      <trkpt lat="43.23138" lon="5.61551">
        <ele>305</ele>
        <time>2018-01-17T09:53:02Z</time>
      </trkpt>
      <trkpt lat="43.23132" lon="5.61556">
        <ele>310</ele>
        <time>2018-01-17T09:53:08Z</time>
      </trkpt>
      <trkpt lat="43.23128" lon="5.6155">
        <ele>314</ele>
        <time>2018-01-17T09:53:12Z</time>
      </trkpt>
      <trkpt lat="43.23124" lon="5.61554">
        <ele>315</ele>
        <time>2018-01-17T09:53:18Z</time>
      </trkpt>
      <trkpt lat="43.2312" lon="5.61559">
        <ele>310</ele>
        <time>2018-01-17T09:53:28Z</time>
      </trkpt>
      <trkpt lat="43.23114" lon="5.61563">
        <ele>308</ele>
        <time>2018-01-17T09:53:34Z</time>
      </trkpt>
      <trkpt lat="43.23106" lon="5.61568">
        <ele>308</ele>
        <time>2018-01-17T09:53:40Z</time>
      </trkpt>
      <trkpt lat="43.23108" lon="5.61576">
        <ele>309</ele>
        <time>2018-01-17T09:53:50Z</time>
      </trkpt>
      <trkpt lat="43.23106" lon="5.61584">
        <ele>312</ele>
        <time>2018-01-17T09:53:54Z</time>
      </trkpt>
      <trkpt lat="43.23105" lon="5.61591">
        <ele>310</ele>
        <time>2018-01-17T09:54:00Z</time>
      </trkpt>
      <trkpt lat="43.231" lon="5.61594">
        <ele>307</ele>
        <time>2018-01-17T09:54:08Z</time>
      </trkpt>
      <trkpt lat="43.23096" lon="5.61597">
        <ele>305</ele>
        <time>2018-01-17T09:54:12Z</time>
      </trkpt>
      <trkpt lat="43.23093" lon="5.61602">
        <ele>308</ele>
        <time>2018-01-17T09:54:20Z</time>
      </trkpt>
      <trkpt lat="43.23089" lon="5.61603">
        <ele>306</ele>
        <time>2018-01-17T09:54:24Z</time>
      </trkpt>
      <trkpt lat="43.23085" lon="5.6161">
        <ele>305</ele>
        <time>2018-01-17T09:54:32Z</time>
      </trkpt>
      <trkpt lat="43.23082" lon="5.61617">
        <ele>303</ele>
        <time>2018-01-17T09:54:40Z</time>
      </trkpt>
      <trkpt lat="43.2308" lon="5.61622">
        <ele>305</ele>
        <time>2018-01-17T09:54:44Z</time>
      </trkpt>
      <trkpt lat="43.23075" lon="5.61628">
        <ele>302</ele>
        <time>2018-01-17T09:54:50Z</time>
      </trkpt>
      <trkpt lat="43.23072" lon="5.61633">
        <ele>299</ele>
        <time>2018-01-17T09:54:56Z</time>
      </trkpt>
      <trkpt lat="43.23069" lon="5.61639">
        <ele>298</ele>
        <time>2018-01-17T09:55:02Z</time>
      </trkpt>
      <trkpt lat="43.23069" lon="5.61646">
        <ele>299</ele>
        <time>2018-01-17T09:55:10Z</time>
      </trkpt>
      <trkpt lat="43.23066" lon="5.61652">
        <ele>299</ele>
        <time>2018-01-17T09:55:14Z</time>
      </trkpt>
      <trkpt lat="43.23064" lon="5.61657">
        <ele>298</ele>
        <time>2018-01-17T09:55:20Z</time>
      </trkpt>
      <trkpt lat="43.2306" lon="5.61662">
        <ele>294</ele>
        <time>2018-01-17T09:55:28Z</time>
      </trkpt>
      <trkpt lat="43.23056" lon="5.61665">
        <ele>290</ele>
        <time>2018-01-17T09:55:36Z</time>
      </trkpt>
      <trkpt lat="43.2305" lon="5.61669">
        <ele>288</ele>
        <time>2018-01-17T09:55:42Z</time>
      </trkpt>
      <trkpt lat="43.23046" lon="5.61673">
        <ele>288</ele>
        <time>2018-01-17T09:55:46Z</time>
      </trkpt>
      <trkpt lat="43.23041" lon="5.61677">
        <ele>290</ele>
        <time>2018-01-17T09:55:50Z</time>
      </trkpt>
      <trkpt lat="43.23034" lon="5.61682">
        <ele>293</ele>
        <time>2018-01-17T09:55:58Z</time>
      </trkpt>
      <trkpt lat="43.2303" lon="5.61686">
        <ele>293</ele>
        <time>2018-01-17T09:56:04Z</time>
      </trkpt>
      <trkpt lat="43.23027" lon="5.61691">
        <ele>294</ele>
        <time>2018-01-17T09:56:08Z</time>
      </trkpt>
      <trkpt lat="43.23023" lon="5.61699">
        <ele>299</ele>
        <time>2018-01-17T09:56:14Z</time>
      </trkpt>
      <trkpt lat="43.2302" lon="5.61704">
        <ele>305</ele>
        <time>2018-01-17T09:56:20Z</time>
      </trkpt>
      <trkpt lat="43.23022" lon="5.61698">
        <ele>300</ele>
        <time>2018-01-17T09:57:06Z</time>
      </trkpt>
      <trkpt lat="43.23024" lon="5.61692">
        <ele>301</ele>
        <time>2018-01-17T09:57:34Z</time>
      </trkpt>
      <trkpt lat="43.23021" lon="5.61696">
        <ele>305</ele>
        <time>2018-01-17T10:01:20Z</time>
      </trkpt>
      <trkpt lat="43.23015" lon="5.617">
        <ele>305</ele>
        <time>2018-01-17T10:01:28Z</time>
      </trkpt>
      <trkpt lat="43.23012" lon="5.61706">
        <ele>311</ele>
        <time>2018-01-17T10:01:36Z</time>
      </trkpt>
      <trkpt lat="43.23017" lon="5.61706">
        <ele>304</ele>
        <time>2018-01-17T10:05:44Z</time>
      </trkpt>
      <trkpt lat="43.23023" lon="5.61702">
        <ele>300</ele>
        <time>2018-01-17T10:05:48Z</time>
      </trkpt>
      <trkpt lat="43.23018" lon="5.61706">
        <ele>299</ele>
        <time>2018-01-17T10:06:06Z</time>
      </trkpt>
      <trkpt lat="43.23013" lon="5.61708">
        <ele>305</ele>
        <time>2018-01-17T10:08:00Z</time>
      </trkpt>
      <trkpt lat="43.23009" lon="5.61707">
        <ele>305</ele>
        <time>2018-01-17T10:08:10Z</time>
      </trkpt>
      <trkpt lat="43.23006" lon="5.61702">
        <ele>301</ele>
        <time>2018-01-17T10:08:18Z</time>
      </trkpt>
      <trkpt lat="43.23003" lon="5.61697">
        <ele>298</ele>
        <time>2018-01-17T10:08:26Z</time>
      </trkpt>
      <trkpt lat="43.22999" lon="5.61693">
        <ele>300</ele>
        <time>2018-01-17T10:08:32Z</time>
      </trkpt>
      <trkpt lat="43.22995" lon="5.61691">
        <ele>302</ele>
        <time>2018-01-17T10:08:36Z</time>
      </trkpt>
      <trkpt lat="43.22989" lon="5.61692">
        <ele>301</ele>
        <time>2018-01-17T10:08:42Z</time>
      </trkpt>
      <trkpt lat="43.22982" lon="5.61691">
        <ele>304</ele>
        <time>2018-01-17T10:08:46Z</time>
      </trkpt>
      <trkpt lat="43.22977" lon="5.61687">
        <ele>303</ele>
        <time>2018-01-17T10:08:54Z</time>
      </trkpt>
      <trkpt lat="43.22973" lon="5.61685">
        <ele>299</ele>
        <time>2018-01-17T10:09:08Z</time>
      </trkpt>
      <trkpt lat="43.22969" lon="5.6168">
        <ele>300</ele>
        <time>2018-01-17T10:09:14Z</time>
      </trkpt>
      <trkpt lat="43.22965" lon="5.61675">
        <ele>299</ele>
        <time>2018-01-17T10:09:24Z</time>
      </trkpt>
      <trkpt lat="43.22962" lon="5.6167">
        <ele>299</ele>
        <time>2018-01-17T10:09:28Z</time>
      </trkpt>
      <trkpt lat="43.2296" lon="5.61661">
        <ele>299</ele>
        <time>2018-01-17T10:09:36Z</time>
      </trkpt>
      <trkpt lat="43.22956" lon="5.61655">
        <ele>299</ele>
        <time>2018-01-17T10:09:42Z</time>
      </trkpt>
      <trkpt lat="43.2296" lon="5.61651">
        <ele>297</ele>
        <time>2018-01-17T10:09:48Z</time>
      </trkpt>
      <trkpt lat="43.22952" lon="5.6164">
        <ele>295</ele>
        <time>2018-01-17T10:09:52Z</time>
      </trkpt>
      <trkpt lat="43.22954" lon="5.61634">
        <ele>293</ele>
        <time>2018-01-17T10:10:02Z</time>
      </trkpt>
      <trkpt lat="43.22957" lon="5.61627">
        <ele>295</ele>
        <time>2018-01-17T10:10:06Z</time>
      </trkpt>
      <trkpt lat="43.22959" lon="5.6162">
        <ele>291</ele>
        <time>2018-01-17T10:10:10Z</time>
      </trkpt>
      <trkpt lat="43.22957" lon="5.61612">
        <ele>286</ele>
        <time>2018-01-17T10:10:14Z</time>
      </trkpt>
      <trkpt lat="43.22959" lon="5.61604">
        <ele>285</ele>
        <time>2018-01-17T10:10:18Z</time>
      </trkpt>
      <trkpt lat="43.22954" lon="5.61598">
        <ele>287</ele>
        <time>2018-01-17T10:10:44Z</time>
      </trkpt>
      <trkpt lat="43.22948" lon="5.61593">
        <ele>285</ele>
        <time>2018-01-17T10:10:48Z</time>
      </trkpt>
      <trkpt lat="43.22943" lon="5.61586">
        <ele>285</ele>
        <time>2018-01-17T10:10:54Z</time>
      </trkpt>
      <trkpt lat="43.22934" lon="5.61583">
        <ele>284</ele>
        <time>2018-01-17T10:11:00Z</time>
      </trkpt>
      <trkpt lat="43.22928" lon="5.6158">
        <ele>282</ele>
        <time>2018-01-17T10:11:04Z</time>
      </trkpt>
      <trkpt lat="43.22922" lon="5.61581">
        <ele>281</ele>
        <time>2018-01-17T10:11:10Z</time>
      </trkpt>
      <trkpt lat="43.22914" lon="5.61585">
        <ele>280</ele>
        <time>2018-01-17T10:11:22Z</time>
      </trkpt>
      <trkpt lat="43.22912" lon="5.61591">
        <ele>275</ele>
        <time>2018-01-17T10:11:28Z</time>
      </trkpt>
      <trkpt lat="43.22906" lon="5.61595">
        <ele>274</ele>
        <time>2018-01-17T10:11:34Z</time>
      </trkpt>
      <trkpt lat="43.22902" lon="5.616">
        <ele>272</ele>
        <time>2018-01-17T10:11:40Z</time>
      </trkpt>
      <trkpt lat="43.22902" lon="5.61607">
        <ele>273</ele>
        <time>2018-01-17T10:11:46Z</time>
      </trkpt>
      <trkpt lat="43.22897" lon="5.6161">
        <ele>273</ele>
        <time>2018-01-17T10:11:56Z</time>
      </trkpt>
      <trkpt lat="43.22892" lon="5.6161">
        <ele>271</ele>
        <time>2018-01-17T10:12:02Z</time>
      </trkpt>
      <trkpt lat="43.22886" lon="5.6161">
        <ele>268</ele>
        <time>2018-01-17T10:12:12Z</time>
      </trkpt>
      <trkpt lat="43.22881" lon="5.61612">
        <ele>268</ele>
        <time>2018-01-17T10:12:18Z</time>
      </trkpt>
      <trkpt lat="43.22875" lon="5.61616">
        <ele>270</ele>
        <time>2018-01-17T10:12:22Z</time>
      </trkpt>
      <trkpt lat="43.22869" lon="5.61619">
        <ele>271</ele>
        <time>2018-01-17T10:12:28Z</time>
      </trkpt>
      <trkpt lat="43.22865" lon="5.61621">
        <ele>271</ele>
        <time>2018-01-17T10:12:34Z</time>
      </trkpt>
      <trkpt lat="43.2286" lon="5.61623">
        <ele>272</ele>
        <time>2018-01-17T10:12:40Z</time>
      </trkpt>
      <trkpt lat="43.22855" lon="5.6162">
        <ele>272</ele>
        <time>2018-01-17T10:12:52Z</time>
      </trkpt>
      <trkpt lat="43.2285" lon="5.61617">
        <ele>270</ele>
        <time>2018-01-17T10:13:04Z</time>
      </trkpt>
      <trkpt lat="43.22847" lon="5.6161">
        <ele>271</ele>
        <time>2018-01-17T10:13:08Z</time>
      </trkpt>
      <trkpt lat="43.22842" lon="5.61601">
        <ele>275</ele>
        <time>2018-01-17T10:13:12Z</time>
      </trkpt>
      <trkpt lat="43.22837" lon="5.61598">
        <ele>273</ele>
        <time>2018-01-17T10:13:24Z</time>
      </trkpt>
      <trkpt lat="43.22832" lon="5.61597">
        <ele>272</ele>
        <time>2018-01-17T10:13:30Z</time>
      </trkpt>
      <trkpt lat="43.22827" lon="5.61595">
        <ele>272</ele>
        <time>2018-01-17T10:13:36Z</time>
      </trkpt>
      <trkpt lat="43.22823" lon="5.6159">
        <ele>263</ele>
        <time>2018-01-17T10:13:46Z</time>
      </trkpt>
      <trkpt lat="43.22817" lon="5.61588">
        <ele>262</ele>
        <time>2018-01-17T10:13:50Z</time>
      </trkpt>
      <trkpt lat="43.22807" lon="5.6159">
        <ele>260</ele>
        <time>2018-01-17T10:13:58Z</time>
      </trkpt>
      <trkpt lat="43.22802" lon="5.61593">
        <ele>262</ele>
        <time>2018-01-17T10:14:02Z</time>
      </trkpt>
      <trkpt lat="43.22796" lon="5.61596">
        <ele>267</ele>
        <time>2018-01-17T10:14:06Z</time>
      </trkpt>
      <trkpt lat="43.22791" lon="5.61595">
        <ele>267</ele>
        <time>2018-01-17T10:14:10Z</time>
      </trkpt>
      <trkpt lat="43.22787" lon="5.61597">
        <ele>263</ele>
        <time>2018-01-17T10:14:18Z</time>
      </trkpt>
      <trkpt lat="43.22783" lon="5.61593">
        <ele>261</ele>
        <time>2018-01-17T10:14:22Z</time>
      </trkpt>
      <trkpt lat="43.22779" lon="5.61595">
        <ele>261</ele>
        <time>2018-01-17T10:14:26Z</time>
      </trkpt>
      <trkpt lat="43.22774" lon="5.61596">
        <ele>263</ele>
        <time>2018-01-17T10:14:32Z</time>
      </trkpt>
      <trkpt lat="43.22768" lon="5.61596">
        <ele>264</ele>
        <time>2018-01-17T10:14:36Z</time>
      </trkpt>
      <trkpt lat="43.22763" lon="5.61595">
        <ele>271</ele>
        <time>2018-01-17T10:14:46Z</time>
      </trkpt>
      <trkpt lat="43.22758" lon="5.61597">
        <ele>272</ele>
        <time>2018-01-17T10:14:54Z</time>
      </trkpt>
      <trkpt lat="43.22753" lon="5.61592">
        <ele>276</ele>
        <time>2018-01-17T10:15:14Z</time>
      </trkpt>
      <trkpt lat="43.22752" lon="5.61584">
        <ele>272</ele>
        <time>2018-01-17T10:15:22Z</time>
      </trkpt>
      <trkpt lat="43.22753" lon="5.61577">
        <ele>270</ele>
        <time>2018-01-17T10:15:32Z</time>
      </trkpt>
      <trkpt lat="43.22756" lon="5.61569">
        <ele>273</ele>
        <time>2018-01-17T10:15:36Z</time>
      </trkpt>
      <trkpt lat="43.22752" lon="5.61562">
        <ele>267</ele>
        <time>2018-01-17T10:15:42Z</time>
      </trkpt>
      <trkpt lat="43.2275" lon="5.61554">
        <ele>261</ele>
        <time>2018-01-17T10:15:46Z</time>
      </trkpt>
      <trkpt lat="43.2275" lon="5.61547">
        <ele>257</ele>
        <time>2018-01-17T10:15:50Z</time>
      </trkpt>
      <trkpt lat="43.22748" lon="5.61538">
        <ele>258</ele>
        <time>2018-01-17T10:15:56Z</time>
      </trkpt>
      <trkpt lat="43.22751" lon="5.6153">
        <ele>258</ele>
        <time>2018-01-17T10:16:04Z</time>
      </trkpt>
      <trkpt lat="43.22755" lon="5.61524">
        <ele>255</ele>
        <time>2018-01-17T10:16:12Z</time>
      </trkpt>
      <trkpt lat="43.22755" lon="5.61518">
        <ele>254</ele>
        <time>2018-01-17T10:16:18Z</time>
      </trkpt>
      <trkpt lat="43.22754" lon="5.61512">
        <ele>253</ele>
        <time>2018-01-17T10:16:34Z</time>
      </trkpt>
      <trkpt lat="43.22749" lon="5.61508">
        <ele>254</ele>
        <time>2018-01-17T10:16:38Z</time>
      </trkpt>
      <trkpt lat="43.22744" lon="5.61503">
        <ele>252</ele>
        <time>2018-01-17T10:16:42Z</time>
      </trkpt>
      <trkpt lat="43.22741" lon="5.61495">
        <ele>249</ele>
        <time>2018-01-17T10:16:46Z</time>
      </trkpt>
      <trkpt lat="43.22737" lon="5.6149">
        <ele>249</ele>
        <time>2018-01-17T10:16:50Z</time>
      </trkpt>
      <trkpt lat="43.22732" lon="5.61488">
        <ele>249</ele>
        <time>2018-01-17T10:16:56Z</time>
      </trkpt>
      <trkpt lat="43.22723" lon="5.61485">
        <ele>247</ele>
        <time>2018-01-17T10:17:10Z</time>
      </trkpt>
      <trkpt lat="43.22716" lon="5.61484">
        <ele>247</ele>
        <time>2018-01-17T10:17:14Z</time>
      </trkpt>
      <trkpt lat="43.22711" lon="5.61482">
        <ele>247</ele>
        <time>2018-01-17T10:17:20Z</time>
      </trkpt>
      <trkpt lat="43.22705" lon="5.61479">
        <ele>247</ele>
        <time>2018-01-17T10:17:28Z</time>
      </trkpt>
      <trkpt lat="43.227" lon="5.6148">
        <ele>249</ele>
        <time>2018-01-17T10:17:36Z</time>
      </trkpt>
      <trkpt lat="43.22694" lon="5.61476">
        <ele>247</ele>
        <time>2018-01-17T10:17:56Z</time>
      </trkpt>
      <trkpt lat="43.2269" lon="5.61476">
        <ele>251</ele>
        <time>2018-01-17T10:18:04Z</time>
      </trkpt>
      <trkpt lat="43.22685" lon="5.61471">
        <ele>250</ele>
        <time>2018-01-17T10:18:52Z</time>
      </trkpt>
      <trkpt lat="43.22681" lon="5.61475">
        <ele>242</ele>
        <time>2018-01-17T10:19:06Z</time>
      </trkpt>
      <trkpt lat="43.22676" lon="5.6148">
        <ele>247</ele>
        <time>2018-01-17T10:19:24Z</time>
      </trkpt>
      <trkpt lat="43.22671" lon="5.61481">
        <ele>248</ele>
        <time>2018-01-17T10:19:30Z</time>
      </trkpt>
      <trkpt lat="43.22666" lon="5.61478">
        <ele>239</ele>
        <time>2018-01-17T10:19:38Z</time>
      </trkpt>
      <trkpt lat="43.22662" lon="5.61482">
        <ele>236</ele>
        <time>2018-01-17T10:19:50Z</time>
      </trkpt>
      <trkpt lat="43.22658" lon="5.61485">
        <ele>237</ele>
        <time>2018-01-17T10:20:02Z</time>
      </trkpt>
      <trkpt lat="43.22653" lon="5.61487">
        <ele>233</ele>
        <time>2018-01-17T10:20:06Z</time>
      </trkpt>
      <trkpt lat="43.22649" lon="5.61493">
        <ele>231</ele>
        <time>2018-01-17T10:20:12Z</time>
      </trkpt>
      <trkpt lat="43.22644" lon="5.61495">
        <ele>226</ele>
        <time>2018-01-17T10:20:18Z</time>
      </trkpt>
      <trkpt lat="43.2264" lon="5.61499">
        <ele>227</ele>
        <time>2018-01-17T10:20:24Z</time>
      </trkpt>
      <trkpt lat="43.22636" lon="5.61502">
        <ele>226</ele>
        <time>2018-01-17T10:20:32Z</time>
      </trkpt>
      <trkpt lat="43.22632" lon="5.61508">
        <ele>223</ele>
        <time>2018-01-17T10:20:40Z</time>
      </trkpt>
      <trkpt lat="43.2263" lon="5.61514">
        <ele>221</ele>
        <time>2018-01-17T10:20:44Z</time>
      </trkpt>
      <trkpt lat="43.22628" lon="5.6152">
        <ele>225</ele>
        <time>2018-01-17T10:20:48Z</time>
      </trkpt>
      <trkpt lat="43.22624" lon="5.61526">
        <ele>226</ele>
        <time>2018-01-17T10:20:52Z</time>
      </trkpt>
      <trkpt lat="43.22623" lon="5.61534">
        <ele>228</ele>
        <time>2018-01-17T10:20:56Z</time>
      </trkpt>
      <trkpt lat="43.2262" lon="5.61539">
        <ele>228</ele>
        <time>2018-01-17T10:21:00Z</time>
      </trkpt>
      <trkpt lat="43.22614" lon="5.61542">
        <ele>229</ele>
        <time>2018-01-17T10:21:08Z</time>
      </trkpt>
      <trkpt lat="43.2261" lon="5.61546">
        <ele>226</ele>
        <time>2018-01-17T10:21:14Z</time>
      </trkpt>
      <trkpt lat="43.22605" lon="5.61551">
        <ele>226</ele>
        <time>2018-01-17T10:21:20Z</time>
      </trkpt>
      <trkpt lat="43.226" lon="5.61557">
        <ele>227</ele>
        <time>2018-01-17T10:21:26Z</time>
      </trkpt>
      <trkpt lat="43.22597" lon="5.61562">
        <ele>223</ele>
        <time>2018-01-17T10:21:36Z</time>
      </trkpt>
      <trkpt lat="43.22594" lon="5.61566">
        <ele>224</ele>
        <time>2018-01-17T10:21:46Z</time>
      </trkpt>
      <trkpt lat="43.22589" lon="5.6157">
        <ele>228</ele>
        <time>2018-01-17T10:21:48Z</time>
      </trkpt>
      <trkpt lat="43.22584" lon="5.61575">
        <ele>232</ele>
        <time>2018-01-17T10:21:52Z</time>
      </trkpt>
      <trkpt lat="43.2258" lon="5.61578">
        <ele>231</ele>
        <time>2018-01-17T10:21:56Z</time>
      </trkpt>
      <trkpt lat="43.22575" lon="5.61584">
        <ele>235</ele>
        <time>2018-01-17T10:22:02Z</time>
      </trkpt>
      <trkpt lat="43.2258" lon="5.61594">
        <ele>231</ele>
        <time>2018-01-17T10:22:28Z</time>
      </trkpt>
      <trkpt lat="43.22584" lon="5.61598">
        <ele>227</ele>
        <time>2018-01-17T10:22:32Z</time>
      </trkpt>
      <trkpt lat="43.22588" lon="5.61602">
        <ele>228</ele>
        <time>2018-01-17T10:22:40Z</time>
      </trkpt>
      <trkpt lat="43.22591" lon="5.6161">
        <ele>228</ele>
        <time>2018-01-17T10:22:44Z</time>
      </trkpt>
      <trkpt lat="43.22595" lon="5.61615">
        <ele>229</ele>
        <time>2018-01-17T10:22:48Z</time>
      </trkpt>
      <trkpt lat="43.22603" lon="5.61617">
        <ele>227</ele>
        <time>2018-01-17T10:22:54Z</time>
      </trkpt>
      <trkpt lat="43.22606" lon="5.61621">
        <ele>229</ele>
        <time>2018-01-17T10:23:00Z</time>
      </trkpt>
      <trkpt lat="43.22612" lon="5.61626">
        <ele>226</ele>
        <time>2018-01-17T10:23:08Z</time>
      </trkpt>
      <trkpt lat="43.22619" lon="5.6163">
        <ele>224</ele>
        <time>2018-01-17T10:23:12Z</time>
      </trkpt>
      <trkpt lat="43.22626" lon="5.61631">
        <ele>224</ele>
        <time>2018-01-17T10:23:22Z</time>
      </trkpt>
      <trkpt lat="43.22634" lon="5.61636">
        <ele>219</ele>
        <time>2018-01-17T10:23:30Z</time>
      </trkpt>
      <trkpt lat="43.22633" lon="5.61643">
        <ele>219</ele>
        <time>2018-01-17T10:23:34Z</time>
      </trkpt>
      <trkpt lat="43.22635" lon="5.61649">
        <ele>220</ele>
        <time>2018-01-17T10:23:40Z</time>
      </trkpt>
      <trkpt lat="43.22638" lon="5.61653">
        <ele>218</ele>
        <time>2018-01-17T10:23:46Z</time>
      </trkpt>
      <trkpt lat="43.2264" lon="5.6166">
        <ele>216</ele>
        <time>2018-01-17T10:23:50Z</time>
      </trkpt>
      <trkpt lat="43.22643" lon="5.61667">
        <ele>215</ele>
        <time>2018-01-17T10:23:56Z</time>
      </trkpt>
      <trkpt lat="43.22642" lon="5.61673">
        <ele>214</ele>
        <time>2018-01-17T10:24:00Z</time>
      </trkpt>
      <trkpt lat="43.22644" lon="5.6168">
        <ele>213</ele>
        <time>2018-01-17T10:24:04Z</time>
      </trkpt>
      <trkpt lat="43.22648" lon="5.61685">
        <ele>216</ele>
        <time>2018-01-17T10:24:08Z</time>
      </trkpt>
      <trkpt lat="43.22656" lon="5.61688">
        <ele>218</ele>
        <time>2018-01-17T10:24:12Z</time>
      </trkpt>
      <trkpt lat="43.22659" lon="5.61694">
        <ele>220</ele>
        <time>2018-01-17T10:24:16Z</time>
      </trkpt>
      <trkpt lat="43.22663" lon="5.61697">
        <ele>222</ele>
        <time>2018-01-17T10:24:20Z</time>
      </trkpt>
      <trkpt lat="43.22668" lon="5.617">
        <ele>224</ele>
        <time>2018-01-17T10:24:24Z</time>
      </trkpt>
      <trkpt lat="43.22673" lon="5.61702">
        <ele>224</ele>
        <time>2018-01-17T10:24:34Z</time>
      </trkpt>
      <trkpt lat="43.22678" lon="5.61707">
        <ele>227</ele>
        <time>2018-01-17T10:24:42Z</time>
      </trkpt>
      <trkpt lat="43.22682" lon="5.61711">
        <ele>224</ele>
        <time>2018-01-17T10:24:46Z</time>
      </trkpt>
      <trkpt lat="43.22688" lon="5.6171">
        <ele>225</ele>
        <time>2018-01-17T10:24:50Z</time>
      </trkpt>
      <trkpt lat="43.22691" lon="5.61717">
        <ele>225</ele>
        <time>2018-01-17T10:24:56Z</time>
      </trkpt>
      <trkpt lat="43.22693" lon="5.61722">
        <ele>229</ele>
        <time>2018-01-17T10:25:04Z</time>
      </trkpt>
      <trkpt lat="43.22698" lon="5.61726">
        <ele>227</ele>
        <time>2018-01-17T10:25:14Z</time>
      </trkpt>
      <trkpt lat="43.22701" lon="5.61731">
        <ele>229</ele>
        <time>2018-01-17T10:25:22Z</time>
      </trkpt>
      <trkpt lat="43.22705" lon="5.61735">
        <ele>225</ele>
        <time>2018-01-17T10:25:28Z</time>
      </trkpt>
      <trkpt lat="43.22709" lon="5.61738">
        <ele>224</ele>
        <time>2018-01-17T10:25:34Z</time>
      </trkpt>
      <trkpt lat="43.22715" lon="5.61738">
        <ele>224</ele>
        <time>2018-01-17T10:25:44Z</time>
      </trkpt>
      <trkpt lat="43.22718" lon="5.61733">
        <ele>222</ele>
        <time>2018-01-17T10:25:52Z</time>
      </trkpt>
      <trkpt lat="43.22722" lon="5.6173">
        <ele>220</ele>
        <time>2018-01-17T10:25:58Z</time>
      </trkpt>
      <trkpt lat="43.22727" lon="5.61729">
        <ele>219</ele>
        <time>2018-01-17T10:26:08Z</time>
      </trkpt>
      <trkpt lat="43.22733" lon="5.61729">
        <ele>220</ele>
        <time>2018-01-17T10:26:16Z</time>
      </trkpt>
      <trkpt lat="43.22738" lon="5.61727">
        <ele>216</ele>
        <time>2018-01-17T10:26:20Z</time>
      </trkpt>
      <trkpt lat="43.22747" lon="5.61728">
        <ele>213</ele>
        <time>2018-01-17T10:26:24Z</time>
      </trkpt>
      <trkpt lat="43.22753" lon="5.61729">
        <ele>212</ele>
        <time>2018-01-17T10:26:28Z</time>
      </trkpt>
      <trkpt lat="43.22759" lon="5.61726">
        <ele>216</ele>
        <time>2018-01-17T10:26:36Z</time>
      </trkpt>
      <trkpt lat="43.22764" lon="5.61723">
        <ele>218</ele>
        <time>2018-01-17T10:26:40Z</time>
      </trkpt>
      <trkpt lat="43.22769" lon="5.61723">
        <ele>219</ele>
        <time>2018-01-17T10:26:48Z</time>
      </trkpt>
      <trkpt lat="43.22773" lon="5.61727">
        <ele>219</ele>
        <time>2018-01-17T10:26:52Z</time>
      </trkpt>
      <trkpt lat="43.22778" lon="5.61729">
        <ele>215</ele>
        <time>2018-01-17T10:26:58Z</time>
      </trkpt>
      <trkpt lat="43.22782" lon="5.61734">
        <ele>215</ele>
        <time>2018-01-17T10:27:04Z</time>
      </trkpt>
      <trkpt lat="43.22787" lon="5.61738">
        <ele>218</ele>
        <time>2018-01-17T10:27:10Z</time>
      </trkpt>
      <trkpt lat="43.22792" lon="5.61736">
        <ele>221</ele>
        <time>2018-01-17T10:27:16Z</time>
      </trkpt>
      <trkpt lat="43.22797" lon="5.6174">
        <ele>222</ele>
        <time>2018-01-17T10:27:22Z</time>
      </trkpt>
      <trkpt lat="43.22799" lon="5.61746">
        <ele>229</ele>
        <time>2018-01-17T10:27:30Z</time>
      </trkpt>
      <trkpt lat="43.22796" lon="5.61753">
        <ele>227</ele>
        <time>2018-01-17T10:27:36Z</time>
      </trkpt>
      <trkpt lat="43.22796" lon="5.6176">
        <ele>231</ele>
        <time>2018-01-17T10:27:42Z</time>
      </trkpt>
      <trkpt lat="43.22793" lon="5.61766">
        <ele>232</ele>
        <time>2018-01-17T10:27:48Z</time>
      </trkpt>
      <trkpt lat="43.22788" lon="5.61774">
        <ele>233</ele>
        <time>2018-01-17T10:27:52Z</time>
      </trkpt>
      <trkpt lat="43.22794" lon="5.6178">
        <ele>237</ele>
        <time>2018-01-17T10:28:00Z</time>
      </trkpt>
      <trkpt lat="43.2279" lon="5.61783">
        <ele>237</ele>
        <time>2018-01-17T10:28:02Z</time>
      </trkpt>
      <trkpt lat="43.2279" lon="5.6179">
        <ele>239</ele>
        <time>2018-01-17T10:28:06Z</time>
      </trkpt>
      <trkpt lat="43.22788" lon="5.618">
        <ele>241</ele>
        <time>2018-01-17T10:28:16Z</time>
      </trkpt>
      <trkpt lat="43.22786" lon="5.61807">
        <ele>241</ele>
        <time>2018-01-17T10:28:22Z</time>
      </trkpt>
      <trkpt lat="43.22793" lon="5.61808">
        <ele>249</ele>
        <time>2018-01-17T10:28:28Z</time>
      </trkpt>
      <trkpt lat="43.22795" lon="5.61815">
        <ele>255</ele>
        <time>2018-01-17T10:28:36Z</time>
      </trkpt>
      <trkpt lat="43.22799" lon="5.61816">
        <ele>250</ele>
        <time>2018-01-17T10:28:44Z</time>
      </trkpt>
      <trkpt lat="43.22805" lon="5.61817">
        <ele>253</ele>
        <time>2018-01-17T10:28:48Z</time>
      </trkpt>
      <trkpt lat="43.22812" lon="5.61815">
        <ele>259</ele>
        <time>2018-01-17T10:28:56Z</time>
      </trkpt>
      <trkpt lat="43.22816" lon="5.61814">
        <ele>263</ele>
        <time>2018-01-17T10:29:02Z</time>
      </trkpt>
      <trkpt lat="43.22821" lon="5.61815">
        <ele>264</ele>
        <time>2018-01-17T10:29:08Z</time>
      </trkpt>
      <trkpt lat="43.22826" lon="5.61817">
        <ele>266</ele>
        <time>2018-01-17T10:29:18Z</time>
      </trkpt>
      <trkpt lat="43.2283" lon="5.6182">
        <ele>266</ele>
        <time>2018-01-17T10:29:24Z</time>
      </trkpt>
      <trkpt lat="43.22836" lon="5.61823">
        <ele>260</ele>
        <time>2018-01-17T10:29:34Z</time>
      </trkpt>
      <trkpt lat="43.22842" lon="5.61821">
        <ele>256</ele>
        <time>2018-01-17T10:29:44Z</time>
      </trkpt>
      <trkpt lat="43.22849" lon="5.6182">
        <ele>257</ele>
        <time>2018-01-17T10:29:50Z</time>
      </trkpt>
      <trkpt lat="43.22852" lon="5.61815">
        <ele>257</ele>
        <time>2018-01-17T10:29:58Z</time>
      </trkpt>
      <trkpt lat="43.22856" lon="5.61812">
        <ele>255</ele>
        <time>2018-01-17T10:30:06Z</time>
      </trkpt>
      <trkpt lat="43.22863" lon="5.61809">
        <ele>258</ele>
        <time>2018-01-17T10:30:12Z</time>
      </trkpt>
      <trkpt lat="43.22867" lon="5.61808">
        <ele>262</ele>
        <time>2018-01-17T10:30:16Z</time>
      </trkpt>
      <trkpt lat="43.22872" lon="5.6181">
        <ele>260</ele>
        <time>2018-01-17T10:30:28Z</time>
      </trkpt>
      <trkpt lat="43.22876" lon="5.61813">
        <ele>259</ele>
        <time>2018-01-17T10:30:36Z</time>
      </trkpt>
      <trkpt lat="43.22881" lon="5.61816">
        <ele>256</ele>
        <time>2018-01-17T10:30:46Z</time>
      </trkpt>
      <trkpt lat="43.22886" lon="5.61817">
        <ele>255</ele>
        <time>2018-01-17T10:30:52Z</time>
      </trkpt>
      <trkpt lat="43.2289" lon="5.61814">
        <ele>251</ele>
        <time>2018-01-17T10:31:00Z</time>
      </trkpt>
      <trkpt lat="43.22895" lon="5.61814">
        <ele>253</ele>
        <time>2018-01-17T10:31:12Z</time>
      </trkpt>
      <trkpt lat="43.229" lon="5.61819">
        <ele>252</ele>
        <time>2018-01-17T10:31:20Z</time>
      </trkpt>
      <trkpt lat="43.22903" lon="5.61825">
        <ele>246</ele>
        <time>2018-01-17T10:31:26Z</time>
      </trkpt>
      <trkpt lat="43.22908" lon="5.61827">
        <ele>246</ele>
        <time>2018-01-17T10:31:34Z</time>
      </trkpt>
      <trkpt lat="43.22913" lon="5.61832">
        <ele>242</ele>
        <time>2018-01-17T10:31:40Z</time>
      </trkpt>
      <trkpt lat="43.22916" lon="5.61837">
        <ele>245</ele>
        <time>2018-01-17T10:31:44Z</time>
      </trkpt>
      <trkpt lat="43.22919" lon="5.61844">
        <ele>248</ele>
        <time>2018-01-17T10:31:50Z</time>
      </trkpt>
      <trkpt lat="43.22924" lon="5.61849">
        <ele>248</ele>
        <time>2018-01-17T10:31:56Z</time>
      </trkpt>
      <trkpt lat="43.22928" lon="5.61855">
        <ele>250</ele>
        <time>2018-01-17T10:32:00Z</time>
      </trkpt>
      <trkpt lat="43.22935" lon="5.61859">
        <ele>255</ele>
        <time>2018-01-17T10:32:06Z</time>
      </trkpt>
      <trkpt lat="43.2294" lon="5.61857">
        <ele>255</ele>
        <time>2018-01-17T10:32:10Z</time>
      </trkpt>
      <trkpt lat="43.22946" lon="5.6186">
        <ele>253</ele>
        <time>2018-01-17T10:32:20Z</time>
      </trkpt>
      <trkpt lat="43.2295" lon="5.61865">
        <ele>253</ele>
        <time>2018-01-17T10:32:30Z</time>
      </trkpt>
      <trkpt lat="43.22955" lon="5.61872">
        <ele>252</ele>
        <time>2018-01-17T10:32:38Z</time>
      </trkpt>
      <trkpt lat="43.22958" lon="5.61878">
        <ele>252</ele>
        <time>2018-01-17T10:32:46Z</time>
      </trkpt>
      <trkpt lat="43.2296" lon="5.61885">
        <ele>252</ele>
        <time>2018-01-17T10:32:50Z</time>
      </trkpt>
      <trkpt lat="43.22964" lon="5.61889">
        <ele>253</ele>
        <time>2018-01-17T10:32:54Z</time>
      </trkpt>
      <trkpt lat="43.22969" lon="5.61893">
        <ele>256</ele>
        <time>2018-01-17T10:33:00Z</time>
      </trkpt>
      <trkpt lat="43.22972" lon="5.61899">
        <ele>258</ele>
        <time>2018-01-17T10:33:06Z</time>
      </trkpt>
      <trkpt lat="43.2298" lon="5.61899">
        <ele>259</ele>
        <time>2018-01-17T10:33:10Z</time>
      </trkpt>
      <trkpt lat="43.22985" lon="5.61906">
        <ele>258</ele>
        <time>2018-01-17T10:33:14Z</time>
      </trkpt>
      <trkpt lat="43.2299" lon="5.61909">
        <ele>262</ele>
        <time>2018-01-17T10:33:18Z</time>
      </trkpt>
      <trkpt lat="43.22995" lon="5.6191">
        <ele>266</ele>
        <time>2018-01-17T10:33:22Z</time>
      </trkpt>
      <trkpt lat="43.23" lon="5.61916">
        <ele>270</ele>
        <time>2018-01-17T10:33:28Z</time>
      </trkpt>
      <trkpt lat="43.23004" lon="5.6192">
        <ele>270</ele>
        <time>2018-01-17T10:33:36Z</time>
      </trkpt>
      <trkpt lat="43.23008" lon="5.61924">
        <ele>268</ele>
        <time>2018-01-17T10:33:44Z</time>
      </trkpt>
      <trkpt lat="43.23012" lon="5.6193">
        <ele>270</ele>
        <time>2018-01-17T10:33:48Z</time>
      </trkpt>
      <trkpt lat="43.23018" lon="5.61933">
        <ele>271</ele>
        <time>2018-01-17T10:33:54Z</time>
      </trkpt>
      <trkpt lat="43.23022" lon="5.61938">
        <ele>275</ele>
        <time>2018-01-17T10:33:58Z</time>
      </trkpt>
      <trkpt lat="43.23027" lon="5.61943">
        <ele>277</ele>
        <time>2018-01-17T10:34:04Z</time>
      </trkpt>
      <trkpt lat="43.23033" lon="5.61945">
        <ele>277</ele>
        <time>2018-01-17T10:34:08Z</time>
      </trkpt>
      <trkpt lat="43.23037" lon="5.6195">
        <ele>277</ele>
        <time>2018-01-17T10:34:16Z</time>
      </trkpt>
      <trkpt lat="43.23041" lon="5.61955">
        <ele>276</ele>
        <time>2018-01-17T10:34:20Z</time>
      </trkpt>
      <trkpt lat="43.23041" lon="5.61964">
        <ele>275</ele>
        <time>2018-01-17T10:34:28Z</time>
      </trkpt>
      <trkpt lat="43.23042" lon="5.61971">
        <ele>274</ele>
        <time>2018-01-17T10:34:34Z</time>
      </trkpt>
      <trkpt lat="43.23041" lon="5.61978">
        <ele>275</ele>
        <time>2018-01-17T10:34:38Z</time>
      </trkpt>
      <trkpt lat="43.23038" lon="5.61986">
        <ele>277</ele>
        <time>2018-01-17T10:34:42Z</time>
      </trkpt>
      <trkpt lat="43.23034" lon="5.6199">
        <ele>280</ele>
        <time>2018-01-17T10:34:46Z</time>
      </trkpt>
      <trkpt lat="43.23031" lon="5.61994">
        <ele>281</ele>
        <time>2018-01-17T10:34:50Z</time>
      </trkpt>
      <trkpt lat="43.23028" lon="5.62002">
        <ele>284</ele>
        <time>2018-01-17T10:34:56Z</time>
      </trkpt>
      <trkpt lat="43.23031" lon="5.62008">
        <ele>284</ele>
        <time>2018-01-17T10:35:02Z</time>
      </trkpt>
      <trkpt lat="43.23027" lon="5.62015">
        <ele>283</ele>
        <time>2018-01-17T10:35:06Z</time>
      </trkpt>
      <trkpt lat="43.2303" lon="5.62021">
        <ele>284</ele>
        <time>2018-01-17T10:35:12Z</time>
      </trkpt>
      <trkpt lat="43.23029" lon="5.62028">
        <ele>286</ele>
        <time>2018-01-17T10:35:16Z</time>
      </trkpt>
      <trkpt lat="43.23029" lon="5.62034">
        <ele>285</ele>
        <time>2018-01-17T10:35:20Z</time>
      </trkpt>
      <trkpt lat="43.2303" lon="5.62041">
        <ele>287</ele>
        <time>2018-01-17T10:35:24Z</time>
      </trkpt>
      <trkpt lat="43.23033" lon="5.62046">
        <ele>286</ele>
        <time>2018-01-17T10:35:30Z</time>
      </trkpt>
      <trkpt lat="43.23033" lon="5.62053">
        <ele>285</ele>
        <time>2018-01-17T10:35:38Z</time>
      </trkpt>
      <trkpt lat="43.23034" lon="5.62059">
        <ele>286</ele>
        <time>2018-01-17T10:35:52Z</time>
      </trkpt>
      <trkpt lat="43.23037" lon="5.62065">
        <ele>287</ele>
        <time>2018-01-17T10:35:56Z</time>
      </trkpt>
      <trkpt lat="43.23042" lon="5.62067">
        <ele>291</ele>
        <time>2018-01-17T10:35:58Z</time>
      </trkpt>
      <trkpt lat="43.23045" lon="5.62074">
        <ele>289</ele>
        <time>2018-01-17T10:36:06Z</time>
      </trkpt>
      <trkpt lat="43.2305" lon="5.62079">
        <ele>291</ele>
        <time>2018-01-17T10:36:10Z</time>
      </trkpt>
      <trkpt lat="43.23055" lon="5.62084">
        <ele>289</ele>
        <time>2018-01-17T10:36:16Z</time>
      </trkpt>
      <trkpt lat="43.2306" lon="5.6209">
        <ele>284</ele>
        <time>2018-01-17T10:36:24Z</time>
      </trkpt>
      <trkpt lat="43.23063" lon="5.62094">
        <ele>279</ele>
        <time>2018-01-17T10:36:28Z</time>
      </trkpt>
      <trkpt lat="43.23069" lon="5.62097">
        <ele>275</ele>
        <time>2018-01-17T10:36:34Z</time>
      </trkpt>
      <trkpt lat="43.23072" lon="5.62103">
        <ele>276</ele>
        <time>2018-01-17T10:36:48Z</time>
      </trkpt>
      <trkpt lat="43.23077" lon="5.62108">
        <ele>278</ele>
        <time>2018-01-17T10:36:54Z</time>
      </trkpt>
      <trkpt lat="43.23081" lon="5.62112">
        <ele>279</ele>
        <time>2018-01-17T10:37:00Z</time>
      </trkpt>
      <trkpt lat="43.23086" lon="5.62116">
        <ele>279</ele>
        <time>2018-01-17T10:37:08Z</time>
      </trkpt>
      <trkpt lat="43.23089" lon="5.62122">
        <ele>279</ele>
        <time>2018-01-17T10:37:14Z</time>
      </trkpt>
      <trkpt lat="43.23092" lon="5.62128">
        <ele>281</ele>
        <time>2018-01-17T10:37:18Z</time>
      </trkpt>
      <trkpt lat="43.23094" lon="5.62134">
        <ele>284</ele>
        <time>2018-01-17T10:37:28Z</time>
      </trkpt>
      <trkpt lat="43.23092" lon="5.6214">
        <ele>286</ele>
        <time>2018-01-17T10:37:32Z</time>
      </trkpt>
      <trkpt lat="43.23092" lon="5.62147">
        <ele>288</ele>
        <time>2018-01-17T10:37:38Z</time>
      </trkpt>
      <trkpt lat="43.23094" lon="5.62153">
        <ele>289</ele>
        <time>2018-01-17T10:37:42Z</time>
      </trkpt>
      <trkpt lat="43.23098" lon="5.62159">
        <ele>289</ele>
        <time>2018-01-17T10:38:20Z</time>
      </trkpt>
      <trkpt lat="43.23106" lon="5.62163">
        <ele>279</ele>
        <time>2018-01-17T10:38:26Z</time>
      </trkpt>
      <trkpt lat="43.23113" lon="5.62171">
        <ele>275</ele>
        <time>2018-01-17T10:38:30Z</time>
      </trkpt>
      <trkpt lat="43.23119" lon="5.62167">
        <ele>275</ele>
        <time>2018-01-17T10:38:32Z</time>
      </trkpt>
      <trkpt lat="43.23125" lon="5.62172">
        <ele>277</ele>
        <time>2018-01-17T10:38:38Z</time>
      </trkpt>
      <trkpt lat="43.23132" lon="5.62173">
        <ele>280</ele>
        <time>2018-01-17T10:38:42Z</time>
      </trkpt>
      <trkpt lat="43.23138" lon="5.62172">
        <ele>281</ele>
        <time>2018-01-17T10:38:44Z</time>
      </trkpt>
      <trkpt lat="43.23144" lon="5.62176">
        <ele>285</ele>
        <time>2018-01-17T10:38:48Z</time>
      </trkpt>
      <trkpt lat="43.2315" lon="5.62178">
        <ele>288</ele>
        <time>2018-01-17T10:38:54Z</time>
      </trkpt>
      <trkpt lat="43.23153" lon="5.62183">
        <ele>289</ele>
        <time>2018-01-17T10:39:02Z</time>
      </trkpt>
      <trkpt lat="43.23154" lon="5.62191">
        <ele>292</ele>
        <time>2018-01-17T10:39:06Z</time>
      </trkpt>
      <trkpt lat="43.23156" lon="5.62198">
        <ele>292</ele>
        <time>2018-01-17T10:39:12Z</time>
      </trkpt>
      <trkpt lat="43.23158" lon="5.62203">
        <ele>289</ele>
        <time>2018-01-17T10:39:18Z</time>
      </trkpt>
      <trkpt lat="43.23159" lon="5.62213">
        <ele>289</ele>
        <time>2018-01-17T10:39:26Z</time>
      </trkpt>
      <trkpt lat="43.23159" lon="5.62219">
        <ele>290</ele>
        <time>2018-01-17T10:39:36Z</time>
      </trkpt>
      <trkpt lat="43.23159" lon="5.6223">
        <ele>292</ele>
        <time>2018-01-17T10:39:42Z</time>
      </trkpt>
      <trkpt lat="43.23159" lon="5.62238">
        <ele>293</ele>
        <time>2018-01-17T10:39:46Z</time>
      </trkpt>
      <trkpt lat="43.2316" lon="5.62249">
        <ele>292</ele>
        <time>2018-01-17T10:39:50Z</time>
      </trkpt>
      <trkpt lat="43.23159" lon="5.62259">
        <ele>296</ele>
        <time>2018-01-17T10:39:56Z</time>
      </trkpt>
      <trkpt lat="43.23159" lon="5.62269">
        <ele>299</ele>
        <time>2018-01-17T10:40:00Z</time>
      </trkpt>
      <trkpt lat="43.23163" lon="5.62271">
        <ele>300</ele>
        <time>2018-01-17T10:40:02Z</time>
      </trkpt>
      <trkpt lat="43.2317" lon="5.62272">
        <ele>301</ele>
        <time>2018-01-17T10:40:06Z</time>
      </trkpt>
      <trkpt lat="43.23173" lon="5.62279">
        <ele>300</ele>
        <time>2018-01-17T10:40:18Z</time>
      </trkpt>
      <trkpt lat="43.23175" lon="5.62284">
        <ele>301</ele>
        <time>2018-01-17T10:41:20Z</time>
      </trkpt>
      <trkpt lat="43.23182" lon="5.62288">
        <ele>302</ele>
        <time>2018-01-17T10:41:30Z</time>
      </trkpt>
      <trkpt lat="43.23186" lon="5.62294">
        <ele>302</ele>
        <time>2018-01-17T10:41:36Z</time>
      </trkpt>
      <trkpt lat="43.2319" lon="5.62301">
        <ele>304</ele>
        <time>2018-01-17T10:41:42Z</time>
      </trkpt>
      <trkpt lat="43.23197" lon="5.62303">
        <ele>302</ele>
        <time>2018-01-17T10:41:48Z</time>
      </trkpt>
      <trkpt lat="43.23199" lon="5.62308">
        <ele>301</ele>
        <time>2018-01-17T10:41:54Z</time>
      </trkpt>
      <trkpt lat="43.23203" lon="5.62314">
        <ele>303</ele>
        <time>2018-01-17T10:42:00Z</time>
      </trkpt>
      <trkpt lat="43.23206" lon="5.62321">
        <ele>305</ele>
        <time>2018-01-17T10:42:06Z</time>
      </trkpt>
      <trkpt lat="43.23209" lon="5.62325">
        <ele>302</ele>
        <time>2018-01-17T10:42:14Z</time>
      </trkpt>
      <trkpt lat="43.23211" lon="5.62333">
        <ele>300</ele>
        <time>2018-01-17T10:42:20Z</time>
      </trkpt>
      <trkpt lat="43.23213" lon="5.62338">
        <ele>300</ele>
        <time>2018-01-17T10:42:28Z</time>
      </trkpt>
      <trkpt lat="43.23217" lon="5.62342">
        <ele>301</ele>
        <time>2018-01-17T10:42:34Z</time>
      </trkpt>
      <trkpt lat="43.23217" lon="5.62349">
        <ele>302</ele>
        <time>2018-01-17T10:42:48Z</time>
      </trkpt>
      <trkpt lat="43.23213" lon="5.62356">
        <ele>304</ele>
        <time>2018-01-17T10:42:56Z</time>
      </trkpt>
      <trkpt lat="43.23209" lon="5.62362">
        <ele>309</ele>
        <time>2018-01-17T10:43:00Z</time>
      </trkpt>
      <trkpt lat="43.23205" lon="5.62369">
        <ele>309</ele>
        <time>2018-01-17T10:43:08Z</time>
      </trkpt>
      <trkpt lat="43.232" lon="5.62373">
        <ele>309</ele>
        <time>2018-01-17T10:43:14Z</time>
      </trkpt>
      <trkpt lat="43.23195" lon="5.62378">
        <ele>309</ele>
        <time>2018-01-17T10:43:22Z</time>
      </trkpt>
      <trkpt lat="43.23192" lon="5.62385">
        <ele>310</ele>
        <time>2018-01-17T10:43:28Z</time>
      </trkpt>
      <trkpt lat="43.23189" lon="5.62397">
        <ele>310</ele>
        <time>2018-01-17T10:43:58Z</time>
      </trkpt>
      <trkpt lat="43.23188" lon="5.62407">
        <ele>308</ele>
        <time>2018-01-17T10:44:02Z</time>
      </trkpt>
      <trkpt lat="43.23187" lon="5.62413">
        <ele>308</ele>
        <time>2018-01-17T10:44:08Z</time>
      </trkpt>
      <trkpt lat="43.23184" lon="5.62419">
        <ele>313</ele>
        <time>2018-01-17T10:44:14Z</time>
      </trkpt>
      <trkpt lat="43.23179" lon="5.62426">
        <ele>314</ele>
        <time>2018-01-17T10:44:26Z</time>
      </trkpt>
      <trkpt lat="43.23177" lon="5.62433">
        <ele>312</ele>
        <time>2018-01-17T10:44:30Z</time>
      </trkpt>
      <trkpt lat="43.23176" lon="5.6244">
        <ele>308</ele>
        <time>2018-01-17T10:44:36Z</time>
      </trkpt>
      <trkpt lat="43.23175" lon="5.62446">
        <ele>311</ele>
        <time>2018-01-17T10:44:40Z</time>
      </trkpt>
      <trkpt lat="43.23173" lon="5.62457">
        <ele>313</ele>
        <time>2018-01-17T10:44:44Z</time>
      </trkpt>
      <trkpt lat="43.23173" lon="5.62463">
        <ele>316</ele>
        <time>2018-01-17T10:44:50Z</time>
      </trkpt>
      <trkpt lat="43.23171" lon="5.62472">
        <ele>317</ele>
        <time>2018-01-17T10:45:10Z</time>
      </trkpt>
      <trkpt lat="43.23174" lon="5.62478">
        <ele>318</ele>
        <time>2018-01-17T10:45:14Z</time>
      </trkpt>
      <trkpt lat="43.23175" lon="5.62484">
        <ele>318</ele>
        <time>2018-01-17T10:45:16Z</time>
      </trkpt>
      <trkpt lat="43.23177" lon="5.62495">
        <ele>319</ele>
        <time>2018-01-17T10:45:20Z</time>
      </trkpt>
      <trkpt lat="43.23176" lon="5.62504">
        <ele>320</ele>
        <time>2018-01-17T10:45:24Z</time>
      </trkpt>
      <trkpt lat="43.23179" lon="5.62509">
        <ele>319</ele>
        <time>2018-01-17T10:45:30Z</time>
      </trkpt>
      <trkpt lat="43.23181" lon="5.62518">
        <ele>321</ele>
        <time>2018-01-17T10:45:36Z</time>
      </trkpt>
      <trkpt lat="43.23183" lon="5.62523">
        <ele>320</ele>
        <time>2018-01-17T10:45:50Z</time>
      </trkpt>
      <trkpt lat="43.23185" lon="5.62529">
        <ele>323</ele>
        <time>2018-01-17T10:45:54Z</time>
      </trkpt>
      <trkpt lat="43.2319" lon="5.62536">
        <ele>321</ele>
        <time>2018-01-17T10:45:58Z</time>
      </trkpt>
      <trkpt lat="43.23195" lon="5.62541">
        <ele>318</ele>
        <time>2018-01-17T10:46:02Z</time>
      </trkpt>
      <trkpt lat="43.23199" lon="5.62544">
        <ele>315</ele>
        <time>2018-01-17T10:46:10Z</time>
      </trkpt>
      <trkpt lat="43.23204" lon="5.62543">
        <ele>318</ele>
        <time>2018-01-17T10:46:16Z</time>
      </trkpt>
      <trkpt lat="43.23209" lon="5.62542">
        <ele>318</ele>
        <time>2018-01-17T10:46:20Z</time>
      </trkpt>
      <trkpt lat="43.23214" lon="5.62543">
        <ele>319</ele>
        <time>2018-01-17T10:46:24Z</time>
      </trkpt>
      <trkpt lat="43.23218" lon="5.62546">
        <ele>320</ele>
        <time>2018-01-17T10:46:28Z</time>
      </trkpt>
      <trkpt lat="43.23225" lon="5.62546">
        <ele>318</ele>
        <time>2018-01-17T10:46:36Z</time>
      </trkpt>
      <trkpt lat="43.23229" lon="5.62549">
        <ele>316</ele>
        <time>2018-01-17T10:46:42Z</time>
      </trkpt>
      <trkpt lat="43.23236" lon="5.62549">
        <ele>316</ele>
        <time>2018-01-17T10:46:50Z</time>
      </trkpt>
      <trkpt lat="43.23241" lon="5.62554">
        <ele>315</ele>
        <time>2018-01-17T10:47:00Z</time>
      </trkpt>
      <trkpt lat="43.23245" lon="5.62559">
        <ele>317</ele>
        <time>2018-01-17T10:47:06Z</time>
      </trkpt>
      <trkpt lat="43.23249" lon="5.62562">
        <ele>317</ele>
        <time>2018-01-17T10:47:12Z</time>
      </trkpt>
      <trkpt lat="43.23253" lon="5.62565">
        <ele>320</ele>
        <time>2018-01-17T10:47:16Z</time>
      </trkpt>
      <trkpt lat="43.23259" lon="5.62569">
        <ele>323</ele>
        <time>2018-01-17T10:47:20Z</time>
      </trkpt>
      <trkpt lat="43.23263" lon="5.62574">
        <ele>324</ele>
        <time>2018-01-17T10:47:26Z</time>
      </trkpt>
      <trkpt lat="43.23268" lon="5.62576">
        <ele>324</ele>
        <time>2018-01-17T10:47:30Z</time>
      </trkpt>
      <trkpt lat="43.23272" lon="5.62579">
        <ele>323</ele>
        <time>2018-01-17T10:47:40Z</time>
      </trkpt>
      <trkpt lat="43.23276" lon="5.62585">
        <ele>321</ele>
        <time>2018-01-17T10:47:50Z</time>
      </trkpt>
      <trkpt lat="43.23279" lon="5.62591">
        <ele>321</ele>
        <time>2018-01-17T10:47:54Z</time>
      </trkpt>
      <trkpt lat="43.23282" lon="5.62598">
        <ele>324</ele>
        <time>2018-01-17T10:48:00Z</time>
      </trkpt>
      <trkpt lat="43.23286" lon="5.62603">
        <ele>325</ele>
        <time>2018-01-17T10:48:04Z</time>
      </trkpt>
      <trkpt lat="43.2329" lon="5.62606">
        <ele>327</ele>
        <time>2018-01-17T10:48:12Z</time>
      </trkpt>
      <trkpt lat="43.23297" lon="5.62614">
        <ele>328</ele>
        <time>2018-01-17T10:48:24Z</time>
      </trkpt>
      <trkpt lat="43.23304" lon="5.62628">
        <ele>332</ele>
        <time>2018-01-17T10:48:28Z</time>
      </trkpt>
      <trkpt lat="43.23307" lon="5.62634">
        <ele>334</ele>
        <time>2018-01-17T10:48:32Z</time>
      </trkpt>
      <trkpt lat="43.23309" lon="5.62643">
        <ele>335</ele>
        <time>2018-01-17T10:48:36Z</time>
      </trkpt>
      <trkpt lat="43.23311" lon="5.62651">
        <ele>340</ele>
        <time>2018-01-17T10:48:40Z</time>
      </trkpt>
      <trkpt lat="43.23314" lon="5.62658">
        <ele>339</ele>
        <time>2018-01-17T10:48:46Z</time>
      </trkpt>
      <trkpt lat="43.23314" lon="5.62664">
        <ele>342</ele>
        <time>2018-01-17T10:48:56Z</time>
      </trkpt>
      <trkpt lat="43.2331" lon="5.62671">
        <ele>345</ele>
        <time>2018-01-17T10:49:04Z</time>
      </trkpt>
      <trkpt lat="43.23305" lon="5.62675">
        <ele>348</ele>
        <time>2018-01-17T10:49:10Z</time>
      </trkpt>
      <trkpt lat="43.23301" lon="5.62673">
        <ele>342</ele>
        <time>2018-01-17T10:49:16Z</time>
      </trkpt>
      <trkpt lat="43.23297" lon="5.62676">
        <ele>341</ele>
        <time>2018-01-17T10:49:22Z</time>
      </trkpt>
      <trkpt lat="43.23292" lon="5.62679">
        <ele>343</ele>
        <time>2018-01-17T10:49:26Z</time>
      </trkpt>
      <trkpt lat="43.23287" lon="5.6268">
        <ele>342</ele>
        <time>2018-01-17T10:49:32Z</time>
      </trkpt>
      <trkpt lat="43.23283" lon="5.62688">
        <ele>346</ele>
        <time>2018-01-17T10:49:36Z</time>
      </trkpt>
      <trkpt lat="43.23278" lon="5.6269">
        <ele>346</ele>
        <time>2018-01-17T10:49:42Z</time>
      </trkpt>
      <trkpt lat="43.23273" lon="5.62695">
        <ele>344</ele>
        <time>2018-01-17T10:49:50Z</time>
      </trkpt>
      <trkpt lat="43.2327" lon="5.62699">
        <ele>346</ele>
        <time>2018-01-17T10:49:54Z</time>
      </trkpt>
      <trkpt lat="43.23266" lon="5.62705">
        <ele>345</ele>
        <time>2018-01-17T10:50:02Z</time>
      </trkpt>
      <trkpt lat="43.23261" lon="5.62706">
        <ele>342</ele>
        <time>2018-01-17T10:50:08Z</time>
      </trkpt>
      <trkpt lat="43.23258" lon="5.62714">
        <ele>343</ele>
        <time>2018-01-17T10:50:12Z</time>
      </trkpt>
      <trkpt lat="43.23257" lon="5.62722">
        <ele>341</ele>
        <time>2018-01-17T10:50:18Z</time>
      </trkpt>
      <trkpt lat="43.23258" lon="5.62731">
        <ele>342</ele>
        <time>2018-01-17T10:50:24Z</time>
      </trkpt>
      <trkpt lat="43.2326" lon="5.62739">
        <ele>340</ele>
        <time>2018-01-17T10:50:30Z</time>
      </trkpt>
      <trkpt lat="43.23261" lon="5.62746">
        <ele>339</ele>
        <time>2018-01-17T10:50:34Z</time>
      </trkpt>
      <trkpt lat="43.23261" lon="5.62754">
        <ele>338</ele>
        <time>2018-01-17T10:50:40Z</time>
      </trkpt>
      <trkpt lat="43.23262" lon="5.62762">
        <ele>339</ele>
        <time>2018-01-17T10:50:44Z</time>
      </trkpt>
      <trkpt lat="43.23267" lon="5.62774">
        <ele>346</ele>
        <time>2018-01-17T10:50:50Z</time>
      </trkpt>
      <trkpt lat="43.23271" lon="5.62779">
        <ele>346</ele>
        <time>2018-01-17T10:50:58Z</time>
      </trkpt>
      <trkpt lat="43.23276" lon="5.62784">
        <ele>346</ele>
        <time>2018-01-17T10:51:04Z</time>
      </trkpt>
      <trkpt lat="43.2328" lon="5.62789">
        <ele>347</ele>
        <time>2018-01-17T10:51:12Z</time>
      </trkpt>
      <trkpt lat="43.23285" lon="5.62794">
        <ele>346</ele>
        <time>2018-01-17T10:51:18Z</time>
      </trkpt>
      <trkpt lat="43.23289" lon="5.628">
        <ele>347</ele>
        <time>2018-01-17T10:51:24Z</time>
      </trkpt>
      <trkpt lat="43.23295" lon="5.62804">
        <ele>347</ele>
        <time>2018-01-17T10:51:32Z</time>
      </trkpt>
      <trkpt lat="43.23299" lon="5.62806">
        <ele>347</ele>
        <time>2018-01-17T10:51:36Z</time>
      </trkpt>
      <trkpt lat="43.23304" lon="5.62811">
        <ele>348</ele>
        <time>2018-01-17T10:51:42Z</time>
      </trkpt>
      <trkpt lat="43.23307" lon="5.62816">
        <ele>350</ele>
        <time>2018-01-17T10:51:48Z</time>
      </trkpt>
      <trkpt lat="43.2331" lon="5.62821">
        <ele>349</ele>
        <time>2018-01-17T10:51:56Z</time>
      </trkpt>
      <trkpt lat="43.23314" lon="5.62826">
        <ele>349</ele>
        <time>2018-01-17T10:52:06Z</time>
      </trkpt>
      <trkpt lat="43.23315" lon="5.62832">
        <ele>349</ele>
        <time>2018-01-17T10:52:12Z</time>
      </trkpt>
      <trkpt lat="43.23317" lon="5.62841">
        <ele>350</ele>
        <time>2018-01-17T10:52:18Z</time>
      </trkpt>
      <trkpt lat="43.23319" lon="5.62847">
        <ele>349</ele>
        <time>2018-01-17T10:52:24Z</time>
      </trkpt>
      <trkpt lat="43.2332" lon="5.62853">
        <ele>348</ele>
        <time>2018-01-17T10:52:32Z</time>
      </trkpt>
      <trkpt lat="43.23322" lon="5.62859">
        <ele>349</ele>
        <time>2018-01-17T10:52:38Z</time>
      </trkpt>
      <trkpt lat="43.23328" lon="5.62862">
        <ele>351</ele>
        <time>2018-01-17T10:52:44Z</time>
      </trkpt>
      <trkpt lat="43.23328" lon="5.62872">
        <ele>355</ele>
        <time>2018-01-17T10:52:50Z</time>
      </trkpt>
      <trkpt lat="43.23331" lon="5.62876">
        <ele>355</ele>
        <time>2018-01-17T10:52:56Z</time>
      </trkpt>
      <trkpt lat="43.23337" lon="5.62878">
        <ele>356</ele>
        <time>2018-01-17T10:53:08Z</time>
      </trkpt>
      <trkpt lat="43.23342" lon="5.62877">
        <ele>358</ele>
        <time>2018-01-17T10:57:56Z</time>
      </trkpt>
      <trkpt lat="43.23346" lon="5.62876">
        <ele>365</ele>
        <time>2018-01-17T10:59:02Z</time>
      </trkpt>
      <trkpt lat="43.2335" lon="5.6288">
        <ele>358</ele>
        <time>2018-01-17T10:59:08Z</time>
      </trkpt>
      <trkpt lat="43.23355" lon="5.62886">
        <ele>359</ele>
        <time>2018-01-17T10:59:14Z</time>
      </trkpt>
      <trkpt lat="43.23359" lon="5.62892">
        <ele>360</ele>
        <time>2018-01-17T10:59:20Z</time>
      </trkpt>
      <trkpt lat="43.23361" lon="5.629">
        <ele>359</ele>
        <time>2018-01-17T10:59:26Z</time>
      </trkpt>
      <trkpt lat="43.23363" lon="5.62907">
        <ele>359</ele>
        <time>2018-01-17T10:59:34Z</time>
      </trkpt>
      <trkpt lat="43.23366" lon="5.62912">
        <ele>358</ele>
        <time>2018-01-17T10:59:42Z</time>
      </trkpt>
      <trkpt lat="43.23368" lon="5.62917">
        <ele>363</ele>
        <time>2018-01-17T10:59:48Z</time>
      </trkpt>
      <trkpt lat="43.2337" lon="5.62923">
        <ele>365</ele>
        <time>2018-01-17T10:59:56Z</time>
      </trkpt>
      <trkpt lat="43.23371" lon="5.6293">
        <ele>363</ele>
        <time>2018-01-17T11:00:02Z</time>
      </trkpt>
      <trkpt lat="43.23369" lon="5.62936">
        <ele>358</ele>
        <time>2018-01-17T11:00:10Z</time>
      </trkpt>
      <trkpt lat="43.23368" lon="5.62943">
        <ele>359</ele>
        <time>2018-01-17T11:00:14Z</time>
      </trkpt>
      <trkpt lat="43.23367" lon="5.6295">
        <ele>360</ele>
        <time>2018-01-17T11:00:26Z</time>
      </trkpt>
      <trkpt lat="43.23364" lon="5.62958">
        <ele>360</ele>
        <time>2018-01-17T11:00:32Z</time>
      </trkpt>
      <trkpt lat="43.23365" lon="5.62966">
        <ele>363</ele>
        <time>2018-01-17T11:00:38Z</time>
      </trkpt>
      <trkpt lat="43.23366" lon="5.62974">
        <ele>363</ele>
        <time>2018-01-17T11:00:44Z</time>
      </trkpt>
      <trkpt lat="43.2337" lon="5.62978">
        <ele>360</ele>
        <time>2018-01-17T11:00:52Z</time>
      </trkpt>
      <trkpt lat="43.23373" lon="5.62983">
        <ele>357</ele>
        <time>2018-01-17T11:00:58Z</time>
      </trkpt>
      <trkpt lat="43.23376" lon="5.62989">
        <ele>358</ele>
        <time>2018-01-17T11:01:04Z</time>
      </trkpt>
      <trkpt lat="43.23378" lon="5.62995">
        <ele>359</ele>
        <time>2018-01-17T11:01:10Z</time>
      </trkpt>
      <trkpt lat="43.23383" lon="5.62999">
        <ele>360</ele>
        <time>2018-01-17T11:01:14Z</time>
      </trkpt>
      <trkpt lat="43.23383" lon="5.63006">
        <ele>363</ele>
        <time>2018-01-17T11:01:20Z</time>
      </trkpt>
      <trkpt lat="43.23385" lon="5.63013">
        <ele>365</ele>
        <time>2018-01-17T11:01:32Z</time>
      </trkpt>
      <trkpt lat="43.23385" lon="5.6302">
        <ele>366</ele>
        <time>2018-01-17T11:01:42Z</time>
      </trkpt>
      <trkpt lat="43.23385" lon="5.63027">
        <ele>365</ele>
        <time>2018-01-17T11:01:48Z</time>
      </trkpt>
      <trkpt lat="43.23385" lon="5.63034">
        <ele>365</ele>
        <time>2018-01-17T11:01:52Z</time>
      </trkpt>
      <trkpt lat="43.23384" lon="5.6304">
        <ele>363</ele>
        <time>2018-01-17T11:01:58Z</time>
      </trkpt>
      <trkpt lat="43.23383" lon="5.63046">
        <ele>365</ele>
        <time>2018-01-17T11:02:02Z</time>
      </trkpt>
      <trkpt lat="43.23382" lon="5.63052">
        <ele>368</ele>
        <time>2018-01-17T11:02:10Z</time>
      </trkpt>
      <trkpt lat="43.23381" lon="5.63059">
        <ele>371</ele>
        <time>2018-01-17T11:02:14Z</time>
      </trkpt>
      <trkpt lat="43.23378" lon="5.63065">
        <ele>368</ele>
        <time>2018-01-17T11:02:20Z</time>
      </trkpt>
      <trkpt lat="43.23377" lon="5.63072">
        <ele>367</ele>
        <time>2018-01-17T11:02:26Z</time>
      </trkpt>
      <trkpt lat="43.23378" lon="5.6308">
        <ele>370</ele>
        <time>2018-01-17T11:02:30Z</time>
      </trkpt>
      <trkpt lat="43.23377" lon="5.63088">
        <ele>372</ele>
        <time>2018-01-17T11:02:36Z</time>
      </trkpt>
      <trkpt lat="43.23376" lon="5.63094">
        <ele>377</ele>
        <time>2018-01-17T11:02:44Z</time>
      </trkpt>
      <trkpt lat="43.23379" lon="5.631">
        <ele>375</ele>
        <time>2018-01-17T11:02:54Z</time>
      </trkpt>
      <trkpt lat="43.23384" lon="5.63103">
        <ele>376</ele>
        <time>2018-01-17T11:03:06Z</time>
      </trkpt>
      <trkpt lat="43.23389" lon="5.63104">
        <ele>375</ele>
        <time>2018-01-17T11:03:12Z</time>
      </trkpt>
      <trkpt lat="43.23396" lon="5.63106">
        <ele>376</ele>
        <time>2018-01-17T11:03:26Z</time>
      </trkpt>
      <trkpt lat="43.23401" lon="5.63112">
        <ele>379</ele>
        <time>2018-01-17T11:03:32Z</time>
      </trkpt>
      <trkpt lat="43.23406" lon="5.63115">
        <ele>376</ele>
        <time>2018-01-17T11:03:38Z</time>
      </trkpt>
      <trkpt lat="43.23411" lon="5.63119">
        <ele>376</ele>
        <time>2018-01-17T11:03:44Z</time>
      </trkpt>
      <trkpt lat="43.23413" lon="5.63125">
        <ele>376</ele>
        <time>2018-01-17T11:03:56Z</time>
      </trkpt>
      <trkpt lat="43.23411" lon="5.63136">
        <ele>382</ele>
        <time>2018-01-17T11:04:10Z</time>
      </trkpt>
      <trkpt lat="43.23409" lon="5.63144">
        <ele>386</ele>
        <time>2018-01-17T11:04:14Z</time>
      </trkpt>
      <trkpt lat="43.23407" lon="5.6315">
        <ele>386</ele>
        <time>2018-01-17T11:04:18Z</time>
      </trkpt>
      <trkpt lat="43.23407" lon="5.63157">
        <ele>385</ele>
        <time>2018-01-17T11:04:22Z</time>
      </trkpt>
      <trkpt lat="43.2341" lon="5.63165">
        <ele>386</ele>
        <time>2018-01-17T11:04:28Z</time>
      </trkpt>
      <trkpt lat="43.2341" lon="5.63172">
        <ele>387</ele>
        <time>2018-01-17T11:04:32Z</time>
      </trkpt>
      <trkpt lat="43.23411" lon="5.63178">
        <ele>389</ele>
        <time>2018-01-17T11:04:38Z</time>
      </trkpt>
      <trkpt lat="43.23416" lon="5.63184">
        <ele>391</ele>
        <time>2018-01-17T11:04:48Z</time>
      </trkpt>
      <trkpt lat="43.23417" lon="5.6319">
        <ele>391</ele>
        <time>2018-01-17T11:04:52Z</time>
      </trkpt>
      <trkpt lat="43.23423" lon="5.63191">
        <ele>386</ele>
        <time>2018-01-17T11:05:02Z</time>
      </trkpt>
      <trkpt lat="43.23428" lon="5.6319">
        <ele>386</ele>
        <time>2018-01-17T11:05:06Z</time>
      </trkpt>
      <trkpt lat="43.23433" lon="5.63192">
        <ele>388</ele>
        <time>2018-01-17T11:05:10Z</time>
      </trkpt>
      <trkpt lat="43.23436" lon="5.63196">
        <ele>388</ele>
        <time>2018-01-17T11:05:18Z</time>
      </trkpt>
      <trkpt lat="43.23441" lon="5.63208">
        <ele>385</ele>
        <time>2018-01-17T11:05:40Z</time>
      </trkpt>
      <trkpt lat="43.23441" lon="5.63219">
        <ele>385</ele>
        <time>2018-01-17T11:05:44Z</time>
      </trkpt>
      <trkpt lat="43.23441" lon="5.63231">
        <ele>391</ele>
        <time>2018-01-17T11:05:48Z</time>
      </trkpt>
      <trkpt lat="43.23441" lon="5.63237">
        <ele>391</ele>
        <time>2018-01-17T11:05:54Z</time>
      </trkpt>
      <trkpt lat="43.23445" lon="5.6324">
        <ele>390</ele>
        <time>2018-01-17T11:05:58Z</time>
      </trkpt>
      <trkpt lat="43.23449" lon="5.63243">
        <ele>391</ele>
        <time>2018-01-17T11:06:02Z</time>
      </trkpt>
      <trkpt lat="43.23454" lon="5.63242">
        <ele>388</ele>
        <time>2018-01-17T11:06:06Z</time>
      </trkpt>
      <trkpt lat="43.23458" lon="5.63245">
        <ele>393</ele>
        <time>2018-01-17T11:06:12Z</time>
      </trkpt>
      <trkpt lat="43.23463" lon="5.63246">
        <ele>394</ele>
        <time>2018-01-17T11:06:28Z</time>
      </trkpt>
      <trkpt lat="43.23468" lon="5.63248">
        <ele>395</ele>
        <time>2018-01-17T11:06:32Z</time>
      </trkpt>
      <trkpt lat="43.23477" lon="5.63246">
        <ele>393</ele>
        <time>2018-01-17T11:06:36Z</time>
      </trkpt>
      <trkpt lat="43.23482" lon="5.63249">
        <ele>393</ele>
        <time>2018-01-17T11:06:42Z</time>
      </trkpt>
      <trkpt lat="43.23487" lon="5.63249">
        <ele>392</ele>
        <time>2018-01-17T11:06:48Z</time>
      </trkpt>
      <trkpt lat="43.23489" lon="5.63255">
        <ele>396</ele>
        <time>2018-01-17T11:06:58Z</time>
      </trkpt>
      <trkpt lat="43.23494" lon="5.63261">
        <ele>399</ele>
        <time>2018-01-17T11:07:06Z</time>
      </trkpt>
      <trkpt lat="43.23497" lon="5.63266">
        <ele>399</ele>
        <time>2018-01-17T11:07:12Z</time>
      </trkpt>
      <trkpt lat="43.23495" lon="5.63273">
        <ele>396</ele>
        <time>2018-01-17T11:07:18Z</time>
      </trkpt>
      <trkpt lat="43.23498" lon="5.63279">
        <ele>398</ele>
        <time>2018-01-17T11:07:24Z</time>
      </trkpt>
      <trkpt lat="43.23497" lon="5.63287">
        <ele>400</ele>
        <time>2018-01-17T11:07:30Z</time>
      </trkpt>
      <trkpt lat="43.23497" lon="5.63293">
        <ele>402</ele>
        <time>2018-01-17T11:07:36Z</time>
      </trkpt>
      <trkpt lat="43.23497" lon="5.63302">
        <ele>401</ele>
        <time>2018-01-17T11:07:48Z</time>
      </trkpt>
      <trkpt lat="43.23497" lon="5.63309">
        <ele>399</ele>
        <time>2018-01-17T11:08:00Z</time>
      </trkpt>
      <trkpt lat="43.23495" lon="5.63316">
        <ele>401</ele>
        <time>2018-01-17T11:08:06Z</time>
      </trkpt>
      <trkpt lat="43.23495" lon="5.63325">
        <ele>401</ele>
        <time>2018-01-17T11:08:12Z</time>
      </trkpt>
      <trkpt lat="43.23497" lon="5.63333">
        <ele>401</ele>
        <time>2018-01-17T11:08:18Z</time>
      </trkpt>
      <trkpt lat="43.23498" lon="5.6334">
        <ele>400</ele>
        <time>2018-01-17T11:08:26Z</time>
      </trkpt>
      <trkpt lat="43.235" lon="5.63347">
        <ele>400</ele>
        <time>2018-01-17T11:08:34Z</time>
      </trkpt>
      <trkpt lat="43.23504" lon="5.63352">
        <ele>400</ele>
        <time>2018-01-17T11:08:40Z</time>
      </trkpt>
      <trkpt lat="43.23509" lon="5.63352">
        <ele>402</ele>
        <time>2018-01-17T11:08:46Z</time>
      </trkpt>
      <trkpt lat="43.23514" lon="5.63353">
        <ele>401</ele>
        <time>2018-01-17T11:08:52Z</time>
      </trkpt>
      <trkpt lat="43.23519" lon="5.63356">
        <ele>403</ele>
        <time>2018-01-17T11:09:00Z</time>
      </trkpt>
      <trkpt lat="43.23524" lon="5.63363">
        <ele>407</ele>
        <time>2018-01-17T11:09:24Z</time>
      </trkpt>
      <trkpt lat="43.23527" lon="5.63371">
        <ele>404</ele>
        <time>2018-01-17T11:09:30Z</time>
      </trkpt>
      <trkpt lat="43.23529" lon="5.63377">
        <ele>404</ele>
        <time>2018-01-17T11:09:34Z</time>
      </trkpt>
      <trkpt lat="43.23532" lon="5.63384">
        <ele>406</ele>
        <time>2018-01-17T11:09:44Z</time>
      </trkpt>
      <trkpt lat="43.23533" lon="5.6339">
        <ele>408</ele>
        <time>2018-01-17T11:09:54Z</time>
      </trkpt>
      <trkpt lat="43.23535" lon="5.63398">
        <ele>409</ele>
        <time>2018-01-17T11:10:02Z</time>
      </trkpt>
      <trkpt lat="43.23537" lon="5.63404">
        <ele>405</ele>
        <time>2018-01-17T11:10:10Z</time>
      </trkpt>
      <trkpt lat="43.23537" lon="5.63411">
        <ele>409</ele>
        <time>2018-01-17T11:10:22Z</time>
      </trkpt>
      <trkpt lat="43.23538" lon="5.63418">
        <ele>414</ele>
        <time>2018-01-17T11:10:28Z</time>
      </trkpt>
      <trkpt lat="43.23536" lon="5.63423">
        <ele>416</ele>
        <time>2018-01-17T11:10:36Z</time>
      </trkpt>
      <trkpt lat="43.2354" lon="5.63428">
        <ele>417</ele>
        <time>2018-01-17T11:10:40Z</time>
      </trkpt>
      <trkpt lat="43.2354" lon="5.63434">
        <ele>418</ele>
        <time>2018-01-17T11:10:44Z</time>
      </trkpt>
      <trkpt lat="43.23541" lon="5.63441">
        <ele>421</ele>
        <time>2018-01-17T11:10:50Z</time>
      </trkpt>
      <trkpt lat="43.23543" lon="5.63446">
        <ele>418</ele>
        <time>2018-01-17T11:11:02Z</time>
      </trkpt>
      <trkpt lat="43.23541" lon="5.63452">
        <ele>420</ele>
        <time>2018-01-17T11:11:08Z</time>
      </trkpt>
      <trkpt lat="43.23538" lon="5.63456">
        <ele>423</ele>
        <time>2018-01-17T11:11:16Z</time>
      </trkpt>
      <trkpt lat="43.2354" lon="5.63462">
        <ele>432</ele>
        <time>2018-01-17T11:13:08Z</time>
      </trkpt>
      <trkpt lat="43.23539" lon="5.63469">
        <ele>435</ele>
        <time>2018-01-17T11:13:22Z</time>
      </trkpt>
      <trkpt lat="43.23539" lon="5.63475">
        <ele>433</ele>
        <time>2018-01-17T11:13:28Z</time>
      </trkpt>
      <trkpt lat="43.23543" lon="5.6348">
        <ele>432</ele>
        <time>2018-01-17T11:13:38Z</time>
      </trkpt>
      <trkpt lat="43.23544" lon="5.63487">
        <ele>430</ele>
        <time>2018-01-17T11:13:44Z</time>
      </trkpt>
      <trkpt lat="43.23545" lon="5.63494">
        <ele>432</ele>
        <time>2018-01-17T11:14:02Z</time>
      </trkpt>
      <trkpt lat="43.23546" lon="5.63502">
        <ele>432</ele>
        <time>2018-01-17T11:14:06Z</time>
      </trkpt>
      <trkpt lat="43.2355" lon="5.63507">
        <ele>433</ele>
        <time>2018-01-17T11:14:14Z</time>
      </trkpt>
      <trkpt lat="43.23554" lon="5.6351">
        <ele>435</ele>
        <time>2018-01-17T11:14:22Z</time>
      </trkpt>
      <trkpt lat="43.23557" lon="5.63516">
        <ele>435</ele>
        <time>2018-01-17T11:14:30Z</time>
      </trkpt>
      <trkpt lat="43.23559" lon="5.63523">
        <ele>437</ele>
        <time>2018-01-17T11:14:34Z</time>
      </trkpt>
      <trkpt lat="43.23561" lon="5.6353">
        <ele>436</ele>
        <time>2018-01-17T11:14:38Z</time>
      </trkpt>
      <trkpt lat="43.23563" lon="5.63536">
        <ele>432</ele>
        <time>2018-01-17T11:14:42Z</time>
      </trkpt>
      <trkpt lat="43.23566" lon="5.63542">
        <ele>433</ele>
        <time>2018-01-17T11:14:50Z</time>
      </trkpt>
      <trkpt lat="43.23568" lon="5.63547">
        <ele>437</ele>
        <time>2018-01-17T11:15:00Z</time>
      </trkpt>
      <trkpt lat="43.23573" lon="5.63552">
        <ele>436</ele>
        <time>2018-01-17T11:15:08Z</time>
      </trkpt>
      <trkpt lat="43.23578" lon="5.63554">
        <ele>434</ele>
        <time>2018-01-17T11:15:14Z</time>
      </trkpt>
      <trkpt lat="43.23582" lon="5.63557">
        <ele>433</ele>
        <time>2018-01-17T11:15:22Z</time>
      </trkpt>
      <trkpt lat="43.23586" lon="5.63563">
        <ele>437</ele>
        <time>2018-01-17T11:15:30Z</time>
      </trkpt>
      <trkpt lat="43.2359" lon="5.63568">
        <ele>438</ele>
        <time>2018-01-17T11:15:36Z</time>
      </trkpt>
      <trkpt lat="43.23594" lon="5.63574">
        <ele>439</ele>
        <time>2018-01-17T11:15:40Z</time>
      </trkpt>
      <trkpt lat="43.23596" lon="5.6358">
        <ele>439</ele>
        <time>2018-01-17T11:15:46Z</time>
      </trkpt>
      <trkpt lat="43.23603" lon="5.63583">
        <ele>440</ele>
        <time>2018-01-17T11:15:54Z</time>
      </trkpt>
      <trkpt lat="43.23606" lon="5.63587">
        <ele>439</ele>
        <time>2018-01-17T11:16:00Z</time>
      </trkpt>
      <trkpt lat="43.2361" lon="5.63594">
        <ele>442</ele>
        <time>2018-01-17T11:16:08Z</time>
      </trkpt>
      <trkpt lat="43.23615" lon="5.63597">
        <ele>443</ele>
        <time>2018-01-17T11:16:20Z</time>
      </trkpt>
      <trkpt lat="43.23619" lon="5.63605">
        <ele>449</ele>
        <time>2018-01-17T11:16:34Z</time>
      </trkpt>
      <trkpt lat="43.23623" lon="5.63612">
        <ele>449</ele>
        <time>2018-01-17T11:16:44Z</time>
      </trkpt>
      <trkpt lat="43.23628" lon="5.63616">
        <ele>449</ele>
        <time>2018-01-17T11:16:52Z</time>
      </trkpt>
      <trkpt lat="43.23632" lon="5.6362">
        <ele>446</ele>
        <time>2018-01-17T11:16:58Z</time>
      </trkpt>
      <trkpt lat="43.23635" lon="5.63624">
        <ele>448</ele>
        <time>2018-01-17T11:17:08Z</time>
      </trkpt>
      <trkpt lat="43.23641" lon="5.63625">
        <ele>446</ele>
        <time>2018-01-17T11:17:18Z</time>
      </trkpt>
      <trkpt lat="43.23644" lon="5.6363">
        <ele>450</ele>
        <time>2018-01-17T11:17:22Z</time>
      </trkpt>
      <trkpt lat="43.23649" lon="5.63631">
        <ele>451</ele>
        <time>2018-01-17T11:17:26Z</time>
      </trkpt>
      <trkpt lat="43.23653" lon="5.63636">
        <ele>453</ele>
        <time>2018-01-17T11:17:40Z</time>
      </trkpt>
      <trkpt lat="43.23657" lon="5.63639">
        <ele>454</ele>
        <time>2018-01-17T11:17:44Z</time>
      </trkpt>
      <trkpt lat="43.23663" lon="5.63644">
        <ele>456</ele>
        <time>2018-01-17T11:17:54Z</time>
      </trkpt>
      <trkpt lat="43.23668" lon="5.63648">
        <ele>454</ele>
        <time>2018-01-17T11:18:00Z</time>
      </trkpt>
      <trkpt lat="43.23668" lon="5.63656">
        <ele>456</ele>
        <time>2018-01-17T11:18:02Z</time>
      </trkpt>
      <trkpt lat="43.23673" lon="5.63654">
        <ele>457</ele>
        <time>2018-01-17T11:18:06Z</time>
      </trkpt>
      <trkpt lat="43.23678" lon="5.63657">
        <ele>457</ele>
        <time>2018-01-17T11:18:48Z</time>
      </trkpt>
      <trkpt lat="43.23683" lon="5.63654">
        <ele>457</ele>
        <time>2018-01-17T11:21:20Z</time>
      </trkpt>
      <trkpt lat="43.23679" lon="5.63657">
        <ele>470</ele>
        <time>2018-01-17T11:24:38Z</time>
      </trkpt>
      <trkpt lat="43.23683" lon="5.6366">
        <ele>468</ele>
        <time>2018-01-17T11:25:08Z</time>
      </trkpt>
      <trkpt lat="43.23686" lon="5.63663">
        <ele>466</ele>
        <time>2018-01-17T11:25:18Z</time>
      </trkpt>
      <trkpt lat="43.23688" lon="5.6367">
        <ele>465</ele>
        <time>2018-01-17T11:25:24Z</time>
      </trkpt>
      <trkpt lat="43.23693" lon="5.63674">
        <ele>467</ele>
        <time>2018-01-17T11:25:32Z</time>
      </trkpt>
      <trkpt lat="43.23698" lon="5.63673">
        <ele>470</ele>
        <time>2018-01-17T11:25:40Z</time>
      </trkpt>
      <trkpt lat="43.23704" lon="5.63673">
        <ele>472</ele>
        <time>2018-01-17T11:25:50Z</time>
      </trkpt>
      <trkpt lat="43.23709" lon="5.63674">
        <ele>469</ele>
        <time>2018-01-17T11:25:58Z</time>
      </trkpt>
      <trkpt lat="43.23713" lon="5.63676">
        <ele>469</ele>
        <time>2018-01-17T11:26:06Z</time>
      </trkpt>
      <trkpt lat="43.23718" lon="5.63675">
        <ele>470</ele>
        <time>2018-01-17T11:26:16Z</time>
      </trkpt>
      <trkpt lat="43.23723" lon="5.63678">
        <ele>469</ele>
        <time>2018-01-17T11:26:26Z</time>
      </trkpt>
      <trkpt lat="43.23727" lon="5.63681">
        <ele>469</ele>
        <time>2018-01-17T11:26:32Z</time>
      </trkpt>
      <trkpt lat="43.23732" lon="5.63681">
        <ele>469</ele>
        <time>2018-01-17T11:26:40Z</time>
      </trkpt>
      <trkpt lat="43.23738" lon="5.6368">
        <ele>471</ele>
        <time>2018-01-17T11:26:48Z</time>
      </trkpt>
      <trkpt lat="43.23744" lon="5.63675">
        <ele>469</ele>
        <time>2018-01-17T11:26:52Z</time>
      </trkpt>
      <trkpt lat="43.23749" lon="5.63679">
        <ele>469</ele>
        <time>2018-01-17T11:27:02Z</time>
      </trkpt>
      <trkpt lat="43.23752" lon="5.63683">
        <ele>470</ele>
        <time>2018-01-17T11:27:08Z</time>
      </trkpt>
      <trkpt lat="43.23757" lon="5.63682">
        <ele>473</ele>
        <time>2018-01-17T11:27:22Z</time>
      </trkpt>
      <trkpt lat="43.23764" lon="5.63681">
        <ele>468</ele>
        <time>2018-01-17T11:27:28Z</time>
      </trkpt>
      <trkpt lat="43.23768" lon="5.6368">
        <ele>473</ele>
        <time>2018-01-17T11:27:34Z</time>
      </trkpt>
      <trkpt lat="43.23773" lon="5.63682">
        <ele>475</ele>
        <time>2018-01-17T11:27:42Z</time>
      </trkpt>
      <trkpt lat="43.23777" lon="5.63684">
        <ele>476</ele>
        <time>2018-01-17T11:27:50Z</time>
      </trkpt>
      <trkpt lat="43.23782" lon="5.63684">
        <ele>481</ele>
        <time>2018-01-17T11:28:00Z</time>
      </trkpt>
      <trkpt lat="43.23788" lon="5.63682">
        <ele>482</ele>
        <time>2018-01-17T11:28:08Z</time>
      </trkpt>
      <trkpt lat="43.23794" lon="5.63684">
        <ele>481</ele>
        <time>2018-01-17T11:28:14Z</time>
      </trkpt>
      <trkpt lat="43.238" lon="5.63684">
        <ele>485</ele>
        <time>2018-01-17T11:28:24Z</time>
      </trkpt>
      <trkpt lat="43.23805" lon="5.63683">
        <ele>487</ele>
        <time>2018-01-17T11:28:32Z</time>
      </trkpt>
      <trkpt lat="43.2381" lon="5.63679">
        <ele>487</ele>
        <time>2018-01-17T11:28:38Z</time>
      </trkpt>
      <trkpt lat="43.23815" lon="5.63679">
        <ele>488</ele>
        <time>2018-01-17T11:28:48Z</time>
      </trkpt>
      <trkpt lat="43.23819" lon="5.63677">
        <ele>487</ele>
        <time>2018-01-17T11:28:56Z</time>
      </trkpt>
      <trkpt lat="43.23824" lon="5.63673">
        <ele>487</ele>
        <time>2018-01-17T11:29:04Z</time>
      </trkpt>
      <trkpt lat="43.23828" lon="5.63671">
        <ele>487</ele>
        <time>2018-01-17T11:29:14Z</time>
      </trkpt>
      <trkpt lat="43.23834" lon="5.63672">
        <ele>487</ele>
        <time>2018-01-17T11:29:36Z</time>
      </trkpt>
      <trkpt lat="43.23839" lon="5.63673">
        <ele>484</ele>
        <time>2018-01-17T11:29:44Z</time>
      </trkpt>
      <trkpt lat="43.23843" lon="5.63669">
        <ele>484</ele>
        <time>2018-01-17T11:29:50Z</time>
      </trkpt>
      <trkpt lat="43.23846" lon="5.63665">
        <ele>490</ele>
        <time>2018-01-17T11:30:10Z</time>
      </trkpt>
      <trkpt lat="43.2385" lon="5.6366">
        <ele>496</ele>
        <time>2018-01-17T11:30:24Z</time>
      </trkpt>
      <trkpt lat="43.23854" lon="5.63659">
        <ele>495</ele>
        <time>2018-01-17T11:30:38Z</time>
      </trkpt>
      <trkpt lat="43.23855" lon="5.63653">
        <ele>503</ele>
        <time>2018-01-17T11:30:50Z</time>
      </trkpt>
      <trkpt lat="43.23859" lon="5.63648">
        <ele>511</ele>
        <time>2018-01-17T11:31:48Z</time>
      </trkpt>
      <trkpt lat="43.23864" lon="5.63646">
        <ele>500</ele>
        <time>2018-01-17T11:33:20Z</time>
      </trkpt>
      <trkpt lat="43.23868" lon="5.63644">
        <ele>504</ele>
        <time>2018-01-17T11:35:16Z</time>
      </trkpt>
      <trkpt lat="43.23872" lon="5.63639">
        <ele>504</ele>
        <time>2018-01-17T11:35:38Z</time>
      </trkpt>
      <trkpt lat="43.23877" lon="5.63636">
        <ele>506</ele>
        <time>2018-01-17T11:35:54Z</time>
      </trkpt>
      <trkpt lat="43.23881" lon="5.6364">
        <ele>510</ele>
        <time>2018-01-17T11:36:10Z</time>
      </trkpt>
      <trkpt lat="43.23886" lon="5.63638">
        <ele>507</ele>
        <time>2018-01-17T11:37:02Z</time>
      </trkpt>
      <trkpt lat="43.23886" lon="5.63632">
        <ele>506</ele>
        <time>2018-01-17T11:38:26Z</time>
      </trkpt>
      <trkpt lat="43.23889" lon="5.63636">
        <ele>504</ele>
        <time>2018-01-17T11:38:46Z</time>
      </trkpt>
      <trkpt lat="43.23893" lon="5.6364">
        <ele>506</ele>
        <time>2018-01-17T11:38:56Z</time>
      </trkpt>
      <trkpt lat="43.23897" lon="5.63638">
        <ele>509</ele>
        <time>2018-01-17T11:39:40Z</time>
      </trkpt>
      <trkpt lat="43.23902" lon="5.63635">
        <ele>513</ele>
        <time>2018-01-17T11:39:48Z</time>
      </trkpt>
      <trkpt lat="43.23906" lon="5.63632">
        <ele>516</ele>
        <time>2018-01-17T11:39:54Z</time>
      </trkpt>
      <trkpt lat="43.23911" lon="5.63631">
        <ele>520</ele>
        <time>2018-01-17T11:40:02Z</time>
      </trkpt>
      <trkpt lat="43.23916" lon="5.63631">
        <ele>517</ele>
        <time>2018-01-17T11:40:14Z</time>
      </trkpt>
      <trkpt lat="43.23921" lon="5.63627">
        <ele>514</ele>
        <time>2018-01-17T11:40:18Z</time>
      </trkpt>
      <trkpt lat="43.23926" lon="5.63627">
        <ele>517</ele>
        <time>2018-01-17T11:40:28Z</time>
      </trkpt>
      <trkpt lat="43.23932" lon="5.63626">
        <ele>519</ele>
        <time>2018-01-17T11:40:36Z</time>
      </trkpt>
      <trkpt lat="43.23937" lon="5.63626">
        <ele>521</ele>
        <time>2018-01-17T11:40:48Z</time>
      </trkpt>
      <trkpt lat="43.2394" lon="5.63631">
        <ele>522</ele>
        <time>2018-01-17T11:40:56Z</time>
      </trkpt>
      <trkpt lat="43.23946" lon="5.63634">
        <ele>522</ele>
        <time>2018-01-17T11:41:06Z</time>
      </trkpt>
      <trkpt lat="43.2395" lon="5.63636">
        <ele>524</ele>
        <time>2018-01-17T11:41:32Z</time>
      </trkpt>
      <trkpt lat="43.23954" lon="5.63642">
        <ele>521</ele>
        <time>2018-01-17T11:41:38Z</time>
      </trkpt>
      <trkpt lat="43.23955" lon="5.63648">
        <ele>522</ele>
        <time>2018-01-17T11:41:42Z</time>
      </trkpt>
      <trkpt lat="43.23957" lon="5.63654">
        <ele>527</ele>
        <time>2018-01-17T11:41:46Z</time>
      </trkpt>
      <trkpt lat="43.23961" lon="5.63657">
        <ele>528</ele>
        <time>2018-01-17T11:42:00Z</time>
      </trkpt>
      <trkpt lat="43.23967" lon="5.6366">
        <ele>530</ele>
        <time>2018-01-17T11:42:06Z</time>
      </trkpt>
      <trkpt lat="43.23971" lon="5.63663">
        <ele>530</ele>
        <time>2018-01-17T11:42:10Z</time>
      </trkpt>
      <trkpt lat="43.23971" lon="5.6367">
        <ele>528</ele>
        <time>2018-01-17T11:42:14Z</time>
      </trkpt>
      <trkpt lat="43.23976" lon="5.63674">
        <ele>533</ele>
        <time>2018-01-17T11:42:30Z</time>
      </trkpt>
      <trkpt lat="43.23978" lon="5.63681">
        <ele>534</ele>
        <time>2018-01-17T11:42:38Z</time>
      </trkpt>
      <trkpt lat="43.2398" lon="5.63686">
        <ele>534</ele>
        <time>2018-01-17T11:42:42Z</time>
      </trkpt>
      <trkpt lat="43.23982" lon="5.63692">
        <ele>537</ele>
        <time>2018-01-17T11:43:08Z</time>
      </trkpt>
      <trkpt lat="43.23984" lon="5.63685">
        <ele>530</ele>
        <time>2018-01-17T11:45:34Z</time>
      </trkpt>
      <trkpt lat="43.23981" lon="5.63695">
        <ele>528</ele>
        <time>2018-01-17T11:45:58Z</time>
      </trkpt>
      <trkpt lat="43.23979" lon="5.63704">
        <ele>527</ele>
        <time>2018-01-17T11:46:02Z</time>
      </trkpt>
      <trkpt lat="43.23977" lon="5.63712">
        <ele>529</ele>
        <time>2018-01-17T11:46:06Z</time>
      </trkpt>
      <trkpt lat="43.23977" lon="5.63718">
        <ele>523</ele>
        <time>2018-01-17T11:46:14Z</time>
      </trkpt>
      <trkpt lat="43.23976" lon="5.63725">
        <ele>526</ele>
        <time>2018-01-17T11:46:18Z</time>
      </trkpt>
      <trkpt lat="43.23974" lon="5.63733">
        <ele>527</ele>
        <time>2018-01-17T11:46:24Z</time>
      </trkpt>
      <trkpt lat="43.23973" lon="5.63739">
        <ele>526</ele>
        <time>2018-01-17T11:46:32Z</time>
      </trkpt>
      <trkpt lat="43.23972" lon="5.63746">
        <ele>525</ele>
        <time>2018-01-17T11:46:38Z</time>
      </trkpt>
      <trkpt lat="43.23971" lon="5.63754">
        <ele>524</ele>
        <time>2018-01-17T11:46:44Z</time>
      </trkpt>
      <trkpt lat="43.23968" lon="5.63759">
        <ele>523</ele>
        <time>2018-01-17T11:46:46Z</time>
      </trkpt>
      <trkpt lat="43.23965" lon="5.63766">
        <ele>524</ele>
        <time>2018-01-17T11:46:50Z</time>
      </trkpt>
      <trkpt lat="43.23964" lon="5.63775">
        <ele>526</ele>
        <time>2018-01-17T11:46:54Z</time>
      </trkpt>
      <trkpt lat="43.23961" lon="5.63782">
        <ele>526</ele>
        <time>2018-01-17T11:47:00Z</time>
      </trkpt>
      <trkpt lat="43.2396" lon="5.63789">
        <ele>526</ele>
        <time>2018-01-17T11:47:06Z</time>
      </trkpt>
      <trkpt lat="43.23962" lon="5.63795">
        <ele>522</ele>
        <time>2018-01-17T11:47:16Z</time>
      </trkpt>
      <trkpt lat="43.23963" lon="5.63807">
        <ele>307</ele>
        <time>2018-01-17T11:47:22Z</time>
      </trkpt>
      <trkpt lat="43.23964" lon="5.63816">
        <ele>426</ele>
        <time>2018-01-17T11:47:25Z</time>
      </trkpt>
      <trkpt lat="43.23961" lon="5.63825">
        <ele>486</ele>
        <time>2018-01-17T11:47:29Z</time>
      </trkpt>
      <trkpt lat="43.2396" lon="5.63832">
        <ele>505</ele>
        <time>2018-01-17T11:47:33Z</time>
      </trkpt>
      <trkpt lat="43.23959" lon="5.63839">
        <ele>516</ele>
        <time>2018-01-17T11:47:37Z</time>
      </trkpt>
      <trkpt lat="43.23957" lon="5.63845">
        <ele>523</ele>
        <time>2018-01-17T11:47:43Z</time>
      </trkpt>
      <trkpt lat="43.23957" lon="5.63852">
        <ele>524</ele>
        <time>2018-01-17T11:47:53Z</time>
      </trkpt>
      <trkpt lat="43.23956" lon="5.63861">
        <ele>527</ele>
        <time>2018-01-17T11:47:59Z</time>
      </trkpt>
      <trkpt lat="43.23954" lon="5.63869">
        <ele>526</ele>
        <time>2018-01-17T11:48:03Z</time>
      </trkpt>
      <trkpt lat="43.23953" lon="5.63878">
        <ele>526</ele>
        <time>2018-01-17T11:48:07Z</time>
      </trkpt>
      <trkpt lat="43.23953" lon="5.63887">
        <ele>527</ele>
        <time>2018-01-17T11:48:13Z</time>
      </trkpt>
      <trkpt lat="43.23953" lon="5.63897">
        <ele>528</ele>
        <time>2018-01-17T11:48:23Z</time>
      </trkpt>
      <trkpt lat="43.23953" lon="5.63906">
        <ele>530</ele>
        <time>2018-01-17T11:48:27Z</time>
      </trkpt>
      <trkpt lat="43.23952" lon="5.63912">
        <ele>530</ele>
        <time>2018-01-17T11:48:31Z</time>
      </trkpt>
      <trkpt lat="43.23951" lon="5.63919">
        <ele>529</ele>
        <time>2018-01-17T11:48:37Z</time>
      </trkpt>
      <trkpt lat="43.23953" lon="5.63926">
        <ele>529</ele>
        <time>2018-01-17T11:48:45Z</time>
      </trkpt>
      <trkpt lat="43.23956" lon="5.6393">
        <ele>531</ele>
        <time>2018-01-17T11:48:49Z</time>
      </trkpt>
      <trkpt lat="43.23956" lon="5.63937">
        <ele>529</ele>
        <time>2018-01-17T11:48:55Z</time>
      </trkpt>
      <trkpt lat="43.23955" lon="5.63944">
        <ele>529</ele>
        <time>2018-01-17T11:48:59Z</time>
      </trkpt>
      <trkpt lat="43.23954" lon="5.63951">
        <ele>528</ele>
        <time>2018-01-17T11:49:05Z</time>
      </trkpt>
      <trkpt lat="43.23954" lon="5.6396">
        <ele>527</ele>
        <time>2018-01-17T11:49:11Z</time>
      </trkpt>
      <trkpt lat="43.23954" lon="5.63967">
        <ele>529</ele>
        <time>2018-01-17T11:49:15Z</time>
      </trkpt>
      <trkpt lat="43.23955" lon="5.63974">
        <ele>528</ele>
        <time>2018-01-17T11:49:19Z</time>
      </trkpt>
      <trkpt lat="43.23956" lon="5.63983">
        <ele>531</ele>
        <time>2018-01-17T11:49:23Z</time>
      </trkpt>
      <trkpt lat="43.2396" lon="5.63989">
        <ele>535</ele>
        <time>2018-01-17T11:49:29Z</time>
      </trkpt>
      <trkpt lat="43.23963" lon="5.63995">
        <ele>534</ele>
        <time>2018-01-17T11:49:35Z</time>
      </trkpt>
      <trkpt lat="43.23965" lon="5.64003">
        <ele>533</ele>
        <time>2018-01-17T11:49:39Z</time>
      </trkpt>
      <trkpt lat="43.23965" lon="5.6401">
        <ele>536</ele>
        <time>2018-01-17T11:49:43Z</time>
      </trkpt>
      <trkpt lat="43.23968" lon="5.64017">
        <ele>534</ele>
        <time>2018-01-17T11:49:49Z</time>
      </trkpt>
      <trkpt lat="43.23972" lon="5.64021">
        <ele>534</ele>
        <time>2018-01-17T11:49:53Z</time>
      </trkpt>
      <trkpt lat="43.23975" lon="5.64029">
        <ele>535</ele>
        <time>2018-01-17T11:49:59Z</time>
      </trkpt>
      <trkpt lat="43.23977" lon="5.64035">
        <ele>535</ele>
        <time>2018-01-17T11:50:03Z</time>
      </trkpt>
      <trkpt lat="43.2398" lon="5.6404">
        <ele>535</ele>
        <time>2018-01-17T11:50:07Z</time>
      </trkpt>
      <trkpt lat="43.23981" lon="5.64049">
        <ele>534</ele>
        <time>2018-01-17T11:50:13Z</time>
      </trkpt>
      <trkpt lat="43.23982" lon="5.64058">
        <ele>534</ele>
        <time>2018-01-17T11:50:20Z</time>
      </trkpt>
      <trkpt lat="43.23983" lon="5.64066">
        <ele>533</ele>
        <time>2018-01-17T11:50:26Z</time>
      </trkpt>
      <trkpt lat="43.23985" lon="5.64072">
        <ele>534</ele>
        <time>2018-01-17T11:50:30Z</time>
      </trkpt>
      <trkpt lat="43.23987" lon="5.64078">
        <ele>533</ele>
        <time>2018-01-17T11:50:34Z</time>
      </trkpt>
      <trkpt lat="43.23991" lon="5.64084">
        <ele>532</ele>
        <time>2018-01-17T11:50:40Z</time>
      </trkpt>
      <trkpt lat="43.23994" lon="5.64092">
        <ele>531</ele>
        <time>2018-01-17T11:50:46Z</time>
      </trkpt>
      <trkpt lat="43.23995" lon="5.641">
        <ele>534</ele>
        <time>2018-01-17T11:50:50Z</time>
      </trkpt>
      <trkpt lat="43.23993" lon="5.64106">
        <ele>528</ele>
        <time>2018-01-17T11:51:02Z</time>
      </trkpt>
      <trkpt lat="43.2399" lon="5.64111">
        <ele>527</ele>
        <time>2018-01-17T11:51:06Z</time>
      </trkpt>
      <trkpt lat="43.23987" lon="5.64118">
        <ele>526</ele>
        <time>2018-01-17T11:51:14Z</time>
      </trkpt>
      <trkpt lat="43.23983" lon="5.64127">
        <ele>523</ele>
        <time>2018-01-17T11:51:20Z</time>
      </trkpt>
      <trkpt lat="43.2398" lon="5.64133">
        <ele>523</ele>
        <time>2018-01-17T11:51:24Z</time>
      </trkpt>
      <trkpt lat="43.23977" lon="5.6414">
        <ele>521</ele>
        <time>2018-01-17T11:51:28Z</time>
      </trkpt>
      <trkpt lat="43.23974" lon="5.64146">
        <ele>521</ele>
        <time>2018-01-17T11:51:32Z</time>
      </trkpt>
      <trkpt lat="43.2397" lon="5.64155">
        <ele>521</ele>
        <time>2018-01-17T11:51:36Z</time>
      </trkpt>
      <trkpt lat="43.23966" lon="5.64163">
        <ele>520</ele>
        <time>2018-01-17T11:51:44Z</time>
      </trkpt>
      <trkpt lat="43.23965" lon="5.64173">
        <ele>523</ele>
        <time>2018-01-17T11:51:50Z</time>
      </trkpt>
      <trkpt lat="43.23964" lon="5.6418">
        <ele>523</ele>
        <time>2018-01-17T11:51:54Z</time>
      </trkpt>
      <trkpt lat="43.23961" lon="5.64188">
        <ele>526</ele>
        <time>2018-01-17T11:51:58Z</time>
      </trkpt>
      <trkpt lat="43.23961" lon="5.64198">
        <ele>527</ele>
        <time>2018-01-17T11:52:04Z</time>
      </trkpt>
      <trkpt lat="43.23959" lon="5.64205">
        <ele>526</ele>
        <time>2018-01-17T11:52:10Z</time>
      </trkpt>
      <trkpt lat="43.23959" lon="5.64212">
        <ele>527</ele>
        <time>2018-01-17T11:52:16Z</time>
      </trkpt>
      <trkpt lat="43.23959" lon="5.64219">
        <ele>527</ele>
        <time>2018-01-17T11:52:24Z</time>
      </trkpt>
      <trkpt lat="43.23959" lon="5.64226">
        <ele>527</ele>
        <time>2018-01-17T11:52:30Z</time>
      </trkpt>
      <trkpt lat="43.23958" lon="5.64234">
        <ele>529</ele>
        <time>2018-01-17T11:52:36Z</time>
      </trkpt>
      <trkpt lat="43.23953" lon="5.64239">
        <ele>530</ele>
        <time>2018-01-17T11:52:42Z</time>
      </trkpt>
      <trkpt lat="43.23948" lon="5.6424">
        <ele>529</ele>
        <time>2018-01-17T11:52:46Z</time>
      </trkpt>
      <trkpt lat="43.23942" lon="5.64243">
        <ele>528</ele>
        <time>2018-01-17T11:52:52Z</time>
      </trkpt>
      <trkpt lat="43.23935" lon="5.64245">
        <ele>527</ele>
        <time>2018-01-17T11:52:58Z</time>
      </trkpt>
      <trkpt lat="43.23929" lon="5.64246">
        <ele>526</ele>
        <time>2018-01-17T11:53:04Z</time>
      </trkpt>
      <trkpt lat="43.23924" lon="5.64245">
        <ele>524</ele>
        <time>2018-01-17T11:53:08Z</time>
      </trkpt>
      <trkpt lat="43.23918" lon="5.64242">
        <ele>524</ele>
        <time>2018-01-17T11:53:14Z</time>
      </trkpt>
      <trkpt lat="43.23911" lon="5.6424">
        <ele>523</ele>
        <time>2018-01-17T11:53:20Z</time>
      </trkpt>
      <trkpt lat="43.23906" lon="5.64236">
        <ele>522</ele>
        <time>2018-01-17T11:53:28Z</time>
      </trkpt>
      <trkpt lat="43.239" lon="5.64233">
        <ele>522</ele>
        <time>2018-01-17T11:53:34Z</time>
      </trkpt>
      <trkpt lat="43.23895" lon="5.64234">
        <ele>519</ele>
        <time>2018-01-17T11:53:38Z</time>
      </trkpt>
      <trkpt lat="43.23892" lon="5.64226">
        <ele>520</ele>
        <time>2018-01-17T11:53:46Z</time>
      </trkpt>
      <trkpt lat="43.23886" lon="5.64226">
        <ele>517</ele>
        <time>2018-01-17T11:53:52Z</time>
      </trkpt>
      <trkpt lat="43.23882" lon="5.64223">
        <ele>514</ele>
        <time>2018-01-17T11:53:58Z</time>
      </trkpt>
      <trkpt lat="43.23877" lon="5.64224">
        <ele>516</ele>
        <time>2018-01-17T11:54:02Z</time>
      </trkpt>
      <trkpt lat="43.23872" lon="5.64223">
        <ele>513</ele>
        <time>2018-01-17T11:54:16Z</time>
      </trkpt>
      <trkpt lat="43.23867" lon="5.64223">
        <ele>513</ele>
        <time>2018-01-17T11:54:24Z</time>
      </trkpt>
      <trkpt lat="43.23863" lon="5.64227">
        <ele>514</ele>
        <time>2018-01-17T11:54:30Z</time>
      </trkpt>
      <trkpt lat="43.23857" lon="5.64229">
        <ele>514</ele>
        <time>2018-01-17T11:54:42Z</time>
      </trkpt>
      <trkpt lat="43.23853" lon="5.64231">
        <ele>513</ele>
        <time>2018-01-17T11:54:50Z</time>
      </trkpt>
      <trkpt lat="43.23847" lon="5.64231">
        <ele>507</ele>
        <time>2018-01-17T11:54:58Z</time>
      </trkpt>
      <trkpt lat="43.23843" lon="5.64229">
        <ele>507</ele>
        <time>2018-01-17T11:55:08Z</time>
      </trkpt>
      <trkpt lat="43.23837" lon="5.64229">
        <ele>503</ele>
        <time>2018-01-17T11:55:18Z</time>
      </trkpt>
      <trkpt lat="43.23832" lon="5.64227">
        <ele>502</ele>
        <time>2018-01-17T11:55:26Z</time>
      </trkpt>
      <trkpt lat="43.23826" lon="5.64226">
        <ele>501</ele>
        <time>2018-01-17T11:55:32Z</time>
      </trkpt>
      <trkpt lat="43.23822" lon="5.64222">
        <ele>491</ele>
        <time>2018-01-17T11:55:40Z</time>
      </trkpt>
      <trkpt lat="43.23817" lon="5.64221">
        <ele>493</ele>
        <time>2018-01-17T11:55:50Z</time>
      </trkpt>
      <trkpt lat="43.23813" lon="5.64222">
        <ele>494</ele>
        <time>2018-01-17T11:55:58Z</time>
      </trkpt>
      <trkpt lat="43.23808" lon="5.64222">
        <ele>495</ele>
        <time>2018-01-17T11:56:08Z</time>
      </trkpt>
      <trkpt lat="43.23802" lon="5.64222">
        <ele>495</ele>
        <time>2018-01-17T11:56:16Z</time>
      </trkpt>
      <trkpt lat="43.23797" lon="5.64224">
        <ele>495</ele>
        <time>2018-01-17T11:56:22Z</time>
      </trkpt>
      <trkpt lat="43.23793" lon="5.64227">
        <ele>492</ele>
        <time>2018-01-17T11:56:28Z</time>
      </trkpt>
      <trkpt lat="43.23788" lon="5.64227">
        <ele>494</ele>
        <time>2018-01-17T11:56:34Z</time>
      </trkpt>
      <trkpt lat="43.23783" lon="5.64228">
        <ele>495</ele>
        <time>2018-01-17T11:56:46Z</time>
      </trkpt>
      <trkpt lat="43.23778" lon="5.6423">
        <ele>495</ele>
        <time>2018-01-17T11:56:50Z</time>
      </trkpt>
      <trkpt lat="43.23771" lon="5.64231">
        <ele>491</ele>
        <time>2018-01-17T11:56:56Z</time>
      </trkpt>
      <trkpt lat="43.23767" lon="5.64236">
        <ele>489</ele>
        <time>2018-01-17T11:57:02Z</time>
      </trkpt>
      <trkpt lat="43.23762" lon="5.64238">
        <ele>490</ele>
        <time>2018-01-17T11:57:10Z</time>
      </trkpt>
      <trkpt lat="43.23757" lon="5.64239">
        <ele>489</ele>
        <time>2018-01-17T11:57:16Z</time>
      </trkpt>
      <trkpt lat="43.23753" lon="5.64243">
        <ele>490</ele>
        <time>2018-01-17T11:57:24Z</time>
      </trkpt>
      <trkpt lat="43.23747" lon="5.64245">
        <ele>489</ele>
        <time>2018-01-17T11:57:36Z</time>
      </trkpt>
      <trkpt lat="43.23742" lon="5.64246">
        <ele>486</ele>
        <time>2018-01-17T11:57:44Z</time>
      </trkpt>
      <trkpt lat="43.23737" lon="5.64248">
        <ele>488</ele>
        <time>2018-01-17T11:57:52Z</time>
      </trkpt>
      <trkpt lat="43.23733" lon="5.6425">
        <ele>487</ele>
        <time>2018-01-17T11:58:00Z</time>
      </trkpt>
      <trkpt lat="43.23728" lon="5.64253">
        <ele>483</ele>
        <time>2018-01-17T11:58:06Z</time>
      </trkpt>
      <trkpt lat="43.23724" lon="5.64256">
        <ele>484</ele>
        <time>2018-01-17T11:58:10Z</time>
      </trkpt>
      <trkpt lat="43.2372" lon="5.6426">
        <ele>484</ele>
        <time>2018-01-17T11:58:16Z</time>
      </trkpt>
      <trkpt lat="43.23717" lon="5.64264">
        <ele>482</ele>
        <time>2018-01-17T11:58:28Z</time>
      </trkpt>
      <trkpt lat="43.23712" lon="5.64271">
        <ele>476</ele>
        <time>2018-01-17T11:58:34Z</time>
      </trkpt>
      <trkpt lat="43.2371" lon="5.64278">
        <ele>478</ele>
        <time>2018-01-17T11:58:40Z</time>
      </trkpt>
      <trkpt lat="43.23706" lon="5.6429">
        <ele>481</ele>
        <time>2018-01-17T11:58:44Z</time>
      </trkpt>
      <trkpt lat="43.23703" lon="5.64295">
        <ele>484</ele>
        <time>2018-01-17T11:58:52Z</time>
      </trkpt>
      <trkpt lat="43.23698" lon="5.64295">
        <ele>479</ele>
        <time>2018-01-17T11:59:02Z</time>
      </trkpt>
      <trkpt lat="43.23693" lon="5.64297">
        <ele>477</ele>
        <time>2018-01-17T11:59:12Z</time>
      </trkpt>
      <trkpt lat="43.23687" lon="5.64294">
        <ele>476</ele>
        <time>2018-01-17T11:59:24Z</time>
      </trkpt>
      <trkpt lat="43.2368" lon="5.64292">
        <ele>470</ele>
        <time>2018-01-17T11:59:30Z</time>
      </trkpt>
      <trkpt lat="43.23676" lon="5.64288">
        <ele>466</ele>
        <time>2018-01-17T11:59:36Z</time>
      </trkpt>
      <trkpt lat="43.23671" lon="5.64286">
        <ele>463</ele>
        <time>2018-01-17T11:59:46Z</time>
      </trkpt>
      <trkpt lat="43.23667" lon="5.64283">
        <ele>463</ele>
        <time>2018-01-17T11:59:52Z</time>
      </trkpt>
      <trkpt lat="43.23662" lon="5.6428">
        <ele>460</ele>
        <time>2018-01-17T12:00:00Z</time>
      </trkpt>
      <trkpt lat="43.23658" lon="5.64277">
        <ele>464</ele>
        <time>2018-01-17T12:00:10Z</time>
      </trkpt>
      <trkpt lat="43.23652" lon="5.64279">
        <ele>463</ele>
        <time>2018-01-17T12:00:20Z</time>
      </trkpt>
      <trkpt lat="43.23648" lon="5.64276">
        <ele>458</ele>
        <time>2018-01-17T12:00:26Z</time>
      </trkpt>
      <trkpt lat="43.23644" lon="5.64271">
        <ele>458</ele>
        <time>2018-01-17T12:00:32Z</time>
      </trkpt>
      <trkpt lat="43.23639" lon="5.64268">
        <ele>458</ele>
        <time>2018-01-17T12:00:44Z</time>
      </trkpt>
      <trkpt lat="43.23633" lon="5.64264">
        <ele>453</ele>
        <time>2018-01-17T12:00:50Z</time>
      </trkpt>
      <trkpt lat="43.23629" lon="5.64262">
        <ele>452</ele>
        <time>2018-01-17T12:01:02Z</time>
      </trkpt>
      <trkpt lat="43.23624" lon="5.64259">
        <ele>451</ele>
        <time>2018-01-17T12:01:12Z</time>
      </trkpt>
      <trkpt lat="43.23621" lon="5.64253">
        <ele>447</ele>
        <time>2018-01-17T12:01:18Z</time>
      </trkpt>
      <trkpt lat="43.23622" lon="5.64246">
        <ele>447</ele>
        <time>2018-01-17T12:01:22Z</time>
      </trkpt>
      <trkpt lat="43.23615" lon="5.6424">
        <ele>453</ele>
        <time>2018-01-17T12:01:28Z</time>
      </trkpt>
      <trkpt lat="43.23609" lon="5.64237">
        <ele>450</ele>
        <time>2018-01-17T12:01:32Z</time>
      </trkpt>
      <trkpt lat="43.23605" lon="5.64234">
        <ele>448</ele>
        <time>2018-01-17T12:01:36Z</time>
      </trkpt>
      <trkpt lat="43.23601" lon="5.64229">
        <ele>444</ele>
        <time>2018-01-17T12:01:44Z</time>
      </trkpt>
      <trkpt lat="43.23597" lon="5.64227">
        <ele>438</ele>
        <time>2018-01-17T12:01:50Z</time>
      </trkpt>
      <trkpt lat="43.23592" lon="5.64223">
        <ele>436</ele>
        <time>2018-01-17T12:01:56Z</time>
      </trkpt>
      <trkpt lat="43.23587" lon="5.64219">
        <ele>430</ele>
        <time>2018-01-17T12:02:02Z</time>
      </trkpt>
      <trkpt lat="43.23583" lon="5.64214">
        <ele>430</ele>
        <time>2018-01-17T12:02:08Z</time>
      </trkpt>
      <trkpt lat="43.23578" lon="5.64206">
        <ele>431</ele>
        <time>2018-01-17T12:02:14Z</time>
      </trkpt>
      <trkpt lat="43.23573" lon="5.64202">
        <ele>430</ele>
        <time>2018-01-17T12:02:22Z</time>
      </trkpt>
      <trkpt lat="43.2357" lon="5.64197">
        <ele>423</ele>
        <time>2018-01-17T12:02:28Z</time>
      </trkpt>
      <trkpt lat="43.23565" lon="5.64189">
        <ele>421</ele>
        <time>2018-01-17T12:02:34Z</time>
      </trkpt>
      <trkpt lat="43.23562" lon="5.64182">
        <ele>428</ele>
        <time>2018-01-17T12:02:38Z</time>
      </trkpt>
      <trkpt lat="43.23559" lon="5.64173">
        <ele>431</ele>
        <time>2018-01-17T12:02:44Z</time>
      </trkpt>
      <trkpt lat="43.23556" lon="5.64168">
        <ele>431</ele>
        <time>2018-01-17T12:02:50Z</time>
      </trkpt>
      <trkpt lat="43.23553" lon="5.64161">
        <ele>435</ele>
        <time>2018-01-17T12:02:56Z</time>
      </trkpt>
      <trkpt lat="43.2355" lon="5.64153">
        <ele>438</ele>
        <time>2018-01-17T12:03:02Z</time>
      </trkpt>
      <trkpt lat="43.23548" lon="5.64147">
        <ele>440</ele>
        <time>2018-01-17T12:03:06Z</time>
      </trkpt>
      <trkpt lat="43.23545" lon="5.64142">
        <ele>440</ele>
        <time>2018-01-17T12:03:18Z</time>
      </trkpt>
      <trkpt lat="43.23542" lon="5.64135">
        <ele>435</ele>
        <time>2018-01-17T12:03:26Z</time>
      </trkpt>
      <trkpt lat="43.23538" lon="5.6413">
        <ele>438</ele>
        <time>2018-01-17T12:03:36Z</time>
      </trkpt>
      <trkpt lat="43.2353" lon="5.64126">
        <ele>445</ele>
        <time>2018-01-17T12:03:52Z</time>
      </trkpt>
      <trkpt lat="43.23525" lon="5.64124">
        <ele>445</ele>
        <time>2018-01-17T12:04:10Z</time>
      </trkpt>
      <trkpt lat="43.23521" lon="5.6412">
        <ele>448</ele>
        <time>2018-01-17T12:04:20Z</time>
      </trkpt>
      <trkpt lat="43.23518" lon="5.64115">
        <ele>448</ele>
        <time>2018-01-17T12:04:26Z</time>
      </trkpt>
      <trkpt lat="43.23515" lon="5.6411">
        <ele>449</ele>
        <time>2018-01-17T12:04:32Z</time>
      </trkpt>
      <trkpt lat="43.23512" lon="5.64105">
        <ele>448</ele>
        <time>2018-01-17T12:04:38Z</time>
      </trkpt>
      <trkpt lat="43.23505" lon="5.64107">
        <ele>445</ele>
        <time>2018-01-17T12:04:44Z</time>
      </trkpt>
      <trkpt lat="43.23501" lon="5.64103">
        <ele>444</ele>
        <time>2018-01-17T12:04:52Z</time>
      </trkpt>
      <trkpt lat="43.23496" lon="5.64099">
        <ele>445</ele>
        <time>2018-01-17T12:05:00Z</time>
      </trkpt>
      <trkpt lat="43.23494" lon="5.64091">
        <ele>448</ele>
        <time>2018-01-17T12:05:08Z</time>
      </trkpt>
      <trkpt lat="43.2349" lon="5.64096">
        <ele>447</ele>
        <time>2018-01-17T12:05:14Z</time>
      </trkpt>
      <trkpt lat="43.23486" lon="5.64099">
        <ele>455</ele>
        <time>2018-01-17T12:06:48Z</time>
      </trkpt>
      <trkpt lat="43.23485" lon="5.64093">
        <ele>465</ele>
        <time>2018-01-17T12:07:40Z</time>
      </trkpt>
      <trkpt lat="43.23481" lon="5.64089">
        <ele>462</ele>
        <time>2018-01-17T12:07:46Z</time>
      </trkpt>
      <trkpt lat="43.23476" lon="5.64088">
        <ele>454</ele>
        <time>2018-01-17T12:07:52Z</time>
      </trkpt>
      <trkpt lat="43.2347" lon="5.64085">
        <ele>450</ele>
        <time>2018-01-17T12:08:00Z</time>
      </trkpt>
      <trkpt lat="43.23466" lon="5.64081">
        <ele>447</ele>
        <time>2018-01-17T12:08:06Z</time>
      </trkpt>
      <trkpt lat="43.23462" lon="5.64076">
        <ele>448</ele>
        <time>2018-01-17T12:08:12Z</time>
      </trkpt>
      <trkpt lat="43.23457" lon="5.64071">
        <ele>443</ele>
        <time>2018-01-17T12:08:20Z</time>
      </trkpt>
      <trkpt lat="43.23454" lon="5.64066">
        <ele>442</ele>
        <time>2018-01-17T12:08:26Z</time>
      </trkpt>
      <trkpt lat="43.2345" lon="5.64061">
        <ele>442</ele>
        <time>2018-01-17T12:08:32Z</time>
      </trkpt>
      <trkpt lat="43.23447" lon="5.64057">
        <ele>443</ele>
        <time>2018-01-17T12:08:38Z</time>
      </trkpt>
      <trkpt lat="43.23443" lon="5.64052">
        <ele>445</ele>
        <time>2018-01-17T12:08:44Z</time>
      </trkpt>
      <trkpt lat="43.23439" lon="5.64047">
        <ele>442</ele>
        <time>2018-01-17T12:08:50Z</time>
      </trkpt>
      <trkpt lat="43.23434" lon="5.64043">
        <ele>442</ele>
        <time>2018-01-17T12:08:56Z</time>
      </trkpt>
      <trkpt lat="43.23433" lon="5.64037">
        <ele>441</ele>
        <time>2018-01-17T12:09:04Z</time>
      </trkpt>
      <trkpt lat="43.2343" lon="5.64032">
        <ele>435</ele>
        <time>2018-01-17T12:09:28Z</time>
      </trkpt>
      <trkpt lat="43.23428" lon="5.64026">
        <ele>433</ele>
        <time>2018-01-17T12:09:36Z</time>
      </trkpt>
      <trkpt lat="43.23424" lon="5.6402">
        <ele>432</ele>
        <time>2018-01-17T12:09:44Z</time>
      </trkpt>
      <trkpt lat="43.23422" lon="5.64013">
        <ele>431</ele>
        <time>2018-01-17T12:09:50Z</time>
      </trkpt>
      <trkpt lat="43.23419" lon="5.64007">
        <ele>431</ele>
        <time>2018-01-17T12:09:56Z</time>
      </trkpt>
      <trkpt lat="43.23415" lon="5.64002">
        <ele>431</ele>
        <time>2018-01-17T12:10:04Z</time>
      </trkpt>
      <trkpt lat="43.23412" lon="5.63995">
        <ele>425</ele>
        <time>2018-01-17T12:10:12Z</time>
      </trkpt>
      <trkpt lat="43.23407" lon="5.63992">
        <ele>423</ele>
        <time>2018-01-17T12:10:16Z</time>
      </trkpt>
      <trkpt lat="43.23403" lon="5.63996">
        <ele>420</ele>
        <time>2018-01-17T12:10:22Z</time>
      </trkpt>
      <trkpt lat="43.23399" lon="5.63999">
        <ele>427</ele>
        <time>2018-01-17T12:10:38Z</time>
      </trkpt>
      <trkpt lat="43.23395" lon="5.63994">
        <ele>426</ele>
        <time>2018-01-17T12:10:52Z</time>
      </trkpt>
      <trkpt lat="43.23392" lon="5.63988">
        <ele>429</ele>
        <time>2018-01-17T12:10:58Z</time>
      </trkpt>
      <trkpt lat="43.23393" lon="5.63978">
        <ele>427</ele>
        <time>2018-01-17T12:11:04Z</time>
      </trkpt>
      <trkpt lat="43.2339" lon="5.63973">
        <ele>424</ele>
        <time>2018-01-17T12:11:10Z</time>
      </trkpt>
      <trkpt lat="43.23387" lon="5.63968">
        <ele>422</ele>
        <time>2018-01-17T12:11:16Z</time>
      </trkpt>
      <trkpt lat="43.23384" lon="5.63962">
        <ele>418</ele>
        <time>2018-01-17T12:11:24Z</time>
      </trkpt>
      <trkpt lat="43.23378" lon="5.63961">
        <ele>419</ele>
        <time>2018-01-17T12:11:30Z</time>
      </trkpt>
      <trkpt lat="43.23374" lon="5.63957">
        <ele>420</ele>
        <time>2018-01-17T12:11:38Z</time>
      </trkpt>
      <trkpt lat="43.23373" lon="5.63951">
        <ele>427</ele>
        <time>2018-01-17T12:11:48Z</time>
      </trkpt>
      <trkpt lat="43.23371" lon="5.63943">
        <ele>428</ele>
        <time>2018-01-17T12:11:56Z</time>
      </trkpt>
      <trkpt lat="43.23369" lon="5.63938">
        <ele>427</ele>
        <time>2018-01-17T12:12:06Z</time>
      </trkpt>
      <trkpt lat="43.23373" lon="5.63944">
        <ele>431</ele>
        <time>2018-01-17T12:12:16Z</time>
      </trkpt>
      <trkpt lat="43.23369" lon="5.63948">
        <ele>431</ele>
        <time>2018-01-17T12:15:46Z</time>
      </trkpt>
      <trkpt lat="43.23366" lon="5.63953">
        <ele>428</ele>
        <time>2018-01-17T12:22:46Z</time>
      </trkpt>
      <trkpt lat="43.23371" lon="5.63949">
        <ele>430</ele>
        <time>2018-01-17T12:23:58Z</time>
      </trkpt>
      <trkpt lat="43.23377" lon="5.63947">
        <ele>433</ele>
        <time>2018-01-17T12:24:04Z</time>
      </trkpt>
      <trkpt lat="43.23373" lon="5.63944">
        <ele>434</ele>
        <time>2018-01-17T12:24:34Z</time>
      </trkpt>
      <trkpt lat="43.23369" lon="5.63951">
        <ele>435</ele>
        <time>2018-01-17T12:41:44Z</time>
      </trkpt>
      <trkpt lat="43.23373" lon="5.63947">
        <ele>431</ele>
        <time>2018-01-17T12:48:56Z</time>
      </trkpt>
      <trkpt lat="43.23371" lon="5.63956">
        <ele>444</ele>
        <time>2018-01-17T12:54:16Z</time>
      </trkpt>
      <trkpt lat="43.23372" lon="5.63948">
        <ele>434</ele>
        <time>2018-01-17T12:54:18Z</time>
      </trkpt>
      <trkpt lat="43.23371" lon="5.63957">
        <ele>444</ele>
        <time>2018-01-17T12:54:20Z</time>
      </trkpt>
      <trkpt lat="43.23372" lon="5.63948">
        <ele>434</ele>
        <time>2018-01-17T12:54:22Z</time>
      </trkpt>
      <trkpt lat="43.23374" lon="5.63942">
        <ele>431</ele>
        <time>2018-01-17T13:10:31Z</time>
      </trkpt>
      <trkpt lat="43.23379" lon="5.63942">
        <ele>434</ele>
        <time>2018-01-17T13:11:31Z</time>
      </trkpt>
      <trkpt lat="43.23374" lon="5.63941">
        <ele>435</ele>
        <time>2018-01-17T13:11:47Z</time>
      </trkpt>
      <trkpt lat="43.23374" lon="5.63948">
        <ele>440</ele>
        <time>2018-01-17T13:18:35Z</time>
      </trkpt>
      <trkpt lat="43.23379" lon="5.63947">
        <ele>443</ele>
        <time>2018-01-17T13:23:05Z</time>
      </trkpt>
      <trkpt lat="43.23385" lon="5.63947">
        <ele>442</ele>
        <time>2018-01-17T13:23:11Z</time>
      </trkpt>
      <trkpt lat="43.2339" lon="5.63944">
        <ele>441</ele>
        <time>2018-01-17T13:23:15Z</time>
      </trkpt>
      <trkpt lat="43.23394" lon="5.63939">
        <ele>438</ele>
        <time>2018-01-17T13:23:21Z</time>
      </trkpt>
      <trkpt lat="43.23398" lon="5.63935">
        <ele>435</ele>
        <time>2018-01-17T13:23:25Z</time>
      </trkpt>
      <trkpt lat="43.23398" lon="5.63928">
        <ele>435</ele>
        <time>2018-01-17T13:23:29Z</time>
      </trkpt>
      <trkpt lat="43.23394" lon="5.63924">
        <ele>437</ele>
        <time>2018-01-17T13:23:35Z</time>
      </trkpt>
      <trkpt lat="43.23389" lon="5.63918">
        <ele>436</ele>
        <time>2018-01-17T13:23:41Z</time>
      </trkpt>
      <trkpt lat="43.23385" lon="5.63912">
        <ele>434</ele>
        <time>2018-01-17T13:23:47Z</time>
      </trkpt>
      <trkpt lat="43.23382" lon="5.63906">
        <ele>434</ele>
        <time>2018-01-17T13:23:53Z</time>
      </trkpt>
      <trkpt lat="43.23378" lon="5.639">
        <ele>436</ele>
        <time>2018-01-17T13:24:03Z</time>
      </trkpt>
      <trkpt lat="43.23374" lon="5.63893">
        <ele>436</ele>
        <time>2018-01-17T13:24:07Z</time>
      </trkpt>
      <trkpt lat="43.23371" lon="5.63885">
        <ele>435</ele>
        <time>2018-01-17T13:24:13Z</time>
      </trkpt>
      <trkpt lat="43.23368" lon="5.6388">
        <ele>437</ele>
        <time>2018-01-17T13:24:17Z</time>
      </trkpt>
      <trkpt lat="43.23363" lon="5.63875">
        <ele>439</ele>
        <time>2018-01-17T13:24:21Z</time>
      </trkpt>
      <trkpt lat="43.23365" lon="5.63868">
        <ele>431</ele>
        <time>2018-01-17T13:24:31Z</time>
      </trkpt>
      <trkpt lat="43.23367" lon="5.63862">
        <ele>428</ele>
        <time>2018-01-17T13:24:35Z</time>
      </trkpt>
      <trkpt lat="43.23363" lon="5.63857">
        <ele>424</ele>
        <time>2018-01-17T13:24:43Z</time>
      </trkpt>
      <trkpt lat="43.23362" lon="5.63848">
        <ele>418</ele>
        <time>2018-01-17T13:24:53Z</time>
      </trkpt>
      <trkpt lat="43.23361" lon="5.63841">
        <ele>416</ele>
        <time>2018-01-17T13:24:57Z</time>
      </trkpt>
      <trkpt lat="43.23362" lon="5.63833">
        <ele>414</ele>
        <time>2018-01-17T13:25:05Z</time>
      </trkpt>
      <trkpt lat="43.23363" lon="5.63827">
        <ele>413</ele>
        <time>2018-01-17T13:25:09Z</time>
      </trkpt>
      <trkpt lat="43.23365" lon="5.63819">
        <ele>410</ele>
        <time>2018-01-17T13:25:15Z</time>
      </trkpt>
      <trkpt lat="43.23364" lon="5.63813">
        <ele>410</ele>
        <time>2018-01-17T13:25:21Z</time>
      </trkpt>
      <trkpt lat="43.23364" lon="5.63805">
        <ele>412</ele>
        <time>2018-01-17T13:25:27Z</time>
      </trkpt>
      <trkpt lat="43.23365" lon="5.63795">
        <ele>414</ele>
        <time>2018-01-17T13:25:33Z</time>
      </trkpt>
      <trkpt lat="43.23366" lon="5.63788">
        <ele>415</ele>
        <time>2018-01-17T13:25:37Z</time>
      </trkpt>
      <trkpt lat="43.23366" lon="5.63778">
        <ele>418</ele>
        <time>2018-01-17T13:25:41Z</time>
      </trkpt>
      <trkpt lat="43.23364" lon="5.6377">
        <ele>418</ele>
        <time>2018-01-17T13:25:45Z</time>
      </trkpt>
      <trkpt lat="43.23362" lon="5.63764">
        <ele>417</ele>
        <time>2018-01-17T13:25:49Z</time>
      </trkpt>
      <trkpt lat="43.23363" lon="5.63757">
        <ele>418</ele>
        <time>2018-01-17T13:25:53Z</time>
      </trkpt>
      <trkpt lat="43.23364" lon="5.63749">
        <ele>418</ele>
        <time>2018-01-17T13:25:57Z</time>
      </trkpt>
      <trkpt lat="43.23363" lon="5.63743">
        <ele>415</ele>
        <time>2018-01-17T13:26:01Z</time>
      </trkpt>
      <trkpt lat="43.23361" lon="5.63734">
        <ele>413</ele>
        <time>2018-01-17T13:26:07Z</time>
      </trkpt>
      <trkpt lat="43.23358" lon="5.63725">
        <ele>413</ele>
        <time>2018-01-17T13:26:13Z</time>
      </trkpt>
      <trkpt lat="43.23352" lon="5.63718">
        <ele>413</ele>
        <time>2018-01-17T13:26:17Z</time>
      </trkpt>
      <trkpt lat="43.23348" lon="5.63714">
        <ele>415</ele>
        <time>2018-01-17T13:26:21Z</time>
      </trkpt>
      <trkpt lat="43.23345" lon="5.63709">
        <ele>411</ele>
        <time>2018-01-17T13:26:29Z</time>
      </trkpt>
      <trkpt lat="43.2334" lon="5.63705">
        <ele>410</ele>
        <time>2018-01-17T13:26:33Z</time>
      </trkpt>
      <trkpt lat="43.23336" lon="5.637">
        <ele>413</ele>
        <time>2018-01-17T13:26:37Z</time>
      </trkpt>
      <trkpt lat="43.23331" lon="5.63694">
        <ele>414</ele>
        <time>2018-01-17T13:26:43Z</time>
      </trkpt>
      <trkpt lat="43.23327" lon="5.63688">
        <ele>417</ele>
        <time>2018-01-17T13:26:47Z</time>
      </trkpt>
      <trkpt lat="43.23323" lon="5.63684">
        <ele>418</ele>
        <time>2018-01-17T13:26:51Z</time>
      </trkpt>
      <trkpt lat="43.23319" lon="5.63681">
        <ele>419</ele>
        <time>2018-01-17T13:26:55Z</time>
      </trkpt>
      <trkpt lat="43.23315" lon="5.63676">
        <ele>419</ele>
        <time>2018-01-17T13:26:59Z</time>
      </trkpt>
      <trkpt lat="43.2331" lon="5.63672">
        <ele>419</ele>
        <time>2018-01-17T13:27:03Z</time>
      </trkpt>
      <trkpt lat="43.23305" lon="5.63668">
        <ele>423</ele>
        <time>2018-01-17T13:27:07Z</time>
      </trkpt>
      <trkpt lat="43.233" lon="5.63664">
        <ele>421</ele>
        <time>2018-01-17T13:27:13Z</time>
      </trkpt>
      <trkpt lat="43.23296" lon="5.6366">
        <ele>417</ele>
        <time>2018-01-17T13:27:19Z</time>
      </trkpt>
      <trkpt lat="43.23289" lon="5.63655">
        <ele>420</ele>
        <time>2018-01-17T13:27:25Z</time>
      </trkpt>
      <trkpt lat="43.23286" lon="5.63648">
        <ele>419</ele>
        <time>2018-01-17T13:27:31Z</time>
      </trkpt>
      <trkpt lat="43.23285" lon="5.6364">
        <ele>413</ele>
        <time>2018-01-17T13:27:39Z</time>
      </trkpt>
      <trkpt lat="43.23281" lon="5.63635">
        <ele>412</ele>
        <time>2018-01-17T13:27:45Z</time>
      </trkpt>
      <trkpt lat="43.2328" lon="5.63628">
        <ele>405</ele>
        <time>2018-01-17T13:27:53Z</time>
      </trkpt>
      <trkpt lat="43.23277" lon="5.63622">
        <ele>404</ele>
        <time>2018-01-17T13:27:57Z</time>
      </trkpt>
      <trkpt lat="43.23271" lon="5.63616">
        <ele>404</ele>
        <time>2018-01-17T13:28:03Z</time>
      </trkpt>
      <trkpt lat="43.23266" lon="5.63611">
        <ele>405</ele>
        <time>2018-01-17T13:28:09Z</time>
      </trkpt>
      <trkpt lat="43.23262" lon="5.63606">
        <ele>403</ele>
        <time>2018-01-17T13:28:13Z</time>
      </trkpt>
      <trkpt lat="43.23258" lon="5.63601">
        <ele>403</ele>
        <time>2018-01-17T13:28:19Z</time>
      </trkpt>
      <trkpt lat="43.23254" lon="5.63594">
        <ele>398</ele>
        <time>2018-01-17T13:28:27Z</time>
      </trkpt>
      <trkpt lat="43.23249" lon="5.63588">
        <ele>398</ele>
        <time>2018-01-17T13:28:33Z</time>
      </trkpt>
      <trkpt lat="43.23245" lon="5.63585">
        <ele>397</ele>
        <time>2018-01-17T13:28:37Z</time>
      </trkpt>
      <trkpt lat="43.23241" lon="5.63581">
        <ele>398</ele>
        <time>2018-01-17T13:28:41Z</time>
      </trkpt>
      <trkpt lat="43.23236" lon="5.63575">
        <ele>398</ele>
        <time>2018-01-17T13:28:47Z</time>
      </trkpt>
      <trkpt lat="43.23233" lon="5.63571">
        <ele>398</ele>
        <time>2018-01-17T13:28:51Z</time>
      </trkpt>
      <trkpt lat="43.23227" lon="5.63567">
        <ele>401</ele>
        <time>2018-01-17T13:28:55Z</time>
      </trkpt>
      <trkpt lat="43.23223" lon="5.63561">
        <ele>400</ele>
        <time>2018-01-17T13:29:01Z</time>
      </trkpt>
      <trkpt lat="43.23215" lon="5.63557">
        <ele>401</ele>
        <time>2018-01-17T13:29:07Z</time>
      </trkpt>
      <trkpt lat="43.2321" lon="5.63549">
        <ele>399</ele>
        <time>2018-01-17T13:29:15Z</time>
      </trkpt>
      <trkpt lat="43.23205" lon="5.63546">
        <ele>398</ele>
        <time>2018-01-17T13:29:21Z</time>
      </trkpt>
      <trkpt lat="43.23201" lon="5.63542">
        <ele>396</ele>
        <time>2018-01-17T13:29:25Z</time>
      </trkpt>
      <trkpt lat="43.23196" lon="5.6354">
        <ele>401</ele>
        <time>2018-01-17T13:29:27Z</time>
      </trkpt>
      <trkpt lat="43.23191" lon="5.63536">
        <ele>402</ele>
        <time>2018-01-17T13:29:31Z</time>
      </trkpt>
      <trkpt lat="43.23188" lon="5.63531">
        <ele>402</ele>
        <time>2018-01-17T13:29:37Z</time>
      </trkpt>
      <trkpt lat="43.23185" lon="5.63527">
        <ele>403</ele>
        <time>2018-01-17T13:29:39Z</time>
      </trkpt>
      <trkpt lat="43.23179" lon="5.63525">
        <ele>402</ele>
        <time>2018-01-17T13:29:45Z</time>
      </trkpt>
      <trkpt lat="43.23175" lon="5.63521">
        <ele>401</ele>
        <time>2018-01-17T13:29:49Z</time>
      </trkpt>
      <trkpt lat="43.23171" lon="5.63519">
        <ele>402</ele>
        <time>2018-01-17T13:29:53Z</time>
      </trkpt>
      <trkpt lat="43.23167" lon="5.63517">
        <ele>402</ele>
        <time>2018-01-17T13:29:57Z</time>
      </trkpt>
      <trkpt lat="43.23163" lon="5.63513">
        <ele>400</ele>
        <time>2018-01-17T13:30:01Z</time>
      </trkpt>
      <trkpt lat="43.23159" lon="5.63508">
        <ele>395</ele>
        <time>2018-01-17T13:30:07Z</time>
      </trkpt>
      <trkpt lat="43.23153" lon="5.63505">
        <ele>394</ele>
        <time>2018-01-17T13:30:13Z</time>
      </trkpt>
      <trkpt lat="43.23148" lon="5.63501">
        <ele>393</ele>
        <time>2018-01-17T13:30:19Z</time>
      </trkpt>
      <trkpt lat="43.23143" lon="5.635">
        <ele>394</ele>
        <time>2018-01-17T13:30:23Z</time>
      </trkpt>
      <trkpt lat="43.23138" lon="5.63497">
        <ele>392</ele>
        <time>2018-01-17T13:30:27Z</time>
      </trkpt>
      <trkpt lat="43.23133" lon="5.63493">
        <ele>391</ele>
        <time>2018-01-17T13:30:31Z</time>
      </trkpt>
      <trkpt lat="43.23127" lon="5.63491">
        <ele>391</ele>
        <time>2018-01-17T13:30:37Z</time>
      </trkpt>
      <trkpt lat="43.23121" lon="5.63488">
        <ele>391</ele>
        <time>2018-01-17T13:30:43Z</time>
      </trkpt>
      <trkpt lat="43.23115" lon="5.63488">
        <ele>392</ele>
        <time>2018-01-17T13:30:49Z</time>
      </trkpt>
      <trkpt lat="43.2311" lon="5.63487">
        <ele>391</ele>
        <time>2018-01-17T13:30:55Z</time>
      </trkpt>
      <trkpt lat="43.23105" lon="5.63485">
        <ele>387</ele>
        <time>2018-01-17T13:31:01Z</time>
      </trkpt>
      <trkpt lat="43.231" lon="5.63483">
        <ele>383</ele>
        <time>2018-01-17T13:31:07Z</time>
      </trkpt>
      <trkpt lat="43.23096" lon="5.63485">
        <ele>386</ele>
        <time>2018-01-17T13:31:11Z</time>
      </trkpt>
      <trkpt lat="43.2309" lon="5.63485">
        <ele>386</ele>
        <time>2018-01-17T13:31:17Z</time>
      </trkpt>
      <trkpt lat="43.23085" lon="5.63486">
        <ele>381</ele>
        <time>2018-01-17T13:31:23Z</time>
      </trkpt>
      <trkpt lat="43.2308" lon="5.63486">
        <ele>379</ele>
        <time>2018-01-17T13:31:27Z</time>
      </trkpt>
      <trkpt lat="43.23075" lon="5.63488">
        <ele>381</ele>
        <time>2018-01-17T13:31:31Z</time>
      </trkpt>
      <trkpt lat="43.2307" lon="5.63487">
        <ele>378</ele>
        <time>2018-01-17T13:31:37Z</time>
      </trkpt>
      <trkpt lat="43.23065" lon="5.63485">
        <ele>376</ele>
        <time>2018-01-17T13:31:41Z</time>
      </trkpt>
      <trkpt lat="43.2306" lon="5.63484">
        <ele>375</ele>
        <time>2018-01-17T13:31:45Z</time>
      </trkpt>
      <trkpt lat="43.23056" lon="5.63485">
        <ele>376</ele>
        <time>2018-01-17T13:31:49Z</time>
      </trkpt>
      <trkpt lat="43.23051" lon="5.63483">
        <ele>377</ele>
        <time>2018-01-17T13:31:53Z</time>
      </trkpt>
      <trkpt lat="43.23046" lon="5.63483">
        <ele>378</ele>
        <time>2018-01-17T13:31:57Z</time>
      </trkpt>
      <trkpt lat="43.23042" lon="5.6348">
        <ele>378</ele>
        <time>2018-01-17T13:32:03Z</time>
      </trkpt>
      <trkpt lat="43.23035" lon="5.63478">
        <ele>379</ele>
        <time>2018-01-17T13:32:09Z</time>
      </trkpt>
      <trkpt lat="43.2303" lon="5.63476">
        <ele>377</ele>
        <time>2018-01-17T13:32:15Z</time>
      </trkpt>
      <trkpt lat="43.23025" lon="5.63476">
        <ele>376</ele>
        <time>2018-01-17T13:32:21Z</time>
      </trkpt>
      <trkpt lat="43.23021" lon="5.63473">
        <ele>377</ele>
        <time>2018-01-17T13:32:25Z</time>
      </trkpt>
      <trkpt lat="43.23016" lon="5.63469">
        <ele>377</ele>
        <time>2018-01-17T13:32:31Z</time>
      </trkpt>
      <trkpt lat="43.23011" lon="5.63465">
        <ele>375</ele>
        <time>2018-01-17T13:32:41Z</time>
      </trkpt>
      <trkpt lat="43.23006" lon="5.63462">
        <ele>374</ele>
        <time>2018-01-17T13:32:47Z</time>
      </trkpt>
      <trkpt lat="43.23002" lon="5.63458">
        <ele>374</ele>
        <time>2018-01-17T13:32:53Z</time>
      </trkpt>
      <trkpt lat="43.22999" lon="5.63452">
        <ele>373</ele>
        <time>2018-01-17T13:32:59Z</time>
      </trkpt>
      <trkpt lat="43.22995" lon="5.63448">
        <ele>375</ele>
        <time>2018-01-17T13:33:03Z</time>
      </trkpt>
      <trkpt lat="43.22994" lon="5.63442">
        <ele>375</ele>
        <time>2018-01-17T13:33:09Z</time>
      </trkpt>
      <trkpt lat="43.22994" lon="5.63435">
        <ele>371</ele>
        <time>2018-01-17T13:33:15Z</time>
      </trkpt>
      <trkpt lat="43.22989" lon="5.63431">
        <ele>374</ele>
        <time>2018-01-17T13:33:19Z</time>
      </trkpt>
      <trkpt lat="43.22984" lon="5.63427">
        <ele>376</ele>
        <time>2018-01-17T13:33:25Z</time>
      </trkpt>
      <trkpt lat="43.2298" lon="5.63422">
        <ele>375</ele>
        <time>2018-01-17T13:33:33Z</time>
      </trkpt>
      <trkpt lat="43.22978" lon="5.63416">
        <ele>370</ele>
        <time>2018-01-17T13:33:47Z</time>
      </trkpt>
      <trkpt lat="43.22975" lon="5.63412">
        <ele>367</ele>
        <time>2018-01-17T13:33:59Z</time>
      </trkpt>
      <trkpt lat="43.2297" lon="5.63409">
        <ele>369</ele>
        <time>2018-01-17T13:34:03Z</time>
      </trkpt>
      <trkpt lat="43.22966" lon="5.63404">
        <ele>366</ele>
        <time>2018-01-17T13:34:09Z</time>
      </trkpt>
      <trkpt lat="43.22962" lon="5.63399">
        <ele>364</ele>
        <time>2018-01-17T13:34:17Z</time>
      </trkpt>
      <trkpt lat="43.22957" lon="5.63395">
        <ele>363</ele>
        <time>2018-01-17T13:34:23Z</time>
      </trkpt>
      <trkpt lat="43.22952" lon="5.63393">
        <ele>361</ele>
        <time>2018-01-17T13:34:29Z</time>
      </trkpt>
      <trkpt lat="43.22947" lon="5.63388">
        <ele>361</ele>
        <time>2018-01-17T13:34:33Z</time>
      </trkpt>
      <trkpt lat="43.22945" lon="5.63382">
        <ele>361</ele>
        <time>2018-01-17T13:34:37Z</time>
      </trkpt>
      <trkpt lat="43.22942" lon="5.63375">
        <ele>360</ele>
        <time>2018-01-17T13:34:43Z</time>
      </trkpt>
      <trkpt lat="43.22938" lon="5.6337">
        <ele>362</ele>
        <time>2018-01-17T13:34:47Z</time>
      </trkpt>
      <trkpt lat="43.22935" lon="5.63365">
        <ele>361</ele>
        <time>2018-01-17T13:34:53Z</time>
      </trkpt>
      <trkpt lat="43.22931" lon="5.6336">
        <ele>359</ele>
        <time>2018-01-17T13:34:59Z</time>
      </trkpt>
      <trkpt lat="43.22927" lon="5.63357">
        <ele>357</ele>
        <time>2018-01-17T13:35:05Z</time>
      </trkpt>
      <trkpt lat="43.22921" lon="5.63353">
        <ele>353</ele>
        <time>2018-01-17T13:35:13Z</time>
      </trkpt>
      <trkpt lat="43.22917" lon="5.63349">
        <ele>347</ele>
        <time>2018-01-17T13:35:21Z</time>
      </trkpt>
      <trkpt lat="43.22913" lon="5.63346">
        <ele>347</ele>
        <time>2018-01-17T13:35:27Z</time>
      </trkpt>
      <trkpt lat="43.22908" lon="5.63342">
        <ele>347</ele>
        <time>2018-01-17T13:35:33Z</time>
      </trkpt>
      <trkpt lat="43.22903" lon="5.6334">
        <ele>348</ele>
        <time>2018-01-17T13:35:37Z</time>
      </trkpt>
      <trkpt lat="43.22896" lon="5.63338">
        <ele>345</ele>
        <time>2018-01-17T13:35:45Z</time>
      </trkpt>
      <trkpt lat="43.2289" lon="5.63337">
        <ele>343</ele>
        <time>2018-01-17T13:35:51Z</time>
      </trkpt>
      <trkpt lat="43.22884" lon="5.63336">
        <ele>342</ele>
        <time>2018-01-17T13:35:57Z</time>
      </trkpt>
      <trkpt lat="43.22879" lon="5.63333">
        <ele>343</ele>
        <time>2018-01-17T13:36:03Z</time>
      </trkpt>
      <trkpt lat="43.22874" lon="5.63329">
        <ele>344</ele>
        <time>2018-01-17T13:36:09Z</time>
      </trkpt>
      <trkpt lat="43.22869" lon="5.63325">
        <ele>343</ele>
        <time>2018-01-17T13:36:15Z</time>
      </trkpt>
      <trkpt lat="43.22863" lon="5.63322">
        <ele>340</ele>
        <time>2018-01-17T13:36:21Z</time>
      </trkpt>
      <trkpt lat="43.22858" lon="5.63319">
        <ele>340</ele>
        <time>2018-01-17T13:36:27Z</time>
      </trkpt>
      <trkpt lat="43.22854" lon="5.63316">
        <ele>341</ele>
        <time>2018-01-17T13:36:31Z</time>
      </trkpt>
      <trkpt lat="43.22849" lon="5.63313">
        <ele>340</ele>
        <time>2018-01-17T13:36:37Z</time>
      </trkpt>
      <trkpt lat="43.22844" lon="5.63309">
        <ele>338</ele>
        <time>2018-01-17T13:36:43Z</time>
      </trkpt>
      <trkpt lat="43.22839" lon="5.63306">
        <ele>337</ele>
        <time>2018-01-17T13:36:49Z</time>
      </trkpt>
      <trkpt lat="43.22834" lon="5.63302">
        <ele>337</ele>
        <time>2018-01-17T13:36:53Z</time>
      </trkpt>
      <trkpt lat="43.2283" lon="5.63298">
        <ele>336</ele>
        <time>2018-01-17T13:36:57Z</time>
      </trkpt>
      <trkpt lat="43.22825" lon="5.63294">
        <ele>334</ele>
        <time>2018-01-17T13:37:03Z</time>
      </trkpt>
      <trkpt lat="43.22821" lon="5.6329">
        <ele>334</ele>
        <time>2018-01-17T13:37:07Z</time>
      </trkpt>
      <trkpt lat="43.22818" lon="5.63285">
        <ele>331</ele>
        <time>2018-01-17T13:37:13Z</time>
      </trkpt>
      <trkpt lat="43.22813" lon="5.63282">
        <ele>332</ele>
        <time>2018-01-17T13:37:17Z</time>
      </trkpt>
      <trkpt lat="43.2281" lon="5.63277">
        <ele>331</ele>
        <time>2018-01-17T13:37:25Z</time>
      </trkpt>
      <trkpt lat="43.22807" lon="5.63272">
        <ele>328</ele>
        <time>2018-01-17T13:37:31Z</time>
      </trkpt>
      <trkpt lat="43.22802" lon="5.63267">
        <ele>329</ele>
        <time>2018-01-17T13:37:37Z</time>
      </trkpt>
      <trkpt lat="43.228" lon="5.6326">
        <ele>326</ele>
        <time>2018-01-17T13:37:45Z</time>
      </trkpt>
      <trkpt lat="43.22798" lon="5.63254">
        <ele>325</ele>
        <time>2018-01-17T13:37:49Z</time>
      </trkpt>
      <trkpt lat="43.22793" lon="5.6325">
        <ele>323</ele>
        <time>2018-01-17T13:37:55Z</time>
      </trkpt>
      <trkpt lat="43.2279" lon="5.63246">
        <ele>323</ele>
        <time>2018-01-17T13:38:11Z</time>
      </trkpt>
      <trkpt lat="43.22785" lon="5.63242">
        <ele>322</ele>
        <time>2018-01-17T13:40:55Z</time>
      </trkpt>
      <trkpt lat="43.22779" lon="5.63242">
        <ele>322</ele>
        <time>2018-01-17T13:41:07Z</time>
      </trkpt>
      <trkpt lat="43.22774" lon="5.63241">
        <ele>322</ele>
        <time>2018-01-17T13:41:15Z</time>
      </trkpt>
      <trkpt lat="43.22767" lon="5.63243">
        <ele>320</ele>
        <time>2018-01-17T13:41:21Z</time>
      </trkpt>
      <trkpt lat="43.22762" lon="5.63243">
        <ele>320</ele>
        <time>2018-01-17T13:41:29Z</time>
      </trkpt>
      <trkpt lat="43.22756" lon="5.63242">
        <ele>320</ele>
        <time>2018-01-17T13:41:35Z</time>
      </trkpt>
      <trkpt lat="43.22751" lon="5.6324">
        <ele>320</ele>
        <time>2018-01-17T13:41:41Z</time>
      </trkpt>
      <trkpt lat="43.22748" lon="5.63234">
        <ele>315</ele>
        <time>2018-01-17T13:41:51Z</time>
      </trkpt>
      <trkpt lat="43.22743" lon="5.63231">
        <ele>312</ele>
        <time>2018-01-17T13:41:57Z</time>
      </trkpt>
      <trkpt lat="43.22738" lon="5.6323">
        <ele>311</ele>
        <time>2018-01-17T13:42:05Z</time>
      </trkpt>
      <trkpt lat="43.22732" lon="5.63227">
        <ele>310</ele>
        <time>2018-01-17T13:42:11Z</time>
      </trkpt>
      <trkpt lat="43.22726" lon="5.63224">
        <ele>310</ele>
        <time>2018-01-17T13:42:19Z</time>
      </trkpt>
      <trkpt lat="43.22721" lon="5.63221">
        <ele>309</ele>
        <time>2018-01-17T13:42:27Z</time>
      </trkpt>
      <trkpt lat="43.22716" lon="5.63221">
        <ele>307</ele>
        <time>2018-01-17T13:42:33Z</time>
      </trkpt>
      <trkpt lat="43.22711" lon="5.63219">
        <ele>306</ele>
        <time>2018-01-17T13:42:41Z</time>
      </trkpt>
      <trkpt lat="43.22708" lon="5.63215">
        <ele>304</ele>
        <time>2018-01-17T13:42:47Z</time>
      </trkpt>
      <trkpt lat="43.22702" lon="5.63212">
        <ele>303</ele>
        <time>2018-01-17T13:42:53Z</time>
      </trkpt>
      <trkpt lat="43.22699" lon="5.63209">
        <ele>304</ele>
        <time>2018-01-17T13:42:59Z</time>
      </trkpt>
      <trkpt lat="43.22694" lon="5.63205">
        <ele>304</ele>
        <time>2018-01-17T13:43:07Z</time>
      </trkpt>
      <trkpt lat="43.2269" lon="5.63202">
        <ele>303</ele>
        <time>2018-01-17T13:43:15Z</time>
      </trkpt>
      <trkpt lat="43.22685" lon="5.63198">
        <ele>302</ele>
        <time>2018-01-17T13:43:21Z</time>
      </trkpt>
      <trkpt lat="43.22681" lon="5.63193">
        <ele>304</ele>
        <time>2018-01-17T13:43:27Z</time>
      </trkpt>
      <trkpt lat="43.22678" lon="5.63188">
        <ele>301</ele>
        <time>2018-01-17T13:43:33Z</time>
      </trkpt>
      <trkpt lat="43.22674" lon="5.63185">
        <ele>301</ele>
        <time>2018-01-17T13:43:39Z</time>
      </trkpt>
      <trkpt lat="43.22671" lon="5.6318">
        <ele>301</ele>
        <time>2018-01-17T13:43:45Z</time>
      </trkpt>
      <trkpt lat="43.22668" lon="5.63175">
        <ele>297</ele>
        <time>2018-01-17T13:43:53Z</time>
      </trkpt>
      <trkpt lat="43.22664" lon="5.63172">
        <ele>296</ele>
        <time>2018-01-17T13:43:59Z</time>
      </trkpt>
      <trkpt lat="43.22659" lon="5.63169">
        <ele>296</ele>
        <time>2018-01-17T13:44:09Z</time>
      </trkpt>
      <trkpt lat="43.22654" lon="5.63165">
        <ele>294</ele>
        <time>2018-01-17T13:44:15Z</time>
      </trkpt>
      <trkpt lat="43.22651" lon="5.6316">
        <ele>292</ele>
        <time>2018-01-17T13:44:23Z</time>
      </trkpt>
      <trkpt lat="43.22646" lon="5.63156">
        <ele>292</ele>
        <time>2018-01-17T13:44:29Z</time>
      </trkpt>
      <trkpt lat="43.22641" lon="5.63152">
        <ele>293</ele>
        <time>2018-01-17T13:44:35Z</time>
      </trkpt>
      <trkpt lat="43.22637" lon="5.63148">
        <ele>292</ele>
        <time>2018-01-17T13:44:39Z</time>
      </trkpt>
      <trkpt lat="43.22632" lon="5.63145">
        <ele>294</ele>
        <time>2018-01-17T13:44:43Z</time>
      </trkpt>
      <trkpt lat="43.22627" lon="5.63141">
        <ele>292</ele>
        <time>2018-01-17T13:44:51Z</time>
      </trkpt>
      <trkpt lat="43.22622" lon="5.63137">
        <ele>290</ele>
        <time>2018-01-17T13:44:57Z</time>
      </trkpt>
      <trkpt lat="43.22617" lon="5.63131">
        <ele>289</ele>
        <time>2018-01-17T13:45:03Z</time>
      </trkpt>
      <trkpt lat="43.2261" lon="5.63132">
        <ele>288</ele>
        <time>2018-01-17T13:45:07Z</time>
      </trkpt>
      <trkpt lat="43.22605" lon="5.63129">
        <ele>286</ele>
        <time>2018-01-17T13:45:13Z</time>
      </trkpt>
      <trkpt lat="43.22602" lon="5.63123">
        <ele>284</ele>
        <time>2018-01-17T13:45:19Z</time>
      </trkpt>
      <trkpt lat="43.22597" lon="5.63119">
        <ele>283</ele>
        <time>2018-01-17T13:45:25Z</time>
      </trkpt>
      <trkpt lat="43.22596" lon="5.6311">
        <ele>278</ele>
        <time>2018-01-17T13:45:33Z</time>
      </trkpt>
      <trkpt lat="43.22593" lon="5.63105">
        <ele>276</ele>
        <time>2018-01-17T13:45:41Z</time>
      </trkpt>
      <trkpt lat="43.22593" lon="5.63098">
        <ele>276</ele>
        <time>2018-01-17T13:45:45Z</time>
      </trkpt>
      <trkpt lat="43.22592" lon="5.63091">
        <ele>276</ele>
        <time>2018-01-17T13:45:49Z</time>
      </trkpt>
      <trkpt lat="43.2259" lon="5.63085">
        <ele>276</ele>
        <time>2018-01-17T13:45:53Z</time>
      </trkpt>
      <trkpt lat="43.22587" lon="5.63078">
        <ele>271</ele>
        <time>2018-01-17T13:46:01Z</time>
      </trkpt>
      <trkpt lat="43.22583" lon="5.63069">
        <ele>271</ele>
        <time>2018-01-17T13:46:07Z</time>
      </trkpt>
      <trkpt lat="43.22582" lon="5.63061">
        <ele>269</ele>
        <time>2018-01-17T13:46:13Z</time>
      </trkpt>
      <trkpt lat="43.22579" lon="5.63056">
        <ele>270</ele>
        <time>2018-01-17T13:46:17Z</time>
      </trkpt>
      <trkpt lat="43.22579" lon="5.63048">
        <ele>270</ele>
        <time>2018-01-17T13:46:21Z</time>
      </trkpt>
      <trkpt lat="43.22576" lon="5.63041">
        <ele>274</ele>
        <time>2018-01-17T13:46:25Z</time>
      </trkpt>
      <trkpt lat="43.22575" lon="5.63034">
        <ele>273</ele>
        <time>2018-01-17T13:46:29Z</time>
      </trkpt>
      <trkpt lat="43.22573" lon="5.63027">
        <ele>275</ele>
        <time>2018-01-17T13:46:33Z</time>
      </trkpt>
      <trkpt lat="43.22569" lon="5.6302">
        <ele>270</ele>
        <time>2018-01-17T13:46:41Z</time>
      </trkpt>
      <trkpt lat="43.22567" lon="5.63012">
        <ele>271</ele>
        <time>2018-01-17T13:46:45Z</time>
      </trkpt>
      <trkpt lat="43.22565" lon="5.63003">
        <ele>272</ele>
        <time>2018-01-17T13:46:49Z</time>
      </trkpt>
      <trkpt lat="43.22563" lon="5.62994">
        <ele>272</ele>
        <time>2018-01-17T13:46:57Z</time>
      </trkpt>
      <trkpt lat="43.22563" lon="5.62985">
        <ele>270</ele>
        <time>2018-01-17T13:47:03Z</time>
      </trkpt>
      <trkpt lat="43.22563" lon="5.62977">
        <ele>269</ele>
        <time>2018-01-17T13:47:07Z</time>
      </trkpt>
      <trkpt lat="43.22565" lon="5.62969">
        <ele>268</ele>
        <time>2018-01-17T13:47:13Z</time>
      </trkpt>
      <trkpt lat="43.22568" lon="5.62962">
        <ele>267</ele>
        <time>2018-01-17T13:47:19Z</time>
      </trkpt>
      <trkpt lat="43.22572" lon="5.62955">
        <ele>267</ele>
        <time>2018-01-17T13:47:25Z</time>
      </trkpt>
      <trkpt lat="43.22572" lon="5.62948">
        <ele>266</ele>
        <time>2018-01-17T13:47:31Z</time>
      </trkpt>
      <trkpt lat="43.2257" lon="5.6294">
        <ele>267</ele>
        <time>2018-01-17T13:47:37Z</time>
      </trkpt>
      <trkpt lat="43.22568" lon="5.62933">
        <ele>268</ele>
        <time>2018-01-17T13:47:41Z</time>
      </trkpt>
      <trkpt lat="43.22565" lon="5.62928">
        <ele>267</ele>
        <time>2018-01-17T13:47:45Z</time>
      </trkpt>
      <trkpt lat="43.22562" lon="5.62922">
        <ele>266</ele>
        <time>2018-01-17T13:47:51Z</time>
      </trkpt>
      <trkpt lat="43.22558" lon="5.62914">
        <ele>266</ele>
        <time>2018-01-17T13:47:57Z</time>
      </trkpt>
      <trkpt lat="43.22556" lon="5.62908">
        <ele>265</ele>
        <time>2018-01-17T13:48:03Z</time>
      </trkpt>
      <trkpt lat="43.22552" lon="5.62901">
        <ele>266</ele>
        <time>2018-01-17T13:48:09Z</time>
      </trkpt>
      <trkpt lat="43.22547" lon="5.62895">
        <ele>266</ele>
        <time>2018-01-17T13:48:15Z</time>
      </trkpt>
      <trkpt lat="43.22543" lon="5.62891">
        <ele>265</ele>
        <time>2018-01-17T13:48:21Z</time>
      </trkpt>
      <trkpt lat="43.22537" lon="5.62893">
        <ele>264</ele>
        <time>2018-01-17T13:48:27Z</time>
      </trkpt>
      <trkpt lat="43.22531" lon="5.62892">
        <ele>263</ele>
        <time>2018-01-17T13:48:35Z</time>
      </trkpt>
      <trkpt lat="43.22526" lon="5.62895">
        <ele>264</ele>
        <time>2018-01-17T13:48:41Z</time>
      </trkpt>
      <trkpt lat="43.22522" lon="5.62899">
        <ele>261</ele>
        <time>2018-01-17T13:48:47Z</time>
      </trkpt>
      <trkpt lat="43.22519" lon="5.62904">
        <ele>260</ele>
        <time>2018-01-17T13:48:53Z</time>
      </trkpt>
      <trkpt lat="43.22515" lon="5.62912">
        <ele>262</ele>
        <time>2018-01-17T13:48:59Z</time>
      </trkpt>
      <trkpt lat="43.22511" lon="5.62916">
        <ele>259</ele>
        <time>2018-01-17T13:49:05Z</time>
      </trkpt>
      <trkpt lat="43.22507" lon="5.6292">
        <ele>259</ele>
        <time>2018-01-17T13:49:09Z</time>
      </trkpt>
      <trkpt lat="43.22504" lon="5.62927">
        <ele>258</ele>
        <time>2018-01-17T13:49:17Z</time>
      </trkpt>
      <trkpt lat="43.22499" lon="5.62931">
        <ele>254</ele>
        <time>2018-01-17T13:49:23Z</time>
      </trkpt>
      <trkpt lat="43.22497" lon="5.6294">
        <ele>254</ele>
        <time>2018-01-17T13:49:29Z</time>
      </trkpt>
      <trkpt lat="43.22495" lon="5.62946">
        <ele>246</ele>
        <time>2018-01-17T13:49:37Z</time>
      </trkpt>
      <trkpt lat="43.22494" lon="5.62954">
        <ele>244</ele>
        <time>2018-01-17T13:49:43Z</time>
      </trkpt>
      <trkpt lat="43.22492" lon="5.6296">
        <ele>244</ele>
        <time>2018-01-17T13:49:49Z</time>
      </trkpt>
      <trkpt lat="43.22492" lon="5.62969">
        <ele>245</ele>
        <time>2018-01-17T13:49:55Z</time>
      </trkpt>
      <trkpt lat="43.22491" lon="5.62975">
        <ele>246</ele>
        <time>2018-01-17T13:49:59Z</time>
      </trkpt>
      <trkpt lat="43.22492" lon="5.62984">
        <ele>249</ele>
        <time>2018-01-17T13:50:03Z</time>
      </trkpt>
      <trkpt lat="43.22493" lon="5.62993">
        <ele>252</ele>
        <time>2018-01-17T13:50:07Z</time>
      </trkpt>
      <trkpt lat="43.22493" lon="5.63">
        <ele>252</ele>
        <time>2018-01-17T13:50:13Z</time>
      </trkpt>
      <trkpt lat="43.22494" lon="5.63006">
        <ele>251</ele>
        <time>2018-01-17T13:50:19Z</time>
      </trkpt>
      <trkpt lat="43.22496" lon="5.63014">
        <ele>249</ele>
        <time>2018-01-17T13:50:27Z</time>
      </trkpt>
      <trkpt lat="43.22497" lon="5.6302">
        <ele>250</ele>
        <time>2018-01-17T13:50:31Z</time>
      </trkpt>
      <trkpt lat="43.22499" lon="5.63027">
        <ele>248</ele>
        <time>2018-01-17T13:50:37Z</time>
      </trkpt>
      <trkpt lat="43.22503" lon="5.63031">
        <ele>246</ele>
        <time>2018-01-17T13:50:43Z</time>
      </trkpt>
      <trkpt lat="43.22504" lon="5.63038">
        <ele>245</ele>
        <time>2018-01-17T13:50:49Z</time>
      </trkpt>
      <trkpt lat="43.22505" lon="5.63045">
        <ele>246</ele>
        <time>2018-01-17T13:50:53Z</time>
      </trkpt>
      <trkpt lat="43.22505" lon="5.63051">
        <ele>245</ele>
        <time>2018-01-17T13:50:59Z</time>
      </trkpt>
      <trkpt lat="43.22505" lon="5.63059">
        <ele>247</ele>
        <time>2018-01-17T13:51:03Z</time>
      </trkpt>
      <trkpt lat="43.22504" lon="5.63068">
        <ele>249</ele>
        <time>2018-01-17T13:51:07Z</time>
      </trkpt>
      <trkpt lat="43.22504" lon="5.63074">
        <ele>251</ele>
        <time>2018-01-17T13:51:11Z</time>
      </trkpt>
      <trkpt lat="43.22503" lon="5.63082">
        <ele>252</ele>
        <time>2018-01-17T13:51:15Z</time>
      </trkpt>
      <trkpt lat="43.22502" lon="5.63088">
        <ele>250</ele>
        <time>2018-01-17T13:51:27Z</time>
      </trkpt>
      <trkpt lat="43.22499" lon="5.63094">
        <ele>248</ele>
        <time>2018-01-17T13:51:33Z</time>
      </trkpt>
      <trkpt lat="43.22497" lon="5.631">
        <ele>248</ele>
        <time>2018-01-17T13:51:39Z</time>
      </trkpt>
      <trkpt lat="43.22494" lon="5.63107">
        <ele>248</ele>
        <time>2018-01-17T13:51:45Z</time>
      </trkpt>
      <trkpt lat="43.22492" lon="5.63113">
        <ele>240</ele>
        <time>2018-01-17T13:51:55Z</time>
      </trkpt>
      <trkpt lat="43.22491" lon="5.63121">
        <ele>238</ele>
        <time>2018-01-17T13:52:03Z</time>
      </trkpt>
      <trkpt lat="43.22491" lon="5.63128">
        <ele>236</ele>
        <time>2018-01-17T13:52:11Z</time>
      </trkpt>
      <trkpt lat="43.22492" lon="5.63136">
        <ele>239</ele>
        <time>2018-01-17T13:52:19Z</time>
      </trkpt>
      <trkpt lat="43.22494" lon="5.63147">
        <ele>239</ele>
        <time>2018-01-17T13:52:35Z</time>
      </trkpt>
      <trkpt lat="43.22495" lon="5.63153">
        <ele>240</ele>
        <time>2018-01-17T13:52:39Z</time>
      </trkpt>
      <trkpt lat="43.22495" lon="5.6316">
        <ele>244</ele>
        <time>2018-01-17T13:52:47Z</time>
      </trkpt>
      <trkpt lat="43.22498" lon="5.63169">
        <ele>243</ele>
        <time>2018-01-17T13:52:57Z</time>
      </trkpt>
      <trkpt lat="43.22502" lon="5.6317">
        <ele>241</ele>
        <time>2018-01-17T13:53:05Z</time>
      </trkpt>
      <trkpt lat="43.22498" lon="5.63166">
        <ele>241</ele>
        <time>2018-01-17T13:56:37Z</time>
      </trkpt>
      <trkpt lat="43.225" lon="5.63173">
        <ele>240</ele>
        <time>2018-01-17T13:56:55Z</time>
      </trkpt>
      <trkpt lat="43.22504" lon="5.63175">
        <ele>239</ele>
        <time>2018-01-17T13:57:19Z</time>
      </trkpt>
      <trkpt lat="43.22506" lon="5.63183">
        <ele>240</ele>
        <time>2018-01-17T13:57:25Z</time>
      </trkpt>
      <trkpt lat="43.22509" lon="5.63188">
        <ele>245</ele>
        <time>2018-01-17T13:57:33Z</time>
      </trkpt>
      <trkpt lat="43.22504" lon="5.63192">
        <ele>241</ele>
        <time>2018-01-17T13:58:23Z</time>
      </trkpt>
      <trkpt lat="43.22504" lon="5.63199">
        <ele>235</ele>
        <time>2018-01-17T13:58:35Z</time>
      </trkpt>
      <trkpt lat="43.22501" lon="5.63204">
        <ele>234</ele>
        <time>2018-01-17T13:58:45Z</time>
      </trkpt>
      <trkpt lat="43.22495" lon="5.63205">
        <ele>237</ele>
        <time>2018-01-17T13:58:51Z</time>
      </trkpt>
      <trkpt lat="43.2249" lon="5.63208">
        <ele>241</ele>
        <time>2018-01-17T13:58:57Z</time>
      </trkpt>
      <trkpt lat="43.22486" lon="5.63204">
        <ele>234</ele>
        <time>2018-01-17T13:59:09Z</time>
      </trkpt>
      <trkpt lat="43.22481" lon="5.63201">
        <ele>230</ele>
        <time>2018-01-17T13:59:15Z</time>
      </trkpt>
      <trkpt lat="43.22477" lon="5.632">
        <ele>230</ele>
        <time>2018-01-17T13:59:21Z</time>
      </trkpt>
      <trkpt lat="43.22471" lon="5.63197">
        <ele>229</ele>
        <time>2018-01-17T13:59:29Z</time>
      </trkpt>
      <trkpt lat="43.22468" lon="5.63191">
        <ele>228</ele>
        <time>2018-01-17T13:59:35Z</time>
      </trkpt>
      <trkpt lat="43.22464" lon="5.63188">
        <ele>229</ele>
        <time>2018-01-17T13:59:43Z</time>
      </trkpt>
      <trkpt lat="43.22459" lon="5.63185">
        <ele>229</ele>
        <time>2018-01-17T13:59:49Z</time>
      </trkpt>
      <trkpt lat="43.22455" lon="5.63181">
        <ele>229</ele>
        <time>2018-01-17T13:59:55Z</time>
      </trkpt>
      <trkpt lat="43.22449" lon="5.63179">
        <ele>233</ele>
        <time>2018-01-17T14:00:03Z</time>
      </trkpt>
      <trkpt lat="43.22444" lon="5.63176">
        <ele>228</ele>
        <time>2018-01-17T14:00:09Z</time>
      </trkpt>
      <trkpt lat="43.22438" lon="5.63175">
        <ele>225</ele>
        <time>2018-01-17T14:00:15Z</time>
      </trkpt>
      <trkpt lat="43.22433" lon="5.63175">
        <ele>229</ele>
        <time>2018-01-17T14:00:23Z</time>
      </trkpt>
      <trkpt lat="43.22428" lon="5.6318">
        <ele>229</ele>
        <time>2018-01-17T14:00:29Z</time>
      </trkpt>
      <trkpt lat="43.22427" lon="5.63174">
        <ele>231</ele>
        <time>2018-01-17T14:00:51Z</time>
      </trkpt>
      <trkpt lat="43.22421" lon="5.63176">
        <ele>230</ele>
        <time>2018-01-17T14:01:15Z</time>
      </trkpt>
      <trkpt lat="43.22414" lon="5.63173">
        <ele>226</ele>
        <time>2018-01-17T14:01:19Z</time>
      </trkpt>
      <trkpt lat="43.22414" lon="5.63166">
        <ele>225</ele>
        <time>2018-01-17T14:01:27Z</time>
      </trkpt>
      <trkpt lat="43.22414" lon="5.6316">
        <ele>226</ele>
        <time>2018-01-17T14:01:37Z</time>
      </trkpt>
      <trkpt lat="43.22415" lon="5.63153">
        <ele>226</ele>
        <time>2018-01-17T14:01:45Z</time>
      </trkpt>
      <trkpt lat="43.22416" lon="5.63146">
        <ele>224</ele>
        <time>2018-01-17T14:01:49Z</time>
      </trkpt>
      <trkpt lat="43.22418" lon="5.63138">
        <ele>224</ele>
        <time>2018-01-17T14:01:55Z</time>
      </trkpt>
      <trkpt lat="43.22422" lon="5.63134">
        <ele>227</ele>
        <time>2018-01-17T14:01:57Z</time>
      </trkpt>
      <trkpt lat="43.22424" lon="5.63126">
        <ele>224</ele>
        <time>2018-01-17T14:02:05Z</time>
      </trkpt>
      <trkpt lat="43.22424" lon="5.63118">
        <ele>227</ele>
        <time>2018-01-17T14:02:11Z</time>
      </trkpt>
      <trkpt lat="43.22423" lon="5.63109">
        <ele>225</ele>
        <time>2018-01-17T14:02:17Z</time>
      </trkpt>
      <trkpt lat="43.22425" lon="5.63101">
        <ele>224</ele>
        <time>2018-01-17T14:02:25Z</time>
      </trkpt>
      <trkpt lat="43.22427" lon="5.63095">
        <ele>223</ele>
        <time>2018-01-17T14:02:29Z</time>
      </trkpt>
      <trkpt lat="43.22428" lon="5.63086">
        <ele>230</ele>
        <time>2018-01-17T14:02:35Z</time>
      </trkpt>
      <trkpt lat="43.22426" lon="5.63081">
        <ele>229</ele>
        <time>2018-01-17T14:02:39Z</time>
      </trkpt>
      <trkpt lat="43.22423" lon="5.63075">
        <ele>227</ele>
        <time>2018-01-17T14:02:43Z</time>
      </trkpt>
      <trkpt lat="43.22417" lon="5.63069">
        <ele>223</ele>
        <time>2018-01-17T14:02:51Z</time>
      </trkpt>
      <trkpt lat="43.22409" lon="5.63068">
        <ele>223</ele>
        <time>2018-01-17T14:02:55Z</time>
      </trkpt>
      <trkpt lat="43.22403" lon="5.63064">
        <ele>222</ele>
        <time>2018-01-17T14:02:59Z</time>
      </trkpt>
      <trkpt lat="43.22397" lon="5.63062">
        <ele>221</ele>
        <time>2018-01-17T14:03:03Z</time>
      </trkpt>
      <trkpt lat="43.2239" lon="5.63065">
        <ele>223</ele>
        <time>2018-01-17T14:03:05Z</time>
      </trkpt>
      <trkpt lat="43.22386" lon="5.6306">
        <ele>224</ele>
        <time>2018-01-17T14:03:11Z</time>
      </trkpt>
      <trkpt lat="43.22388" lon="5.6305">
        <ele>219</ele>
        <time>2018-01-17T14:03:27Z</time>
      </trkpt>
      <trkpt lat="43.22391" lon="5.63044">
        <ele>216</ele>
        <time>2018-01-17T14:03:31Z</time>
      </trkpt>
      <trkpt lat="43.22394" lon="5.63039">
        <ele>214</ele>
        <time>2018-01-17T14:03:39Z</time>
      </trkpt>
      <trkpt lat="43.22397" lon="5.63034">
        <ele>215</ele>
        <time>2018-01-17T14:03:43Z</time>
      </trkpt>
      <trkpt lat="43.22402" lon="5.6303">
        <ele>214</ele>
        <time>2018-01-17T14:03:47Z</time>
      </trkpt>
      <trkpt lat="43.22407" lon="5.63023">
        <ele>216</ele>
        <time>2018-01-17T14:03:53Z</time>
      </trkpt>
      <trkpt lat="43.22411" lon="5.6302">
        <ele>217</ele>
        <time>2018-01-17T14:03:57Z</time>
      </trkpt>
      <trkpt lat="43.22412" lon="5.63011">
        <ele>220</ele>
        <time>2018-01-17T14:04:01Z</time>
      </trkpt>
      <trkpt lat="43.22409" lon="5.63">
        <ele>217</ele>
        <time>2018-01-17T14:04:05Z</time>
      </trkpt>
      <trkpt lat="43.22405" lon="5.62995">
        <ele>214</ele>
        <time>2018-01-17T14:04:07Z</time>
      </trkpt>
      <trkpt lat="43.22402" lon="5.6299">
        <ele>213</ele>
        <time>2018-01-17T14:04:09Z</time>
      </trkpt>
      <trkpt lat="43.224" lon="5.62982">
        <ele>211</ele>
        <time>2018-01-17T14:04:13Z</time>
      </trkpt>
      <trkpt lat="43.22397" lon="5.62976">
        <ele>209</ele>
        <time>2018-01-17T14:04:17Z</time>
      </trkpt>
      <trkpt lat="43.22396" lon="5.62969">
        <ele>209</ele>
        <time>2018-01-17T14:04:23Z</time>
      </trkpt>
      <trkpt lat="43.22391" lon="5.62962">
        <ele>203</ele>
        <time>2018-01-17T14:04:29Z</time>
      </trkpt>
      <trkpt lat="43.22391" lon="5.62955">
        <ele>202</ele>
        <time>2018-01-17T14:04:35Z</time>
      </trkpt>
      <trkpt lat="43.22393" lon="5.62947">
        <ele>202</ele>
        <time>2018-01-17T14:04:41Z</time>
      </trkpt>
      <trkpt lat="43.22394" lon="5.6294">
        <ele>200</ele>
        <time>2018-01-17T14:04:47Z</time>
      </trkpt>
      <trkpt lat="43.22391" lon="5.62934">
        <ele>201</ele>
        <time>2018-01-17T14:04:53Z</time>
      </trkpt>
      <trkpt lat="43.22395" lon="5.62929">
        <ele>202</ele>
        <time>2018-01-17T14:04:57Z</time>
      </trkpt>
      <trkpt lat="43.22396" lon="5.62921">
        <ele>205</ele>
        <time>2018-01-17T14:05:05Z</time>
      </trkpt>
      <trkpt lat="43.22394" lon="5.62913">
        <ele>204</ele>
        <time>2018-01-17T14:05:17Z</time>
      </trkpt>
      <trkpt lat="43.22392" lon="5.62907">
        <ele>204</ele>
        <time>2018-01-17T14:05:21Z</time>
      </trkpt>
      <trkpt lat="43.22391" lon="5.629">
        <ele>207</ele>
        <time>2018-01-17T14:05:25Z</time>
      </trkpt>
      <trkpt lat="43.22387" lon="5.62897">
        <ele>207</ele>
        <time>2018-01-17T14:05:33Z</time>
      </trkpt>
      <trkpt lat="43.22384" lon="5.62888">
        <ele>206</ele>
        <time>2018-01-17T14:05:45Z</time>
      </trkpt>
      <trkpt lat="43.22384" lon="5.62879">
        <ele>200</ele>
        <time>2018-01-17T14:05:49Z</time>
      </trkpt>
      <trkpt lat="43.22382" lon="5.62871">
        <ele>201</ele>
        <time>2018-01-17T14:05:53Z</time>
      </trkpt>
      <trkpt lat="43.22378" lon="5.62866">
        <ele>201</ele>
        <time>2018-01-17T14:05:59Z</time>
      </trkpt>
      <trkpt lat="43.22375" lon="5.62861">
        <ele>201</ele>
        <time>2018-01-17T14:06:09Z</time>
      </trkpt>
      <trkpt lat="43.22368" lon="5.62859">
        <ele>197</ele>
        <time>2018-01-17T14:06:15Z</time>
      </trkpt>
      <trkpt lat="43.22364" lon="5.62855">
        <ele>199</ele>
        <time>2018-01-17T14:06:23Z</time>
      </trkpt>
      <trkpt lat="43.22363" lon="5.62848">
        <ele>198</ele>
        <time>2018-01-17T14:06:27Z</time>
      </trkpt>
      <trkpt lat="43.22363" lon="5.6284">
        <ele>190</ele>
        <time>2018-01-17T14:06:33Z</time>
      </trkpt>
      <trkpt lat="43.22364" lon="5.62833">
        <ele>189</ele>
        <time>2018-01-17T14:06:37Z</time>
      </trkpt>
      <trkpt lat="43.22365" lon="5.62826">
        <ele>189</ele>
        <time>2018-01-17T14:06:43Z</time>
      </trkpt>
      <trkpt lat="43.22367" lon="5.62817">
        <ele>191</ele>
        <time>2018-01-17T14:06:49Z</time>
      </trkpt>
      <trkpt lat="43.22372" lon="5.62813">
        <ele>193</ele>
        <time>2018-01-17T14:06:55Z</time>
      </trkpt>
      <trkpt lat="43.22376" lon="5.62806">
        <ele>196</ele>
        <time>2018-01-17T14:06:59Z</time>
      </trkpt>
      <trkpt lat="43.22379" lon="5.628">
        <ele>197</ele>
        <time>2018-01-17T14:07:05Z</time>
      </trkpt>
      <trkpt lat="43.22379" lon="5.62793">
        <ele>198</ele>
        <time>2018-01-17T14:07:09Z</time>
      </trkpt>
      <trkpt lat="43.22381" lon="5.62784">
        <ele>198</ele>
        <time>2018-01-17T14:07:15Z</time>
      </trkpt>
      <trkpt lat="43.2238" lon="5.62776">
        <ele>196</ele>
        <time>2018-01-17T14:07:19Z</time>
      </trkpt>
      <trkpt lat="43.22375" lon="5.62767">
        <ele>196</ele>
        <time>2018-01-17T14:07:23Z</time>
      </trkpt>
      <trkpt lat="43.22367" lon="5.62754">
        <ele>193</ele>
        <time>2018-01-17T14:07:27Z</time>
      </trkpt>
      <trkpt lat="43.22365" lon="5.62748">
        <ele>190</ele>
        <time>2018-01-17T14:07:33Z</time>
      </trkpt>
      <trkpt lat="43.22366" lon="5.62742">
        <ele>193</ele>
        <time>2018-01-17T14:07:41Z</time>
      </trkpt>
      <trkpt lat="43.22365" lon="5.62731">
        <ele>192</ele>
        <time>2018-01-17T14:07:47Z</time>
      </trkpt>
      <trkpt lat="43.22362" lon="5.62725">
        <ele>192</ele>
        <time>2018-01-17T14:07:51Z</time>
      </trkpt>
      <trkpt lat="43.22359" lon="5.62717">
        <ele>195</ele>
        <time>2018-01-17T14:07:57Z</time>
      </trkpt>
      <trkpt lat="43.22355" lon="5.62711">
        <ele>199</ele>
        <time>2018-01-17T14:08:05Z</time>
      </trkpt>
      <trkpt lat="43.22351" lon="5.62703">
        <ele>198</ele>
        <time>2018-01-17T14:08:13Z</time>
      </trkpt>
      <trkpt lat="43.22345" lon="5.62702">
        <ele>203</ele>
        <time>2018-01-17T14:08:19Z</time>
      </trkpt>
      <trkpt lat="43.22341" lon="5.62695">
        <ele>201</ele>
        <time>2018-01-17T14:08:23Z</time>
      </trkpt>
      <trkpt lat="43.22337" lon="5.6269">
        <ele>203</ele>
        <time>2018-01-17T14:08:29Z</time>
      </trkpt>
      <trkpt lat="43.22331" lon="5.62686">
        <ele>205</ele>
        <time>2018-01-17T14:08:35Z</time>
      </trkpt>
      <trkpt lat="43.22327" lon="5.62682">
        <ele>206</ele>
        <time>2018-01-17T14:08:39Z</time>
      </trkpt>
      <trkpt lat="43.22324" lon="5.62676">
        <ele>206</ele>
        <time>2018-01-17T14:08:45Z</time>
      </trkpt>
      <trkpt lat="43.22321" lon="5.62671">
        <ele>201</ele>
        <time>2018-01-17T14:08:51Z</time>
      </trkpt>
      <trkpt lat="43.22316" lon="5.6267">
        <ele>200</ele>
        <time>2018-01-17T14:08:55Z</time>
      </trkpt>
      <trkpt lat="43.22305" lon="5.62672">
        <ele>201</ele>
        <time>2018-01-17T14:08:59Z</time>
      </trkpt>
      <trkpt lat="43.22299" lon="5.62671">
        <ele>203</ele>
        <time>2018-01-17T14:09:03Z</time>
      </trkpt>
      <trkpt lat="43.22299" lon="5.62662">
        <ele>195</ele>
        <time>2018-01-17T14:09:19Z</time>
      </trkpt>
      <trkpt lat="43.22302" lon="5.62657">
        <ele>195</ele>
        <time>2018-01-17T14:09:23Z</time>
      </trkpt>
      <trkpt lat="43.22305" lon="5.6265">
        <ele>193</ele>
        <time>2018-01-17T14:09:29Z</time>
      </trkpt>
      <trkpt lat="43.22306" lon="5.62644">
        <ele>188</ele>
        <time>2018-01-17T14:09:35Z</time>
      </trkpt>
      <trkpt lat="43.22304" lon="5.62636">
        <ele>191</ele>
        <time>2018-01-17T14:09:41Z</time>
      </trkpt>
      <trkpt lat="43.22299" lon="5.62627">
        <ele>186</ele>
        <time>2018-01-17T14:09:47Z</time>
      </trkpt>
      <trkpt lat="43.22295" lon="5.62622">
        <ele>185</ele>
        <time>2018-01-17T14:09:51Z</time>
      </trkpt>
      <trkpt lat="43.22291" lon="5.62618">
        <ele>187</ele>
        <time>2018-01-17T14:10:03Z</time>
      </trkpt>
      <trkpt lat="43.22288" lon="5.62612">
        <ele>184</ele>
        <time>2018-01-17T14:10:11Z</time>
      </trkpt>
      <trkpt lat="43.22285" lon="5.62607">
        <ele>185</ele>
        <time>2018-01-17T14:10:19Z</time>
      </trkpt>
      <trkpt lat="43.22283" lon="5.626">
        <ele>184</ele>
        <time>2018-01-17T14:10:27Z</time>
      </trkpt>
      <trkpt lat="43.22281" lon="5.62593">
        <ele>182</ele>
        <time>2018-01-17T14:10:33Z</time>
      </trkpt>
      <trkpt lat="43.22274" lon="5.62588">
        <ele>178</ele>
        <time>2018-01-17T14:10:37Z</time>
      </trkpt>
      <trkpt lat="43.2227" lon="5.62581">
        <ele>175</ele>
        <time>2018-01-17T14:10:43Z</time>
      </trkpt>
      <trkpt lat="43.22267" lon="5.62574">
        <ele>177</ele>
        <time>2018-01-17T14:10:49Z</time>
      </trkpt>
      <trkpt lat="43.22262" lon="5.6257">
        <ele>175</ele>
        <time>2018-01-17T14:10:53Z</time>
      </trkpt>
      <trkpt lat="43.22259" lon="5.6256">
        <ele>174</ele>
        <time>2018-01-17T14:10:57Z</time>
      </trkpt>
      <trkpt lat="43.22253" lon="5.62552">
        <ele>175</ele>
        <time>2018-01-17T14:11:01Z</time>
      </trkpt>
      <trkpt lat="43.22249" lon="5.62542">
        <ele>173</ele>
        <time>2018-01-17T14:11:05Z</time>
      </trkpt>
      <trkpt lat="43.22246" lon="5.62535">
        <ele>175</ele>
        <time>2018-01-17T14:11:09Z</time>
      </trkpt>
      <trkpt lat="43.22246" lon="5.62528">
        <ele>177</ele>
        <time>2018-01-17T14:11:13Z</time>
      </trkpt>
      <trkpt lat="43.22245" lon="5.62522">
        <ele>175</ele>
        <time>2018-01-17T14:11:21Z</time>
      </trkpt>
      <trkpt lat="43.22248" lon="5.62516">
        <ele>174</ele>
        <time>2018-01-17T14:11:27Z</time>
      </trkpt>
      <trkpt lat="43.22248" lon="5.62509">
        <ele>174</ele>
        <time>2018-01-17T14:11:35Z</time>
      </trkpt>
      <trkpt lat="43.22247" lon="5.62503">
        <ele>175</ele>
        <time>2018-01-17T14:11:43Z</time>
      </trkpt>
      <trkpt lat="43.22243" lon="5.62498">
        <ele>171</ele>
        <time>2018-01-17T14:11:51Z</time>
      </trkpt>
      <trkpt lat="43.22239" lon="5.62494">
        <ele>169</ele>
        <time>2018-01-17T14:11:55Z</time>
      </trkpt>
      <trkpt lat="43.22233" lon="5.62488">
        <ele>169</ele>
        <time>2018-01-17T14:11:59Z</time>
      </trkpt>
      <trkpt lat="43.22228" lon="5.62487">
        <ele>168</ele>
        <time>2018-01-17T14:12:01Z</time>
      </trkpt>
      <trkpt lat="43.22222" lon="5.6248">
        <ele>169</ele>
        <time>2018-01-17T14:12:05Z</time>
      </trkpt>
      <trkpt lat="43.22217" lon="5.62474">
        <ele>179</ele>
        <time>2018-01-17T14:12:15Z</time>
      </trkpt>
      <trkpt lat="43.2221" lon="5.62472">
        <ele>187</ele>
        <time>2018-01-17T14:12:21Z</time>
      </trkpt>
      <trkpt lat="43.22204" lon="5.62469">
        <ele>187</ele>
        <time>2018-01-17T14:12:25Z</time>
      </trkpt>
      <trkpt lat="43.22201" lon="5.62461">
        <ele>182</ele>
        <time>2018-01-17T14:12:31Z</time>
      </trkpt>
      <trkpt lat="43.22197" lon="5.62458">
        <ele>181</ele>
        <time>2018-01-17T14:12:39Z</time>
      </trkpt>
      <trkpt lat="43.22198" lon="5.62451">
        <ele>172</ele>
        <time>2018-01-17T14:14:15Z</time>
      </trkpt>
      <trkpt lat="43.22194" lon="5.62447">
        <ele>166</ele>
        <time>2018-01-17T14:15:03Z</time>
      </trkpt>
      <trkpt lat="43.22199" lon="5.62448">
        <ele>160</ele>
        <time>2018-01-17T14:17:23Z</time>
      </trkpt>
      <trkpt lat="43.22194" lon="5.62443">
        <ele>153</ele>
        <time>2018-01-17T14:17:47Z</time>
      </trkpt>
      <trkpt lat="43.22198" lon="5.62439">
        <ele>164</ele>
        <time>2018-01-17T14:18:45Z</time>
      </trkpt>
      <trkpt lat="43.22201" lon="5.62433">
        <ele>165</ele>
        <time>2018-01-17T14:18:55Z</time>
      </trkpt>
      <trkpt lat="43.22202" lon="5.62426">
        <ele>165</ele>
        <time>2018-01-17T14:19:03Z</time>
      </trkpt>
      <trkpt lat="43.22206" lon="5.62423">
        <ele>167</ele>
        <time>2018-01-17T14:19:09Z</time>
      </trkpt>
      <trkpt lat="43.22208" lon="5.62416">
        <ele>167</ele>
        <time>2018-01-17T14:19:15Z</time>
      </trkpt>
      <trkpt lat="43.22212" lon="5.62409">
        <ele>166</ele>
        <time>2018-01-17T14:19:21Z</time>
      </trkpt>
      <trkpt lat="43.22214" lon="5.62404">
        <ele>167</ele>
        <time>2018-01-17T14:19:27Z</time>
      </trkpt>
      <trkpt lat="43.22217" lon="5.62398">
        <ele>165</ele>
        <time>2018-01-17T14:19:33Z</time>
      </trkpt>
      <trkpt lat="43.22219" lon="5.62391">
        <ele>162</ele>
        <time>2018-01-17T14:19:41Z</time>
      </trkpt>
      <trkpt lat="43.22219" lon="5.62383">
        <ele>163</ele>
        <time>2018-01-17T14:19:47Z</time>
      </trkpt>
      <trkpt lat="43.22219" lon="5.62376">
        <ele>163</ele>
        <time>2018-01-17T14:19:55Z</time>
      </trkpt>
      <trkpt lat="43.2222" lon="5.62368">
        <ele>166</ele>
        <time>2018-01-17T14:19:59Z</time>
      </trkpt>
      <trkpt lat="43.22223" lon="5.62359">
        <ele>166</ele>
        <time>2018-01-17T14:20:07Z</time>
      </trkpt>
      <trkpt lat="43.22224" lon="5.62352">
        <ele>167</ele>
        <time>2018-01-17T14:20:11Z</time>
      </trkpt>
      <trkpt lat="43.22227" lon="5.62344">
        <ele>167</ele>
        <time>2018-01-17T14:20:17Z</time>
      </trkpt>
      <trkpt lat="43.22233" lon="5.62341">
        <ele>166</ele>
        <time>2018-01-17T14:20:23Z</time>
      </trkpt>
      <trkpt lat="43.22234" lon="5.62334">
        <ele>167</ele>
        <time>2018-01-17T14:20:29Z</time>
      </trkpt>
      <trkpt lat="43.22235" lon="5.62327">
        <ele>169</ele>
        <time>2018-01-17T14:20:37Z</time>
      </trkpt>
      <trkpt lat="43.22237" lon="5.62321">
        <ele>171</ele>
        <time>2018-01-17T14:20:49Z</time>
      </trkpt>
      <trkpt lat="43.22237" lon="5.62315">
        <ele>171</ele>
        <time>2018-01-17T14:20:53Z</time>
      </trkpt>
      <trkpt lat="43.2224" lon="5.62309">
        <ele>171</ele>
        <time>2018-01-17T14:20:59Z</time>
      </trkpt>
      <trkpt lat="43.22245" lon="5.62304">
        <ele>169</ele>
        <time>2018-01-17T14:21:09Z</time>
      </trkpt>
      <trkpt lat="43.22247" lon="5.62298">
        <ele>169</ele>
        <time>2018-01-17T14:21:17Z</time>
      </trkpt>
      <trkpt lat="43.22252" lon="5.62296">
        <ele>171</ele>
        <time>2018-01-17T14:21:21Z</time>
      </trkpt>
      <trkpt lat="43.22255" lon="5.62291">
        <ele>170</ele>
        <time>2018-01-17T14:21:27Z</time>
      </trkpt>
      <trkpt lat="43.2226" lon="5.62287">
        <ele>172</ele>
        <time>2018-01-17T14:21:33Z</time>
      </trkpt>
      <trkpt lat="43.22263" lon="5.62281">
        <ele>172</ele>
        <time>2018-01-17T14:21:39Z</time>
      </trkpt>
      <trkpt lat="43.22266" lon="5.62274">
        <ele>176</ele>
        <time>2018-01-17T14:21:45Z</time>
      </trkpt>
      <trkpt lat="43.22269" lon="5.62269">
        <ele>176</ele>
        <time>2018-01-17T14:21:51Z</time>
      </trkpt>
      <trkpt lat="43.2227" lon="5.62262">
        <ele>176</ele>
        <time>2018-01-17T14:21:57Z</time>
      </trkpt>
      <trkpt lat="43.22278" lon="5.62259">
        <ele>178</ele>
        <time>2018-01-17T14:22:03Z</time>
      </trkpt>
      <trkpt lat="43.22281" lon="5.62254">
        <ele>177</ele>
        <time>2018-01-17T14:22:09Z</time>
      </trkpt>
      <trkpt lat="43.22281" lon="5.62247">
        <ele>176</ele>
        <time>2018-01-17T14:22:15Z</time>
      </trkpt>
      <trkpt lat="43.22282" lon="5.62241">
        <ele>176</ele>
        <time>2018-01-17T14:22:21Z</time>
      </trkpt>
      <trkpt lat="43.22285" lon="5.62235">
        <ele>174</ele>
        <time>2018-01-17T14:22:27Z</time>
      </trkpt>
      <trkpt lat="43.22287" lon="5.62229">
        <ele>177</ele>
        <time>2018-01-17T14:22:35Z</time>
      </trkpt>
      <trkpt lat="43.22289" lon="5.62223">
        <ele>175</ele>
        <time>2018-01-17T14:22:41Z</time>
      </trkpt>
      <trkpt lat="43.22291" lon="5.62214">
        <ele>177</ele>
        <time>2018-01-17T14:22:48Z</time>
      </trkpt>
      <trkpt lat="43.22291" lon="5.62204">
        <ele>178</ele>
        <time>2018-01-17T14:22:52Z</time>
      </trkpt>
      <trkpt lat="43.2229" lon="5.62193">
        <ele>180</ele>
        <time>2018-01-17T14:22:56Z</time>
      </trkpt>
      <trkpt lat="43.22292" lon="5.62188">
        <ele>182</ele>
        <time>2018-01-17T14:23:00Z</time>
      </trkpt>
      <trkpt lat="43.22291" lon="5.62181">
        <ele>183</ele>
        <time>2018-01-17T14:23:10Z</time>
      </trkpt>
      <trkpt lat="43.22291" lon="5.62174">
        <ele>183</ele>
        <time>2018-01-17T14:23:18Z</time>
      </trkpt>
      <trkpt lat="43.22295" lon="5.62167">
        <ele>186</ele>
        <time>2018-01-17T14:23:24Z</time>
      </trkpt>
      <trkpt lat="43.22299" lon="5.6216">
        <ele>185</ele>
        <time>2018-01-17T14:23:32Z</time>
      </trkpt>
      <trkpt lat="43.22303" lon="5.62156">
        <ele>182</ele>
        <time>2018-01-17T14:23:46Z</time>
      </trkpt>
      <trkpt lat="43.22304" lon="5.62148">
        <ele>178</ele>
        <time>2018-01-17T14:23:52Z</time>
      </trkpt>
      <trkpt lat="43.22307" lon="5.62143">
        <ele>182</ele>
        <time>2018-01-17T14:23:56Z</time>
      </trkpt>
      <trkpt lat="43.22312" lon="5.62139">
        <ele>186</ele>
        <time>2018-01-17T14:24:02Z</time>
      </trkpt>
      <trkpt lat="43.22314" lon="5.62133">
        <ele>189</ele>
        <time>2018-01-17T14:24:06Z</time>
      </trkpt>
      <trkpt lat="43.22318" lon="5.6213">
        <ele>188</ele>
        <time>2018-01-17T14:24:12Z</time>
      </trkpt>
      <trkpt lat="43.22322" lon="5.62124">
        <ele>186</ele>
        <time>2018-01-17T14:24:18Z</time>
      </trkpt>
      <trkpt lat="43.22321" lon="5.62117">
        <ele>188</ele>
        <time>2018-01-17T14:24:22Z</time>
      </trkpt>
      <trkpt lat="43.22325" lon="5.62112">
        <ele>190</ele>
        <time>2018-01-17T14:24:28Z</time>
      </trkpt>
      <trkpt lat="43.22325" lon="5.62105">
        <ele>191</ele>
        <time>2018-01-17T14:24:36Z</time>
      </trkpt>
      <trkpt lat="43.22327" lon="5.62098">
        <ele>191</ele>
        <time>2018-01-17T14:24:44Z</time>
      </trkpt>
      <trkpt lat="43.2233" lon="5.62091">
        <ele>194</ele>
        <time>2018-01-17T14:24:50Z</time>
      </trkpt>
      <trkpt lat="43.22333" lon="5.62084">
        <ele>197</ele>
        <time>2018-01-17T14:24:56Z</time>
      </trkpt>
      <trkpt lat="43.22336" lon="5.62078">
        <ele>197</ele>
        <time>2018-01-17T14:25:02Z</time>
      </trkpt>
      <trkpt lat="43.22337" lon="5.62069">
        <ele>197</ele>
        <time>2018-01-17T14:25:12Z</time>
      </trkpt>
      <trkpt lat="43.22338" lon="5.62063">
        <ele>201</ele>
        <time>2018-01-17T14:25:22Z</time>
      </trkpt>
      <trkpt lat="43.22338" lon="5.62056">
        <ele>204</ele>
        <time>2018-01-17T14:25:28Z</time>
      </trkpt>
      <trkpt lat="43.22339" lon="5.6205">
        <ele>210</ele>
        <time>2018-01-17T14:25:36Z</time>
      </trkpt>
      <trkpt lat="43.2234" lon="5.62043">
        <ele>212</ele>
        <time>2018-01-17T14:25:48Z</time>
      </trkpt>
      <trkpt lat="43.22341" lon="5.62037">
        <ele>210</ele>
        <time>2018-01-17T14:25:54Z</time>
      </trkpt>
      <trkpt lat="43.22341" lon="5.6203">
        <ele>211</ele>
        <time>2018-01-17T14:26:04Z</time>
      </trkpt>
      <trkpt lat="43.22344" lon="5.62025">
        <ele>208</ele>
        <time>2018-01-17T14:26:12Z</time>
      </trkpt>
      <trkpt lat="43.22343" lon="5.62019">
        <ele>213</ele>
        <time>2018-01-17T14:26:24Z</time>
      </trkpt>
      <trkpt lat="43.22342" lon="5.62011">
        <ele>213</ele>
        <time>2018-01-17T14:26:32Z</time>
      </trkpt>
      <trkpt lat="43.22342" lon="5.62005">
        <ele>215</ele>
        <time>2018-01-17T14:26:40Z</time>
      </trkpt>
      <trkpt lat="43.2234" lon="5.61997">
        <ele>215</ele>
        <time>2018-01-17T14:26:50Z</time>
      </trkpt>
      <trkpt lat="43.22341" lon="5.6199">
        <ele>214</ele>
        <time>2018-01-17T14:26:56Z</time>
      </trkpt>
      <trkpt lat="43.22341" lon="5.61983">
        <ele>207</ele>
        <time>2018-01-17T14:27:02Z</time>
      </trkpt>
      <trkpt lat="43.22338" lon="5.61976">
        <ele>197</ele>
        <time>2018-01-17T14:27:08Z</time>
      </trkpt>
      <trkpt lat="43.22338" lon="5.6197">
        <ele>192</ele>
        <time>2018-01-17T14:27:14Z</time>
      </trkpt>
      <trkpt lat="43.22337" lon="5.61961">
        <ele>191</ele>
        <time>2018-01-17T14:27:22Z</time>
      </trkpt>
      <trkpt lat="43.22336" lon="5.61954">
        <ele>190</ele>
        <time>2018-01-17T14:27:28Z</time>
      </trkpt>
      <trkpt lat="43.22334" lon="5.61944">
        <ele>192</ele>
        <time>2018-01-17T14:27:32Z</time>
      </trkpt>
      <trkpt lat="43.22334" lon="5.61938">
        <ele>196</ele>
        <time>2018-01-17T14:27:36Z</time>
      </trkpt>
      <trkpt lat="43.22333" lon="5.61931">
        <ele>198</ele>
        <time>2018-01-17T14:27:40Z</time>
      </trkpt>
      <trkpt lat="43.22329" lon="5.61923">
        <ele>200</ele>
        <time>2018-01-17T14:27:46Z</time>
      </trkpt>
      <trkpt lat="43.22324" lon="5.61919">
        <ele>200</ele>
        <time>2018-01-17T14:27:52Z</time>
      </trkpt>
      <trkpt lat="43.22318" lon="5.61915">
        <ele>200</ele>
        <time>2018-01-17T14:27:54Z</time>
      </trkpt>
      <trkpt lat="43.22316" lon="5.61909">
        <ele>201</ele>
        <time>2018-01-17T14:27:58Z</time>
      </trkpt>
      <trkpt lat="43.22314" lon="5.61903">
        <ele>196</ele>
        <time>2018-01-17T14:28:04Z</time>
      </trkpt>
      <trkpt lat="43.22315" lon="5.61896">
        <ele>192</ele>
        <time>2018-01-17T14:28:10Z</time>
      </trkpt>
      <trkpt lat="43.22318" lon="5.61891">
        <ele>188</ele>
        <time>2018-01-17T14:28:18Z</time>
      </trkpt>
      <trkpt lat="43.22323" lon="5.61889">
        <ele>184</ele>
        <time>2018-01-17T14:28:24Z</time>
      </trkpt>
      <trkpt lat="43.22326" lon="5.61884">
        <ele>183</ele>
        <time>2018-01-17T14:28:30Z</time>
      </trkpt>
      <trkpt lat="43.22329" lon="5.61877">
        <ele>184</ele>
        <time>2018-01-17T14:28:36Z</time>
      </trkpt>
      <trkpt lat="43.22333" lon="5.61873">
        <ele>183</ele>
        <time>2018-01-17T14:28:42Z</time>
      </trkpt>
      <trkpt lat="43.22337" lon="5.61868">
        <ele>180</ele>
        <time>2018-01-17T14:28:48Z</time>
      </trkpt>
      <trkpt lat="43.2234" lon="5.61862">
        <ele>180</ele>
        <time>2018-01-17T14:28:56Z</time>
      </trkpt>
      <trkpt lat="43.22342" lon="5.61856">
        <ele>178</ele>
        <time>2018-01-17T14:29:02Z</time>
      </trkpt>
      <trkpt lat="43.22342" lon="5.6185">
        <ele>181</ele>
        <time>2018-01-17T14:29:12Z</time>
      </trkpt>
      <trkpt lat="43.22341" lon="5.61844">
        <ele>182</ele>
        <time>2018-01-17T14:29:24Z</time>
      </trkpt>
      <trkpt lat="43.22335" lon="5.61842">
        <ele>182</ele>
        <time>2018-01-17T14:29:32Z</time>
      </trkpt>
      <trkpt lat="43.22339" lon="5.61838">
        <ele>183</ele>
        <time>2018-01-17T14:29:38Z</time>
      </trkpt>
      <trkpt lat="43.22336" lon="5.61833">
        <ele>184</ele>
        <time>2018-01-17T14:29:54Z</time>
      </trkpt>
      <trkpt lat="43.22336" lon="5.61826">
        <ele>200</ele>
        <time>2018-01-17T14:30:16Z</time>
      </trkpt>
      <trkpt lat="43.22335" lon="5.6182">
        <ele>203</ele>
        <time>2018-01-17T14:30:30Z</time>
      </trkpt>
      <trkpt lat="43.22334" lon="5.61813">
        <ele>206</ele>
        <time>2018-01-17T14:31:02Z</time>
      </trkpt>
      <trkpt lat="43.22337" lon="5.61808">
        <ele>212</ele>
        <time>2018-01-17T14:31:54Z</time>
      </trkpt>
      <trkpt lat="43.22334" lon="5.61815">
        <ele>221</ele>
        <time>2018-01-17T14:32:20Z</time>
      </trkpt>
      <trkpt lat="43.22333" lon="5.61822">
        <ele>225</ele>
        <time>2018-01-17T14:32:26Z</time>
      </trkpt>
      <trkpt lat="43.22329" lon="5.61827">
        <ele>225</ele>
        <time>2018-01-17T14:32:34Z</time>
      </trkpt>
      <trkpt lat="43.22326" lon="5.61833">
        <ele>223</ele>
        <time>2018-01-17T14:32:40Z</time>
      </trkpt>
      <trkpt lat="43.22321" lon="5.61838">
        <ele>221</ele>
        <time>2018-01-17T14:32:48Z</time>
      </trkpt>
      <trkpt lat="43.22319" lon="5.61846">
        <ele>223</ele>
        <time>2018-01-17T14:32:54Z</time>
      </trkpt>
      <trkpt lat="43.22316" lon="5.61852">
        <ele>217</ele>
        <time>2018-01-17T14:33:04Z</time>
      </trkpt>
      <trkpt lat="43.22312" lon="5.61855">
        <ele>216</ele>
        <time>2018-01-17T14:33:08Z</time>
      </trkpt>
      <trkpt lat="43.22308" lon="5.6186">
        <ele>217</ele>
        <time>2018-01-17T14:33:16Z</time>
      </trkpt>
      <trkpt lat="43.22305" lon="5.61867">
        <ele>215</ele>
        <time>2018-01-17T14:33:24Z</time>
      </trkpt>
      <trkpt lat="43.22303" lon="5.61872">
        <ele>215</ele>
        <time>2018-01-17T14:33:30Z</time>
      </trkpt>
      <trkpt lat="43.22301" lon="5.61881">
        <ele>213</ele>
        <time>2018-01-17T14:33:36Z</time>
      </trkpt>
      <trkpt lat="43.22304" lon="5.61888">
        <ele>211</ele>
        <time>2018-01-17T14:33:42Z</time>
      </trkpt>
      <trkpt lat="43.22308" lon="5.61892">
        <ele>212</ele>
        <time>2018-01-17T14:33:46Z</time>
      </trkpt>
      <trkpt lat="43.22309" lon="5.619">
        <ele>212</ele>
        <time>2018-01-17T14:33:52Z</time>
      </trkpt>
      <trkpt lat="43.22311" lon="5.61907">
        <ele>211</ele>
        <time>2018-01-17T14:33:58Z</time>
      </trkpt>
      <trkpt lat="43.22313" lon="5.61914">
        <ele>210</ele>
        <time>2018-01-17T14:34:06Z</time>
      </trkpt>
      <trkpt lat="43.22313" lon="5.6192">
        <ele>210</ele>
        <time>2018-01-17T14:34:12Z</time>
      </trkpt>
      <trkpt lat="43.22315" lon="5.61929">
        <ele>211</ele>
        <time>2018-01-17T14:34:20Z</time>
      </trkpt>
      <trkpt lat="43.22312" lon="5.61935">
        <ele>211</ele>
        <time>2018-01-17T14:34:24Z</time>
      </trkpt>
      <trkpt lat="43.22312" lon="5.61943">
        <ele>210</ele>
        <time>2018-01-17T14:34:30Z</time>
      </trkpt>
      <trkpt lat="43.22314" lon="5.61949">
        <ele>210</ele>
        <time>2018-01-17T14:34:40Z</time>
      </trkpt>
      <trkpt lat="43.22312" lon="5.61955">
        <ele>212</ele>
        <time>2018-01-17T14:34:46Z</time>
      </trkpt>
      <trkpt lat="43.2231" lon="5.61962">
        <ele>214</ele>
        <time>2018-01-17T14:34:52Z</time>
      </trkpt>
      <trkpt lat="43.22308" lon="5.61969">
        <ele>217</ele>
        <time>2018-01-17T14:35:00Z</time>
      </trkpt>
      <trkpt lat="43.22304" lon="5.61976">
        <ele>215</ele>
        <time>2018-01-17T14:35:06Z</time>
      </trkpt>
      <trkpt lat="43.22302" lon="5.61984">
        <ele>214</ele>
        <time>2018-01-17T14:35:14Z</time>
      </trkpt>
      <trkpt lat="43.22302" lon="5.61995">
        <ele>219</ele>
        <time>2018-01-17T14:35:20Z</time>
      </trkpt>
      <trkpt lat="43.223" lon="5.62003">
        <ele>225</ele>
        <time>2018-01-17T14:35:24Z</time>
      </trkpt>
      <trkpt lat="43.22294" lon="5.62007">
        <ele>227</ele>
        <time>2018-01-17T14:35:30Z</time>
      </trkpt>
      <trkpt lat="43.2229" lon="5.62012">
        <ele>227</ele>
        <time>2018-01-17T14:35:34Z</time>
      </trkpt>
      <trkpt lat="43.22286" lon="5.62014">
        <ele>226</ele>
        <time>2018-01-17T14:35:36Z</time>
      </trkpt>
      <trkpt lat="43.22282" lon="5.62018">
        <ele>230</ele>
        <time>2018-01-17T14:35:42Z</time>
      </trkpt>
      <trkpt lat="43.22278" lon="5.62026">
        <ele>233</ele>
        <time>2018-01-17T14:35:46Z</time>
      </trkpt>
      <trkpt lat="43.22275" lon="5.62031">
        <ele>233</ele>
        <time>2018-01-17T14:35:52Z</time>
      </trkpt>
      <trkpt lat="43.2227" lon="5.62034">
        <ele>231</ele>
        <time>2018-01-17T14:36:00Z</time>
      </trkpt>
      <trkpt lat="43.22269" lon="5.62027">
        <ele>231</ele>
        <time>2018-01-17T14:36:10Z</time>
      </trkpt>
      <trkpt lat="43.22271" lon="5.62021">
        <ele>231</ele>
        <time>2018-01-17T14:36:18Z</time>
      </trkpt>
      <trkpt lat="43.22271" lon="5.62014">
        <ele>230</ele>
        <time>2018-01-17T14:36:26Z</time>
      </trkpt>
      <trkpt lat="43.22271" lon="5.62007">
        <ele>230</ele>
        <time>2018-01-17T14:36:34Z</time>
      </trkpt>
      <trkpt lat="43.22271" lon="5.62001">
        <ele>231</ele>
        <time>2018-01-17T14:36:38Z</time>
      </trkpt>
      <trkpt lat="43.22269" lon="5.61992">
        <ele>230</ele>
        <time>2018-01-17T14:36:44Z</time>
      </trkpt>
      <trkpt lat="43.22269" lon="5.61985">
        <ele>231</ele>
        <time>2018-01-17T14:36:48Z</time>
      </trkpt>
      <trkpt lat="43.22267" lon="5.61979">
        <ele>232</ele>
        <time>2018-01-17T14:36:52Z</time>
      </trkpt>
      <trkpt lat="43.22269" lon="5.61971">
        <ele>232</ele>
        <time>2018-01-17T14:37:02Z</time>
      </trkpt>
      <trkpt lat="43.22267" lon="5.61965">
        <ele>234</ele>
        <time>2018-01-17T14:37:06Z</time>
      </trkpt>
      <trkpt lat="43.22267" lon="5.61959">
        <ele>234</ele>
        <time>2018-01-17T14:37:10Z</time>
      </trkpt>
      <trkpt lat="43.22266" lon="5.61951">
        <ele>236</ele>
        <time>2018-01-17T14:37:16Z</time>
      </trkpt>
      <trkpt lat="43.22264" lon="5.61944">
        <ele>237</ele>
        <time>2018-01-17T14:37:22Z</time>
      </trkpt>
      <trkpt lat="43.22262" lon="5.61937">
        <ele>237</ele>
        <time>2018-01-17T14:37:32Z</time>
      </trkpt>
      <trkpt lat="43.22261" lon="5.6193">
        <ele>231</ele>
        <time>2018-01-17T14:37:42Z</time>
      </trkpt>
      <trkpt lat="43.22258" lon="5.61924">
        <ele>230</ele>
        <time>2018-01-17T14:37:54Z</time>
      </trkpt>
      <trkpt lat="43.22254" lon="5.61918">
        <ele>233</ele>
        <time>2018-01-17T14:38:00Z</time>
      </trkpt>
      <trkpt lat="43.22248" lon="5.61919">
        <ele>233</ele>
        <time>2018-01-17T14:38:08Z</time>
      </trkpt>
      <trkpt lat="43.22244" lon="5.61923">
        <ele>233</ele>
        <time>2018-01-17T14:38:18Z</time>
      </trkpt>
      <trkpt lat="43.22242" lon="5.6193">
        <ele>236</ele>
        <time>2018-01-17T14:38:24Z</time>
      </trkpt>
      <trkpt lat="43.22238" lon="5.61936">
        <ele>236</ele>
        <time>2018-01-17T14:38:32Z</time>
      </trkpt>
      <trkpt lat="43.22232" lon="5.61939">
        <ele>234</ele>
        <time>2018-01-17T14:38:36Z</time>
      </trkpt>
      <trkpt lat="43.22226" lon="5.61937">
        <ele>236</ele>
        <time>2018-01-17T14:38:50Z</time>
      </trkpt>
      <trkpt lat="43.2222" lon="5.61935">
        <ele>233</ele>
        <time>2018-01-17T14:39:12Z</time>
      </trkpt>
      <trkpt lat="43.22217" lon="5.61931">
        <ele>231</ele>
        <time>2018-01-17T14:39:20Z</time>
      </trkpt>
      <trkpt lat="43.22213" lon="5.61925">
        <ele>230</ele>
        <time>2018-01-17T14:39:26Z</time>
      </trkpt>
      <trkpt lat="43.22211" lon="5.61919">
        <ele>233</ele>
        <time>2018-01-17T14:39:32Z</time>
      </trkpt>
      <trkpt lat="43.22215" lon="5.61917">
        <ele>241</ele>
        <time>2018-01-17T14:42:08Z</time>
      </trkpt>
      <trkpt lat="43.22211" lon="5.61916">
        <ele>242</ele>
        <time>2018-01-17T14:43:20Z</time>
      </trkpt>
      <trkpt lat="43.22206" lon="5.61913">
        <ele>244</ele>
        <time>2018-01-17T14:43:26Z</time>
      </trkpt>
      <trkpt lat="43.222" lon="5.6191">
        <ele>244</ele>
        <time>2018-01-17T14:43:32Z</time>
      </trkpt>
      <trkpt lat="43.22197" lon="5.61904">
        <ele>241</ele>
        <time>2018-01-17T14:43:36Z</time>
      </trkpt>
      <trkpt lat="43.22194" lon="5.61897">
        <ele>237</ele>
        <time>2018-01-17T14:43:40Z</time>
      </trkpt>
      <trkpt lat="43.22189" lon="5.61894">
        <ele>240</ele>
        <time>2018-01-17T14:43:48Z</time>
      </trkpt>
      <trkpt lat="43.22184" lon="5.61888">
        <ele>233</ele>
        <time>2018-01-17T14:43:54Z</time>
      </trkpt>
      <trkpt lat="43.22181" lon="5.61883">
        <ele>232</ele>
        <time>2018-01-17T14:44:00Z</time>
      </trkpt>
      <trkpt lat="43.22176" lon="5.61877">
        <ele>231</ele>
        <time>2018-01-17T14:44:08Z</time>
      </trkpt>
      <trkpt lat="43.22171" lon="5.61873">
        <ele>230</ele>
        <time>2018-01-17T14:44:14Z</time>
      </trkpt>
      <trkpt lat="43.22166" lon="5.61871">
        <ele>231</ele>
        <time>2018-01-17T14:44:18Z</time>
      </trkpt>
      <trkpt lat="43.22162" lon="5.61868">
        <ele>234</ele>
        <time>2018-01-17T14:44:22Z</time>
      </trkpt>
      <trkpt lat="43.22156" lon="5.61867">
        <ele>235</ele>
        <time>2018-01-17T14:44:26Z</time>
      </trkpt>
      <trkpt lat="43.2215" lon="5.61866">
        <ele>239</ele>
        <time>2018-01-17T14:44:32Z</time>
      </trkpt>
      <trkpt lat="43.22144" lon="5.61864">
        <ele>241</ele>
        <time>2018-01-17T14:44:38Z</time>
      </trkpt>
      <trkpt lat="43.22138" lon="5.61862">
        <ele>241</ele>
        <time>2018-01-17T14:44:44Z</time>
      </trkpt>
      <trkpt lat="43.22132" lon="5.61861">
        <ele>240</ele>
        <time>2018-01-17T14:44:50Z</time>
      </trkpt>
      <trkpt lat="43.22126" lon="5.6186">
        <ele>241</ele>
        <time>2018-01-17T14:44:56Z</time>
      </trkpt>
      <trkpt lat="43.2212" lon="5.6186">
        <ele>242</ele>
        <time>2018-01-17T14:45:02Z</time>
      </trkpt>
      <trkpt lat="43.22114" lon="5.6186">
        <ele>239</ele>
        <time>2018-01-17T14:45:08Z</time>
      </trkpt>
      <trkpt lat="43.22108" lon="5.61859">
        <ele>239</ele>
        <time>2018-01-17T14:45:14Z</time>
      </trkpt>
      <trkpt lat="43.22102" lon="5.61855">
        <ele>240</ele>
        <time>2018-01-17T14:45:20Z</time>
      </trkpt>
      <trkpt lat="43.22098" lon="5.61851">
        <ele>238</ele>
        <time>2018-01-17T14:45:24Z</time>
      </trkpt>
      <trkpt lat="43.22094" lon="5.61844">
        <ele>237</ele>
        <time>2018-01-17T14:45:30Z</time>
      </trkpt>
      <trkpt lat="43.22089" lon="5.61841">
        <ele>238</ele>
        <time>2018-01-17T14:45:36Z</time>
      </trkpt>
      <trkpt lat="43.22084" lon="5.61836">
        <ele>238</ele>
        <time>2018-01-17T14:45:40Z</time>
      </trkpt>
      <trkpt lat="43.22079" lon="5.61833">
        <ele>236</ele>
        <time>2018-01-17T14:45:44Z</time>
      </trkpt>
      <trkpt lat="43.22075" lon="5.61827">
        <ele>235</ele>
        <time>2018-01-17T14:45:50Z</time>
      </trkpt>
      <trkpt lat="43.22072" lon="5.6182">
        <ele>236</ele>
        <time>2018-01-17T14:45:54Z</time>
      </trkpt>
      <trkpt lat="43.22069" lon="5.61814">
        <ele>236</ele>
        <time>2018-01-17T14:45:58Z</time>
      </trkpt>
      <trkpt lat="43.22064" lon="5.61807">
        <ele>235</ele>
        <time>2018-01-17T14:46:08Z</time>
      </trkpt>
      <trkpt lat="43.22061" lon="5.61802">
        <ele>234</ele>
        <time>2018-01-17T14:46:12Z</time>
      </trkpt>
      <trkpt lat="43.22058" lon="5.61795">
        <ele>235</ele>
        <time>2018-01-17T14:46:16Z</time>
      </trkpt>
      <trkpt lat="43.22057" lon="5.61788">
        <ele>232</ele>
        <time>2018-01-17T14:46:24Z</time>
      </trkpt>
      <trkpt lat="43.2206" lon="5.61781">
        <ele>231</ele>
        <time>2018-01-17T14:46:30Z</time>
      </trkpt>
      <trkpt lat="43.22065" lon="5.61774">
        <ele>235</ele>
        <time>2018-01-17T14:46:36Z</time>
      </trkpt>
      <trkpt lat="43.22068" lon="5.61769">
        <ele>239</ele>
        <time>2018-01-17T14:46:40Z</time>
      </trkpt>
      <trkpt lat="43.22074" lon="5.61765">
        <ele>240</ele>
        <time>2018-01-17T14:46:48Z</time>
      </trkpt>
      <trkpt lat="43.22078" lon="5.61762">
        <ele>240</ele>
        <time>2018-01-17T14:46:52Z</time>
      </trkpt>
      <trkpt lat="43.2208" lon="5.61755">
        <ele>239</ele>
        <time>2018-01-17T14:46:58Z</time>
      </trkpt>
      <trkpt lat="43.22083" lon="5.61748">
        <ele>241</ele>
        <time>2018-01-17T14:47:08Z</time>
      </trkpt>
      <trkpt lat="43.22088" lon="5.61745">
        <ele>240</ele>
        <time>2018-01-17T14:47:14Z</time>
      </trkpt>
      <trkpt lat="43.22092" lon="5.61741">
        <ele>240</ele>
        <time>2018-01-17T14:47:18Z</time>
      </trkpt>
      <trkpt lat="43.22096" lon="5.61737">
        <ele>240</ele>
        <time>2018-01-17T14:47:22Z</time>
      </trkpt>
      <trkpt lat="43.221" lon="5.61734">
        <ele>241</ele>
        <time>2018-01-17T14:47:26Z</time>
      </trkpt>
      <trkpt lat="43.22105" lon="5.6173">
        <ele>240</ele>
        <time>2018-01-17T14:47:32Z</time>
      </trkpt>
      <trkpt lat="43.22107" lon="5.61724">
        <ele>239</ele>
        <time>2018-01-17T14:47:36Z</time>
      </trkpt>
      <trkpt lat="43.2211" lon="5.61719">
        <ele>239</ele>
        <time>2018-01-17T14:47:40Z</time>
      </trkpt>
      <trkpt lat="43.22112" lon="5.61713">
        <ele>238</ele>
        <time>2018-01-17T14:47:44Z</time>
      </trkpt>
      <trkpt lat="43.22117" lon="5.61707">
        <ele>238</ele>
        <time>2018-01-17T14:47:50Z</time>
      </trkpt>
      <trkpt lat="43.2212" lon="5.61701">
        <ele>239</ele>
        <time>2018-01-17T14:47:54Z</time>
      </trkpt>
      <trkpt lat="43.22124" lon="5.61697">
        <ele>241</ele>
        <time>2018-01-17T14:47:58Z</time>
      </trkpt>
      <trkpt lat="43.22127" lon="5.6169">
        <ele>239</ele>
        <time>2018-01-17T14:48:04Z</time>
      </trkpt>
      <trkpt lat="43.2213" lon="5.61685">
        <ele>238</ele>
        <time>2018-01-17T14:48:10Z</time>
      </trkpt>
      <trkpt lat="43.22132" lon="5.61679">
        <ele>240</ele>
        <time>2018-01-17T14:48:16Z</time>
      </trkpt>
      <trkpt lat="43.22136" lon="5.61673">
        <ele>240</ele>
        <time>2018-01-17T14:48:38Z</time>
      </trkpt>
      <trkpt lat="43.2214" lon="5.61667">
        <ele>239</ele>
        <time>2018-01-17T14:48:44Z</time>
      </trkpt>
      <trkpt lat="43.22144" lon="5.61661">
        <ele>238</ele>
        <time>2018-01-17T14:48:50Z</time>
      </trkpt>
      <trkpt lat="43.22143" lon="5.61655">
        <ele>240</ele>
        <time>2018-01-17T14:48:54Z</time>
      </trkpt>
      <trkpt lat="43.22142" lon="5.61647">
        <ele>240</ele>
        <time>2018-01-17T14:49:00Z</time>
      </trkpt>
      <trkpt lat="43.22141" lon="5.61639">
        <ele>243</ele>
        <time>2018-01-17T14:49:06Z</time>
      </trkpt>
      <trkpt lat="43.22137" lon="5.61632">
        <ele>239</ele>
        <time>2018-01-17T14:49:12Z</time>
      </trkpt>
      <trkpt lat="43.22135" lon="5.61625">
        <ele>240</ele>
        <time>2018-01-17T14:49:18Z</time>
      </trkpt>
      <trkpt lat="43.2213" lon="5.61621">
        <ele>236</ele>
        <time>2018-01-17T14:49:24Z</time>
      </trkpt>
      <trkpt lat="43.22125" lon="5.61616">
        <ele>235</ele>
        <time>2018-01-17T14:49:30Z</time>
      </trkpt>
      <trkpt lat="43.22124" lon="5.6161">
        <ele>234</ele>
        <time>2018-01-17T14:49:34Z</time>
      </trkpt>
      <trkpt lat="43.22123" lon="5.61602">
        <ele>233</ele>
        <time>2018-01-17T14:49:40Z</time>
      </trkpt>
      <trkpt lat="43.22123" lon="5.61596">
        <ele>236</ele>
        <time>2018-01-17T14:49:44Z</time>
      </trkpt>
      <trkpt lat="43.22123" lon="5.6159">
        <ele>237</ele>
        <time>2018-01-17T14:49:48Z</time>
      </trkpt>
      <trkpt lat="43.22122" lon="5.61582">
        <ele>236</ele>
        <time>2018-01-17T14:49:52Z</time>
      </trkpt>
      <trkpt lat="43.22126" lon="5.61576">
        <ele>236</ele>
        <time>2018-01-17T14:49:58Z</time>
      </trkpt>
      <trkpt lat="43.22129" lon="5.61571">
        <ele>237</ele>
        <time>2018-01-17T14:50:04Z</time>
      </trkpt>
      <trkpt lat="43.22134" lon="5.61566">
        <ele>237</ele>
        <time>2018-01-17T14:50:10Z</time>
      </trkpt>
      <trkpt lat="43.2214" lon="5.61562">
        <ele>237</ele>
        <time>2018-01-17T14:50:16Z</time>
      </trkpt>
      <trkpt lat="43.22144" lon="5.61558">
        <ele>232</ele>
        <time>2018-01-17T14:50:22Z</time>
      </trkpt>
      <trkpt lat="43.22148" lon="5.61555">
        <ele>232</ele>
        <time>2018-01-17T14:50:26Z</time>
      </trkpt>
      <trkpt lat="43.22153" lon="5.61551">
        <ele>232</ele>
        <time>2018-01-17T14:50:30Z</time>
      </trkpt>
      <trkpt lat="43.22156" lon="5.61547">
        <ele>233</ele>
        <time>2018-01-17T14:50:34Z</time>
      </trkpt>
      <trkpt lat="43.22161" lon="5.61542">
        <ele>236</ele>
        <time>2018-01-17T14:50:38Z</time>
      </trkpt>
      <trkpt lat="43.22162" lon="5.61536">
        <ele>239</ele>
        <time>2018-01-17T14:50:44Z</time>
      </trkpt>
      <trkpt lat="43.22164" lon="5.6153">
        <ele>239</ele>
        <time>2018-01-17T14:50:48Z</time>
      </trkpt>
      <trkpt lat="43.22168" lon="5.61524">
        <ele>240</ele>
        <time>2018-01-17T14:50:52Z</time>
      </trkpt>
      <trkpt lat="43.22173" lon="5.61521">
        <ele>240</ele>
        <time>2018-01-17T14:50:56Z</time>
      </trkpt>
      <trkpt lat="43.22177" lon="5.6152">
        <ele>237</ele>
        <time>2018-01-17T14:51:00Z</time>
      </trkpt>
      <trkpt lat="43.2218" lon="5.61515">
        <ele>237</ele>
        <time>2018-01-17T14:51:08Z</time>
      </trkpt>
      <trkpt lat="43.22184" lon="5.61511">
        <ele>241</ele>
        <time>2018-01-17T14:51:12Z</time>
      </trkpt>
      <trkpt lat="43.22189" lon="5.61506">
        <ele>237</ele>
        <time>2018-01-17T14:51:22Z</time>
      </trkpt>
      <trkpt lat="43.22191" lon="5.615">
        <ele>234</ele>
        <time>2018-01-17T14:51:32Z</time>
      </trkpt>
      <trkpt lat="43.22197" lon="5.61495">
        <ele>235</ele>
        <time>2018-01-17T14:51:40Z</time>
      </trkpt>
      <trkpt lat="43.22201" lon="5.6149">
        <ele>238</ele>
        <time>2018-01-17T14:51:44Z</time>
      </trkpt>
      <trkpt lat="43.22207" lon="5.61486">
        <ele>238</ele>
        <time>2018-01-17T14:51:48Z</time>
      </trkpt>
      <trkpt lat="43.22213" lon="5.61485">
        <ele>239</ele>
        <time>2018-01-17T14:51:52Z</time>
      </trkpt>
      <trkpt lat="43.2222" lon="5.61486">
        <ele>241</ele>
        <time>2018-01-17T14:51:56Z</time>
      </trkpt>
      <trkpt lat="43.22227" lon="5.61485">
        <ele>241</ele>
        <time>2018-01-17T14:52:00Z</time>
      </trkpt>
      <trkpt lat="43.22231" lon="5.61482">
        <ele>241</ele>
        <time>2018-01-17T14:52:10Z</time>
      </trkpt>
      <trkpt lat="43.22236" lon="5.6148">
        <ele>242</ele>
        <time>2018-01-17T14:52:14Z</time>
      </trkpt>
      <trkpt lat="43.22241" lon="5.61475">
        <ele>240</ele>
        <time>2018-01-17T14:52:18Z</time>
      </trkpt>
      <trkpt lat="43.22245" lon="5.61472">
        <ele>242</ele>
        <time>2018-01-17T14:52:22Z</time>
      </trkpt>
      <trkpt lat="43.22247" lon="5.61466">
        <ele>244</ele>
        <time>2018-01-17T14:52:28Z</time>
      </trkpt>
      <trkpt lat="43.22244" lon="5.6146">
        <ele>242</ele>
        <time>2018-01-17T14:52:36Z</time>
      </trkpt>
      <trkpt lat="43.2224" lon="5.61453">
        <ele>241</ele>
        <time>2018-01-17T14:52:44Z</time>
      </trkpt>
      <trkpt lat="43.22236" lon="5.6145">
        <ele>244</ele>
        <time>2018-01-17T14:52:50Z</time>
      </trkpt>
      <trkpt lat="43.22231" lon="5.61448">
        <ele>242</ele>
        <time>2018-01-17T14:52:54Z</time>
      </trkpt>
      <trkpt lat="43.22227" lon="5.61445">
        <ele>236</ele>
        <time>2018-01-17T14:53:00Z</time>
      </trkpt>
      <trkpt lat="43.22221" lon="5.61445">
        <ele>234</ele>
        <time>2018-01-17T14:53:06Z</time>
      </trkpt>
      <trkpt lat="43.22216" lon="5.61443">
        <ele>234</ele>
        <time>2018-01-17T14:53:10Z</time>
      </trkpt>
      <trkpt lat="43.22211" lon="5.6144">
        <ele>234</ele>
        <time>2018-01-17T14:53:14Z</time>
      </trkpt>
      <trkpt lat="43.22207" lon="5.61438">
        <ele>235</ele>
        <time>2018-01-17T14:53:18Z</time>
      </trkpt>
      <trkpt lat="43.22201" lon="5.61433">
        <ele>234</ele>
        <time>2018-01-17T14:53:24Z</time>
      </trkpt>
      <trkpt lat="43.22196" lon="5.61429">
        <ele>236</ele>
        <time>2018-01-17T14:53:30Z</time>
      </trkpt>
      <trkpt lat="43.22189" lon="5.61428">
        <ele>232</ele>
        <time>2018-01-17T14:53:36Z</time>
      </trkpt>
      <trkpt lat="43.22185" lon="5.61424">
        <ele>231</ele>
        <time>2018-01-17T14:53:42Z</time>
      </trkpt>
      <trkpt lat="43.22182" lon="5.61418">
        <ele>228</ele>
        <time>2018-01-17T14:53:48Z</time>
      </trkpt>
      <trkpt lat="43.22179" lon="5.61411">
        <ele>233</ele>
        <time>2018-01-17T14:53:54Z</time>
      </trkpt>
      <trkpt lat="43.22176" lon="5.61404">
        <ele>233</ele>
        <time>2018-01-17T14:54:12Z</time>
      </trkpt>
      <trkpt lat="43.22174" lon="5.61396">
        <ele>234</ele>
        <time>2018-01-17T14:54:18Z</time>
      </trkpt>
      <trkpt lat="43.2217" lon="5.61395">
        <ele>233</ele>
        <time>2018-01-17T14:54:22Z</time>
      </trkpt>
      <trkpt lat="43.22162" lon="5.61393">
        <ele>236</ele>
        <time>2018-01-17T14:54:28Z</time>
      </trkpt>
      <trkpt lat="43.22164" lon="5.61384">
        <ele>234</ele>
        <time>2018-01-17T14:54:32Z</time>
      </trkpt>
      <trkpt lat="43.22157" lon="5.6139">
        <ele>232</ele>
        <time>2018-01-17T14:54:34Z</time>
      </trkpt>
      <trkpt lat="43.22151" lon="5.61391">
        <ele>233</ele>
        <time>2018-01-17T14:54:38Z</time>
      </trkpt>
      <trkpt lat="43.22147" lon="5.61387">
        <ele>234</ele>
        <time>2018-01-17T14:54:44Z</time>
      </trkpt>
      <trkpt lat="43.22141" lon="5.61387">
        <ele>236</ele>
        <time>2018-01-17T14:54:48Z</time>
      </trkpt>
      <trkpt lat="43.22135" lon="5.61387">
        <ele>237</ele>
        <time>2018-01-17T14:54:52Z</time>
      </trkpt>
      <trkpt lat="43.2213" lon="5.61386">
        <ele>235</ele>
        <time>2018-01-17T14:54:58Z</time>
      </trkpt>
      <trkpt lat="43.22122" lon="5.61384">
        <ele>238</ele>
        <time>2018-01-17T14:55:04Z</time>
      </trkpt>
      <trkpt lat="43.22117" lon="5.61381">
        <ele>234</ele>
        <time>2018-01-17T14:55:08Z</time>
      </trkpt>
      <trkpt lat="43.22111" lon="5.61377">
        <ele>234</ele>
        <time>2018-01-17T14:55:14Z</time>
      </trkpt>
      <trkpt lat="43.22104" lon="5.61375">
        <ele>235</ele>
        <time>2018-01-17T14:55:22Z</time>
      </trkpt>
      <trkpt lat="43.22097" lon="5.61375">
        <ele>235</ele>
        <time>2018-01-17T14:55:26Z</time>
      </trkpt>
      <trkpt lat="43.22092" lon="5.61371">
        <ele>235</ele>
        <time>2018-01-17T14:55:32Z</time>
      </trkpt>
      <trkpt lat="43.22086" lon="5.61371">
        <ele>228</ele>
        <time>2018-01-17T14:55:38Z</time>
      </trkpt>
      <trkpt lat="43.22081" lon="5.61369">
        <ele>228</ele>
        <time>2018-01-17T14:55:46Z</time>
      </trkpt>
      <trkpt lat="43.22075" lon="5.61369">
        <ele>232</ele>
        <time>2018-01-17T14:55:50Z</time>
      </trkpt>
      <trkpt lat="43.22069" lon="5.61365">
        <ele>230</ele>
        <time>2018-01-17T14:55:58Z</time>
      </trkpt>
      <trkpt lat="43.22064" lon="5.61362">
        <ele>228</ele>
        <time>2018-01-17T14:56:04Z</time>
      </trkpt>
      <trkpt lat="43.22064" lon="5.61355">
        <ele>224</ele>
        <time>2018-01-17T14:56:18Z</time>
      </trkpt>
      <trkpt lat="43.22065" lon="5.61347">
        <ele>224</ele>
        <time>2018-01-17T14:56:24Z</time>
      </trkpt>
      <trkpt lat="43.22065" lon="5.61338">
        <ele>228</ele>
        <time>2018-01-17T14:56:28Z</time>
      </trkpt>
      <trkpt lat="43.22064" lon="5.61329">
        <ele>228</ele>
        <time>2018-01-17T14:56:32Z</time>
      </trkpt>
      <trkpt lat="43.22059" lon="5.61323">
        <ele>229</ele>
        <time>2018-01-17T14:56:40Z</time>
      </trkpt>
      <trkpt lat="43.22053" lon="5.61318">
        <ele>229</ele>
        <time>2018-01-17T14:56:46Z</time>
      </trkpt>
      <trkpt lat="43.2205" lon="5.61313">
        <ele>225</ele>
        <time>2018-01-17T14:56:50Z</time>
      </trkpt>
      <trkpt lat="43.22044" lon="5.61311">
        <ele>225</ele>
        <time>2018-01-17T14:56:56Z</time>
      </trkpt>
      <trkpt lat="43.22042" lon="5.61305">
        <ele>226</ele>
        <time>2018-01-17T14:57:00Z</time>
      </trkpt>
      <trkpt lat="43.22037" lon="5.61311">
        <ele>124</ele>
        <time>2018-01-17T14:57:06Z</time>
      </trkpt>
      <trkpt lat="43.22033" lon="5.61315">
        <ele>205</ele>
        <time>2018-01-17T14:57:14Z</time>
      </trkpt>
      <trkpt lat="43.22034" lon="5.61305">
        <ele>213</ele>
        <time>2018-01-17T14:57:18Z</time>
      </trkpt>
      <trkpt lat="43.22029" lon="5.61301">
        <ele>207</ele>
        <time>2018-01-17T14:57:26Z</time>
      </trkpt>
      <trkpt lat="43.22024" lon="5.61298">
        <ele>215</ele>
        <time>2018-01-17T14:57:36Z</time>
      </trkpt>
      <trkpt lat="43.22023" lon="5.61292">
        <ele>216</ele>
        <time>2018-01-17T14:57:42Z</time>
      </trkpt>
      <trkpt lat="43.22019" lon="5.61293">
        <ele>217</ele>
        <time>2018-01-17T14:57:44Z</time>
      </trkpt>
      <trkpt lat="43.22014" lon="5.61289">
        <ele>216</ele>
        <time>2018-01-17T14:57:50Z</time>
      </trkpt>
      <trkpt lat="43.22008" lon="5.61283">
        <ele>213</ele>
        <time>2018-01-17T14:57:56Z</time>
      </trkpt>
      <trkpt lat="43.22004" lon="5.6128">
        <ele>217</ele>
        <time>2018-01-17T14:58:00Z</time>
      </trkpt>
      <trkpt lat="43.22" lon="5.61274">
        <ele>220</ele>
        <time>2018-01-17T14:58:06Z</time>
      </trkpt>
      <trkpt lat="43.21996" lon="5.61271">
        <ele>221</ele>
        <time>2018-01-17T14:58:10Z</time>
      </trkpt>
      <trkpt lat="43.21991" lon="5.61264">
        <ele>220</ele>
        <time>2018-01-17T14:58:16Z</time>
      </trkpt>
      <trkpt lat="43.21987" lon="5.61259">
        <ele>220</ele>
        <time>2018-01-17T14:58:24Z</time>
      </trkpt>
      <trkpt lat="43.21985" lon="5.61253">
        <ele>221</ele>
        <time>2018-01-17T14:58:28Z</time>
      </trkpt>
      <trkpt lat="43.21983" lon="5.61247">
        <ele>218</ele>
        <time>2018-01-17T14:58:34Z</time>
      </trkpt>
      <trkpt lat="43.21981" lon="5.6124">
        <ele>219</ele>
        <time>2018-01-17T14:58:38Z</time>
      </trkpt>
      <trkpt lat="43.21982" lon="5.61232">
        <ele>218</ele>
        <time>2018-01-17T14:58:44Z</time>
      </trkpt>
      <trkpt lat="43.2198" lon="5.61225">
        <ele>220</ele>
        <time>2018-01-17T14:58:48Z</time>
      </trkpt>
      <trkpt lat="43.2198" lon="5.61216">
        <ele>219</ele>
        <time>2018-01-17T14:58:52Z</time>
      </trkpt>
      <trkpt lat="43.21981" lon="5.6121">
        <ele>218</ele>
        <time>2018-01-17T14:58:56Z</time>
      </trkpt>
      <trkpt lat="43.21984" lon="5.612">
        <ele>217</ele>
        <time>2018-01-17T14:59:02Z</time>
      </trkpt>
      <trkpt lat="43.21987" lon="5.61194">
        <ele>216</ele>
        <time>2018-01-17T14:59:08Z</time>
      </trkpt>
      <trkpt lat="43.21988" lon="5.61187">
        <ele>218</ele>
        <time>2018-01-17T14:59:16Z</time>
      </trkpt>
      <trkpt lat="43.21985" lon="5.61181">
        <ele>218</ele>
        <time>2018-01-17T14:59:22Z</time>
      </trkpt>
      <trkpt lat="43.21979" lon="5.61175">
        <ele>219</ele>
        <time>2018-01-17T14:59:28Z</time>
      </trkpt>
      <trkpt lat="43.21974" lon="5.61171">
        <ele>220</ele>
        <time>2018-01-17T14:59:32Z</time>
      </trkpt>
      <trkpt lat="43.2197" lon="5.61168">
        <ele>224</ele>
        <time>2018-01-17T14:59:38Z</time>
      </trkpt>
      <trkpt lat="43.21967" lon="5.61162">
        <ele>226</ele>
        <time>2018-01-17T14:59:42Z</time>
      </trkpt>
      <trkpt lat="43.21962" lon="5.61161">
        <ele>226</ele>
        <time>2018-01-17T14:59:48Z</time>
      </trkpt>
      <trkpt lat="43.21953" lon="5.61168">
        <ele>225</ele>
        <time>2018-01-17T14:59:50Z</time>
      </trkpt>
      <trkpt lat="43.21956" lon="5.61161">
        <ele>224</ele>
        <time>2018-01-17T14:59:54Z</time>
      </trkpt>
      <trkpt lat="43.21954" lon="5.61152">
        <ele>227</ele>
        <time>2018-01-17T15:00:02Z</time>
      </trkpt>
      <trkpt lat="43.21948" lon="5.61148">
        <ele>227</ele>
        <time>2018-01-17T15:00:12Z</time>
      </trkpt>
      <trkpt lat="43.21943" lon="5.61144">
        <ele>224</ele>
        <time>2018-01-17T15:00:24Z</time>
      </trkpt>
      <trkpt lat="43.21939" lon="5.61141">
        <ele>228</ele>
        <time>2018-01-17T15:00:30Z</time>
      </trkpt>
      <trkpt lat="43.21937" lon="5.61135">
        <ele>232</ele>
        <time>2018-01-17T15:00:42Z</time>
      </trkpt>
      <trkpt lat="43.21937" lon="5.61128">
        <ele>231</ele>
        <time>2018-01-17T15:01:02Z</time>
      </trkpt>
      <trkpt lat="43.21933" lon="5.61125">
        <ele>231</ele>
        <time>2018-01-17T15:01:14Z</time>
      </trkpt>
      <trkpt lat="43.21927" lon="5.61122">
        <ele>234</ele>
        <time>2018-01-17T15:01:26Z</time>
      </trkpt>
      <trkpt lat="43.21922" lon="5.61121">
        <ele>237</ele>
        <time>2018-01-17T15:01:34Z</time>
      </trkpt>
      <trkpt lat="43.21917" lon="5.61121">
        <ele>237</ele>
        <time>2018-01-17T15:01:50Z</time>
      </trkpt>
      <trkpt lat="43.21912" lon="5.61123">
        <ele>241</ele>
        <time>2018-01-17T15:02:06Z</time>
      </trkpt>
      <trkpt lat="43.21907" lon="5.61122">
        <ele>244</ele>
        <time>2018-01-17T15:02:24Z</time>
      </trkpt>
      <trkpt lat="43.21902" lon="5.61122">
        <ele>245</ele>
        <time>2018-01-17T15:02:32Z</time>
      </trkpt>
      <trkpt lat="43.21898" lon="5.61118">
        <ele>244</ele>
        <time>2018-01-17T15:02:42Z</time>
      </trkpt>
      <trkpt lat="43.21894" lon="5.61115">
        <ele>247</ele>
        <time>2018-01-17T15:02:54Z</time>
      </trkpt>
      <trkpt lat="43.21891" lon="5.61111">
        <ele>246</ele>
        <time>2018-01-17T15:03:02Z</time>
      </trkpt>
      <trkpt lat="43.21887" lon="5.61107">
        <ele>246</ele>
        <time>2018-01-17T15:03:08Z</time>
      </trkpt>
      <trkpt lat="43.21885" lon="5.61101">
        <ele>247</ele>
        <time>2018-01-17T15:03:16Z</time>
      </trkpt>
      <trkpt lat="43.2188" lon="5.61103">
        <ele>246</ele>
        <time>2018-01-17T15:03:22Z</time>
      </trkpt>
      <trkpt lat="43.21876" lon="5.61098">
        <ele>248</ele>
        <time>2018-01-17T15:03:30Z</time>
      </trkpt>
      <trkpt lat="43.21872" lon="5.61095">
        <ele>251</ele>
        <time>2018-01-17T15:03:36Z</time>
      </trkpt>
      <trkpt lat="43.21867" lon="5.61091">
        <ele>253</ele>
        <time>2018-01-17T15:03:44Z</time>
      </trkpt>
      <trkpt lat="43.21861" lon="5.61091">
        <ele>251</ele>
        <time>2018-01-17T15:03:50Z</time>
      </trkpt>
      <trkpt lat="43.21857" lon="5.61091">
        <ele>251</ele>
        <time>2018-01-17T15:04:10Z</time>
      </trkpt>
      <trkpt lat="43.21852" lon="5.61091">
        <ele>255</ele>
        <time>2018-01-17T15:04:16Z</time>
      </trkpt>
      <trkpt lat="43.21847" lon="5.61095">
        <ele>255</ele>
        <time>2018-01-17T15:04:24Z</time>
      </trkpt>
      <trkpt lat="43.21851" lon="5.61092">
        <ele>256</ele>
        <time>2018-01-17T15:05:22Z</time>
      </trkpt>
      <trkpt lat="43.21855" lon="5.61088">
        <ele>257</ele>
        <time>2018-01-17T15:05:28Z</time>
      </trkpt>
      <trkpt lat="43.21854" lon="5.61095">
        <ele>257</ele>
        <time>2018-01-17T15:06:32Z</time>
      </trkpt>
      <trkpt lat="43.21852" lon="5.61103">
        <ele>257</ele>
        <time>2018-01-17T15:06:42Z</time>
      </trkpt>
      <trkpt lat="43.21848" lon="5.61109">
        <ele>257</ele>
        <time>2018-01-17T15:06:48Z</time>
      </trkpt>
      <trkpt lat="43.21844" lon="5.61114">
        <ele>257</ele>
        <time>2018-01-17T15:06:52Z</time>
      </trkpt>
      <trkpt lat="43.21842" lon="5.6112">
        <ele>259</ele>
        <time>2018-01-17T15:06:56Z</time>
      </trkpt>
      <trkpt lat="43.21837" lon="5.61124">
        <ele>255</ele>
        <time>2018-01-17T15:07:02Z</time>
      </trkpt>
      <trkpt lat="43.21835" lon="5.61129">
        <ele>255</ele>
        <time>2018-01-17T15:07:08Z</time>
      </trkpt>
      <trkpt lat="43.21831" lon="5.61135">
        <ele>255</ele>
        <time>2018-01-17T15:07:14Z</time>
      </trkpt>
      <trkpt lat="43.21826" lon="5.61139">
        <ele>254</ele>
        <time>2018-01-17T15:07:20Z</time>
      </trkpt>
      <trkpt lat="43.21823" lon="5.61144">
        <ele>252</ele>
        <time>2018-01-17T15:07:28Z</time>
      </trkpt>
      <trkpt lat="43.21821" lon="5.61151">
        <ele>250</ele>
        <time>2018-01-17T15:07:34Z</time>
      </trkpt>
      <trkpt lat="43.21817" lon="5.61155">
        <ele>250</ele>
        <time>2018-01-17T15:07:38Z</time>
      </trkpt>
      <trkpt lat="43.21813" lon="5.61159">
        <ele>248</ele>
        <time>2018-01-17T15:07:46Z</time>
      </trkpt>
      <trkpt lat="43.21809" lon="5.61163">
        <ele>248</ele>
        <time>2018-01-17T15:07:52Z</time>
      </trkpt>
      <trkpt lat="43.21804" lon="5.61166">
        <ele>245</ele>
        <time>2018-01-17T15:07:58Z</time>
      </trkpt>
      <trkpt lat="43.21802" lon="5.61171">
        <ele>246</ele>
        <time>2018-01-17T15:08:12Z</time>
      </trkpt>
      <trkpt lat="43.218" lon="5.61177">
        <ele>246</ele>
        <time>2018-01-17T15:08:24Z</time>
      </trkpt>
      <trkpt lat="43.21795" lon="5.61183">
        <ele>243</ele>
        <time>2018-01-17T15:08:28Z</time>
      </trkpt>
      <trkpt lat="43.21789" lon="5.61189">
        <ele>243</ele>
        <time>2018-01-17T15:08:32Z</time>
      </trkpt>
      <trkpt lat="43.21784" lon="5.61193">
        <ele>242</ele>
        <time>2018-01-17T15:08:36Z</time>
      </trkpt>
      <trkpt lat="43.2178" lon="5.61198">
        <ele>241</ele>
        <time>2018-01-17T15:08:40Z</time>
      </trkpt>
      <trkpt lat="43.21775" lon="5.61204">
        <ele>243</ele>
        <time>2018-01-17T15:08:44Z</time>
      </trkpt>
      <trkpt lat="43.2177" lon="5.61208">
        <ele>242</ele>
        <time>2018-01-17T15:08:48Z</time>
      </trkpt>
      <trkpt lat="43.21766" lon="5.61212">
        <ele>241</ele>
        <time>2018-01-17T15:08:52Z</time>
      </trkpt>
      <trkpt lat="43.21761" lon="5.61215">
        <ele>241</ele>
        <time>2018-01-17T15:08:58Z</time>
      </trkpt>
      <trkpt lat="43.21756" lon="5.61214">
        <ele>240</ele>
        <time>2018-01-17T15:09:06Z</time>
      </trkpt>
      <trkpt lat="43.21751" lon="5.61216">
        <ele>241</ele>
        <time>2018-01-17T15:09:12Z</time>
      </trkpt>
      <trkpt lat="43.21747" lon="5.6122">
        <ele>240</ele>
        <time>2018-01-17T15:09:14Z</time>
      </trkpt>
      <trkpt lat="43.21742" lon="5.61223">
        <ele>238</ele>
        <time>2018-01-17T15:09:18Z</time>
      </trkpt>
      <trkpt lat="43.21737" lon="5.61226">
        <ele>238</ele>
        <time>2018-01-17T15:09:22Z</time>
      </trkpt>
      <trkpt lat="43.21734" lon="5.61229">
        <ele>239</ele>
        <time>2018-01-17T15:09:28Z</time>
      </trkpt>
      <trkpt lat="43.21728" lon="5.61229">
        <ele>235</ele>
        <time>2018-01-17T15:09:34Z</time>
      </trkpt>
      <trkpt lat="43.21721" lon="5.6123">
        <ele>234</ele>
        <time>2018-01-17T15:09:40Z</time>
      </trkpt>
      <trkpt lat="43.21716" lon="5.61231">
        <ele>232</ele>
        <time>2018-01-17T15:09:44Z</time>
      </trkpt>
      <trkpt lat="43.21711" lon="5.61233">
        <ele>233</ele>
        <time>2018-01-17T15:09:48Z</time>
      </trkpt>
      <trkpt lat="43.21705" lon="5.61237">
        <ele>234</ele>
        <time>2018-01-17T15:09:52Z</time>
      </trkpt>
      <trkpt lat="43.217" lon="5.61241">
        <ele>234</ele>
        <time>2018-01-17T15:09:56Z</time>
      </trkpt>
      <trkpt lat="43.21696" lon="5.61237">
        <ele>226</ele>
        <time>2018-01-17T15:10:02Z</time>
      </trkpt>
      <trkpt lat="43.21691" lon="5.61238">
        <ele>227</ele>
        <time>2018-01-17T15:10:12Z</time>
      </trkpt>
      <trkpt lat="43.21683" lon="5.61242">
        <ele>231</ele>
        <time>2018-01-17T15:10:16Z</time>
      </trkpt>
      <trkpt lat="43.21677" lon="5.61245">
        <ele>229</ele>
        <time>2018-01-17T15:10:20Z</time>
      </trkpt>
      <trkpt lat="43.21673" lon="5.61246">
        <ele>225</ele>
        <time>2018-01-17T15:10:28Z</time>
      </trkpt>
      <trkpt lat="43.21668" lon="5.61244">
        <ele>225</ele>
        <time>2018-01-17T15:10:34Z</time>
      </trkpt>
      <trkpt lat="43.21663" lon="5.61243">
        <ele>224</ele>
        <time>2018-01-17T15:10:40Z</time>
      </trkpt>
      <trkpt lat="43.21662" lon="5.61234">
        <ele>217</ele>
        <time>2018-01-17T15:10:50Z</time>
      </trkpt>
      <trkpt lat="43.21659" lon="5.61229">
        <ele>217</ele>
        <time>2018-01-17T15:10:54Z</time>
      </trkpt>
      <trkpt lat="43.21657" lon="5.61222">
        <ele>216</ele>
        <time>2018-01-17T15:10:58Z</time>
      </trkpt>
      <trkpt lat="43.21655" lon="5.61212">
        <ele>221</ele>
        <time>2018-01-17T15:11:02Z</time>
      </trkpt>
      <trkpt lat="43.21654" lon="5.61205">
        <ele>221</ele>
        <time>2018-01-17T15:11:12Z</time>
      </trkpt>
      <trkpt lat="43.21654" lon="5.61198">
        <ele>220</ele>
        <time>2018-01-17T15:11:18Z</time>
      </trkpt>
      <trkpt lat="43.21652" lon="5.6119">
        <ele>220</ele>
        <time>2018-01-17T15:11:22Z</time>
      </trkpt>
      <trkpt lat="43.21652" lon="5.61183">
        <ele>217</ele>
        <time>2018-01-17T15:11:28Z</time>
      </trkpt>
      <trkpt lat="43.21649" lon="5.61175">
        <ele>213</ele>
        <time>2018-01-17T15:11:34Z</time>
      </trkpt>
      <trkpt lat="43.21649" lon="5.61165">
        <ele>214</ele>
        <time>2018-01-17T15:11:40Z</time>
      </trkpt>
      <trkpt lat="43.21647" lon="5.61153">
        <ele>218</ele>
        <time>2018-01-17T15:11:44Z</time>
      </trkpt>
      <trkpt lat="43.21645" lon="5.61142">
        <ele>222</ele>
        <time>2018-01-17T15:11:48Z</time>
      </trkpt>
      <trkpt lat="43.21647" lon="5.61134">
        <ele>223</ele>
        <time>2018-01-17T15:11:54Z</time>
      </trkpt>
      <trkpt lat="43.21647" lon="5.61127">
        <ele>225</ele>
        <time>2018-01-17T15:11:58Z</time>
      </trkpt>
      <trkpt lat="43.21645" lon="5.6112">
        <ele>222</ele>
        <time>2018-01-17T15:12:06Z</time>
      </trkpt>
      <trkpt lat="43.21643" lon="5.61114">
        <ele>223</ele>
        <time>2018-01-17T15:12:10Z</time>
      </trkpt>
      <trkpt lat="43.21639" lon="5.61108">
        <ele>221</ele>
        <time>2018-01-17T15:12:16Z</time>
      </trkpt>
      <trkpt lat="43.21634" lon="5.61104">
        <ele>223</ele>
        <time>2018-01-17T15:12:22Z</time>
      </trkpt>
      <trkpt lat="43.21631" lon="5.61099">
        <ele>225</ele>
        <time>2018-01-17T15:12:28Z</time>
      </trkpt>
      <trkpt lat="43.21629" lon="5.61093">
        <ele>224</ele>
        <time>2018-01-17T15:12:32Z</time>
      </trkpt>
      <trkpt lat="43.21626" lon="5.61086">
        <ele>223</ele>
        <time>2018-01-17T15:12:38Z</time>
      </trkpt>
      <trkpt lat="43.21624" lon="5.6108">
        <ele>222</ele>
        <time>2018-01-17T15:12:44Z</time>
      </trkpt>
      <trkpt lat="43.2162" lon="5.61072">
        <ele>222</ele>
        <time>2018-01-17T15:12:50Z</time>
      </trkpt>
      <trkpt lat="43.21618" lon="5.61064">
        <ele>222</ele>
        <time>2018-01-17T15:12:58Z</time>
      </trkpt>
      <trkpt lat="43.21615" lon="5.61058">
        <ele>218</ele>
        <time>2018-01-17T15:13:04Z</time>
      </trkpt>
      <trkpt lat="43.21612" lon="5.61052">
        <ele>218</ele>
        <time>2018-01-17T15:13:08Z</time>
      </trkpt>
      <trkpt lat="43.21609" lon="5.61045">
        <ele>216</ele>
        <time>2018-01-17T15:13:14Z</time>
      </trkpt>
      <trkpt lat="43.21608" lon="5.61039">
        <ele>216</ele>
        <time>2018-01-17T15:13:18Z</time>
      </trkpt>
      <trkpt lat="43.21605" lon="5.61033">
        <ele>214</ele>
        <time>2018-01-17T15:13:22Z</time>
      </trkpt>
      <trkpt lat="43.21602" lon="5.61028">
        <ele>211</ele>
        <time>2018-01-17T15:13:28Z</time>
      </trkpt>
      <trkpt lat="43.21599" lon="5.61022">
        <ele>215</ele>
        <time>2018-01-17T15:13:34Z</time>
      </trkpt>
      <trkpt lat="43.21597" lon="5.61015">
        <ele>215</ele>
        <time>2018-01-17T15:13:40Z</time>
      </trkpt>
      <trkpt lat="43.21597" lon="5.61007">
        <ele>213</ele>
        <time>2018-01-17T15:13:46Z</time>
      </trkpt>
      <trkpt lat="43.21596" lon="5.60999">
        <ele>213</ele>
        <time>2018-01-17T15:13:52Z</time>
      </trkpt>
      <trkpt lat="43.21597" lon="5.60992">
        <ele>211</ele>
        <time>2018-01-17T15:13:58Z</time>
      </trkpt>
      <trkpt lat="43.21598" lon="5.60986">
        <ele>205</ele>
        <time>2018-01-17T15:14:04Z</time>
      </trkpt>
      <trkpt lat="43.216" lon="5.6098">
        <ele>205</ele>
        <time>2018-01-17T15:14:08Z</time>
      </trkpt>
      <trkpt lat="43.21602" lon="5.60974">
        <ele>204</ele>
        <time>2018-01-17T15:14:12Z</time>
      </trkpt>
      <trkpt lat="43.21603" lon="5.60966">
        <ele>203</ele>
        <time>2018-01-17T15:14:16Z</time>
      </trkpt>
      <trkpt lat="43.21608" lon="5.6096">
        <ele>203</ele>
        <time>2018-01-17T15:14:22Z</time>
      </trkpt>
      <trkpt lat="43.2161" lon="5.60952">
        <ele>203</ele>
        <time>2018-01-17T15:14:26Z</time>
      </trkpt>
      <trkpt lat="43.21611" lon="5.60942">
        <ele>206</ele>
        <time>2018-01-17T15:14:30Z</time>
      </trkpt>
      <trkpt lat="43.21615" lon="5.60935">
        <ele>206</ele>
        <time>2018-01-17T15:14:36Z</time>
      </trkpt>
      <trkpt lat="43.21618" lon="5.6093">
        <ele>207</ele>
        <time>2018-01-17T15:14:40Z</time>
      </trkpt>
      <trkpt lat="43.2162" lon="5.60922">
        <ele>212</ele>
        <time>2018-01-17T15:14:44Z</time>
      </trkpt>
      <trkpt lat="43.21624" lon="5.60918">
        <ele>211</ele>
        <time>2018-01-17T15:14:48Z</time>
      </trkpt>
      <trkpt lat="43.21628" lon="5.60913">
        <ele>211</ele>
        <time>2018-01-17T15:14:54Z</time>
      </trkpt>
      <trkpt lat="43.21633" lon="5.60906">
        <ele>211</ele>
        <time>2018-01-17T15:15:00Z</time>
      </trkpt>
      <trkpt lat="43.21635" lon="5.60901">
        <ele>211</ele>
        <time>2018-01-17T15:15:04Z</time>
      </trkpt>
      <trkpt lat="43.21635" lon="5.60893">
        <ele>209</ele>
        <time>2018-01-17T15:15:10Z</time>
      </trkpt>
      <trkpt lat="43.21634" lon="5.60886">
        <ele>207</ele>
        <time>2018-01-17T15:15:16Z</time>
      </trkpt>
      <trkpt lat="43.21635" lon="5.60878">
        <ele>206</ele>
        <time>2018-01-17T15:15:22Z</time>
      </trkpt>
      <trkpt lat="43.21635" lon="5.60871">
        <ele>207</ele>
        <time>2018-01-17T15:15:26Z</time>
      </trkpt>
      <trkpt lat="43.21634" lon="5.60864">
        <ele>209</ele>
        <time>2018-01-17T15:15:30Z</time>
      </trkpt>
      <trkpt lat="43.21632" lon="5.60855">
        <ele>212</ele>
        <time>2018-01-17T15:15:36Z</time>
      </trkpt>
      <trkpt lat="43.2163" lon="5.60849">
        <ele>216</ele>
        <time>2018-01-17T15:15:40Z</time>
      </trkpt>
      <trkpt lat="43.21625" lon="5.60846">
        <ele>219</ele>
        <time>2018-01-17T15:15:44Z</time>
      </trkpt>
      <trkpt lat="43.21621" lon="5.60843">
        <ele>220</ele>
        <time>2018-01-17T15:15:48Z</time>
      </trkpt>
      <trkpt lat="43.21616" lon="5.60841">
        <ele>219</ele>
        <time>2018-01-17T15:15:52Z</time>
      </trkpt>
      <trkpt lat="43.21612" lon="5.60838">
        <ele>217</ele>
        <time>2018-01-17T15:15:56Z</time>
      </trkpt>
      <trkpt lat="43.21607" lon="5.60835">
        <ele>216</ele>
        <time>2018-01-17T15:16:00Z</time>
      </trkpt>
      <trkpt lat="43.21602" lon="5.60832">
        <ele>213</ele>
        <time>2018-01-17T15:16:06Z</time>
      </trkpt>
      <trkpt lat="43.21597" lon="5.60828">
        <ele>214</ele>
        <time>2018-01-17T15:16:10Z</time>
      </trkpt>
      <trkpt lat="43.21592" lon="5.60825">
        <ele>218</ele>
        <time>2018-01-17T15:16:14Z</time>
      </trkpt>
      <trkpt lat="43.21588" lon="5.60822">
        <ele>217</ele>
        <time>2018-01-17T15:16:18Z</time>
      </trkpt>
      <trkpt lat="43.21584" lon="5.60818">
        <ele>218</ele>
        <time>2018-01-17T15:16:22Z</time>
      </trkpt>
      <trkpt lat="43.2158" lon="5.60813">
        <ele>220</ele>
        <time>2018-01-17T15:16:26Z</time>
      </trkpt>
      <trkpt lat="43.21577" lon="5.60807">
        <ele>217</ele>
        <time>2018-01-17T15:16:32Z</time>
      </trkpt>
      <trkpt lat="43.21575" lon="5.608">
        <ele>214</ele>
        <time>2018-01-17T15:16:38Z</time>
      </trkpt>
      <trkpt lat="43.21578" lon="5.60793">
        <ele>211</ele>
        <time>2018-01-17T15:16:44Z</time>
      </trkpt>
      <trkpt lat="43.21578" lon="5.60785">
        <ele>210</ele>
        <time>2018-01-17T15:16:50Z</time>
      </trkpt>
      <trkpt lat="43.21578" lon="5.60778">
        <ele>210</ele>
        <time>2018-01-17T15:16:54Z</time>
      </trkpt>
      <trkpt lat="43.21579" lon="5.6077">
        <ele>212</ele>
        <time>2018-01-17T15:17:00Z</time>
      </trkpt>
      <trkpt lat="43.21581" lon="5.60762">
        <ele>212</ele>
        <time>2018-01-17T15:17:06Z</time>
      </trkpt>
      <trkpt lat="43.21579" lon="5.60751">
        <ele>213</ele>
        <time>2018-01-17T15:17:14Z</time>
      </trkpt>
      <trkpt lat="43.21575" lon="5.60745">
        <ele>214</ele>
        <time>2018-01-17T15:17:18Z</time>
      </trkpt>
      <trkpt lat="43.21573" lon="5.60739">
        <ele>212</ele>
        <time>2018-01-17T15:17:22Z</time>
      </trkpt>
      <trkpt lat="43.21569" lon="5.60733">
        <ele>211</ele>
        <time>2018-01-17T15:17:28Z</time>
      </trkpt>
      <trkpt lat="43.21565" lon="5.60731">
        <ele>208</ele>
        <time>2018-01-17T15:17:34Z</time>
      </trkpt>
      <trkpt lat="43.21559" lon="5.60729">
        <ele>207</ele>
        <time>2018-01-17T15:17:38Z</time>
      </trkpt>
      <trkpt lat="43.21554" lon="5.6073">
        <ele>208</ele>
        <time>2018-01-17T15:17:42Z</time>
      </trkpt>
      <trkpt lat="43.21548" lon="5.60729">
        <ele>207</ele>
        <time>2018-01-17T15:17:48Z</time>
      </trkpt>
      <trkpt lat="43.21543" lon="5.60728">
        <ele>206</ele>
        <time>2018-01-17T15:17:54Z</time>
      </trkpt>
      <trkpt lat="43.21537" lon="5.60726">
        <ele>209</ele>
        <time>2018-01-17T15:18:00Z</time>
      </trkpt>
      <trkpt lat="43.21531" lon="5.60728">
        <ele>211</ele>
        <time>2018-01-17T15:18:04Z</time>
      </trkpt>
      <trkpt lat="43.21526" lon="5.60728">
        <ele>211</ele>
        <time>2018-01-17T15:18:08Z</time>
      </trkpt>
      <trkpt lat="43.21522" lon="5.60731">
        <ele>210</ele>
        <time>2018-01-17T15:18:14Z</time>
      </trkpt>
      <trkpt lat="43.21515" lon="5.6073">
        <ele>211</ele>
        <time>2018-01-17T15:18:16Z</time>
      </trkpt>
      <trkpt lat="43.21513" lon="5.60738">
        <ele>210</ele>
        <time>2018-01-17T15:18:18Z</time>
      </trkpt>
      <trkpt lat="43.21504" lon="5.60731">
        <ele>209</ele>
        <time>2018-01-17T15:18:22Z</time>
      </trkpt>
      <trkpt lat="43.21499" lon="5.60735">
        <ele>210</ele>
        <time>2018-01-17T15:18:26Z</time>
      </trkpt>
      <trkpt lat="43.21494" lon="5.60737">
        <ele>210</ele>
        <time>2018-01-17T15:18:30Z</time>
      </trkpt>
      <trkpt lat="43.21488" lon="5.60732">
        <ele>207</ele>
        <time>2018-01-17T15:18:36Z</time>
      </trkpt>
      <trkpt lat="43.21484" lon="5.60727">
        <ele>211</ele>
        <time>2018-01-17T15:18:42Z</time>
      </trkpt>
      <trkpt lat="43.2148" lon="5.60721">
        <ele>212</ele>
        <time>2018-01-17T15:18:48Z</time>
      </trkpt>
      <trkpt lat="43.21476" lon="5.60717">
        <ele>216</ele>
        <time>2018-01-17T15:18:52Z</time>
      </trkpt>
      <trkpt lat="43.21471" lon="5.60714">
        <ele>212</ele>
        <time>2018-01-17T15:19:00Z</time>
      </trkpt>
      <trkpt lat="43.21468" lon="5.60708">
        <ele>211</ele>
        <time>2018-01-17T15:19:04Z</time>
      </trkpt>
      <trkpt lat="43.21464" lon="5.60702">
        <ele>215</ele>
        <time>2018-01-17T15:19:08Z</time>
      </trkpt>
      <trkpt lat="43.21459" lon="5.60702">
        <ele>216</ele>
        <time>2018-01-17T15:19:14Z</time>
      </trkpt>
      <trkpt lat="43.21455" lon="5.60699">
        <ele>216</ele>
        <time>2018-01-17T15:19:24Z</time>
      </trkpt>
      <trkpt lat="43.21449" lon="5.60691">
        <ele>213</ele>
        <time>2018-01-17T15:19:28Z</time>
      </trkpt>
      <trkpt lat="43.21445" lon="5.60686">
        <ele>216</ele>
        <time>2018-01-17T15:19:30Z</time>
      </trkpt>
      <trkpt lat="43.21441" lon="5.60681">
        <ele>213</ele>
        <time>2018-01-17T15:19:34Z</time>
      </trkpt>
      <trkpt lat="43.21436" lon="5.60679">
        <ele>214</ele>
        <time>2018-01-17T15:19:40Z</time>
      </trkpt>
      <trkpt lat="43.21432" lon="5.60676">
        <ele>212</ele>
        <time>2018-01-17T15:19:48Z</time>
      </trkpt>
      <trkpt lat="43.21428" lon="5.60671">
        <ele>208</ele>
        <time>2018-01-17T15:19:54Z</time>
      </trkpt>
      <trkpt lat="43.21423" lon="5.60668">
        <ele>204</ele>
        <time>2018-01-17T15:20:00Z</time>
      </trkpt>
      <trkpt lat="43.21418" lon="5.60662">
        <ele>204</ele>
        <time>2018-01-17T15:20:06Z</time>
      </trkpt>
      <trkpt lat="43.21413" lon="5.60658">
        <ele>201</ele>
        <time>2018-01-17T15:20:12Z</time>
      </trkpt>
      <trkpt lat="43.21407" lon="5.60651">
        <ele>202</ele>
        <time>2018-01-17T15:20:16Z</time>
      </trkpt>
      <trkpt lat="43.21403" lon="5.60643">
        <ele>202</ele>
        <time>2018-01-17T15:20:20Z</time>
      </trkpt>
      <trkpt lat="43.21398" lon="5.60638">
        <ele>202</ele>
        <time>2018-01-17T15:20:24Z</time>
      </trkpt>
      <trkpt lat="43.21396" lon="5.60632">
        <ele>203</ele>
        <time>2018-01-17T15:20:28Z</time>
      </trkpt>
      <trkpt lat="43.21393" lon="5.60626">
        <ele>201</ele>
        <time>2018-01-17T15:20:32Z</time>
      </trkpt>
      <trkpt lat="43.21388" lon="5.60622">
        <ele>201</ele>
        <time>2018-01-17T15:20:36Z</time>
      </trkpt>
      <trkpt lat="43.21385" lon="5.60617">
        <ele>202</ele>
        <time>2018-01-17T15:20:40Z</time>
      </trkpt>
      <trkpt lat="43.21382" lon="5.6061">
        <ele>200</ele>
        <time>2018-01-17T15:20:46Z</time>
      </trkpt>
      <trkpt lat="43.2138" lon="5.60603">
        <ele>201</ele>
        <time>2018-01-17T15:20:52Z</time>
      </trkpt>
      <trkpt lat="43.21376" lon="5.60595">
        <ele>201</ele>
        <time>2018-01-17T15:20:58Z</time>
      </trkpt>
      <trkpt lat="43.21372" lon="5.6059">
        <ele>199</ele>
        <time>2018-01-17T15:21:04Z</time>
      </trkpt>
      <trkpt lat="43.21367" lon="5.60585">
        <ele>200</ele>
        <time>2018-01-17T15:21:10Z</time>
      </trkpt>
      <trkpt lat="43.21362" lon="5.60582">
        <ele>201</ele>
        <time>2018-01-17T15:21:16Z</time>
      </trkpt>
      <trkpt lat="43.21356" lon="5.60584">
        <ele>200</ele>
        <time>2018-01-17T15:21:22Z</time>
      </trkpt>
      <trkpt lat="43.21352" lon="5.6059">
        <ele>201</ele>
        <time>2018-01-17T15:21:30Z</time>
      </trkpt>
    </trkseg>
  </trk>
</gpx>